<?xml version="1.0" encoding="UTF-8" standalone="no" ?>
<gpx xmlns="http://www.topografix.com/GPX/1/1" xmlns:xsi="http://www.w3.org/2001/XMLSchema-instance" xsi:schemaLocation="http://www.topografix.com/GPX/1/1 http://www.topografix.com/GPX/1/1/gpx.xsd" version="1.1" creator="VisuGPX - https://www.visugpx.com">
  <metadata>
    <name>CAP berges Rhône</name>
    <desc><![CDATA[CAP Berges nord du Rhône]]></desc>
  </metadata>
  <wpt lat="45.76995" lon="4.82463">
    <ele>266</ele>
    <name><![CDATA[Start]]></name>
  </wpt>
  <wpt lat="45.76985" lon="4.82496">
    <ele>267.99942016602</ele>
    <name><![CDATA[End]]></name>
  </wpt>
  <trk>
    <name><![CDATA[CAP berges Rhône_1]]></name>
    <trkseg>
      <trkpt lat="45.76995" lon="4.82463">
        <ele>266</ele>
        <time>2011-06-19T07:55:36Z</time>
      </trkpt>
      <trkpt lat="45.76997" lon="4.82462">
        <ele>264</ele>
        <time>2011-06-19T07:55:38Z</time>
      </trkpt>
      <trkpt lat="45.76996" lon="4.82462">
        <ele>264.21209716797</ele>
        <time>2011-06-19T07:55:39Z</time>
      </trkpt>
      <trkpt lat="45.76992" lon="4.82461">
        <ele>267.30844116211</ele>
        <time>2011-06-19T07:55:39Z</time>
      </trkpt>
      <trkpt lat="45.76969" lon="4.82444">
        <ele>274</ele>
        <time>2011-06-19T07:55:44Z</time>
      </trkpt>
      <trkpt lat="45.76968" lon="4.8244">
        <ele>277</ele>
        <time>2011-06-19T07:55:45Z</time>
      </trkpt>
      <trkpt lat="45.76967" lon="4.8244">
        <ele>282</ele>
        <time>2011-06-19T07:55:46Z</time>
      </trkpt>
      <trkpt lat="45.76968" lon="4.82441">
        <ele>283</ele>
        <time>2011-06-19T07:55:47Z</time>
      </trkpt>
      <trkpt lat="45.76964" lon="4.82441">
        <ele>286</ele>
        <time>2011-06-19T07:55:48Z</time>
      </trkpt>
      <trkpt lat="45.76963" lon="4.82442">
        <ele>282</ele>
        <time>2011-06-19T07:55:49Z</time>
      </trkpt>
      <trkpt lat="45.76961" lon="4.82445">
        <ele>275</ele>
        <time>2011-06-19T07:55:50Z</time>
      </trkpt>
      <trkpt lat="45.7696" lon="4.82442">
        <ele>278</ele>
        <time>2011-06-19T07:55:51Z</time>
      </trkpt>
      <trkpt lat="45.76958" lon="4.82446">
        <ele>282</ele>
        <time>2011-06-19T07:55:52Z</time>
      </trkpt>
      <trkpt lat="45.76956" lon="4.82448">
        <ele>281</ele>
        <time>2011-06-19T07:55:53Z</time>
      </trkpt>
      <trkpt lat="45.76954" lon="4.82452">
        <ele>279</ele>
        <time>2011-06-19T07:55:54Z</time>
      </trkpt>
      <trkpt lat="45.76954" lon="4.82455">
        <ele>277</ele>
        <time>2011-06-19T07:55:55Z</time>
      </trkpt>
      <trkpt lat="45.76953" lon="4.82457">
        <ele>276</ele>
        <time>2011-06-19T07:55:56Z</time>
      </trkpt>
      <trkpt lat="45.76952" lon="4.8246">
        <ele>276</ele>
        <time>2011-06-19T07:55:57Z</time>
      </trkpt>
      <trkpt lat="45.76952" lon="4.82463">
        <ele>273</ele>
        <time>2011-06-19T07:55:58Z</time>
      </trkpt>
      <trkpt lat="45.76952" lon="4.82467">
        <ele>273</ele>
        <time>2011-06-19T07:55:59Z</time>
      </trkpt>
      <trkpt lat="45.76951" lon="4.82472">
        <ele>271</ele>
        <time>2011-06-19T07:56:00Z</time>
      </trkpt>
      <trkpt lat="45.76953" lon="4.82476">
        <ele>270</ele>
        <time>2011-06-19T07:56:01Z</time>
      </trkpt>
      <trkpt lat="45.76953" lon="4.82481">
        <ele>270</ele>
        <time>2011-06-19T07:56:02Z</time>
      </trkpt>
      <trkpt lat="45.76953" lon="4.82486">
        <ele>269</ele>
        <time>2011-06-19T07:56:03Z</time>
      </trkpt>
      <trkpt lat="45.76953" lon="4.82492">
        <ele>268</ele>
        <time>2011-06-19T07:56:04Z</time>
      </trkpt>
      <trkpt lat="45.76953" lon="4.82497">
        <ele>266</ele>
        <time>2011-06-19T07:56:05Z</time>
      </trkpt>
      <trkpt lat="45.76952" lon="4.82502">
        <ele>266</ele>
        <time>2011-06-19T07:56:06Z</time>
      </trkpt>
      <trkpt lat="45.76951" lon="4.82506">
        <ele>264</ele>
        <time>2011-06-19T07:56:07Z</time>
      </trkpt>
      <trkpt lat="45.76952" lon="4.82514">
        <ele>260</ele>
        <time>2011-06-19T07:56:08Z</time>
      </trkpt>
      <trkpt lat="45.76952" lon="4.82519">
        <ele>257</ele>
        <time>2011-06-19T07:56:09Z</time>
      </trkpt>
      <trkpt lat="45.76952" lon="4.82523">
        <ele>257</ele>
        <time>2011-06-19T07:56:10Z</time>
      </trkpt>
      <trkpt lat="45.76952" lon="4.82526">
        <ele>256</ele>
        <time>2011-06-19T07:56:11Z</time>
      </trkpt>
      <trkpt lat="45.76952" lon="4.82529">
        <ele>256</ele>
        <time>2011-06-19T07:56:12Z</time>
      </trkpt>
      <trkpt lat="45.76951" lon="4.82532">
        <ele>256</ele>
        <time>2011-06-19T07:56:13Z</time>
      </trkpt>
      <trkpt lat="45.7695" lon="4.82535">
        <ele>256</ele>
        <time>2011-06-19T07:56:14Z</time>
      </trkpt>
      <trkpt lat="45.7695" lon="4.82539">
        <ele>257</ele>
        <time>2011-06-19T07:56:15Z</time>
      </trkpt>
      <trkpt lat="45.76949" lon="4.82542">
        <ele>257</ele>
        <time>2011-06-19T07:56:16Z</time>
      </trkpt>
      <trkpt lat="45.76951" lon="4.82544">
        <ele>256</ele>
        <time>2011-06-19T07:56:17Z</time>
      </trkpt>
      <trkpt lat="45.7695" lon="4.82549">
        <ele>256</ele>
        <time>2011-06-19T07:56:18Z</time>
      </trkpt>
      <trkpt lat="45.76949" lon="4.82554">
        <ele>256</ele>
        <time>2011-06-19T07:56:19Z</time>
      </trkpt>
      <trkpt lat="45.76949" lon="4.82558">
        <ele>256</ele>
        <time>2011-06-19T07:56:20Z</time>
      </trkpt>
      <trkpt lat="45.76949" lon="4.82562">
        <ele>256</ele>
        <time>2011-06-19T07:56:21Z</time>
      </trkpt>
      <trkpt lat="45.76949" lon="4.82565">
        <ele>256</ele>
        <time>2011-06-19T07:56:22Z</time>
      </trkpt>
      <trkpt lat="45.76948" lon="4.82568">
        <ele>256</ele>
        <time>2011-06-19T07:56:23Z</time>
      </trkpt>
      <trkpt lat="45.76948" lon="4.82574">
        <ele>255</ele>
        <time>2011-06-19T07:56:24Z</time>
      </trkpt>
      <trkpt lat="45.76949" lon="4.8258">
        <ele>253</ele>
        <time>2011-06-19T07:56:25Z</time>
      </trkpt>
      <trkpt lat="45.7695" lon="4.82585">
        <ele>252</ele>
        <time>2011-06-19T07:56:26Z</time>
      </trkpt>
      <trkpt lat="45.76949" lon="4.8259">
        <ele>252</ele>
        <time>2011-06-19T07:56:27Z</time>
      </trkpt>
      <trkpt lat="45.76951" lon="4.82595">
        <ele>251</ele>
        <time>2011-06-19T07:56:28Z</time>
      </trkpt>
      <trkpt lat="45.76951" lon="4.82599">
        <ele>250</ele>
        <time>2011-06-19T07:56:29Z</time>
      </trkpt>
      <trkpt lat="45.76952" lon="4.82603">
        <ele>249</ele>
        <time>2011-06-19T07:56:30Z</time>
      </trkpt>
      <trkpt lat="45.7695" lon="4.82608">
        <ele>249</ele>
        <time>2011-06-19T07:56:31Z</time>
      </trkpt>
      <trkpt lat="45.7695" lon="4.82612">
        <ele>248</ele>
        <time>2011-06-19T07:56:32Z</time>
      </trkpt>
      <trkpt lat="45.7695" lon="4.82616">
        <ele>248</ele>
        <time>2011-06-19T07:56:33Z</time>
      </trkpt>
      <trkpt lat="45.76951" lon="4.8262">
        <ele>249</ele>
        <time>2011-06-19T07:56:34Z</time>
      </trkpt>
      <trkpt lat="45.7695" lon="4.82623">
        <ele>249</ele>
        <time>2011-06-19T07:56:35Z</time>
      </trkpt>
      <trkpt lat="45.7695" lon="4.82626">
        <ele>249</ele>
        <time>2011-06-19T07:56:36Z</time>
      </trkpt>
      <trkpt lat="45.7695" lon="4.8263">
        <ele>249</ele>
        <time>2011-06-19T07:56:37Z</time>
      </trkpt>
      <trkpt lat="45.7695" lon="4.82633">
        <ele>249</ele>
        <time>2011-06-19T07:56:38Z</time>
      </trkpt>
      <trkpt lat="45.7695" lon="4.82638">
        <ele>250</ele>
        <time>2011-06-19T07:56:39Z</time>
      </trkpt>
      <trkpt lat="45.7695" lon="4.82642">
        <ele>250</ele>
        <time>2011-06-19T07:56:40Z</time>
      </trkpt>
      <trkpt lat="45.7695" lon="4.82647">
        <ele>249</ele>
        <time>2011-06-19T07:56:41Z</time>
      </trkpt>
      <trkpt lat="45.76951" lon="4.8265">
        <ele>250</ele>
        <time>2011-06-19T07:56:42Z</time>
      </trkpt>
      <trkpt lat="45.76952" lon="4.82655">
        <ele>250</ele>
        <time>2011-06-19T07:56:43Z</time>
      </trkpt>
      <trkpt lat="45.76951" lon="4.8266">
        <ele>250</ele>
        <time>2011-06-19T07:56:44Z</time>
      </trkpt>
      <trkpt lat="45.76953" lon="4.82664">
        <ele>250</ele>
        <time>2011-06-19T07:56:45Z</time>
      </trkpt>
      <trkpt lat="45.76952" lon="4.82668">
        <ele>251</ele>
        <time>2011-06-19T07:56:46Z</time>
      </trkpt>
      <trkpt lat="45.76952" lon="4.82672">
        <ele>251</ele>
        <time>2011-06-19T07:56:47Z</time>
      </trkpt>
      <trkpt lat="45.76952" lon="4.82676">
        <ele>251</ele>
        <time>2011-06-19T07:56:48Z</time>
      </trkpt>
      <trkpt lat="45.76952" lon="4.82679">
        <ele>251</ele>
        <time>2011-06-19T07:56:49Z</time>
      </trkpt>
      <trkpt lat="45.76952" lon="4.82682">
        <ele>251</ele>
        <time>2011-06-19T07:56:50Z</time>
      </trkpt>
      <trkpt lat="45.76952" lon="4.82686">
        <ele>251</ele>
        <time>2011-06-19T07:56:51Z</time>
      </trkpt>
      <trkpt lat="45.76953" lon="4.8269">
        <ele>251</ele>
        <time>2011-06-19T07:56:52Z</time>
      </trkpt>
      <trkpt lat="45.76952" lon="4.82693">
        <ele>251</ele>
        <time>2011-06-19T07:56:53Z</time>
      </trkpt>
      <trkpt lat="45.76952" lon="4.82696">
        <ele>251</ele>
        <time>2011-06-19T07:56:54Z</time>
      </trkpt>
      <trkpt lat="45.76954" lon="4.82699">
        <ele>250</ele>
        <time>2011-06-19T07:56:55Z</time>
      </trkpt>
      <trkpt lat="45.76955" lon="4.82704">
        <ele>250</ele>
        <time>2011-06-19T07:56:56Z</time>
      </trkpt>
      <trkpt lat="45.76956" lon="4.8271">
        <ele>249</ele>
        <time>2011-06-19T07:56:57Z</time>
      </trkpt>
      <trkpt lat="45.76956" lon="4.82713">
        <ele>250</ele>
        <time>2011-06-19T07:56:58Z</time>
      </trkpt>
      <trkpt lat="45.76956" lon="4.82718">
        <ele>250</ele>
        <time>2011-06-19T07:56:59Z</time>
      </trkpt>
      <trkpt lat="45.76955" lon="4.82723">
        <ele>250</ele>
        <time>2011-06-19T07:57:00Z</time>
      </trkpt>
      <trkpt lat="45.76955" lon="4.82727">
        <ele>250</ele>
        <time>2011-06-19T07:57:01Z</time>
      </trkpt>
      <trkpt lat="45.76955" lon="4.82732">
        <ele>250</ele>
        <time>2011-06-19T07:57:02Z</time>
      </trkpt>
      <trkpt lat="45.76954" lon="4.82736">
        <ele>250</ele>
        <time>2011-06-19T07:57:03Z</time>
      </trkpt>
      <trkpt lat="45.76953" lon="4.8274">
        <ele>249</ele>
        <time>2011-06-19T07:57:04Z</time>
      </trkpt>
      <trkpt lat="45.76954" lon="4.82742">
        <ele>249</ele>
        <time>2011-06-19T07:57:05Z</time>
      </trkpt>
      <trkpt lat="45.76955" lon="4.82745">
        <ele>249</ele>
        <time>2011-06-19T07:57:06Z</time>
      </trkpt>
      <trkpt lat="45.76954" lon="4.82749">
        <ele>248</ele>
        <time>2011-06-19T07:57:07Z</time>
      </trkpt>
      <trkpt lat="45.76955" lon="4.82752">
        <ele>248</ele>
        <time>2011-06-19T07:57:08Z</time>
      </trkpt>
      <trkpt lat="45.76956" lon="4.82757">
        <ele>248</ele>
        <time>2011-06-19T07:57:09Z</time>
      </trkpt>
      <trkpt lat="45.76957" lon="4.82762">
        <ele>247</ele>
        <time>2011-06-19T07:57:10Z</time>
      </trkpt>
      <trkpt lat="45.76956" lon="4.82767">
        <ele>247</ele>
        <time>2011-06-19T07:57:11Z</time>
      </trkpt>
      <trkpt lat="45.76956" lon="4.8277">
        <ele>247</ele>
        <time>2011-06-19T07:57:12Z</time>
      </trkpt>
      <trkpt lat="45.76957" lon="4.82772">
        <ele>247</ele>
        <time>2011-06-19T07:57:13Z</time>
      </trkpt>
      <trkpt lat="45.76959" lon="4.82775">
        <ele>247</ele>
        <time>2011-06-19T07:57:14Z</time>
      </trkpt>
      <trkpt lat="45.76958" lon="4.82778">
        <ele>248</ele>
        <time>2011-06-19T07:57:15Z</time>
      </trkpt>
      <trkpt lat="45.76958" lon="4.82782">
        <ele>248</ele>
        <time>2011-06-19T07:57:16Z</time>
      </trkpt>
      <trkpt lat="45.76957" lon="4.82786">
        <ele>249</ele>
        <time>2011-06-19T07:57:17Z</time>
      </trkpt>
      <trkpt lat="45.76958" lon="4.82789">
        <ele>248</ele>
        <time>2011-06-19T07:57:18Z</time>
      </trkpt>
      <trkpt lat="45.76959" lon="4.82792">
        <ele>249</ele>
        <time>2011-06-19T07:57:19Z</time>
      </trkpt>
      <trkpt lat="45.76961" lon="4.82794">
        <ele>249</ele>
        <time>2011-06-19T07:57:20Z</time>
      </trkpt>
      <trkpt lat="45.76962" lon="4.82795">
        <ele>249</ele>
        <time>2011-06-19T07:57:21Z</time>
      </trkpt>
      <trkpt lat="45.76964" lon="4.82798">
        <ele>249</ele>
        <time>2011-06-19T07:57:22Z</time>
      </trkpt>
      <trkpt lat="45.76964" lon="4.82801">
        <ele>249</ele>
        <time>2011-06-19T07:57:23Z</time>
      </trkpt>
      <trkpt lat="45.76965" lon="4.82805">
        <ele>249</ele>
        <time>2011-06-19T07:57:24Z</time>
      </trkpt>
      <trkpt lat="45.76966" lon="4.82808">
        <ele>248</ele>
        <time>2011-06-19T07:57:25Z</time>
      </trkpt>
      <trkpt lat="45.76968" lon="4.82814">
        <ele>247</ele>
        <time>2011-06-19T07:57:26Z</time>
      </trkpt>
      <trkpt lat="45.76969" lon="4.82819">
        <ele>246</ele>
        <time>2011-06-19T07:57:27Z</time>
      </trkpt>
      <trkpt lat="45.76971" lon="4.82824">
        <ele>245</ele>
        <time>2011-06-19T07:57:28Z</time>
      </trkpt>
      <trkpt lat="45.76973" lon="4.82831">
        <ele>244</ele>
        <time>2011-06-19T07:57:29Z</time>
      </trkpt>
      <trkpt lat="45.76974" lon="4.82837">
        <ele>243</ele>
        <time>2011-06-19T07:57:30Z</time>
      </trkpt>
      <trkpt lat="45.76976" lon="4.82843">
        <ele>242</ele>
        <time>2011-06-19T07:57:31Z</time>
      </trkpt>
      <trkpt lat="45.76978" lon="4.82848">
        <ele>241</ele>
        <time>2011-06-19T07:57:32Z</time>
      </trkpt>
      <trkpt lat="45.7698" lon="4.82852">
        <ele>241</ele>
        <time>2011-06-19T07:57:33Z</time>
      </trkpt>
      <trkpt lat="45.76982" lon="4.82857">
        <ele>241</ele>
        <time>2011-06-19T07:57:34Z</time>
      </trkpt>
      <trkpt lat="45.76984" lon="4.8286">
        <ele>240</ele>
        <time>2011-06-19T07:57:35Z</time>
      </trkpt>
      <trkpt lat="45.76986" lon="4.82864">
        <ele>240</ele>
        <time>2011-06-19T07:57:36Z</time>
      </trkpt>
      <trkpt lat="45.76989" lon="4.82867">
        <ele>240</ele>
        <time>2011-06-19T07:57:37Z</time>
      </trkpt>
      <trkpt lat="45.7699" lon="4.8287">
        <ele>240</ele>
        <time>2011-06-19T07:57:38Z</time>
      </trkpt>
      <trkpt lat="45.76995" lon="4.82873">
        <ele>240</ele>
        <time>2011-06-19T07:57:39Z</time>
      </trkpt>
      <trkpt lat="45.76997" lon="4.82876">
        <ele>240</ele>
        <time>2011-06-19T07:57:40Z</time>
      </trkpt>
      <trkpt lat="45.76998" lon="4.82881">
        <ele>240</ele>
        <time>2011-06-19T07:57:41Z</time>
      </trkpt>
      <trkpt lat="45.77" lon="4.82885">
        <ele>240</ele>
        <time>2011-06-19T07:57:43Z</time>
      </trkpt>
      <trkpt lat="45.77002" lon="4.82888">
        <ele>240</ele>
        <time>2011-06-19T07:57:43Z</time>
      </trkpt>
      <trkpt lat="45.77003" lon="4.82893">
        <ele>240</ele>
        <time>2011-06-19T07:57:44Z</time>
      </trkpt>
      <trkpt lat="45.77006" lon="4.82897">
        <ele>240</ele>
        <time>2011-06-19T07:57:45Z</time>
      </trkpt>
      <trkpt lat="45.77005" lon="4.82902">
        <ele>240</ele>
        <time>2011-06-19T07:57:46Z</time>
      </trkpt>
      <trkpt lat="45.77006" lon="4.82906">
        <ele>240</ele>
        <time>2011-06-19T07:57:47Z</time>
      </trkpt>
      <trkpt lat="45.77002" lon="4.82911">
        <ele>240</ele>
        <time>2011-06-19T07:57:48Z</time>
      </trkpt>
      <trkpt lat="45.76996" lon="4.82916">
        <ele>240</ele>
        <time>2011-06-19T07:57:49Z</time>
      </trkpt>
      <trkpt lat="45.76993" lon="4.8292">
        <ele>239</ele>
        <time>2011-06-19T07:57:50Z</time>
      </trkpt>
      <trkpt lat="45.76987" lon="4.82923">
        <ele>239</ele>
        <time>2011-06-19T07:57:51Z</time>
      </trkpt>
      <trkpt lat="45.76982" lon="4.82925">
        <ele>239</ele>
        <time>2011-06-19T07:57:52Z</time>
      </trkpt>
      <trkpt lat="45.76978" lon="4.82928">
        <ele>239</ele>
        <time>2011-06-19T07:57:53Z</time>
      </trkpt>
      <trkpt lat="45.76976" lon="4.8293">
        <ele>240</ele>
        <time>2011-06-19T07:57:54Z</time>
      </trkpt>
      <trkpt lat="45.76975" lon="4.8293">
        <ele>240</ele>
        <time>2011-06-19T07:57:55Z</time>
      </trkpt>
      <trkpt lat="45.76971" lon="4.82932">
        <ele>240</ele>
        <time>2011-06-19T07:57:56Z</time>
      </trkpt>
      <trkpt lat="45.76969" lon="4.82934">
        <ele>239</ele>
        <time>2011-06-19T07:57:57Z</time>
      </trkpt>
      <trkpt lat="45.76966" lon="4.82937">
        <ele>240</ele>
        <time>2011-06-19T07:57:58Z</time>
      </trkpt>
      <trkpt lat="45.76966" lon="4.82937">
        <ele>241</ele>
        <time>2011-06-19T07:57:59Z</time>
      </trkpt>
      <trkpt lat="45.76964" lon="4.82938">
        <ele>241</ele>
        <time>2011-06-19T07:58:00Z</time>
      </trkpt>
      <trkpt lat="45.76964" lon="4.82941">
        <ele>241</ele>
        <time>2011-06-19T07:58:01Z</time>
      </trkpt>
      <trkpt lat="45.76965" lon="4.82949">
        <ele>239.64845275879</ele>
        <time>2011-06-19T07:58:02Z</time>
      </trkpt>
      <trkpt lat="45.76965" lon="4.82959">
        <ele>238</ele>
        <time>2011-06-19T07:58:03Z</time>
      </trkpt>
      <trkpt lat="45.76967" lon="4.82963">
        <ele>237</ele>
        <time>2011-06-19T07:58:04Z</time>
      </trkpt>
      <trkpt lat="45.76965" lon="4.82969">
        <ele>236</ele>
        <time>2011-06-19T07:58:05Z</time>
      </trkpt>
      <trkpt lat="45.76965" lon="4.82974">
        <ele>236</ele>
        <time>2011-06-19T07:58:06Z</time>
      </trkpt>
      <trkpt lat="45.76966" lon="4.82978">
        <ele>236</ele>
        <time>2011-06-19T07:58:07Z</time>
      </trkpt>
      <trkpt lat="45.76965" lon="4.82983">
        <ele>237</ele>
        <time>2011-06-19T07:58:08Z</time>
      </trkpt>
      <trkpt lat="45.76967" lon="4.82987">
        <ele>238</ele>
        <time>2011-06-19T07:58:09Z</time>
      </trkpt>
      <trkpt lat="45.76967" lon="4.82991">
        <ele>238</ele>
        <time>2011-06-19T07:58:10Z</time>
      </trkpt>
      <trkpt lat="45.76966" lon="4.82996">
        <ele>238</ele>
        <time>2011-06-19T07:58:11Z</time>
      </trkpt>
      <trkpt lat="45.76967" lon="4.82999">
        <ele>239</ele>
        <time>2011-06-19T07:58:12Z</time>
      </trkpt>
      <trkpt lat="45.76967" lon="4.83004">
        <ele>239</ele>
        <time>2011-06-19T07:58:13Z</time>
      </trkpt>
      <trkpt lat="45.76969" lon="4.83008">
        <ele>240</ele>
        <time>2011-06-19T07:58:14Z</time>
      </trkpt>
      <trkpt lat="45.76968" lon="4.83012">
        <ele>241</ele>
        <time>2011-06-19T07:58:15Z</time>
      </trkpt>
      <trkpt lat="45.76969" lon="4.83016">
        <ele>241</ele>
        <time>2011-06-19T07:58:16Z</time>
      </trkpt>
      <trkpt lat="45.76968" lon="4.8302">
        <ele>244</ele>
        <time>2011-06-19T07:58:17Z</time>
      </trkpt>
      <trkpt lat="45.76966" lon="4.83022">
        <ele>244</ele>
        <time>2011-06-19T07:58:18Z</time>
      </trkpt>
      <trkpt lat="45.76964" lon="4.83024">
        <ele>243</ele>
        <time>2011-06-19T07:58:19Z</time>
      </trkpt>
      <trkpt lat="45.76963" lon="4.83029">
        <ele>242</ele>
        <time>2011-06-19T07:58:20Z</time>
      </trkpt>
      <trkpt lat="45.76961" lon="4.83033">
        <ele>241</ele>
        <time>2011-06-19T07:58:21Z</time>
      </trkpt>
      <trkpt lat="45.7696" lon="4.83038">
        <ele>241</ele>
        <time>2011-06-19T07:58:22Z</time>
      </trkpt>
      <trkpt lat="45.76958" lon="4.83042">
        <ele>241</ele>
        <time>2011-06-19T07:58:23Z</time>
      </trkpt>
      <trkpt lat="45.7696" lon="4.83047">
        <ele>240</ele>
        <time>2011-06-19T07:58:24Z</time>
      </trkpt>
      <trkpt lat="45.76961" lon="4.83052">
        <ele>240</ele>
        <time>2011-06-19T07:58:25Z</time>
      </trkpt>
      <trkpt lat="45.76961" lon="4.83057">
        <ele>240</ele>
        <time>2011-06-19T07:58:26Z</time>
      </trkpt>
      <trkpt lat="45.76961" lon="4.83062">
        <ele>240</ele>
        <time>2011-06-19T07:58:27Z</time>
      </trkpt>
      <trkpt lat="45.76962" lon="4.83066">
        <ele>239</ele>
        <time>2011-06-19T07:58:28Z</time>
      </trkpt>
      <trkpt lat="45.76963" lon="4.83069">
        <ele>239</ele>
        <time>2011-06-19T07:58:29Z</time>
      </trkpt>
      <trkpt lat="45.76963" lon="4.83071">
        <ele>239</ele>
        <time>2011-06-19T07:58:30Z</time>
      </trkpt>
      <trkpt lat="45.76965" lon="4.83075">
        <ele>240</ele>
        <time>2011-06-19T07:58:31Z</time>
      </trkpt>
      <trkpt lat="45.76965" lon="4.8308">
        <ele>240</ele>
        <time>2011-06-19T07:58:32Z</time>
      </trkpt>
      <trkpt lat="45.76966" lon="4.83082">
        <ele>240</ele>
        <time>2011-06-19T07:58:33Z</time>
      </trkpt>
      <trkpt lat="45.76966" lon="4.83086">
        <ele>241</ele>
        <time>2011-06-19T07:58:34Z</time>
      </trkpt>
      <trkpt lat="45.76965" lon="4.83091">
        <ele>241</ele>
        <time>2011-06-19T07:58:35Z</time>
      </trkpt>
      <trkpt lat="45.76965" lon="4.83094">
        <ele>241</ele>
        <time>2011-06-19T07:58:36Z</time>
      </trkpt>
      <trkpt lat="45.76967" lon="4.83097">
        <ele>242</ele>
        <time>2011-06-19T07:58:37Z</time>
      </trkpt>
      <trkpt lat="45.76968" lon="4.83101">
        <ele>243</ele>
        <time>2011-06-19T07:58:38Z</time>
      </trkpt>
      <trkpt lat="45.76968" lon="4.83106">
        <ele>244</ele>
        <time>2011-06-19T07:58:39Z</time>
      </trkpt>
      <trkpt lat="45.76968" lon="4.83111">
        <ele>246</ele>
        <time>2011-06-19T07:58:40Z</time>
      </trkpt>
      <trkpt lat="45.76968" lon="4.83114">
        <ele>247</ele>
        <time>2011-06-19T07:58:41Z</time>
      </trkpt>
      <trkpt lat="45.76973" lon="4.8311">
        <ele>246.00927734375</ele>
        <time>2011-06-19T07:58:42Z</time>
      </trkpt>
      <trkpt lat="45.76975" lon="4.8311">
        <ele>247</ele>
        <time>2011-06-19T07:58:43Z</time>
      </trkpt>
      <trkpt lat="45.76973" lon="4.83108">
        <ele>249</ele>
        <time>2011-06-19T07:58:44Z</time>
      </trkpt>
      <trkpt lat="45.76972" lon="4.8311">
        <ele>249</ele>
        <time>2011-06-19T07:58:45Z</time>
      </trkpt>
      <trkpt lat="45.7697" lon="4.83111">
        <ele>250</ele>
        <time>2011-06-19T07:58:46Z</time>
      </trkpt>
      <trkpt lat="45.7697" lon="4.83112">
        <ele>251</ele>
        <time>2011-06-19T07:58:47Z</time>
      </trkpt>
      <trkpt lat="45.76974" lon="4.83115">
        <ele>251</ele>
        <time>2011-06-19T07:58:48Z</time>
      </trkpt>
      <trkpt lat="45.76977" lon="4.83117">
        <ele>252</ele>
        <time>2011-06-19T07:58:49Z</time>
      </trkpt>
      <trkpt lat="45.76979" lon="4.8312">
        <ele>252</ele>
        <time>2011-06-19T07:58:50Z</time>
      </trkpt>
      <trkpt lat="45.76982" lon="4.83123">
        <ele>253</ele>
        <time>2011-06-19T07:58:51Z</time>
      </trkpt>
      <trkpt lat="45.76983" lon="4.83126">
        <ele>253</ele>
        <time>2011-06-19T07:58:52Z</time>
      </trkpt>
      <trkpt lat="45.76986" lon="4.83129">
        <ele>253</ele>
        <time>2011-06-19T07:58:53Z</time>
      </trkpt>
      <trkpt lat="45.76988" lon="4.83129">
        <ele>254</ele>
        <time>2011-06-19T07:58:54Z</time>
      </trkpt>
      <trkpt lat="45.76988" lon="4.83132">
        <ele>255</ele>
        <time>2011-06-19T07:58:55Z</time>
      </trkpt>
      <trkpt lat="45.76989" lon="4.83133">
        <ele>255</ele>
        <time>2011-06-19T07:58:56Z</time>
      </trkpt>
      <trkpt lat="45.7699" lon="4.83136">
        <ele>255</ele>
        <time>2011-06-19T07:58:57Z</time>
      </trkpt>
      <trkpt lat="45.76985" lon="4.83139">
        <ele>254.31245422363</ele>
        <time>2011-06-19T07:58:58Z</time>
      </trkpt>
      <trkpt lat="45.76978" lon="4.83143">
        <ele>254.81750488281</ele>
        <time>2011-06-19T07:58:59Z</time>
      </trkpt>
      <trkpt lat="45.76973" lon="4.83149">
        <ele>256</ele>
        <time>2011-06-19T07:59:00Z</time>
      </trkpt>
      <trkpt lat="45.76966" lon="4.83153">
        <ele>259.54272460938</ele>
        <time>2011-06-19T07:59:01Z</time>
      </trkpt>
      <trkpt lat="45.7696" lon="4.83153">
        <ele>263</ele>
        <time>2011-06-19T07:59:02Z</time>
      </trkpt>
      <trkpt lat="45.76955" lon="4.83147">
        <ele>264</ele>
        <time>2011-06-19T07:59:03Z</time>
      </trkpt>
      <trkpt lat="45.76957" lon="4.83136">
        <ele>263.05459594727</ele>
        <time>2011-06-19T07:59:04Z</time>
      </trkpt>
      <trkpt lat="45.76956" lon="4.83137">
        <ele>263</ele>
        <time>2011-06-19T07:59:05Z</time>
      </trkpt>
      <trkpt lat="45.76952" lon="4.83139">
        <ele>263.64712524414</ele>
        <time>2011-06-19T07:59:06Z</time>
      </trkpt>
      <trkpt lat="45.76944" lon="4.83141">
        <ele>264.81677246094</ele>
        <time>2011-06-19T07:59:07Z</time>
      </trkpt>
      <trkpt lat="45.76937" lon="4.83143">
        <ele>265.71939086914</ele>
        <time>2011-06-19T07:59:08Z</time>
      </trkpt>
      <trkpt lat="45.7693" lon="4.83144">
        <ele>265.89471435547</ele>
        <time>2011-06-19T07:59:09Z</time>
      </trkpt>
      <trkpt lat="45.76922" lon="4.83145">
        <ele>265.96343994141</ele>
        <time>2011-06-19T07:59:10Z</time>
      </trkpt>
      <trkpt lat="45.76915" lon="4.83148">
        <ele>265.98837280273</ele>
        <time>2011-06-19T07:59:11Z</time>
      </trkpt>
      <trkpt lat="45.76907" lon="4.8315">
        <ele>265.31890869141</ele>
        <time>2011-06-19T07:59:12Z</time>
      </trkpt>
      <trkpt lat="45.769" lon="4.83153">
        <ele>264.51663208008</ele>
        <time>2011-06-19T07:59:13Z</time>
      </trkpt>
      <trkpt lat="45.76892" lon="4.83155">
        <ele>263.50134277344</ele>
        <time>2011-06-19T07:59:14Z</time>
      </trkpt>
      <trkpt lat="45.76886" lon="4.83157">
        <ele>262.33084106445</ele>
        <time>2011-06-19T07:59:15Z</time>
      </trkpt>
      <trkpt lat="45.76878" lon="4.83159">
        <ele>260.16543579102</ele>
        <time>2011-06-19T07:59:16Z</time>
      </trkpt>
      <trkpt lat="45.76871" lon="4.83161">
        <ele>257.72219848633</ele>
        <time>2011-06-19T07:59:17Z</time>
      </trkpt>
      <trkpt lat="45.76863" lon="4.83163">
        <ele>255.79261779785</ele>
        <time>2011-06-19T07:59:18Z</time>
      </trkpt>
      <trkpt lat="45.76856" lon="4.83164">
        <ele>253.6958770752</ele>
        <time>2011-06-19T07:59:19Z</time>
      </trkpt>
      <trkpt lat="45.76849" lon="4.83167">
        <ele>252.13264465332</ele>
        <time>2011-06-19T07:59:20Z</time>
      </trkpt>
      <trkpt lat="45.76842" lon="4.83169">
        <ele>250.9450378418</ele>
        <time>2011-06-19T07:59:21Z</time>
      </trkpt>
      <trkpt lat="45.76835" lon="4.83174">
        <ele>250.30346679688</ele>
        <time>2011-06-19T07:59:22Z</time>
      </trkpt>
      <trkpt lat="45.76828" lon="4.8318">
        <ele>249.02096557617</ele>
        <time>2011-06-19T07:59:23Z</time>
      </trkpt>
      <trkpt lat="45.76826" lon="4.83182">
        <ele>249</ele>
        <time>2011-06-19T07:59:24Z</time>
      </trkpt>
      <trkpt lat="45.76824" lon="4.83183">
        <ele>249</ele>
        <time>2011-06-19T07:59:25Z</time>
      </trkpt>
      <trkpt lat="45.76823" lon="4.83184">
        <ele>250</ele>
        <time>2011-06-19T07:59:26Z</time>
      </trkpt>
      <trkpt lat="45.76827" lon="4.83184">
        <ele>245</ele>
        <time>2011-06-19T07:59:27Z</time>
      </trkpt>
      <trkpt lat="45.76824" lon="4.83185">
        <ele>244</ele>
        <time>2011-06-19T07:59:28Z</time>
      </trkpt>
      <trkpt lat="45.76823" lon="4.83189">
        <ele>244</ele>
        <time>2011-06-19T07:59:29Z</time>
      </trkpt>
      <trkpt lat="45.76822" lon="4.83191">
        <ele>245</ele>
        <time>2011-06-19T07:59:30Z</time>
      </trkpt>
      <trkpt lat="45.76821" lon="4.83194">
        <ele>244</ele>
        <time>2011-06-19T07:59:31Z</time>
      </trkpt>
      <trkpt lat="45.76821" lon="4.83199">
        <ele>242</ele>
        <time>2011-06-19T07:59:32Z</time>
      </trkpt>
      <trkpt lat="45.7682" lon="4.83203">
        <ele>241</ele>
        <time>2011-06-19T07:59:33Z</time>
      </trkpt>
      <trkpt lat="45.7682" lon="4.83207">
        <ele>241</ele>
        <time>2011-06-19T07:59:34Z</time>
      </trkpt>
      <trkpt lat="45.76821" lon="4.83213">
        <ele>241</ele>
        <time>2011-06-19T07:59:35Z</time>
      </trkpt>
      <trkpt lat="45.76821" lon="4.83218">
        <ele>240</ele>
        <time>2011-06-19T07:59:36Z</time>
      </trkpt>
      <trkpt lat="45.76821" lon="4.83221">
        <ele>239</ele>
        <time>2011-06-19T07:59:37Z</time>
      </trkpt>
      <trkpt lat="45.76819" lon="4.83224">
        <ele>239</ele>
        <time>2011-06-19T07:59:38Z</time>
      </trkpt>
      <trkpt lat="45.7682" lon="4.83228">
        <ele>239</ele>
        <time>2011-06-19T07:59:39Z</time>
      </trkpt>
      <trkpt lat="45.76818" lon="4.83231">
        <ele>239</ele>
        <time>2011-06-19T07:59:40Z</time>
      </trkpt>
      <trkpt lat="45.76814" lon="4.83235">
        <ele>239</ele>
        <time>2011-06-19T07:59:41Z</time>
      </trkpt>
      <trkpt lat="45.76813" lon="4.83239">
        <ele>239</ele>
        <time>2011-06-19T07:59:42Z</time>
      </trkpt>
      <trkpt lat="45.76811" lon="4.83242">
        <ele>240</ele>
        <time>2011-06-19T07:59:43Z</time>
      </trkpt>
      <trkpt lat="45.7681" lon="4.83246">
        <ele>240</ele>
        <time>2011-06-19T07:59:44Z</time>
      </trkpt>
      <trkpt lat="45.76808" lon="4.8325">
        <ele>241</ele>
        <time>2011-06-19T07:59:45Z</time>
      </trkpt>
      <trkpt lat="45.76807" lon="4.83255">
        <ele>241</ele>
        <time>2011-06-19T07:59:46Z</time>
      </trkpt>
      <trkpt lat="45.76808" lon="4.83261">
        <ele>241</ele>
        <time>2011-06-19T07:59:47Z</time>
      </trkpt>
      <trkpt lat="45.76809" lon="4.83265">
        <ele>240</ele>
        <time>2011-06-19T07:59:48Z</time>
      </trkpt>
      <trkpt lat="45.76809" lon="4.83271">
        <ele>240</ele>
        <time>2011-06-19T07:59:49Z</time>
      </trkpt>
      <trkpt lat="45.76809" lon="4.83276">
        <ele>240</ele>
        <time>2011-06-19T07:59:50Z</time>
      </trkpt>
      <trkpt lat="45.76809" lon="4.8328">
        <ele>240</ele>
        <time>2011-06-19T07:59:51Z</time>
      </trkpt>
      <trkpt lat="45.76808" lon="4.83285">
        <ele>240</ele>
        <time>2011-06-19T07:59:52Z</time>
      </trkpt>
      <trkpt lat="45.76807" lon="4.8329">
        <ele>241</ele>
        <time>2011-06-19T07:59:53Z</time>
      </trkpt>
      <trkpt lat="45.76807" lon="4.83295">
        <ele>240</ele>
        <time>2011-06-19T07:59:54Z</time>
      </trkpt>
      <trkpt lat="45.76807" lon="4.83299">
        <ele>241</ele>
        <time>2011-06-19T07:59:55Z</time>
      </trkpt>
      <trkpt lat="45.76806" lon="4.83304">
        <ele>241</ele>
        <time>2011-06-19T07:59:56Z</time>
      </trkpt>
      <trkpt lat="45.76805" lon="4.83308">
        <ele>241</ele>
        <time>2011-06-19T07:59:57Z</time>
      </trkpt>
      <trkpt lat="45.76809" lon="4.83312">
        <ele>241</ele>
        <time>2011-06-19T07:59:58Z</time>
      </trkpt>
      <trkpt lat="45.7681" lon="4.83317">
        <ele>240</ele>
        <time>2011-06-19T07:59:59Z</time>
      </trkpt>
      <trkpt lat="45.76815" lon="4.83323">
        <ele>239</ele>
        <time>2011-06-19T08:00:00Z</time>
      </trkpt>
      <trkpt lat="45.76815" lon="4.83327">
        <ele>239</ele>
        <time>2011-06-19T08:00:01Z</time>
      </trkpt>
      <trkpt lat="45.76818" lon="4.8333">
        <ele>239</ele>
        <time>2011-06-19T08:00:02Z</time>
      </trkpt>
      <trkpt lat="45.7682" lon="4.83334">
        <ele>238</ele>
        <time>2011-06-19T08:00:03Z</time>
      </trkpt>
      <trkpt lat="45.7682" lon="4.8334">
        <ele>238</ele>
        <time>2011-06-19T08:00:04Z</time>
      </trkpt>
      <trkpt lat="45.76822" lon="4.83344">
        <ele>238</ele>
        <time>2011-06-19T08:00:05Z</time>
      </trkpt>
      <trkpt lat="45.76825" lon="4.83348">
        <ele>238</ele>
        <time>2011-06-19T08:00:06Z</time>
      </trkpt>
      <trkpt lat="45.76825" lon="4.83353">
        <ele>237</ele>
        <time>2011-06-19T08:00:07Z</time>
      </trkpt>
      <trkpt lat="45.76826" lon="4.83357">
        <ele>237</ele>
        <time>2011-06-19T08:00:08Z</time>
      </trkpt>
      <trkpt lat="45.76828" lon="4.83361">
        <ele>238</ele>
        <time>2011-06-19T08:00:09Z</time>
      </trkpt>
      <trkpt lat="45.76828" lon="4.83363">
        <ele>237</ele>
        <time>2011-06-19T08:00:10Z</time>
      </trkpt>
      <trkpt lat="45.76831" lon="4.83369">
        <ele>237</ele>
        <time>2011-06-19T08:00:11Z</time>
      </trkpt>
      <trkpt lat="45.76832" lon="4.83374">
        <ele>236</ele>
        <time>2011-06-19T08:00:12Z</time>
      </trkpt>
      <trkpt lat="45.76835" lon="4.83377">
        <ele>236</ele>
        <time>2011-06-19T08:00:13Z</time>
      </trkpt>
      <trkpt lat="45.76836" lon="4.83381">
        <ele>236</ele>
        <time>2011-06-19T08:00:14Z</time>
      </trkpt>
      <trkpt lat="45.76838" lon="4.83383">
        <ele>236</ele>
        <time>2011-06-19T08:00:15Z</time>
      </trkpt>
      <trkpt lat="45.76838" lon="4.83387">
        <ele>236</ele>
        <time>2011-06-19T08:00:16Z</time>
      </trkpt>
      <trkpt lat="45.76837" lon="4.83392">
        <ele>236</ele>
        <time>2011-06-19T08:00:17Z</time>
      </trkpt>
      <trkpt lat="45.76836" lon="4.83396">
        <ele>236</ele>
        <time>2011-06-19T08:00:18Z</time>
      </trkpt>
      <trkpt lat="45.76833" lon="4.83402">
        <ele>236</ele>
        <time>2011-06-19T08:00:19Z</time>
      </trkpt>
      <trkpt lat="45.76833" lon="4.83405">
        <ele>236</ele>
        <time>2011-06-19T08:00:20Z</time>
      </trkpt>
      <trkpt lat="45.76832" lon="4.83409">
        <ele>236</ele>
        <time>2011-06-19T08:00:21Z</time>
      </trkpt>
      <trkpt lat="45.76831" lon="4.8341">
        <ele>236</ele>
        <time>2011-06-19T08:00:22Z</time>
      </trkpt>
      <trkpt lat="45.76833" lon="4.83412">
        <ele>236</ele>
        <time>2011-06-19T08:00:23Z</time>
      </trkpt>
      <trkpt lat="45.76836" lon="4.83415">
        <ele>236</ele>
        <time>2011-06-19T08:00:24Z</time>
      </trkpt>
      <trkpt lat="45.76837" lon="4.83416">
        <ele>237</ele>
        <time>2011-06-19T08:00:25Z</time>
      </trkpt>
      <trkpt lat="45.76838" lon="4.83418">
        <ele>237</ele>
        <time>2011-06-19T08:00:26Z</time>
      </trkpt>
      <trkpt lat="45.76838" lon="4.83419">
        <ele>237</ele>
        <time>2011-06-19T08:00:27Z</time>
      </trkpt>
      <trkpt lat="45.76841" lon="4.83422">
        <ele>237</ele>
        <time>2011-06-19T08:00:28Z</time>
      </trkpt>
      <trkpt lat="45.7684" lon="4.83426">
        <ele>237</ele>
        <time>2011-06-19T08:00:29Z</time>
      </trkpt>
      <trkpt lat="45.76842" lon="4.83426">
        <ele>237</ele>
        <time>2011-06-19T08:00:30Z</time>
      </trkpt>
      <trkpt lat="45.76845" lon="4.83428">
        <ele>237</ele>
        <time>2011-06-19T08:00:31Z</time>
      </trkpt>
      <trkpt lat="45.76847" lon="4.83431">
        <ele>237</ele>
        <time>2011-06-19T08:00:32Z</time>
      </trkpt>
      <trkpt lat="45.7685" lon="4.83434">
        <ele>237</ele>
        <time>2011-06-19T08:00:33Z</time>
      </trkpt>
      <trkpt lat="45.7685" lon="4.83437">
        <ele>238</ele>
        <time>2011-06-19T08:00:34Z</time>
      </trkpt>
      <trkpt lat="45.7685" lon="4.83444">
        <ele>238</ele>
        <time>2011-06-19T08:00:35Z</time>
      </trkpt>
      <trkpt lat="45.76853" lon="4.83449">
        <ele>238</ele>
        <time>2011-06-19T08:00:36Z</time>
      </trkpt>
      <trkpt lat="45.76853" lon="4.83455">
        <ele>238</ele>
        <time>2011-06-19T08:00:37Z</time>
      </trkpt>
      <trkpt lat="45.76854" lon="4.83459">
        <ele>238</ele>
        <time>2011-06-19T08:00:38Z</time>
      </trkpt>
      <trkpt lat="45.76852" lon="4.83466">
        <ele>238</ele>
        <time>2011-06-19T08:00:39Z</time>
      </trkpt>
      <trkpt lat="45.76852" lon="4.8347">
        <ele>238</ele>
        <time>2011-06-19T08:00:40Z</time>
      </trkpt>
      <trkpt lat="45.76852" lon="4.83474">
        <ele>238</ele>
        <time>2011-06-19T08:00:41Z</time>
      </trkpt>
      <trkpt lat="45.76852" lon="4.83479">
        <ele>238</ele>
        <time>2011-06-19T08:00:42Z</time>
      </trkpt>
      <trkpt lat="45.76853" lon="4.83484">
        <ele>238</ele>
        <time>2011-06-19T08:00:43Z</time>
      </trkpt>
      <trkpt lat="45.76852" lon="4.83491">
        <ele>238</ele>
        <time>2011-06-19T08:00:44Z</time>
      </trkpt>
      <trkpt lat="45.76853" lon="4.835">
        <ele>238</ele>
        <time>2011-06-19T08:00:45Z</time>
      </trkpt>
      <trkpt lat="45.76854" lon="4.83506">
        <ele>238</ele>
        <time>2011-06-19T08:00:46Z</time>
      </trkpt>
      <trkpt lat="45.76853" lon="4.8351">
        <ele>238</ele>
        <time>2011-06-19T08:00:47Z</time>
      </trkpt>
      <trkpt lat="45.76851" lon="4.83511">
        <ele>238</ele>
        <time>2011-06-19T08:00:48Z</time>
      </trkpt>
      <trkpt lat="45.7685" lon="4.83516">
        <ele>238</ele>
        <time>2011-06-19T08:00:49Z</time>
      </trkpt>
      <trkpt lat="45.76851" lon="4.83521">
        <ele>238</ele>
        <time>2011-06-19T08:00:50Z</time>
      </trkpt>
      <trkpt lat="45.76853" lon="4.83525">
        <ele>238</ele>
        <time>2011-06-19T08:00:51Z</time>
      </trkpt>
      <trkpt lat="45.76855" lon="4.83529">
        <ele>238</ele>
        <time>2011-06-19T08:00:52Z</time>
      </trkpt>
      <trkpt lat="45.76855" lon="4.83533">
        <ele>238</ele>
        <time>2011-06-19T08:00:53Z</time>
      </trkpt>
      <trkpt lat="45.76852" lon="4.83533">
        <ele>239</ele>
        <time>2011-06-19T08:00:54Z</time>
      </trkpt>
      <trkpt lat="45.76849" lon="4.83535">
        <ele>239</ele>
        <time>2011-06-19T08:00:55Z</time>
      </trkpt>
      <trkpt lat="45.76848" lon="4.8354">
        <ele>239</ele>
        <time>2011-06-19T08:00:56Z</time>
      </trkpt>
      <trkpt lat="45.76849" lon="4.83543">
        <ele>240</ele>
        <time>2011-06-19T08:00:57Z</time>
      </trkpt>
      <trkpt lat="45.76849" lon="4.83546">
        <ele>241</ele>
        <time>2011-06-19T08:00:58Z</time>
      </trkpt>
      <trkpt lat="45.76845" lon="4.8355">
        <ele>243</ele>
        <time>2011-06-19T08:00:59Z</time>
      </trkpt>
      <trkpt lat="45.76845" lon="4.83551">
        <ele>243</ele>
        <time>2011-06-19T08:01:00Z</time>
      </trkpt>
      <trkpt lat="45.76842" lon="4.83555">
        <ele>243</ele>
        <time>2011-06-19T08:01:01Z</time>
      </trkpt>
      <trkpt lat="45.76837" lon="4.83559">
        <ele>244</ele>
        <time>2011-06-19T08:01:02Z</time>
      </trkpt>
      <trkpt lat="45.76832" lon="4.83563">
        <ele>245</ele>
        <time>2011-06-19T08:01:03Z</time>
      </trkpt>
      <trkpt lat="45.76831" lon="4.83568">
        <ele>245</ele>
        <time>2011-06-19T08:01:04Z</time>
      </trkpt>
      <trkpt lat="45.76831" lon="4.83573">
        <ele>246</ele>
        <time>2011-06-19T08:01:05Z</time>
      </trkpt>
      <trkpt lat="45.76832" lon="4.83575">
        <ele>247</ele>
        <time>2011-06-19T08:01:06Z</time>
      </trkpt>
      <trkpt lat="45.7683" lon="4.83579">
        <ele>247</ele>
        <time>2011-06-19T08:01:07Z</time>
      </trkpt>
      <trkpt lat="45.76829" lon="4.83583">
        <ele>247</ele>
        <time>2011-06-19T08:01:08Z</time>
      </trkpt>
      <trkpt lat="45.76828" lon="4.83588">
        <ele>247</ele>
        <time>2011-06-19T08:01:09Z</time>
      </trkpt>
      <trkpt lat="45.76829" lon="4.83598">
        <ele>244.1951751709</ele>
        <time>2011-06-19T08:01:10Z</time>
      </trkpt>
      <trkpt lat="45.7683" lon="4.83609">
        <ele>242.09457397461</ele>
        <time>2011-06-19T08:01:11Z</time>
      </trkpt>
      <trkpt lat="45.76832" lon="4.83615">
        <ele>239</ele>
        <time>2011-06-19T08:01:12Z</time>
      </trkpt>
      <trkpt lat="45.76836" lon="4.83623">
        <ele>236</ele>
        <time>2011-06-19T08:01:13Z</time>
      </trkpt>
      <trkpt lat="45.76838" lon="4.83628">
        <ele>234</ele>
        <time>2011-06-19T08:01:14Z</time>
      </trkpt>
      <trkpt lat="45.7684" lon="4.83634">
        <ele>233</ele>
        <time>2011-06-19T08:01:15Z</time>
      </trkpt>
      <trkpt lat="45.76842" lon="4.83639">
        <ele>232</ele>
        <time>2011-06-19T08:01:16Z</time>
      </trkpt>
      <trkpt lat="45.76843" lon="4.83644">
        <ele>233</ele>
        <time>2011-06-19T08:01:17Z</time>
      </trkpt>
      <trkpt lat="45.76844" lon="4.83649">
        <ele>234</ele>
        <time>2011-06-19T08:01:18Z</time>
      </trkpt>
      <trkpt lat="45.76844" lon="4.83654">
        <ele>234</ele>
        <time>2011-06-19T08:01:19Z</time>
      </trkpt>
      <trkpt lat="45.76845" lon="4.83659">
        <ele>235</ele>
        <time>2011-06-19T08:01:20Z</time>
      </trkpt>
      <trkpt lat="45.76845" lon="4.83661">
        <ele>235</ele>
        <time>2011-06-19T08:01:21Z</time>
      </trkpt>
      <trkpt lat="45.76845" lon="4.83665">
        <ele>236</ele>
        <time>2011-06-19T08:01:22Z</time>
      </trkpt>
      <trkpt lat="45.76845" lon="4.83669">
        <ele>236</ele>
        <time>2011-06-19T08:01:23Z</time>
      </trkpt>
      <trkpt lat="45.76846" lon="4.83673">
        <ele>237</ele>
        <time>2011-06-19T08:01:24Z</time>
      </trkpt>
      <trkpt lat="45.76847" lon="4.83677">
        <ele>237</ele>
        <time>2011-06-19T08:01:25Z</time>
      </trkpt>
      <trkpt lat="45.76847" lon="4.83683">
        <ele>236</ele>
        <time>2011-06-19T08:01:26Z</time>
      </trkpt>
      <trkpt lat="45.7685" lon="4.83688">
        <ele>237</ele>
        <time>2011-06-19T08:01:27Z</time>
      </trkpt>
      <trkpt lat="45.76851" lon="4.83693">
        <ele>236</ele>
        <time>2011-06-19T08:01:28Z</time>
      </trkpt>
      <trkpt lat="45.76852" lon="4.83698">
        <ele>235</ele>
        <time>2011-06-19T08:01:29Z</time>
      </trkpt>
      <trkpt lat="45.76853" lon="4.83702">
        <ele>234</ele>
        <time>2011-06-19T08:01:30Z</time>
      </trkpt>
      <trkpt lat="45.76853" lon="4.83707">
        <ele>233</ele>
        <time>2011-06-19T08:01:31Z</time>
      </trkpt>
      <trkpt lat="45.76854" lon="4.83713">
        <ele>232</ele>
        <time>2011-06-19T08:01:32Z</time>
      </trkpt>
      <trkpt lat="45.76855" lon="4.83718">
        <ele>231</ele>
        <time>2011-06-19T08:01:33Z</time>
      </trkpt>
      <trkpt lat="45.76855" lon="4.83723">
        <ele>230</ele>
        <time>2011-06-19T08:01:34Z</time>
      </trkpt>
      <trkpt lat="45.76857" lon="4.83728">
        <ele>230</ele>
        <time>2011-06-19T08:01:35Z</time>
      </trkpt>
      <trkpt lat="45.76856" lon="4.83734">
        <ele>228</ele>
        <time>2011-06-19T08:01:36Z</time>
      </trkpt>
      <trkpt lat="45.76855" lon="4.83739">
        <ele>227</ele>
        <time>2011-06-19T08:01:37Z</time>
      </trkpt>
      <trkpt lat="45.76855" lon="4.83742">
        <ele>227</ele>
        <time>2011-06-19T08:01:38Z</time>
      </trkpt>
      <trkpt lat="45.76856" lon="4.83747">
        <ele>227</ele>
        <time>2011-06-19T08:01:39Z</time>
      </trkpt>
      <trkpt lat="45.76857" lon="4.83752">
        <ele>227</ele>
        <time>2011-06-19T08:01:40Z</time>
      </trkpt>
      <trkpt lat="45.76857" lon="4.83758">
        <ele>226</ele>
        <time>2011-06-19T08:01:41Z</time>
      </trkpt>
      <trkpt lat="45.76858" lon="4.83762">
        <ele>226</ele>
        <time>2011-06-19T08:01:42Z</time>
      </trkpt>
      <trkpt lat="45.76858" lon="4.83765">
        <ele>226</ele>
        <time>2011-06-19T08:01:43Z</time>
      </trkpt>
      <trkpt lat="45.76858" lon="4.8377">
        <ele>226</ele>
        <time>2011-06-19T08:01:44Z</time>
      </trkpt>
      <trkpt lat="45.76859" lon="4.83776">
        <ele>226</ele>
        <time>2011-06-19T08:01:45Z</time>
      </trkpt>
      <trkpt lat="45.76859" lon="4.8378">
        <ele>225</ele>
        <time>2011-06-19T08:01:46Z</time>
      </trkpt>
      <trkpt lat="45.76859" lon="4.83785">
        <ele>223</ele>
        <time>2011-06-19T08:01:47Z</time>
      </trkpt>
      <trkpt lat="45.7686" lon="4.83789">
        <ele>223</ele>
        <time>2011-06-19T08:01:48Z</time>
      </trkpt>
      <trkpt lat="45.7686" lon="4.83793">
        <ele>223</ele>
        <time>2011-06-19T08:01:49Z</time>
      </trkpt>
      <trkpt lat="45.7686" lon="4.83798">
        <ele>223</ele>
        <time>2011-06-19T08:01:50Z</time>
      </trkpt>
      <trkpt lat="45.76861" lon="4.83803">
        <ele>222</ele>
        <time>2011-06-19T08:01:51Z</time>
      </trkpt>
      <trkpt lat="45.76861" lon="4.83808">
        <ele>222</ele>
        <time>2011-06-19T08:01:52Z</time>
      </trkpt>
      <trkpt lat="45.76861" lon="4.83812">
        <ele>222</ele>
        <time>2011-06-19T08:01:53Z</time>
      </trkpt>
      <trkpt lat="45.76864" lon="4.83818">
        <ele>222</ele>
        <time>2011-06-19T08:01:54Z</time>
      </trkpt>
      <trkpt lat="45.76865" lon="4.83824">
        <ele>221</ele>
        <time>2011-06-19T08:01:55Z</time>
      </trkpt>
      <trkpt lat="45.76866" lon="4.83829">
        <ele>220</ele>
        <time>2011-06-19T08:01:56Z</time>
      </trkpt>
      <trkpt lat="45.76867" lon="4.83833">
        <ele>219</ele>
        <time>2011-06-19T08:01:57Z</time>
      </trkpt>
      <trkpt lat="45.76868" lon="4.83839">
        <ele>219</ele>
        <time>2011-06-19T08:01:58Z</time>
      </trkpt>
      <trkpt lat="45.76868" lon="4.83843">
        <ele>220</ele>
        <time>2011-06-19T08:01:59Z</time>
      </trkpt>
      <trkpt lat="45.76868" lon="4.83846">
        <ele>220</ele>
        <time>2011-06-19T08:02:00Z</time>
      </trkpt>
      <trkpt lat="45.76868" lon="4.8385">
        <ele>220</ele>
        <time>2011-06-19T08:02:01Z</time>
      </trkpt>
      <trkpt lat="45.76869" lon="4.83855">
        <ele>220</ele>
        <time>2011-06-19T08:02:02Z</time>
      </trkpt>
      <trkpt lat="45.76869" lon="4.8386">
        <ele>219</ele>
        <time>2011-06-19T08:02:03Z</time>
      </trkpt>
      <trkpt lat="45.7687" lon="4.83865">
        <ele>219</ele>
        <time>2011-06-19T08:02:04Z</time>
      </trkpt>
      <trkpt lat="45.76868" lon="4.83867">
        <ele>219</ele>
        <time>2011-06-19T08:02:05Z</time>
      </trkpt>
      <trkpt lat="45.76868" lon="4.83872">
        <ele>219</ele>
        <time>2011-06-19T08:02:06Z</time>
      </trkpt>
      <trkpt lat="45.76867" lon="4.83876">
        <ele>219</ele>
        <time>2011-06-19T08:02:07Z</time>
      </trkpt>
      <trkpt lat="45.76867" lon="4.83881">
        <ele>219</ele>
        <time>2011-06-19T08:02:08Z</time>
      </trkpt>
      <trkpt lat="45.76867" lon="4.83885">
        <ele>219</ele>
        <time>2011-06-19T08:02:09Z</time>
      </trkpt>
      <trkpt lat="45.76868" lon="4.8389">
        <ele>219</ele>
        <time>2011-06-19T08:02:10Z</time>
      </trkpt>
      <trkpt lat="45.76868" lon="4.83894">
        <ele>220</ele>
        <time>2011-06-19T08:02:11Z</time>
      </trkpt>
      <trkpt lat="45.76868" lon="4.83898">
        <ele>220</ele>
        <time>2011-06-19T08:02:12Z</time>
      </trkpt>
      <trkpt lat="45.76868" lon="4.83902">
        <ele>221</ele>
        <time>2011-06-19T08:02:13Z</time>
      </trkpt>
      <trkpt lat="45.76868" lon="4.83906">
        <ele>222</ele>
        <time>2011-06-19T08:02:14Z</time>
      </trkpt>
      <trkpt lat="45.76868" lon="4.83911">
        <ele>222</ele>
        <time>2011-06-19T08:02:15Z</time>
      </trkpt>
      <trkpt lat="45.76868" lon="4.83916">
        <ele>222</ele>
        <time>2011-06-19T08:02:16Z</time>
      </trkpt>
      <trkpt lat="45.76867" lon="4.8392">
        <ele>223</ele>
        <time>2011-06-19T08:02:17Z</time>
      </trkpt>
      <trkpt lat="45.76867" lon="4.83924">
        <ele>223</ele>
        <time>2011-06-19T08:02:18Z</time>
      </trkpt>
      <trkpt lat="45.76867" lon="4.83929">
        <ele>223</ele>
        <time>2011-06-19T08:02:19Z</time>
      </trkpt>
      <trkpt lat="45.76867" lon="4.83933">
        <ele>223</ele>
        <time>2011-06-19T08:02:20Z</time>
      </trkpt>
      <trkpt lat="45.76867" lon="4.83939">
        <ele>223</ele>
        <time>2011-06-19T08:02:22Z</time>
      </trkpt>
      <trkpt lat="45.76867" lon="4.83943">
        <ele>223</ele>
        <time>2011-06-19T08:02:22Z</time>
      </trkpt>
      <trkpt lat="45.76868" lon="4.83948">
        <ele>222</ele>
        <time>2011-06-19T08:02:23Z</time>
      </trkpt>
      <trkpt lat="45.76869" lon="4.83954">
        <ele>222</ele>
        <time>2011-06-19T08:02:24Z</time>
      </trkpt>
      <trkpt lat="45.7687" lon="4.83959">
        <ele>222</ele>
        <time>2011-06-19T08:02:25Z</time>
      </trkpt>
      <trkpt lat="45.76871" lon="4.83964">
        <ele>222</ele>
        <time>2011-06-19T08:02:26Z</time>
      </trkpt>
      <trkpt lat="45.7687" lon="4.83968">
        <ele>220</ele>
        <time>2011-06-19T08:02:27Z</time>
      </trkpt>
      <trkpt lat="45.76869" lon="4.83971">
        <ele>221</ele>
        <time>2011-06-19T08:02:28Z</time>
      </trkpt>
      <trkpt lat="45.76869" lon="4.83976">
        <ele>221</ele>
        <time>2011-06-19T08:02:29Z</time>
      </trkpt>
      <trkpt lat="45.76869" lon="4.8398">
        <ele>221</ele>
        <time>2011-06-19T08:02:30Z</time>
      </trkpt>
      <trkpt lat="45.76869" lon="4.83985">
        <ele>221</ele>
        <time>2011-06-19T08:02:31Z</time>
      </trkpt>
      <trkpt lat="45.76869" lon="4.8399">
        <ele>220</ele>
        <time>2011-06-19T08:02:32Z</time>
      </trkpt>
      <trkpt lat="45.76869" lon="4.83994">
        <ele>220</ele>
        <time>2011-06-19T08:02:33Z</time>
      </trkpt>
      <trkpt lat="45.76869" lon="4.83999">
        <ele>219</ele>
        <time>2011-06-19T08:02:34Z</time>
      </trkpt>
      <trkpt lat="45.76871" lon="4.84004">
        <ele>219</ele>
        <time>2011-06-19T08:02:35Z</time>
      </trkpt>
      <trkpt lat="45.76872" lon="4.84009">
        <ele>219</ele>
        <time>2011-06-19T08:02:36Z</time>
      </trkpt>
      <trkpt lat="45.76873" lon="4.84014">
        <ele>218</ele>
        <time>2011-06-19T08:02:37Z</time>
      </trkpt>
      <trkpt lat="45.76873" lon="4.84019">
        <ele>218</ele>
        <time>2011-06-19T08:02:38Z</time>
      </trkpt>
      <trkpt lat="45.76874" lon="4.84025">
        <ele>218</ele>
        <time>2011-06-19T08:02:39Z</time>
      </trkpt>
      <trkpt lat="45.76873" lon="4.84029">
        <ele>218</ele>
        <time>2011-06-19T08:02:40Z</time>
      </trkpt>
      <trkpt lat="45.76873" lon="4.84034">
        <ele>218</ele>
        <time>2011-06-19T08:02:41Z</time>
      </trkpt>
      <trkpt lat="45.76873" lon="4.84038">
        <ele>218</ele>
        <time>2011-06-19T08:02:42Z</time>
      </trkpt>
      <trkpt lat="45.76872" lon="4.84043">
        <ele>218</ele>
        <time>2011-06-19T08:02:43Z</time>
      </trkpt>
      <trkpt lat="45.76872" lon="4.84047">
        <ele>218</ele>
        <time>2011-06-19T08:02:44Z</time>
      </trkpt>
      <trkpt lat="45.76872" lon="4.84052">
        <ele>218</ele>
        <time>2011-06-19T08:02:45Z</time>
      </trkpt>
      <trkpt lat="45.76873" lon="4.84057">
        <ele>219</ele>
        <time>2011-06-19T08:02:46Z</time>
      </trkpt>
      <trkpt lat="45.76873" lon="4.84061">
        <ele>219</ele>
        <time>2011-06-19T08:02:47Z</time>
      </trkpt>
      <trkpt lat="45.76873" lon="4.84067">
        <ele>219</ele>
        <time>2011-06-19T08:02:48Z</time>
      </trkpt>
      <trkpt lat="45.76874" lon="4.84073">
        <ele>219</ele>
        <time>2011-06-19T08:02:49Z</time>
      </trkpt>
      <trkpt lat="45.76875" lon="4.84076">
        <ele>219</ele>
        <time>2011-06-19T08:02:50Z</time>
      </trkpt>
      <trkpt lat="45.76875" lon="4.84082">
        <ele>219</ele>
        <time>2011-06-19T08:02:51Z</time>
      </trkpt>
      <trkpt lat="45.76874" lon="4.84082">
        <ele>220</ele>
        <time>2011-06-19T08:02:52Z</time>
      </trkpt>
      <trkpt lat="45.76875" lon="4.84085">
        <ele>220</ele>
        <time>2011-06-19T08:02:53Z</time>
      </trkpt>
      <trkpt lat="45.76877" lon="4.84088">
        <ele>220</ele>
        <time>2011-06-19T08:02:54Z</time>
      </trkpt>
      <trkpt lat="45.76879" lon="4.84092">
        <ele>220</ele>
        <time>2011-06-19T08:02:55Z</time>
      </trkpt>
      <trkpt lat="45.76881" lon="4.84096">
        <ele>220</ele>
        <time>2011-06-19T08:02:56Z</time>
      </trkpt>
      <trkpt lat="45.76883" lon="4.84098">
        <ele>220</ele>
        <time>2011-06-19T08:02:57Z</time>
      </trkpt>
      <trkpt lat="45.76886" lon="4.84101">
        <ele>220</ele>
        <time>2011-06-19T08:02:58Z</time>
      </trkpt>
      <trkpt lat="45.76888" lon="4.84102">
        <ele>221</ele>
        <time>2011-06-19T08:02:59Z</time>
      </trkpt>
      <trkpt lat="45.76891" lon="4.84104">
        <ele>221</ele>
        <time>2011-06-19T08:03:01Z</time>
      </trkpt>
      <trkpt lat="45.76892" lon="4.84106">
        <ele>221</ele>
        <time>2011-06-19T08:03:01Z</time>
      </trkpt>
      <trkpt lat="45.76895" lon="4.84107">
        <ele>220</ele>
        <time>2011-06-19T08:03:02Z</time>
      </trkpt>
      <trkpt lat="45.76896" lon="4.84109">
        <ele>221</ele>
        <time>2011-06-19T08:03:03Z</time>
      </trkpt>
      <trkpt lat="45.76898" lon="4.8411">
        <ele>221</ele>
        <time>2011-06-19T08:03:04Z</time>
      </trkpt>
      <trkpt lat="45.76901" lon="4.84111">
        <ele>221</ele>
        <time>2011-06-19T08:03:05Z</time>
      </trkpt>
      <trkpt lat="45.76904" lon="4.84112">
        <ele>221</ele>
        <time>2011-06-19T08:03:06Z</time>
      </trkpt>
      <trkpt lat="45.76907" lon="4.84113">
        <ele>220</ele>
        <time>2011-06-19T08:03:07Z</time>
      </trkpt>
      <trkpt lat="45.7691" lon="4.84114">
        <ele>220</ele>
        <time>2011-06-19T08:03:08Z</time>
      </trkpt>
      <trkpt lat="45.76913" lon="4.84114">
        <ele>220</ele>
        <time>2011-06-19T08:03:09Z</time>
      </trkpt>
      <trkpt lat="45.76916" lon="4.84115">
        <ele>221</ele>
        <time>2011-06-19T08:03:10Z</time>
      </trkpt>
      <trkpt lat="45.7692" lon="4.84112">
        <ele>221</ele>
        <time>2011-06-19T08:03:11Z</time>
      </trkpt>
      <trkpt lat="45.76922" lon="4.84111">
        <ele>222</ele>
        <time>2011-06-19T08:03:12Z</time>
      </trkpt>
      <trkpt lat="45.76925" lon="4.8411">
        <ele>222</ele>
        <time>2011-06-19T08:03:13Z</time>
      </trkpt>
      <trkpt lat="45.76926" lon="4.84111">
        <ele>222</ele>
        <time>2011-06-19T08:03:14Z</time>
      </trkpt>
      <trkpt lat="45.76929" lon="4.84111">
        <ele>223</ele>
        <time>2011-06-19T08:03:15Z</time>
      </trkpt>
      <trkpt lat="45.76933" lon="4.84109">
        <ele>223</ele>
        <time>2011-06-19T08:03:16Z</time>
      </trkpt>
      <trkpt lat="45.76936" lon="4.84107">
        <ele>223</ele>
        <time>2011-06-19T08:03:17Z</time>
      </trkpt>
      <trkpt lat="45.76939" lon="4.84107">
        <ele>223</ele>
        <time>2011-06-19T08:03:18Z</time>
      </trkpt>
      <trkpt lat="45.76942" lon="4.84105">
        <ele>223</ele>
        <time>2011-06-19T08:03:19Z</time>
      </trkpt>
      <trkpt lat="45.76945" lon="4.84108">
        <ele>223</ele>
        <time>2011-06-19T08:03:20Z</time>
      </trkpt>
      <trkpt lat="45.76946" lon="4.84107">
        <ele>223</ele>
        <time>2011-06-19T08:03:21Z</time>
      </trkpt>
      <trkpt lat="45.7695" lon="4.84106">
        <ele>223</ele>
        <time>2011-06-19T08:03:22Z</time>
      </trkpt>
      <trkpt lat="45.76953" lon="4.84106">
        <ele>223</ele>
        <time>2011-06-19T08:03:23Z</time>
      </trkpt>
      <trkpt lat="45.76956" lon="4.84107">
        <ele>224</ele>
        <time>2011-06-19T08:03:24Z</time>
      </trkpt>
      <trkpt lat="45.76958" lon="4.84107">
        <ele>224</ele>
        <time>2011-06-19T08:03:25Z</time>
      </trkpt>
      <trkpt lat="45.76963" lon="4.84105">
        <ele>224</ele>
        <time>2011-06-19T08:03:26Z</time>
      </trkpt>
      <trkpt lat="45.76967" lon="4.84105">
        <ele>225</ele>
        <time>2011-06-19T08:03:27Z</time>
      </trkpt>
      <trkpt lat="45.76973" lon="4.84103">
        <ele>224</ele>
        <time>2011-06-19T08:03:28Z</time>
      </trkpt>
      <trkpt lat="45.76979" lon="4.84103">
        <ele>224</ele>
        <time>2011-06-19T08:03:29Z</time>
      </trkpt>
      <trkpt lat="45.76982" lon="4.841">
        <ele>224</ele>
        <time>2011-06-19T08:03:30Z</time>
      </trkpt>
      <trkpt lat="45.76985" lon="4.841">
        <ele>223</ele>
        <time>2011-06-19T08:03:31Z</time>
      </trkpt>
      <trkpt lat="45.76987" lon="4.84098">
        <ele>223</ele>
        <time>2011-06-19T08:03:32Z</time>
      </trkpt>
      <trkpt lat="45.76991" lon="4.84098">
        <ele>223</ele>
        <time>2011-06-19T08:03:33Z</time>
      </trkpt>
      <trkpt lat="45.76993" lon="4.84099">
        <ele>223</ele>
        <time>2011-06-19T08:03:34Z</time>
      </trkpt>
      <trkpt lat="45.76995" lon="4.84098">
        <ele>223</ele>
        <time>2011-06-19T08:03:35Z</time>
      </trkpt>
      <trkpt lat="45.76999" lon="4.841">
        <ele>222</ele>
        <time>2011-06-19T08:03:36Z</time>
      </trkpt>
      <trkpt lat="45.77003" lon="4.84101">
        <ele>223</ele>
        <time>2011-06-19T08:03:37Z</time>
      </trkpt>
      <trkpt lat="45.77006" lon="4.84101">
        <ele>223</ele>
        <time>2011-06-19T08:03:38Z</time>
      </trkpt>
      <trkpt lat="45.77009" lon="4.84102">
        <ele>223</ele>
        <time>2011-06-19T08:03:39Z</time>
      </trkpt>
      <trkpt lat="45.77011" lon="4.84103">
        <ele>223</ele>
        <time>2011-06-19T08:03:40Z</time>
      </trkpt>
      <trkpt lat="45.77013" lon="4.84104">
        <ele>222</ele>
        <time>2011-06-19T08:03:41Z</time>
      </trkpt>
      <trkpt lat="45.77016" lon="4.84103">
        <ele>222</ele>
        <time>2011-06-19T08:03:42Z</time>
      </trkpt>
      <trkpt lat="45.77021" lon="4.84107">
        <ele>220</ele>
        <time>2011-06-19T08:03:43Z</time>
      </trkpt>
      <trkpt lat="45.77024" lon="4.84108">
        <ele>219</ele>
        <time>2011-06-19T08:03:44Z</time>
      </trkpt>
      <trkpt lat="45.77026" lon="4.84108">
        <ele>219</ele>
        <time>2011-06-19T08:03:45Z</time>
      </trkpt>
      <trkpt lat="45.77029" lon="4.84106">
        <ele>219</ele>
        <time>2011-06-19T08:03:46Z</time>
      </trkpt>
      <trkpt lat="45.77032" lon="4.84103">
        <ele>219</ele>
        <time>2011-06-19T08:03:47Z</time>
      </trkpt>
      <trkpt lat="45.77035" lon="4.84102">
        <ele>218</ele>
        <time>2011-06-19T08:03:48Z</time>
      </trkpt>
      <trkpt lat="45.77039" lon="4.841">
        <ele>218</ele>
        <time>2011-06-19T08:03:49Z</time>
      </trkpt>
      <trkpt lat="45.77043" lon="4.84099">
        <ele>218</ele>
        <time>2011-06-19T08:03:50Z</time>
      </trkpt>
      <trkpt lat="45.77046" lon="4.84099">
        <ele>220</ele>
        <time>2011-06-19T08:03:51Z</time>
      </trkpt>
      <trkpt lat="45.77049" lon="4.841">
        <ele>222</ele>
        <time>2011-06-19T08:03:52Z</time>
      </trkpt>
      <trkpt lat="45.77052" lon="4.84101">
        <ele>223</ele>
        <time>2011-06-19T08:03:53Z</time>
      </trkpt>
      <trkpt lat="45.77056" lon="4.84101">
        <ele>223</ele>
        <time>2011-06-19T08:03:54Z</time>
      </trkpt>
      <trkpt lat="45.77059" lon="4.84102">
        <ele>223</ele>
        <time>2011-06-19T08:03:55Z</time>
      </trkpt>
      <trkpt lat="45.77061" lon="4.84102">
        <ele>223</ele>
        <time>2011-06-19T08:03:56Z</time>
      </trkpt>
      <trkpt lat="45.77063" lon="4.84101">
        <ele>224</ele>
        <time>2011-06-19T08:03:57Z</time>
      </trkpt>
      <trkpt lat="45.77065" lon="4.84101">
        <ele>223</ele>
        <time>2011-06-19T08:03:58Z</time>
      </trkpt>
      <trkpt lat="45.77067" lon="4.84101">
        <ele>223</ele>
        <time>2011-06-19T08:03:59Z</time>
      </trkpt>
      <trkpt lat="45.7707" lon="4.84101">
        <ele>223</ele>
        <time>2011-06-19T08:04:00Z</time>
      </trkpt>
      <trkpt lat="45.77074" lon="4.841">
        <ele>222</ele>
        <time>2011-06-19T08:04:01Z</time>
      </trkpt>
      <trkpt lat="45.77077" lon="4.84101">
        <ele>222</ele>
        <time>2011-06-19T08:04:02Z</time>
      </trkpt>
      <trkpt lat="45.77081" lon="4.841">
        <ele>221</ele>
        <time>2011-06-19T08:04:03Z</time>
      </trkpt>
      <trkpt lat="45.77084" lon="4.84101">
        <ele>221</ele>
        <time>2011-06-19T08:04:04Z</time>
      </trkpt>
      <trkpt lat="45.77087" lon="4.84103">
        <ele>220</ele>
        <time>2011-06-19T08:04:05Z</time>
      </trkpt>
      <trkpt lat="45.77088" lon="4.84103">
        <ele>220</ele>
        <time>2011-06-19T08:04:06Z</time>
      </trkpt>
      <trkpt lat="45.77092" lon="4.84107">
        <ele>219</ele>
        <time>2011-06-19T08:04:07Z</time>
      </trkpt>
      <trkpt lat="45.77096" lon="4.84108">
        <ele>220</ele>
        <time>2011-06-19T08:04:08Z</time>
      </trkpt>
      <trkpt lat="45.77101" lon="4.84111">
        <ele>218</ele>
        <time>2011-06-19T08:04:09Z</time>
      </trkpt>
      <trkpt lat="45.77104" lon="4.84111">
        <ele>219</ele>
        <time>2011-06-19T08:04:10Z</time>
      </trkpt>
      <trkpt lat="45.77107" lon="4.84112">
        <ele>221</ele>
        <time>2011-06-19T08:04:11Z</time>
      </trkpt>
      <trkpt lat="45.77109" lon="4.84113">
        <ele>221</ele>
        <time>2011-06-19T08:04:12Z</time>
      </trkpt>
      <trkpt lat="45.77112" lon="4.84112">
        <ele>222</ele>
        <time>2011-06-19T08:04:13Z</time>
      </trkpt>
      <trkpt lat="45.77114" lon="4.84112">
        <ele>223</ele>
        <time>2011-06-19T08:04:14Z</time>
      </trkpt>
      <trkpt lat="45.77116" lon="4.84111">
        <ele>223</ele>
        <time>2011-06-19T08:04:15Z</time>
      </trkpt>
      <trkpt lat="45.77119" lon="4.84111">
        <ele>225</ele>
        <time>2011-06-19T08:04:16Z</time>
      </trkpt>
      <trkpt lat="45.77122" lon="4.84111">
        <ele>225</ele>
        <time>2011-06-19T08:04:17Z</time>
      </trkpt>
      <trkpt lat="45.77125" lon="4.84111">
        <ele>226</ele>
        <time>2011-06-19T08:04:18Z</time>
      </trkpt>
      <trkpt lat="45.77127" lon="4.84112">
        <ele>226</ele>
        <time>2011-06-19T08:04:19Z</time>
      </trkpt>
      <trkpt lat="45.7713" lon="4.84112">
        <ele>227</ele>
        <time>2011-06-19T08:04:20Z</time>
      </trkpt>
      <trkpt lat="45.77134" lon="4.84113">
        <ele>228</ele>
        <time>2011-06-19T08:04:21Z</time>
      </trkpt>
      <trkpt lat="45.77135" lon="4.84113">
        <ele>228</ele>
        <time>2011-06-19T08:04:22Z</time>
      </trkpt>
      <trkpt lat="45.77139" lon="4.84111">
        <ele>229</ele>
        <time>2011-06-19T08:04:23Z</time>
      </trkpt>
      <trkpt lat="45.77142" lon="4.84111">
        <ele>229</ele>
        <time>2011-06-19T08:04:24Z</time>
      </trkpt>
      <trkpt lat="45.77146" lon="4.8411">
        <ele>229</ele>
        <time>2011-06-19T08:04:25Z</time>
      </trkpt>
      <trkpt lat="45.77148" lon="4.84109">
        <ele>228</ele>
        <time>2011-06-19T08:04:26Z</time>
      </trkpt>
      <trkpt lat="45.77153" lon="4.84106">
        <ele>228</ele>
        <time>2011-06-19T08:04:27Z</time>
      </trkpt>
      <trkpt lat="45.77157" lon="4.84102">
        <ele>227</ele>
        <time>2011-06-19T08:04:28Z</time>
      </trkpt>
      <trkpt lat="45.77162" lon="4.841">
        <ele>227</ele>
        <time>2011-06-19T08:04:29Z</time>
      </trkpt>
      <trkpt lat="45.77166" lon="4.84098">
        <ele>227</ele>
        <time>2011-06-19T08:04:30Z</time>
      </trkpt>
      <trkpt lat="45.7717" lon="4.84095">
        <ele>226</ele>
        <time>2011-06-19T08:04:31Z</time>
      </trkpt>
      <trkpt lat="45.77175" lon="4.84093">
        <ele>226</ele>
        <time>2011-06-19T08:04:32Z</time>
      </trkpt>
      <trkpt lat="45.77179" lon="4.84091">
        <ele>226</ele>
        <time>2011-06-19T08:04:33Z</time>
      </trkpt>
      <trkpt lat="45.77183" lon="4.84088">
        <ele>225</ele>
        <time>2011-06-19T08:04:34Z</time>
      </trkpt>
      <trkpt lat="45.77188" lon="4.84087">
        <ele>224</ele>
        <time>2011-06-19T08:04:35Z</time>
      </trkpt>
      <trkpt lat="45.77192" lon="4.84086">
        <ele>224</ele>
        <time>2011-06-19T08:04:36Z</time>
      </trkpt>
      <trkpt lat="45.77197" lon="4.84086">
        <ele>224</ele>
        <time>2011-06-19T08:04:37Z</time>
      </trkpt>
      <trkpt lat="45.772" lon="4.84085">
        <ele>224</ele>
        <time>2011-06-19T08:04:38Z</time>
      </trkpt>
      <trkpt lat="45.77204" lon="4.84083">
        <ele>223</ele>
        <time>2011-06-19T08:04:39Z</time>
      </trkpt>
      <trkpt lat="45.77205" lon="4.84085">
        <ele>223</ele>
        <time>2011-06-19T08:04:40Z</time>
      </trkpt>
      <trkpt lat="45.77208" lon="4.84085">
        <ele>223</ele>
        <time>2011-06-19T08:04:41Z</time>
      </trkpt>
      <trkpt lat="45.77211" lon="4.84086">
        <ele>223</ele>
        <time>2011-06-19T08:04:42Z</time>
      </trkpt>
      <trkpt lat="45.77213" lon="4.84086">
        <ele>223</ele>
        <time>2011-06-19T08:04:43Z</time>
      </trkpt>
      <trkpt lat="45.77216" lon="4.84087">
        <ele>223</ele>
        <time>2011-06-19T08:04:44Z</time>
      </trkpt>
      <trkpt lat="45.77219" lon="4.84088">
        <ele>223</ele>
        <time>2011-06-19T08:04:45Z</time>
      </trkpt>
      <trkpt lat="45.77221" lon="4.84088">
        <ele>223</ele>
        <time>2011-06-19T08:04:46Z</time>
      </trkpt>
      <trkpt lat="45.77224" lon="4.84089">
        <ele>223</ele>
        <time>2011-06-19T08:04:47Z</time>
      </trkpt>
      <trkpt lat="45.77227" lon="4.8409">
        <ele>223</ele>
        <time>2011-06-19T08:04:48Z</time>
      </trkpt>
      <trkpt lat="45.77229" lon="4.84091">
        <ele>223</ele>
        <time>2011-06-19T08:04:49Z</time>
      </trkpt>
      <trkpt lat="45.77231" lon="4.84092">
        <ele>223</ele>
        <time>2011-06-19T08:04:50Z</time>
      </trkpt>
      <trkpt lat="45.77234" lon="4.84093">
        <ele>223</ele>
        <time>2011-06-19T08:04:51Z</time>
      </trkpt>
      <trkpt lat="45.77237" lon="4.8409">
        <ele>223</ele>
        <time>2011-06-19T08:04:52Z</time>
      </trkpt>
      <trkpt lat="45.77241" lon="4.8409">
        <ele>224</ele>
        <time>2011-06-19T08:04:53Z</time>
      </trkpt>
      <trkpt lat="45.77242" lon="4.84096">
        <ele>224</ele>
        <time>2011-06-19T08:04:54Z</time>
      </trkpt>
      <trkpt lat="45.77247" lon="4.84098">
        <ele>224</ele>
        <time>2011-06-19T08:04:55Z</time>
      </trkpt>
      <trkpt lat="45.77248" lon="4.84098">
        <ele>224</ele>
        <time>2011-06-19T08:04:56Z</time>
      </trkpt>
      <trkpt lat="45.7725" lon="4.84098">
        <ele>225</ele>
        <time>2011-06-19T08:04:57Z</time>
      </trkpt>
      <trkpt lat="45.77256" lon="4.84098">
        <ele>225</ele>
        <time>2011-06-19T08:04:58Z</time>
      </trkpt>
      <trkpt lat="45.77262" lon="4.84098">
        <ele>226</ele>
        <time>2011-06-19T08:04:59Z</time>
      </trkpt>
      <trkpt lat="45.77264" lon="4.84098">
        <ele>226</ele>
        <time>2011-06-19T08:05:00Z</time>
      </trkpt>
      <trkpt lat="45.77267" lon="4.84099">
        <ele>226</ele>
        <time>2011-06-19T08:05:01Z</time>
      </trkpt>
      <trkpt lat="45.77273" lon="4.84096">
        <ele>227</ele>
        <time>2011-06-19T08:05:02Z</time>
      </trkpt>
      <trkpt lat="45.77278" lon="4.84094">
        <ele>226</ele>
        <time>2011-06-19T08:05:03Z</time>
      </trkpt>
      <trkpt lat="45.77281" lon="4.84095">
        <ele>226</ele>
        <time>2011-06-19T08:05:04Z</time>
      </trkpt>
      <trkpt lat="45.77285" lon="4.84094">
        <ele>225</ele>
        <time>2011-06-19T08:05:05Z</time>
      </trkpt>
      <trkpt lat="45.77288" lon="4.84095">
        <ele>225</ele>
        <time>2011-06-19T08:05:06Z</time>
      </trkpt>
      <trkpt lat="45.77291" lon="4.84098">
        <ele>225</ele>
        <time>2011-06-19T08:05:07Z</time>
      </trkpt>
      <trkpt lat="45.77294" lon="4.841">
        <ele>225</ele>
        <time>2011-06-19T08:05:08Z</time>
      </trkpt>
      <trkpt lat="45.77296" lon="4.84101">
        <ele>225</ele>
        <time>2011-06-19T08:05:09Z</time>
      </trkpt>
      <trkpt lat="45.773" lon="4.84102">
        <ele>224</ele>
        <time>2011-06-19T08:05:10Z</time>
      </trkpt>
      <trkpt lat="45.77303" lon="4.84103">
        <ele>223</ele>
        <time>2011-06-19T08:05:11Z</time>
      </trkpt>
      <trkpt lat="45.77306" lon="4.84104">
        <ele>223</ele>
        <time>2011-06-19T08:05:12Z</time>
      </trkpt>
      <trkpt lat="45.77308" lon="4.84107">
        <ele>223</ele>
        <time>2011-06-19T08:05:14Z</time>
      </trkpt>
      <trkpt lat="45.7731" lon="4.84108">
        <ele>222</ele>
        <time>2011-06-19T08:05:14Z</time>
      </trkpt>
      <trkpt lat="45.77315" lon="4.84109">
        <ele>221</ele>
        <time>2011-06-19T08:05:15Z</time>
      </trkpt>
      <trkpt lat="45.77317" lon="4.84111">
        <ele>221</ele>
        <time>2011-06-19T08:05:16Z</time>
      </trkpt>
      <trkpt lat="45.77321" lon="4.84114">
        <ele>221</ele>
        <time>2011-06-19T08:05:17Z</time>
      </trkpt>
      <trkpt lat="45.77324" lon="4.84116">
        <ele>221</ele>
        <time>2011-06-19T08:05:18Z</time>
      </trkpt>
      <trkpt lat="45.77327" lon="4.84117">
        <ele>221</ele>
        <time>2011-06-19T08:05:19Z</time>
      </trkpt>
      <trkpt lat="45.77332" lon="4.84117">
        <ele>221</ele>
        <time>2011-06-19T08:05:20Z</time>
      </trkpt>
      <trkpt lat="45.77336" lon="4.84118">
        <ele>219</ele>
        <time>2011-06-19T08:05:21Z</time>
      </trkpt>
      <trkpt lat="45.77339" lon="4.84119">
        <ele>219</ele>
        <time>2011-06-19T08:05:22Z</time>
      </trkpt>
      <trkpt lat="45.77341" lon="4.84121">
        <ele>219</ele>
        <time>2011-06-19T08:05:23Z</time>
      </trkpt>
      <trkpt lat="45.77344" lon="4.84123">
        <ele>219</ele>
        <time>2011-06-19T08:05:24Z</time>
      </trkpt>
      <trkpt lat="45.77346" lon="4.84125">
        <ele>219</ele>
        <time>2011-06-19T08:05:25Z</time>
      </trkpt>
      <trkpt lat="45.77349" lon="4.84127">
        <ele>219</ele>
        <time>2011-06-19T08:05:26Z</time>
      </trkpt>
      <trkpt lat="45.77353" lon="4.84129">
        <ele>220</ele>
        <time>2011-06-19T08:05:27Z</time>
      </trkpt>
      <trkpt lat="45.77355" lon="4.84132">
        <ele>220</ele>
        <time>2011-06-19T08:05:28Z</time>
      </trkpt>
      <trkpt lat="45.77358" lon="4.84133">
        <ele>219</ele>
        <time>2011-06-19T08:05:29Z</time>
      </trkpt>
      <trkpt lat="45.7736" lon="4.84135">
        <ele>219</ele>
        <time>2011-06-19T08:05:30Z</time>
      </trkpt>
      <trkpt lat="45.77362" lon="4.84137">
        <ele>219</ele>
        <time>2011-06-19T08:05:31Z</time>
      </trkpt>
      <trkpt lat="45.77365" lon="4.84139">
        <ele>220</ele>
        <time>2011-06-19T08:05:32Z</time>
      </trkpt>
      <trkpt lat="45.77367" lon="4.84141">
        <ele>219</ele>
        <time>2011-06-19T08:05:33Z</time>
      </trkpt>
      <trkpt lat="45.77368" lon="4.84145">
        <ele>220</ele>
        <time>2011-06-19T08:05:34Z</time>
      </trkpt>
      <trkpt lat="45.77369" lon="4.84147">
        <ele>220</ele>
        <time>2011-06-19T08:05:35Z</time>
      </trkpt>
      <trkpt lat="45.7737" lon="4.84148">
        <ele>220</ele>
        <time>2011-06-19T08:05:36Z</time>
      </trkpt>
      <trkpt lat="45.77372" lon="4.8415">
        <ele>221</ele>
        <time>2011-06-19T08:05:37Z</time>
      </trkpt>
      <trkpt lat="45.77375" lon="4.84151">
        <ele>221</ele>
        <time>2011-06-19T08:05:38Z</time>
      </trkpt>
      <trkpt lat="45.77379" lon="4.84153">
        <ele>222</ele>
        <time>2011-06-19T08:05:39Z</time>
      </trkpt>
      <trkpt lat="45.77379" lon="4.84158">
        <ele>221</ele>
        <time>2011-06-19T08:05:40Z</time>
      </trkpt>
      <trkpt lat="45.7738" lon="4.8416">
        <ele>223</ele>
        <time>2011-06-19T08:05:41Z</time>
      </trkpt>
      <trkpt lat="45.77382" lon="4.84163">
        <ele>223</ele>
        <time>2011-06-19T08:05:42Z</time>
      </trkpt>
      <trkpt lat="45.77384" lon="4.84168">
        <ele>223</ele>
        <time>2011-06-19T08:05:43Z</time>
      </trkpt>
      <trkpt lat="45.77387" lon="4.84171">
        <ele>223</ele>
        <time>2011-06-19T08:05:44Z</time>
      </trkpt>
      <trkpt lat="45.7739" lon="4.84174">
        <ele>223</ele>
        <time>2011-06-19T08:05:45Z</time>
      </trkpt>
      <trkpt lat="45.77394" lon="4.84177">
        <ele>221</ele>
        <time>2011-06-19T08:05:46Z</time>
      </trkpt>
      <trkpt lat="45.77397" lon="4.84179">
        <ele>221</ele>
        <time>2011-06-19T08:05:47Z</time>
      </trkpt>
      <trkpt lat="45.774" lon="4.84183">
        <ele>223</ele>
        <time>2011-06-19T08:05:48Z</time>
      </trkpt>
      <trkpt lat="45.77401" lon="4.84186">
        <ele>224</ele>
        <time>2011-06-19T08:05:49Z</time>
      </trkpt>
      <trkpt lat="45.77404" lon="4.84189">
        <ele>224</ele>
        <time>2011-06-19T08:05:50Z</time>
      </trkpt>
      <trkpt lat="45.77407" lon="4.84192">
        <ele>224</ele>
        <time>2011-06-19T08:05:51Z</time>
      </trkpt>
      <trkpt lat="45.7741" lon="4.84193">
        <ele>224</ele>
        <time>2011-06-19T08:05:52Z</time>
      </trkpt>
      <trkpt lat="45.77414" lon="4.84195">
        <ele>224</ele>
        <time>2011-06-19T08:05:53Z</time>
      </trkpt>
      <trkpt lat="45.77417" lon="4.84198">
        <ele>223</ele>
        <time>2011-06-19T08:05:54Z</time>
      </trkpt>
      <trkpt lat="45.7742" lon="4.84199">
        <ele>222</ele>
        <time>2011-06-19T08:05:55Z</time>
      </trkpt>
      <trkpt lat="45.77424" lon="4.84201">
        <ele>222</ele>
        <time>2011-06-19T08:05:56Z</time>
      </trkpt>
      <trkpt lat="45.77426" lon="4.84203">
        <ele>222</ele>
        <time>2011-06-19T08:05:57Z</time>
      </trkpt>
      <trkpt lat="45.77428" lon="4.84205">
        <ele>222</ele>
        <time>2011-06-19T08:05:59Z</time>
      </trkpt>
      <trkpt lat="45.77431" lon="4.84207">
        <ele>221</ele>
        <time>2011-06-19T08:05:59Z</time>
      </trkpt>
      <trkpt lat="45.77433" lon="4.84208">
        <ele>221</ele>
        <time>2011-06-19T08:06:00Z</time>
      </trkpt>
      <trkpt lat="45.77436" lon="4.84209">
        <ele>221</ele>
        <time>2011-06-19T08:06:01Z</time>
      </trkpt>
      <trkpt lat="45.7744" lon="4.84208">
        <ele>221</ele>
        <time>2011-06-19T08:06:02Z</time>
      </trkpt>
      <trkpt lat="45.77443" lon="4.8421">
        <ele>221</ele>
        <time>2011-06-19T08:06:03Z</time>
      </trkpt>
      <trkpt lat="45.77446" lon="4.8421">
        <ele>221</ele>
        <time>2011-06-19T08:06:04Z</time>
      </trkpt>
      <trkpt lat="45.77448" lon="4.84212">
        <ele>222</ele>
        <time>2011-06-19T08:06:05Z</time>
      </trkpt>
      <trkpt lat="45.7745" lon="4.84213">
        <ele>223</ele>
        <time>2011-06-19T08:06:06Z</time>
      </trkpt>
      <trkpt lat="45.77454" lon="4.84216">
        <ele>223</ele>
        <time>2011-06-19T08:06:07Z</time>
      </trkpt>
      <trkpt lat="45.77456" lon="4.84219">
        <ele>223</ele>
        <time>2011-06-19T08:06:08Z</time>
      </trkpt>
      <trkpt lat="45.7746" lon="4.8422">
        <ele>222</ele>
        <time>2011-06-19T08:06:09Z</time>
      </trkpt>
      <trkpt lat="45.77463" lon="4.84222">
        <ele>223</ele>
        <time>2011-06-19T08:06:10Z</time>
      </trkpt>
      <trkpt lat="45.77466" lon="4.84223">
        <ele>223</ele>
        <time>2011-06-19T08:06:11Z</time>
      </trkpt>
      <trkpt lat="45.7747" lon="4.84226">
        <ele>223</ele>
        <time>2011-06-19T08:06:12Z</time>
      </trkpt>
      <trkpt lat="45.77472" lon="4.84227">
        <ele>222</ele>
        <time>2011-06-19T08:06:13Z</time>
      </trkpt>
      <trkpt lat="45.77476" lon="4.84228">
        <ele>223</ele>
        <time>2011-06-19T08:06:14Z</time>
      </trkpt>
      <trkpt lat="45.77478" lon="4.84229">
        <ele>222</ele>
        <time>2011-06-19T08:06:15Z</time>
      </trkpt>
      <trkpt lat="45.77482" lon="4.84232">
        <ele>222</ele>
        <time>2011-06-19T08:06:16Z</time>
      </trkpt>
      <trkpt lat="45.77485" lon="4.84234">
        <ele>222</ele>
        <time>2011-06-19T08:06:17Z</time>
      </trkpt>
      <trkpt lat="45.77486" lon="4.84237">
        <ele>221</ele>
        <time>2011-06-19T08:06:18Z</time>
      </trkpt>
      <trkpt lat="45.77489" lon="4.8424">
        <ele>220</ele>
        <time>2011-06-19T08:06:19Z</time>
      </trkpt>
      <trkpt lat="45.77491" lon="4.84243">
        <ele>219</ele>
        <time>2011-06-19T08:06:20Z</time>
      </trkpt>
      <trkpt lat="45.77493" lon="4.84245">
        <ele>220</ele>
        <time>2011-06-19T08:06:21Z</time>
      </trkpt>
      <trkpt lat="45.77497" lon="4.84247">
        <ele>220</ele>
        <time>2011-06-19T08:06:22Z</time>
      </trkpt>
      <trkpt lat="45.77499" lon="4.84249">
        <ele>219</ele>
        <time>2011-06-19T08:06:23Z</time>
      </trkpt>
      <trkpt lat="45.77503" lon="4.84251">
        <ele>220</ele>
        <time>2011-06-19T08:06:24Z</time>
      </trkpt>
      <trkpt lat="45.77506" lon="4.84253">
        <ele>220</ele>
        <time>2011-06-19T08:06:25Z</time>
      </trkpt>
      <trkpt lat="45.77508" lon="4.84256">
        <ele>220</ele>
        <time>2011-06-19T08:06:26Z</time>
      </trkpt>
      <trkpt lat="45.77512" lon="4.84258">
        <ele>220</ele>
        <time>2011-06-19T08:06:27Z</time>
      </trkpt>
      <trkpt lat="45.77514" lon="4.84259">
        <ele>220</ele>
        <time>2011-06-19T08:06:28Z</time>
      </trkpt>
      <trkpt lat="45.77516" lon="4.84261">
        <ele>220</ele>
        <time>2011-06-19T08:06:29Z</time>
      </trkpt>
      <trkpt lat="45.77519" lon="4.84263">
        <ele>220</ele>
        <time>2011-06-19T08:06:30Z</time>
      </trkpt>
      <trkpt lat="45.77522" lon="4.84264">
        <ele>220</ele>
        <time>2011-06-19T08:06:31Z</time>
      </trkpt>
      <trkpt lat="45.77525" lon="4.84266">
        <ele>219</ele>
        <time>2011-06-19T08:06:32Z</time>
      </trkpt>
      <trkpt lat="45.77528" lon="4.8427">
        <ele>219</ele>
        <time>2011-06-19T08:06:33Z</time>
      </trkpt>
      <trkpt lat="45.77531" lon="4.84271">
        <ele>219</ele>
        <time>2011-06-19T08:06:34Z</time>
      </trkpt>
      <trkpt lat="45.77534" lon="4.84272">
        <ele>218</ele>
        <time>2011-06-19T08:06:35Z</time>
      </trkpt>
      <trkpt lat="45.77537" lon="4.84273">
        <ele>218</ele>
        <time>2011-06-19T08:06:36Z</time>
      </trkpt>
      <trkpt lat="45.77538" lon="4.84276">
        <ele>219</ele>
        <time>2011-06-19T08:06:37Z</time>
      </trkpt>
      <trkpt lat="45.77541" lon="4.84279">
        <ele>219</ele>
        <time>2011-06-19T08:06:38Z</time>
      </trkpt>
      <trkpt lat="45.77543" lon="4.84282">
        <ele>219</ele>
        <time>2011-06-19T08:06:39Z</time>
      </trkpt>
      <trkpt lat="45.77547" lon="4.84284">
        <ele>219</ele>
        <time>2011-06-19T08:06:40Z</time>
      </trkpt>
      <trkpt lat="45.7755" lon="4.84286">
        <ele>219</ele>
        <time>2011-06-19T08:06:41Z</time>
      </trkpt>
      <trkpt lat="45.77552" lon="4.84289">
        <ele>219</ele>
        <time>2011-06-19T08:06:42Z</time>
      </trkpt>
      <trkpt lat="45.77555" lon="4.84291">
        <ele>219</ele>
        <time>2011-06-19T08:06:43Z</time>
      </trkpt>
      <trkpt lat="45.77558" lon="4.84293">
        <ele>220</ele>
        <time>2011-06-19T08:06:44Z</time>
      </trkpt>
      <trkpt lat="45.7756" lon="4.84297">
        <ele>220</ele>
        <time>2011-06-19T08:06:45Z</time>
      </trkpt>
      <trkpt lat="45.77563" lon="4.843">
        <ele>220</ele>
        <time>2011-06-19T08:06:46Z</time>
      </trkpt>
      <trkpt lat="45.77565" lon="4.84302">
        <ele>221</ele>
        <time>2011-06-19T08:06:47Z</time>
      </trkpt>
      <trkpt lat="45.77567" lon="4.84305">
        <ele>221</ele>
        <time>2011-06-19T08:06:48Z</time>
      </trkpt>
      <trkpt lat="45.77571" lon="4.84306">
        <ele>221</ele>
        <time>2011-06-19T08:06:49Z</time>
      </trkpt>
      <trkpt lat="45.77575" lon="4.84304">
        <ele>221</ele>
        <time>2011-06-19T08:06:50Z</time>
      </trkpt>
      <trkpt lat="45.77578" lon="4.84305">
        <ele>221</ele>
        <time>2011-06-19T08:06:51Z</time>
      </trkpt>
      <trkpt lat="45.7758" lon="4.84306">
        <ele>221</ele>
        <time>2011-06-19T08:06:52Z</time>
      </trkpt>
      <trkpt lat="45.77583" lon="4.84307">
        <ele>222</ele>
        <time>2011-06-19T08:06:53Z</time>
      </trkpt>
      <trkpt lat="45.77586" lon="4.84308">
        <ele>222</ele>
        <time>2011-06-19T08:06:54Z</time>
      </trkpt>
      <trkpt lat="45.77587" lon="4.8431">
        <ele>222</ele>
        <time>2011-06-19T08:06:55Z</time>
      </trkpt>
      <trkpt lat="45.77589" lon="4.8431">
        <ele>223</ele>
        <time>2011-06-19T08:06:56Z</time>
      </trkpt>
      <trkpt lat="45.77591" lon="4.8431">
        <ele>225</ele>
        <time>2011-06-19T08:06:57Z</time>
      </trkpt>
      <trkpt lat="45.77594" lon="4.84313">
        <ele>226</ele>
        <time>2011-06-19T08:06:58Z</time>
      </trkpt>
      <trkpt lat="45.77596" lon="4.84315">
        <ele>226</ele>
        <time>2011-06-19T08:06:59Z</time>
      </trkpt>
      <trkpt lat="45.77598" lon="4.84318">
        <ele>226</ele>
        <time>2011-06-19T08:07:00Z</time>
      </trkpt>
      <trkpt lat="45.77602" lon="4.8432">
        <ele>226</ele>
        <time>2011-06-19T08:07:01Z</time>
      </trkpt>
      <trkpt lat="45.77604" lon="4.84321">
        <ele>227</ele>
        <time>2011-06-19T08:07:02Z</time>
      </trkpt>
      <trkpt lat="45.77606" lon="4.84323">
        <ele>227</ele>
        <time>2011-06-19T08:07:03Z</time>
      </trkpt>
      <trkpt lat="45.77608" lon="4.84326">
        <ele>227</ele>
        <time>2011-06-19T08:07:04Z</time>
      </trkpt>
      <trkpt lat="45.77611" lon="4.84328">
        <ele>227</ele>
        <time>2011-06-19T08:07:05Z</time>
      </trkpt>
      <trkpt lat="45.77614" lon="4.8433">
        <ele>227</ele>
        <time>2011-06-19T08:07:06Z</time>
      </trkpt>
      <trkpt lat="45.77617" lon="4.84333">
        <ele>228</ele>
        <time>2011-06-19T08:07:07Z</time>
      </trkpt>
      <trkpt lat="45.77619" lon="4.84335">
        <ele>228</ele>
        <time>2011-06-19T08:07:08Z</time>
      </trkpt>
      <trkpt lat="45.77622" lon="4.84338">
        <ele>227</ele>
        <time>2011-06-19T08:07:09Z</time>
      </trkpt>
      <trkpt lat="45.77624" lon="4.84343">
        <ele>226</ele>
        <time>2011-06-19T08:07:10Z</time>
      </trkpt>
      <trkpt lat="45.77629" lon="4.84349">
        <ele>222.41310119629</ele>
        <time>2011-06-19T08:07:11Z</time>
      </trkpt>
      <trkpt lat="45.77633" lon="4.84352">
        <ele>222</ele>
        <time>2011-06-19T08:07:12Z</time>
      </trkpt>
      <trkpt lat="45.77636" lon="4.84355">
        <ele>222</ele>
        <time>2011-06-19T08:07:13Z</time>
      </trkpt>
      <trkpt lat="45.77639" lon="4.84358">
        <ele>222</ele>
        <time>2011-06-19T08:07:14Z</time>
      </trkpt>
      <trkpt lat="45.77641" lon="4.8436">
        <ele>222</ele>
        <time>2011-06-19T08:07:15Z</time>
      </trkpt>
      <trkpt lat="45.77644" lon="4.84362">
        <ele>222</ele>
        <time>2011-06-19T08:07:16Z</time>
      </trkpt>
      <trkpt lat="45.77647" lon="4.84362">
        <ele>222</ele>
        <time>2011-06-19T08:07:17Z</time>
      </trkpt>
      <trkpt lat="45.7765" lon="4.84365">
        <ele>222</ele>
        <time>2011-06-19T08:07:18Z</time>
      </trkpt>
      <trkpt lat="45.77651" lon="4.84368">
        <ele>222</ele>
        <time>2011-06-19T08:07:19Z</time>
      </trkpt>
      <trkpt lat="45.77654" lon="4.8437">
        <ele>223</ele>
        <time>2011-06-19T08:07:20Z</time>
      </trkpt>
      <trkpt lat="45.77657" lon="4.84373">
        <ele>223</ele>
        <time>2011-06-19T08:07:21Z</time>
      </trkpt>
      <trkpt lat="45.77659" lon="4.84375">
        <ele>224</ele>
        <time>2011-06-19T08:07:22Z</time>
      </trkpt>
      <trkpt lat="45.77662" lon="4.84377">
        <ele>225</ele>
        <time>2011-06-19T08:07:23Z</time>
      </trkpt>
      <trkpt lat="45.77664" lon="4.84379">
        <ele>225</ele>
        <time>2011-06-19T08:07:24Z</time>
      </trkpt>
      <trkpt lat="45.77668" lon="4.84381">
        <ele>225</ele>
        <time>2011-06-19T08:07:25Z</time>
      </trkpt>
      <trkpt lat="45.77671" lon="4.84383">
        <ele>225</ele>
        <time>2011-06-19T08:07:26Z</time>
      </trkpt>
      <trkpt lat="45.77674" lon="4.84384">
        <ele>226</ele>
        <time>2011-06-19T08:07:27Z</time>
      </trkpt>
      <trkpt lat="45.77678" lon="4.84386">
        <ele>226</ele>
        <time>2011-06-19T08:07:28Z</time>
      </trkpt>
      <trkpt lat="45.7768" lon="4.84389">
        <ele>226</ele>
        <time>2011-06-19T08:07:29Z</time>
      </trkpt>
      <trkpt lat="45.77682" lon="4.8439">
        <ele>226</ele>
        <time>2011-06-19T08:07:30Z</time>
      </trkpt>
      <trkpt lat="45.77685" lon="4.8439">
        <ele>225</ele>
        <time>2011-06-19T08:07:31Z</time>
      </trkpt>
      <trkpt lat="45.77689" lon="4.84389">
        <ele>225</ele>
        <time>2011-06-19T08:07:32Z</time>
      </trkpt>
      <trkpt lat="45.77694" lon="4.84389">
        <ele>225</ele>
        <time>2011-06-19T08:07:33Z</time>
      </trkpt>
      <trkpt lat="45.77699" lon="4.84386">
        <ele>225</ele>
        <time>2011-06-19T08:07:34Z</time>
      </trkpt>
      <trkpt lat="45.77703" lon="4.84386">
        <ele>226</ele>
        <time>2011-06-19T08:07:35Z</time>
      </trkpt>
      <trkpt lat="45.77706" lon="4.84387">
        <ele>225</ele>
        <time>2011-06-19T08:07:36Z</time>
      </trkpt>
      <trkpt lat="45.77708" lon="4.84387">
        <ele>226</ele>
        <time>2011-06-19T08:07:37Z</time>
      </trkpt>
      <trkpt lat="45.77711" lon="4.84387">
        <ele>227</ele>
        <time>2011-06-19T08:07:38Z</time>
      </trkpt>
      <trkpt lat="45.77715" lon="4.84386">
        <ele>227</ele>
        <time>2011-06-19T08:07:39Z</time>
      </trkpt>
      <trkpt lat="45.77718" lon="4.84384">
        <ele>228</ele>
        <time>2011-06-19T08:07:40Z</time>
      </trkpt>
      <trkpt lat="45.77719" lon="4.84383">
        <ele>229</ele>
        <time>2011-06-19T08:07:41Z</time>
      </trkpt>
      <trkpt lat="45.77722" lon="4.84381">
        <ele>230</ele>
        <time>2011-06-19T08:07:42Z</time>
      </trkpt>
      <trkpt lat="45.77726" lon="4.84383">
        <ele>230</ele>
        <time>2011-06-19T08:07:43Z</time>
      </trkpt>
      <trkpt lat="45.7773" lon="4.84382">
        <ele>229</ele>
        <time>2011-06-19T08:07:44Z</time>
      </trkpt>
      <trkpt lat="45.77733" lon="4.84384">
        <ele>229</ele>
        <time>2011-06-19T08:07:45Z</time>
      </trkpt>
      <trkpt lat="45.77736" lon="4.84384">
        <ele>229</ele>
        <time>2011-06-19T08:07:46Z</time>
      </trkpt>
      <trkpt lat="45.7774" lon="4.84384">
        <ele>228</ele>
        <time>2011-06-19T08:07:47Z</time>
      </trkpt>
      <trkpt lat="45.77743" lon="4.84384">
        <ele>228</ele>
        <time>2011-06-19T08:07:48Z</time>
      </trkpt>
      <trkpt lat="45.77746" lon="4.84384">
        <ele>228</ele>
        <time>2011-06-19T08:07:49Z</time>
      </trkpt>
      <trkpt lat="45.7775" lon="4.84383">
        <ele>227</ele>
        <time>2011-06-19T08:07:50Z</time>
      </trkpt>
      <trkpt lat="45.77752" lon="4.84383">
        <ele>227</ele>
        <time>2011-06-19T08:07:51Z</time>
      </trkpt>
      <trkpt lat="45.77755" lon="4.84384">
        <ele>227</ele>
        <time>2011-06-19T08:07:52Z</time>
      </trkpt>
      <trkpt lat="45.77758" lon="4.84384">
        <ele>228</ele>
        <time>2011-06-19T08:07:53Z</time>
      </trkpt>
      <trkpt lat="45.77762" lon="4.84382">
        <ele>227</ele>
        <time>2011-06-19T08:07:54Z</time>
      </trkpt>
      <trkpt lat="45.77765" lon="4.84381">
        <ele>227</ele>
        <time>2011-06-19T08:07:55Z</time>
      </trkpt>
      <trkpt lat="45.77767" lon="4.84381">
        <ele>227</ele>
        <time>2011-06-19T08:07:56Z</time>
      </trkpt>
      <trkpt lat="45.7777" lon="4.84381">
        <ele>227</ele>
        <time>2011-06-19T08:07:57Z</time>
      </trkpt>
      <trkpt lat="45.77773" lon="4.84383">
        <ele>226</ele>
        <time>2011-06-19T08:07:58Z</time>
      </trkpt>
      <trkpt lat="45.77775" lon="4.84384">
        <ele>225</ele>
        <time>2011-06-19T08:07:59Z</time>
      </trkpt>
      <trkpt lat="45.7778" lon="4.84384">
        <ele>225</ele>
        <time>2011-06-19T08:08:00Z</time>
      </trkpt>
      <trkpt lat="45.77783" lon="4.84386">
        <ele>225</ele>
        <time>2011-06-19T08:08:01Z</time>
      </trkpt>
      <trkpt lat="45.77786" lon="4.84388">
        <ele>224</ele>
        <time>2011-06-19T08:08:02Z</time>
      </trkpt>
      <trkpt lat="45.77789" lon="4.84387">
        <ele>224</ele>
        <time>2011-06-19T08:08:03Z</time>
      </trkpt>
      <trkpt lat="45.77792" lon="4.84388">
        <ele>224</ele>
        <time>2011-06-19T08:08:04Z</time>
      </trkpt>
      <trkpt lat="45.77793" lon="4.8439">
        <ele>224</ele>
        <time>2011-06-19T08:08:05Z</time>
      </trkpt>
      <trkpt lat="45.77795" lon="4.8439">
        <ele>224</ele>
        <time>2011-06-19T08:08:06Z</time>
      </trkpt>
      <trkpt lat="45.77797" lon="4.84389">
        <ele>223</ele>
        <time>2011-06-19T08:08:07Z</time>
      </trkpt>
      <trkpt lat="45.77799" lon="4.84389">
        <ele>223</ele>
        <time>2011-06-19T08:08:08Z</time>
      </trkpt>
      <trkpt lat="45.77802" lon="4.84388">
        <ele>223</ele>
        <time>2011-06-19T08:08:09Z</time>
      </trkpt>
      <trkpt lat="45.77805" lon="4.8439">
        <ele>223</ele>
        <time>2011-06-19T08:08:10Z</time>
      </trkpt>
      <trkpt lat="45.77808" lon="4.84391">
        <ele>223</ele>
        <time>2011-06-19T08:08:11Z</time>
      </trkpt>
      <trkpt lat="45.77811" lon="4.84396">
        <ele>222</ele>
        <time>2011-06-19T08:08:12Z</time>
      </trkpt>
      <trkpt lat="45.77815" lon="4.84399">
        <ele>222</ele>
        <time>2011-06-19T08:08:13Z</time>
      </trkpt>
      <trkpt lat="45.77819" lon="4.84401">
        <ele>221</ele>
        <time>2011-06-19T08:08:14Z</time>
      </trkpt>
      <trkpt lat="45.77824" lon="4.84401">
        <ele>220</ele>
        <time>2011-06-19T08:08:15Z</time>
      </trkpt>
      <trkpt lat="45.77828" lon="4.84402">
        <ele>220</ele>
        <time>2011-06-19T08:08:16Z</time>
      </trkpt>
      <trkpt lat="45.7783" lon="4.84404">
        <ele>218</ele>
        <time>2011-06-19T08:08:17Z</time>
      </trkpt>
      <trkpt lat="45.77833" lon="4.84407">
        <ele>217</ele>
        <time>2011-06-19T08:08:18Z</time>
      </trkpt>
      <trkpt lat="45.77834" lon="4.84412">
        <ele>217</ele>
        <time>2011-06-19T08:08:19Z</time>
      </trkpt>
      <trkpt lat="45.77837" lon="4.84414">
        <ele>217</ele>
        <time>2011-06-19T08:08:20Z</time>
      </trkpt>
      <trkpt lat="45.77839" lon="4.84417">
        <ele>217</ele>
        <time>2011-06-19T08:08:21Z</time>
      </trkpt>
      <trkpt lat="45.77843" lon="4.84419">
        <ele>218</ele>
        <time>2011-06-19T08:08:22Z</time>
      </trkpt>
      <trkpt lat="45.77847" lon="4.84421">
        <ele>217</ele>
        <time>2011-06-19T08:08:23Z</time>
      </trkpt>
      <trkpt lat="45.7785" lon="4.84424">
        <ele>218</ele>
        <time>2011-06-19T08:08:24Z</time>
      </trkpt>
      <trkpt lat="45.77854" lon="4.84424">
        <ele>219</ele>
        <time>2011-06-19T08:08:25Z</time>
      </trkpt>
      <trkpt lat="45.77856" lon="4.84426">
        <ele>219</ele>
        <time>2011-06-19T08:08:26Z</time>
      </trkpt>
      <trkpt lat="45.77858" lon="4.84427">
        <ele>219</ele>
        <time>2011-06-19T08:08:27Z</time>
      </trkpt>
      <trkpt lat="45.77859" lon="4.84429">
        <ele>219</ele>
        <time>2011-06-19T08:08:28Z</time>
      </trkpt>
      <trkpt lat="45.77861" lon="4.84432">
        <ele>219</ele>
        <time>2011-06-19T08:08:29Z</time>
      </trkpt>
      <trkpt lat="45.77865" lon="4.84433">
        <ele>218</ele>
        <time>2011-06-19T08:08:30Z</time>
      </trkpt>
      <trkpt lat="45.77868" lon="4.84436">
        <ele>218</ele>
        <time>2011-06-19T08:08:31Z</time>
      </trkpt>
      <trkpt lat="45.7787" lon="4.84438">
        <ele>218</ele>
        <time>2011-06-19T08:08:32Z</time>
      </trkpt>
      <trkpt lat="45.77874" lon="4.8444">
        <ele>218</ele>
        <time>2011-06-19T08:08:33Z</time>
      </trkpt>
      <trkpt lat="45.77876" lon="4.84442">
        <ele>218</ele>
        <time>2011-06-19T08:08:34Z</time>
      </trkpt>
      <trkpt lat="45.77879" lon="4.84444">
        <ele>219</ele>
        <time>2011-06-19T08:08:35Z</time>
      </trkpt>
      <trkpt lat="45.77882" lon="4.84446">
        <ele>219</ele>
        <time>2011-06-19T08:08:36Z</time>
      </trkpt>
      <trkpt lat="45.77884" lon="4.84449">
        <ele>219</ele>
        <time>2011-06-19T08:08:37Z</time>
      </trkpt>
      <trkpt lat="45.77887" lon="4.8445">
        <ele>219</ele>
        <time>2011-06-19T08:08:38Z</time>
      </trkpt>
      <trkpt lat="45.77889" lon="4.84452">
        <ele>219</ele>
        <time>2011-06-19T08:08:39Z</time>
      </trkpt>
      <trkpt lat="45.77892" lon="4.84454">
        <ele>219</ele>
        <time>2011-06-19T08:08:40Z</time>
      </trkpt>
      <trkpt lat="45.77896" lon="4.84455">
        <ele>219</ele>
        <time>2011-06-19T08:08:41Z</time>
      </trkpt>
      <trkpt lat="45.77899" lon="4.84456">
        <ele>218</ele>
        <time>2011-06-19T08:08:42Z</time>
      </trkpt>
      <trkpt lat="45.77902" lon="4.84459">
        <ele>218</ele>
        <time>2011-06-19T08:08:43Z</time>
      </trkpt>
      <trkpt lat="45.77905" lon="4.84461">
        <ele>217</ele>
        <time>2011-06-19T08:08:44Z</time>
      </trkpt>
      <trkpt lat="45.77907" lon="4.84463">
        <ele>217</ele>
        <time>2011-06-19T08:08:45Z</time>
      </trkpt>
      <trkpt lat="45.7791" lon="4.84467">
        <ele>218</ele>
        <time>2011-06-19T08:08:46Z</time>
      </trkpt>
      <trkpt lat="45.77912" lon="4.84469">
        <ele>218</ele>
        <time>2011-06-19T08:08:47Z</time>
      </trkpt>
      <trkpt lat="45.77913" lon="4.84472">
        <ele>218</ele>
        <time>2011-06-19T08:08:48Z</time>
      </trkpt>
      <trkpt lat="45.77916" lon="4.84473">
        <ele>218</ele>
        <time>2011-06-19T08:08:49Z</time>
      </trkpt>
      <trkpt lat="45.77919" lon="4.84475">
        <ele>219</ele>
        <time>2011-06-19T08:08:50Z</time>
      </trkpt>
      <trkpt lat="45.77921" lon="4.84477">
        <ele>218</ele>
        <time>2011-06-19T08:08:51Z</time>
      </trkpt>
      <trkpt lat="45.77925" lon="4.84479">
        <ele>218</ele>
        <time>2011-06-19T08:08:52Z</time>
      </trkpt>
      <trkpt lat="45.77927" lon="4.8448">
        <ele>218</ele>
        <time>2011-06-19T08:08:53Z</time>
      </trkpt>
      <trkpt lat="45.77929" lon="4.84483">
        <ele>218</ele>
        <time>2011-06-19T08:08:54Z</time>
      </trkpt>
      <trkpt lat="45.77932" lon="4.84484">
        <ele>218</ele>
        <time>2011-06-19T08:08:55Z</time>
      </trkpt>
      <trkpt lat="45.77934" lon="4.84485">
        <ele>218</ele>
        <time>2011-06-19T08:08:56Z</time>
      </trkpt>
      <trkpt lat="45.77937" lon="4.84487">
        <ele>218</ele>
        <time>2011-06-19T08:08:57Z</time>
      </trkpt>
      <trkpt lat="45.7794" lon="4.8449">
        <ele>218</ele>
        <time>2011-06-19T08:08:58Z</time>
      </trkpt>
      <trkpt lat="45.77942" lon="4.84492">
        <ele>218</ele>
        <time>2011-06-19T08:08:59Z</time>
      </trkpt>
      <trkpt lat="45.77945" lon="4.84494">
        <ele>218</ele>
        <time>2011-06-19T08:09:00Z</time>
      </trkpt>
      <trkpt lat="45.77949" lon="4.84496">
        <ele>218</ele>
        <time>2011-06-19T08:09:01Z</time>
      </trkpt>
      <trkpt lat="45.77951" lon="4.84498">
        <ele>218</ele>
        <time>2011-06-19T08:09:02Z</time>
      </trkpt>
      <trkpt lat="45.77954" lon="4.845">
        <ele>218</ele>
        <time>2011-06-19T08:09:03Z</time>
      </trkpt>
      <trkpt lat="45.77957" lon="4.84501">
        <ele>218</ele>
        <time>2011-06-19T08:09:04Z</time>
      </trkpt>
      <trkpt lat="45.77961" lon="4.84501">
        <ele>217</ele>
        <time>2011-06-19T08:09:05Z</time>
      </trkpt>
      <trkpt lat="45.77965" lon="4.84504">
        <ele>218</ele>
        <time>2011-06-19T08:09:06Z</time>
      </trkpt>
      <trkpt lat="45.77968" lon="4.84504">
        <ele>218</ele>
        <time>2011-06-19T08:09:07Z</time>
      </trkpt>
      <trkpt lat="45.7797" lon="4.84506">
        <ele>218</ele>
        <time>2011-06-19T08:09:08Z</time>
      </trkpt>
      <trkpt lat="45.77974" lon="4.84508">
        <ele>218</ele>
        <time>2011-06-19T08:09:09Z</time>
      </trkpt>
      <trkpt lat="45.77977" lon="4.8451">
        <ele>217</ele>
        <time>2011-06-19T08:09:10Z</time>
      </trkpt>
      <trkpt lat="45.77979" lon="4.84513">
        <ele>217</ele>
        <time>2011-06-19T08:09:11Z</time>
      </trkpt>
      <trkpt lat="45.7798" lon="4.84516">
        <ele>217</ele>
        <time>2011-06-19T08:09:12Z</time>
      </trkpt>
      <trkpt lat="45.77984" lon="4.84518">
        <ele>217</ele>
        <time>2011-06-19T08:09:13Z</time>
      </trkpt>
      <trkpt lat="45.77986" lon="4.84521">
        <ele>217</ele>
        <time>2011-06-19T08:09:14Z</time>
      </trkpt>
      <trkpt lat="45.77988" lon="4.84524">
        <ele>217</ele>
        <time>2011-06-19T08:09:15Z</time>
      </trkpt>
      <trkpt lat="45.7799" lon="4.84527">
        <ele>217</ele>
        <time>2011-06-19T08:09:16Z</time>
      </trkpt>
      <trkpt lat="45.77992" lon="4.84528">
        <ele>217</ele>
        <time>2011-06-19T08:09:17Z</time>
      </trkpt>
      <trkpt lat="45.77994" lon="4.84531">
        <ele>218</ele>
        <time>2011-06-19T08:09:18Z</time>
      </trkpt>
      <trkpt lat="45.77996" lon="4.84534">
        <ele>218</ele>
        <time>2011-06-19T08:09:19Z</time>
      </trkpt>
      <trkpt lat="45.77999" lon="4.84535">
        <ele>218</ele>
        <time>2011-06-19T08:09:20Z</time>
      </trkpt>
      <trkpt lat="45.78002" lon="4.84537">
        <ele>218</ele>
        <time>2011-06-19T08:09:21Z</time>
      </trkpt>
      <trkpt lat="45.78006" lon="4.84537">
        <ele>218</ele>
        <time>2011-06-19T08:09:22Z</time>
      </trkpt>
      <trkpt lat="45.78008" lon="4.8454">
        <ele>218</ele>
        <time>2011-06-19T08:09:23Z</time>
      </trkpt>
      <trkpt lat="45.7801" lon="4.84543">
        <ele>218</ele>
        <time>2011-06-19T08:09:24Z</time>
      </trkpt>
      <trkpt lat="45.78014" lon="4.84546">
        <ele>217</ele>
        <time>2011-06-19T08:09:25Z</time>
      </trkpt>
      <trkpt lat="45.78016" lon="4.84548">
        <ele>218</ele>
        <time>2011-06-19T08:09:26Z</time>
      </trkpt>
      <trkpt lat="45.78019" lon="4.84551">
        <ele>217</ele>
        <time>2011-06-19T08:09:27Z</time>
      </trkpt>
      <trkpt lat="45.78022" lon="4.84553">
        <ele>217</ele>
        <time>2011-06-19T08:09:28Z</time>
      </trkpt>
      <trkpt lat="45.78025" lon="4.84556">
        <ele>218</ele>
        <time>2011-06-19T08:09:30Z</time>
      </trkpt>
      <trkpt lat="45.78027" lon="4.84558">
        <ele>218</ele>
        <time>2011-06-19T08:09:30Z</time>
      </trkpt>
      <trkpt lat="45.78028" lon="4.84562">
        <ele>218</ele>
        <time>2011-06-19T08:09:31Z</time>
      </trkpt>
      <trkpt lat="45.78031" lon="4.84564">
        <ele>218</ele>
        <time>2011-06-19T08:09:32Z</time>
      </trkpt>
      <trkpt lat="45.78032" lon="4.84567">
        <ele>218</ele>
        <time>2011-06-19T08:09:33Z</time>
      </trkpt>
      <trkpt lat="45.78036" lon="4.84568">
        <ele>218</ele>
        <time>2011-06-19T08:09:34Z</time>
      </trkpt>
      <trkpt lat="45.78038" lon="4.84571">
        <ele>218</ele>
        <time>2011-06-19T08:09:35Z</time>
      </trkpt>
      <trkpt lat="45.7804" lon="4.84572">
        <ele>218</ele>
        <time>2011-06-19T08:09:36Z</time>
      </trkpt>
      <trkpt lat="45.78043" lon="4.84574">
        <ele>218</ele>
        <time>2011-06-19T08:09:37Z</time>
      </trkpt>
      <trkpt lat="45.78046" lon="4.84575">
        <ele>218</ele>
        <time>2011-06-19T08:09:38Z</time>
      </trkpt>
      <trkpt lat="45.78049" lon="4.84575">
        <ele>218</ele>
        <time>2011-06-19T08:09:39Z</time>
      </trkpt>
      <trkpt lat="45.78051" lon="4.84577">
        <ele>218</ele>
        <time>2011-06-19T08:09:40Z</time>
      </trkpt>
      <trkpt lat="45.78054" lon="4.84578">
        <ele>218</ele>
        <time>2011-06-19T08:09:41Z</time>
      </trkpt>
      <trkpt lat="45.78056" lon="4.8458">
        <ele>218</ele>
        <time>2011-06-19T08:09:42Z</time>
      </trkpt>
      <trkpt lat="45.78059" lon="4.84582">
        <ele>218</ele>
        <time>2011-06-19T08:09:43Z</time>
      </trkpt>
      <trkpt lat="45.78062" lon="4.84583">
        <ele>219</ele>
        <time>2011-06-19T08:09:44Z</time>
      </trkpt>
      <trkpt lat="45.78064" lon="4.84585">
        <ele>219</ele>
        <time>2011-06-19T08:09:45Z</time>
      </trkpt>
      <trkpt lat="45.78067" lon="4.84587">
        <ele>220</ele>
        <time>2011-06-19T08:09:46Z</time>
      </trkpt>
      <trkpt lat="45.78072" lon="4.8459">
        <ele>219</ele>
        <time>2011-06-19T08:09:47Z</time>
      </trkpt>
      <trkpt lat="45.78075" lon="4.84594">
        <ele>219</ele>
        <time>2011-06-19T08:09:48Z</time>
      </trkpt>
      <trkpt lat="45.78077" lon="4.84596">
        <ele>219</ele>
        <time>2011-06-19T08:09:49Z</time>
      </trkpt>
      <trkpt lat="45.7808" lon="4.84599">
        <ele>219</ele>
        <time>2011-06-19T08:09:50Z</time>
      </trkpt>
      <trkpt lat="45.78082" lon="4.84602">
        <ele>219</ele>
        <time>2011-06-19T08:09:51Z</time>
      </trkpt>
      <trkpt lat="45.78084" lon="4.84604">
        <ele>219</ele>
        <time>2011-06-19T08:09:52Z</time>
      </trkpt>
      <trkpt lat="45.78086" lon="4.84607">
        <ele>219</ele>
        <time>2011-06-19T08:09:53Z</time>
      </trkpt>
      <trkpt lat="45.78089" lon="4.84609">
        <ele>219</ele>
        <time>2011-06-19T08:09:54Z</time>
      </trkpt>
      <trkpt lat="45.78092" lon="4.8461">
        <ele>219</ele>
        <time>2011-06-19T08:09:55Z</time>
      </trkpt>
      <trkpt lat="45.78095" lon="4.84611">
        <ele>219</ele>
        <time>2011-06-19T08:09:56Z</time>
      </trkpt>
      <trkpt lat="45.78098" lon="4.84613">
        <ele>219</ele>
        <time>2011-06-19T08:09:57Z</time>
      </trkpt>
      <trkpt lat="45.78101" lon="4.84615">
        <ele>219</ele>
        <time>2011-06-19T08:09:58Z</time>
      </trkpt>
      <trkpt lat="45.78104" lon="4.84616">
        <ele>218</ele>
        <time>2011-06-19T08:09:59Z</time>
      </trkpt>
      <trkpt lat="45.78105" lon="4.8462">
        <ele>217</ele>
        <time>2011-06-19T08:10:00Z</time>
      </trkpt>
      <trkpt lat="45.78107" lon="4.84623">
        <ele>217</ele>
        <time>2011-06-19T08:10:01Z</time>
      </trkpt>
      <trkpt lat="45.78109" lon="4.84625">
        <ele>217</ele>
        <time>2011-06-19T08:10:02Z</time>
      </trkpt>
      <trkpt lat="45.78111" lon="4.84627">
        <ele>216</ele>
        <time>2011-06-19T08:10:03Z</time>
      </trkpt>
      <trkpt lat="45.78113" lon="4.84629">
        <ele>215</ele>
        <time>2011-06-19T08:10:04Z</time>
      </trkpt>
      <trkpt lat="45.78116" lon="4.84631">
        <ele>215</ele>
        <time>2011-06-19T08:10:05Z</time>
      </trkpt>
      <trkpt lat="45.7812" lon="4.84634">
        <ele>216</ele>
        <time>2011-06-19T08:10:06Z</time>
      </trkpt>
      <trkpt lat="45.78121" lon="4.84638">
        <ele>216</ele>
        <time>2011-06-19T08:10:07Z</time>
      </trkpt>
      <trkpt lat="45.78125" lon="4.8464">
        <ele>217</ele>
        <time>2011-06-19T08:10:08Z</time>
      </trkpt>
      <trkpt lat="45.78127" lon="4.84644">
        <ele>218</ele>
        <time>2011-06-19T08:10:09Z</time>
      </trkpt>
      <trkpt lat="45.78131" lon="4.84647">
        <ele>217</ele>
        <time>2011-06-19T08:10:10Z</time>
      </trkpt>
      <trkpt lat="45.78134" lon="4.8465">
        <ele>218</ele>
        <time>2011-06-19T08:10:11Z</time>
      </trkpt>
      <trkpt lat="45.78136" lon="4.84653">
        <ele>218</ele>
        <time>2011-06-19T08:10:12Z</time>
      </trkpt>
      <trkpt lat="45.78139" lon="4.84655">
        <ele>218</ele>
        <time>2011-06-19T08:10:13Z</time>
      </trkpt>
      <trkpt lat="45.78142" lon="4.84658">
        <ele>217</ele>
        <time>2011-06-19T08:10:14Z</time>
      </trkpt>
      <trkpt lat="45.78145" lon="4.84661">
        <ele>217</ele>
        <time>2011-06-19T08:10:15Z</time>
      </trkpt>
      <trkpt lat="45.78148" lon="4.84662">
        <ele>217</ele>
        <time>2011-06-19T08:10:16Z</time>
      </trkpt>
      <trkpt lat="45.78152" lon="4.84664">
        <ele>216</ele>
        <time>2011-06-19T08:10:17Z</time>
      </trkpt>
      <trkpt lat="45.78154" lon="4.84666">
        <ele>215</ele>
        <time>2011-06-19T08:10:18Z</time>
      </trkpt>
      <trkpt lat="45.78156" lon="4.84668">
        <ele>215</ele>
        <time>2011-06-19T08:10:19Z</time>
      </trkpt>
      <trkpt lat="45.78158" lon="4.84671">
        <ele>216</ele>
        <time>2011-06-19T08:10:20Z</time>
      </trkpt>
      <trkpt lat="45.7816" lon="4.84675">
        <ele>216</ele>
        <time>2011-06-19T08:10:21Z</time>
      </trkpt>
      <trkpt lat="45.78162" lon="4.84677">
        <ele>216</ele>
        <time>2011-06-19T08:10:22Z</time>
      </trkpt>
      <trkpt lat="45.78164" lon="4.84679">
        <ele>216</ele>
        <time>2011-06-19T08:10:23Z</time>
      </trkpt>
      <trkpt lat="45.78167" lon="4.84681">
        <ele>216</ele>
        <time>2011-06-19T08:10:24Z</time>
      </trkpt>
      <trkpt lat="45.7817" lon="4.84683">
        <ele>217</ele>
        <time>2011-06-19T08:10:25Z</time>
      </trkpt>
      <trkpt lat="45.78173" lon="4.84684">
        <ele>217</ele>
        <time>2011-06-19T08:10:26Z</time>
      </trkpt>
      <trkpt lat="45.78176" lon="4.84686">
        <ele>218</ele>
        <time>2011-06-19T08:10:27Z</time>
      </trkpt>
      <trkpt lat="45.78179" lon="4.84688">
        <ele>218</ele>
        <time>2011-06-19T08:10:28Z</time>
      </trkpt>
      <trkpt lat="45.78181" lon="4.8469">
        <ele>218</ele>
        <time>2011-06-19T08:10:29Z</time>
      </trkpt>
      <trkpt lat="45.78185" lon="4.8469">
        <ele>218</ele>
        <time>2011-06-19T08:10:30Z</time>
      </trkpt>
      <trkpt lat="45.78189" lon="4.84692">
        <ele>218</ele>
        <time>2011-06-19T08:10:31Z</time>
      </trkpt>
      <trkpt lat="45.78192" lon="4.84693">
        <ele>219</ele>
        <time>2011-06-19T08:10:32Z</time>
      </trkpt>
      <trkpt lat="45.78195" lon="4.84693">
        <ele>219</ele>
        <time>2011-06-19T08:10:33Z</time>
      </trkpt>
      <trkpt lat="45.78198" lon="4.84694">
        <ele>219</ele>
        <time>2011-06-19T08:10:34Z</time>
      </trkpt>
      <trkpt lat="45.78201" lon="4.84696">
        <ele>219</ele>
        <time>2011-06-19T08:10:35Z</time>
      </trkpt>
      <trkpt lat="45.78204" lon="4.84698">
        <ele>219</ele>
        <time>2011-06-19T08:10:36Z</time>
      </trkpt>
      <trkpt lat="45.78207" lon="4.847">
        <ele>220</ele>
        <time>2011-06-19T08:10:37Z</time>
      </trkpt>
      <trkpt lat="45.78209" lon="4.84702">
        <ele>221</ele>
        <time>2011-06-19T08:10:38Z</time>
      </trkpt>
      <trkpt lat="45.78212" lon="4.84704">
        <ele>222</ele>
        <time>2011-06-19T08:10:39Z</time>
      </trkpt>
      <trkpt lat="45.78215" lon="4.84705">
        <ele>222</ele>
        <time>2011-06-19T08:10:40Z</time>
      </trkpt>
      <trkpt lat="45.78218" lon="4.84708">
        <ele>222</ele>
        <time>2011-06-19T08:10:41Z</time>
      </trkpt>
      <trkpt lat="45.7822" lon="4.84711">
        <ele>222</ele>
        <time>2011-06-19T08:10:42Z</time>
      </trkpt>
      <trkpt lat="45.78223" lon="4.84713">
        <ele>222</ele>
        <time>2011-06-19T08:10:43Z</time>
      </trkpt>
      <trkpt lat="45.78226" lon="4.84715">
        <ele>222</ele>
        <time>2011-06-19T08:10:44Z</time>
      </trkpt>
      <trkpt lat="45.78228" lon="4.84718">
        <ele>222</ele>
        <time>2011-06-19T08:10:45Z</time>
      </trkpt>
      <trkpt lat="45.7823" lon="4.8472">
        <ele>222</ele>
        <time>2011-06-19T08:10:46Z</time>
      </trkpt>
      <trkpt lat="45.78233" lon="4.84722">
        <ele>223</ele>
        <time>2011-06-19T08:10:47Z</time>
      </trkpt>
      <trkpt lat="45.78235" lon="4.84725">
        <ele>224</ele>
        <time>2011-06-19T08:10:48Z</time>
      </trkpt>
      <trkpt lat="45.78237" lon="4.84726">
        <ele>225</ele>
        <time>2011-06-19T08:10:49Z</time>
      </trkpt>
      <trkpt lat="45.78241" lon="4.84728">
        <ele>226</ele>
        <time>2011-06-19T08:10:50Z</time>
      </trkpt>
      <trkpt lat="45.78242" lon="4.84731">
        <ele>226</ele>
        <time>2011-06-19T08:10:51Z</time>
      </trkpt>
      <trkpt lat="45.78245" lon="4.84734">
        <ele>227</ele>
        <time>2011-06-19T08:10:52Z</time>
      </trkpt>
      <trkpt lat="45.78248" lon="4.84736">
        <ele>227</ele>
        <time>2011-06-19T08:10:53Z</time>
      </trkpt>
      <trkpt lat="45.78251" lon="4.84738">
        <ele>226</ele>
        <time>2011-06-19T08:10:54Z</time>
      </trkpt>
      <trkpt lat="45.78253" lon="4.8474">
        <ele>226</ele>
        <time>2011-06-19T08:10:55Z</time>
      </trkpt>
      <trkpt lat="45.78256" lon="4.84743">
        <ele>226</ele>
        <time>2011-06-19T08:10:56Z</time>
      </trkpt>
      <trkpt lat="45.78258" lon="4.84745">
        <ele>226</ele>
        <time>2011-06-19T08:10:57Z</time>
      </trkpt>
      <trkpt lat="45.78261" lon="4.84747">
        <ele>226</ele>
        <time>2011-06-19T08:10:58Z</time>
      </trkpt>
      <trkpt lat="45.78265" lon="4.84749">
        <ele>226</ele>
        <time>2011-06-19T08:10:59Z</time>
      </trkpt>
      <trkpt lat="45.78269" lon="4.84751">
        <ele>226</ele>
        <time>2011-06-19T08:11:00Z</time>
      </trkpt>
      <trkpt lat="45.78272" lon="4.84753">
        <ele>226</ele>
        <time>2011-06-19T08:11:01Z</time>
      </trkpt>
      <trkpt lat="45.78275" lon="4.84754">
        <ele>225</ele>
        <time>2011-06-19T08:11:02Z</time>
      </trkpt>
      <trkpt lat="45.78278" lon="4.84757">
        <ele>225</ele>
        <time>2011-06-19T08:11:03Z</time>
      </trkpt>
      <trkpt lat="45.78281" lon="4.84758">
        <ele>225</ele>
        <time>2011-06-19T08:11:04Z</time>
      </trkpt>
      <trkpt lat="45.78283" lon="4.84762">
        <ele>225</ele>
        <time>2011-06-19T08:11:05Z</time>
      </trkpt>
      <trkpt lat="45.78286" lon="4.84764">
        <ele>225</ele>
        <time>2011-06-19T08:11:06Z</time>
      </trkpt>
      <trkpt lat="45.78287" lon="4.84767">
        <ele>225</ele>
        <time>2011-06-19T08:11:07Z</time>
      </trkpt>
      <trkpt lat="45.7829" lon="4.84769">
        <ele>225</ele>
        <time>2011-06-19T08:11:08Z</time>
      </trkpt>
      <trkpt lat="45.78293" lon="4.84771">
        <ele>225</ele>
        <time>2011-06-19T08:11:09Z</time>
      </trkpt>
      <trkpt lat="45.78295" lon="4.84774">
        <ele>227</ele>
        <time>2011-06-19T08:11:10Z</time>
      </trkpt>
      <trkpt lat="45.78298" lon="4.84776">
        <ele>227</ele>
        <time>2011-06-19T08:11:11Z</time>
      </trkpt>
      <trkpt lat="45.78301" lon="4.84779">
        <ele>228</ele>
        <time>2011-06-19T08:11:12Z</time>
      </trkpt>
      <trkpt lat="45.78304" lon="4.84783">
        <ele>227</ele>
        <time>2011-06-19T08:11:13Z</time>
      </trkpt>
      <trkpt lat="45.78305" lon="4.84785">
        <ele>227</ele>
        <time>2011-06-19T08:11:14Z</time>
      </trkpt>
      <trkpt lat="45.78308" lon="4.84788">
        <ele>227</ele>
        <time>2011-06-19T08:11:15Z</time>
      </trkpt>
      <trkpt lat="45.7831" lon="4.84791">
        <ele>227</ele>
        <time>2011-06-19T08:11:16Z</time>
      </trkpt>
      <trkpt lat="45.78311" lon="4.84794">
        <ele>226</ele>
        <time>2011-06-19T08:11:17Z</time>
      </trkpt>
      <trkpt lat="45.78315" lon="4.84796">
        <ele>225</ele>
        <time>2011-06-19T08:11:18Z</time>
      </trkpt>
      <trkpt lat="45.78316" lon="4.848">
        <ele>225</ele>
        <time>2011-06-19T08:11:19Z</time>
      </trkpt>
      <trkpt lat="45.78317" lon="4.84803">
        <ele>224</ele>
        <time>2011-06-19T08:11:20Z</time>
      </trkpt>
      <trkpt lat="45.78319" lon="4.84806">
        <ele>224</ele>
        <time>2011-06-19T08:11:21Z</time>
      </trkpt>
      <trkpt lat="45.78322" lon="4.8481">
        <ele>223</ele>
        <time>2011-06-19T08:11:22Z</time>
      </trkpt>
      <trkpt lat="45.78324" lon="4.84812">
        <ele>223</ele>
        <time>2011-06-19T08:11:23Z</time>
      </trkpt>
      <trkpt lat="45.78327" lon="4.84816">
        <ele>222</ele>
        <time>2011-06-19T08:11:24Z</time>
      </trkpt>
      <trkpt lat="45.78331" lon="4.84819">
        <ele>221</ele>
        <time>2011-06-19T08:11:25Z</time>
      </trkpt>
      <trkpt lat="45.78333" lon="4.84823">
        <ele>221</ele>
        <time>2011-06-19T08:11:26Z</time>
      </trkpt>
      <trkpt lat="45.78336" lon="4.84825">
        <ele>222</ele>
        <time>2011-06-19T08:11:27Z</time>
      </trkpt>
      <trkpt lat="45.78339" lon="4.84828">
        <ele>222</ele>
        <time>2011-06-19T08:11:28Z</time>
      </trkpt>
      <trkpt lat="45.78342" lon="4.8483">
        <ele>222</ele>
        <time>2011-06-19T08:11:29Z</time>
      </trkpt>
      <trkpt lat="45.78344" lon="4.84833">
        <ele>222</ele>
        <time>2011-06-19T08:11:30Z</time>
      </trkpt>
      <trkpt lat="45.78347" lon="4.84836">
        <ele>222</ele>
        <time>2011-06-19T08:11:31Z</time>
      </trkpt>
      <trkpt lat="45.78349" lon="4.84839">
        <ele>223</ele>
        <time>2011-06-19T08:11:32Z</time>
      </trkpt>
      <trkpt lat="45.78351" lon="4.84842">
        <ele>223</ele>
        <time>2011-06-19T08:11:33Z</time>
      </trkpt>
      <trkpt lat="45.78353" lon="4.84845">
        <ele>223</ele>
        <time>2011-06-19T08:11:34Z</time>
      </trkpt>
      <trkpt lat="45.78355" lon="4.84848">
        <ele>223</ele>
        <time>2011-06-19T08:11:35Z</time>
      </trkpt>
      <trkpt lat="45.78358" lon="4.84851">
        <ele>224</ele>
        <time>2011-06-19T08:11:36Z</time>
      </trkpt>
      <trkpt lat="45.7836" lon="4.84855">
        <ele>224</ele>
        <time>2011-06-19T08:11:37Z</time>
      </trkpt>
      <trkpt lat="45.78363" lon="4.84858">
        <ele>224</ele>
        <time>2011-06-19T08:11:38Z</time>
      </trkpt>
      <trkpt lat="45.78366" lon="4.84861">
        <ele>223</ele>
        <time>2011-06-19T08:11:39Z</time>
      </trkpt>
      <trkpt lat="45.78367" lon="4.84865">
        <ele>224</ele>
        <time>2011-06-19T08:11:40Z</time>
      </trkpt>
      <trkpt lat="45.78369" lon="4.84868">
        <ele>223</ele>
        <time>2011-06-19T08:11:41Z</time>
      </trkpt>
      <trkpt lat="45.7837" lon="4.84872">
        <ele>223</ele>
        <time>2011-06-19T08:11:42Z</time>
      </trkpt>
      <trkpt lat="45.78373" lon="4.84875">
        <ele>223</ele>
        <time>2011-06-19T08:11:43Z</time>
      </trkpt>
      <trkpt lat="45.78375" lon="4.84878">
        <ele>223</ele>
        <time>2011-06-19T08:11:44Z</time>
      </trkpt>
      <trkpt lat="45.78377" lon="4.84882">
        <ele>223</ele>
        <time>2011-06-19T08:11:45Z</time>
      </trkpt>
      <trkpt lat="45.78379" lon="4.84885">
        <ele>223</ele>
        <time>2011-06-19T08:11:46Z</time>
      </trkpt>
      <trkpt lat="45.78381" lon="4.84888">
        <ele>223</ele>
        <time>2011-06-19T08:11:47Z</time>
      </trkpt>
      <trkpt lat="45.78383" lon="4.84891">
        <ele>223</ele>
        <time>2011-06-19T08:11:48Z</time>
      </trkpt>
      <trkpt lat="45.78385" lon="4.84895">
        <ele>223</ele>
        <time>2011-06-19T08:11:49Z</time>
      </trkpt>
      <trkpt lat="45.78388" lon="4.84898">
        <ele>222</ele>
        <time>2011-06-19T08:11:50Z</time>
      </trkpt>
      <trkpt lat="45.78391" lon="4.84902">
        <ele>222</ele>
        <time>2011-06-19T08:11:51Z</time>
      </trkpt>
      <trkpt lat="45.78393" lon="4.84905">
        <ele>222</ele>
        <time>2011-06-19T08:11:52Z</time>
      </trkpt>
      <trkpt lat="45.78393" lon="4.84909">
        <ele>222</ele>
        <time>2011-06-19T08:11:53Z</time>
      </trkpt>
      <trkpt lat="45.78395" lon="4.84912">
        <ele>222</ele>
        <time>2011-06-19T08:11:54Z</time>
      </trkpt>
      <trkpt lat="45.78396" lon="4.84916">
        <ele>222</ele>
        <time>2011-06-19T08:11:55Z</time>
      </trkpt>
      <trkpt lat="45.78398" lon="4.84919">
        <ele>222</ele>
        <time>2011-06-19T08:11:56Z</time>
      </trkpt>
      <trkpt lat="45.784" lon="4.84924">
        <ele>222</ele>
        <time>2011-06-19T08:11:57Z</time>
      </trkpt>
      <trkpt lat="45.784" lon="4.84928">
        <ele>222</ele>
        <time>2011-06-19T08:11:58Z</time>
      </trkpt>
      <trkpt lat="45.78402" lon="4.84931">
        <ele>221</ele>
        <time>2011-06-19T08:11:59Z</time>
      </trkpt>
      <trkpt lat="45.78404" lon="4.84934">
        <ele>223</ele>
        <time>2011-06-19T08:12:00Z</time>
      </trkpt>
      <trkpt lat="45.78406" lon="4.84936">
        <ele>223</ele>
        <time>2011-06-19T08:12:01Z</time>
      </trkpt>
      <trkpt lat="45.78408" lon="4.8494">
        <ele>223</ele>
        <time>2011-06-19T08:12:02Z</time>
      </trkpt>
      <trkpt lat="45.7841" lon="4.84943">
        <ele>223</ele>
        <time>2011-06-19T08:12:03Z</time>
      </trkpt>
      <trkpt lat="45.78412" lon="4.84946">
        <ele>223</ele>
        <time>2011-06-19T08:12:04Z</time>
      </trkpt>
      <trkpt lat="45.78414" lon="4.8495">
        <ele>222</ele>
        <time>2011-06-19T08:12:05Z</time>
      </trkpt>
      <trkpt lat="45.78417" lon="4.84953">
        <ele>223</ele>
        <time>2011-06-19T08:12:06Z</time>
      </trkpt>
      <trkpt lat="45.7842" lon="4.84957">
        <ele>222</ele>
        <time>2011-06-19T08:12:07Z</time>
      </trkpt>
      <trkpt lat="45.78422" lon="4.84961">
        <ele>222</ele>
        <time>2011-06-19T08:12:08Z</time>
      </trkpt>
      <trkpt lat="45.78425" lon="4.84965">
        <ele>222</ele>
        <time>2011-06-19T08:12:09Z</time>
      </trkpt>
      <trkpt lat="45.78428" lon="4.84968">
        <ele>221</ele>
        <time>2011-06-19T08:12:10Z</time>
      </trkpt>
      <trkpt lat="45.78431" lon="4.8497">
        <ele>221</ele>
        <time>2011-06-19T08:12:11Z</time>
      </trkpt>
      <trkpt lat="45.78434" lon="4.84973">
        <ele>220</ele>
        <time>2011-06-19T08:12:12Z</time>
      </trkpt>
      <trkpt lat="45.78436" lon="4.84976">
        <ele>220</ele>
        <time>2011-06-19T08:12:13Z</time>
      </trkpt>
      <trkpt lat="45.78439" lon="4.84979">
        <ele>220</ele>
        <time>2011-06-19T08:12:14Z</time>
      </trkpt>
      <trkpt lat="45.7844" lon="4.84983">
        <ele>220</ele>
        <time>2011-06-19T08:12:15Z</time>
      </trkpt>
      <trkpt lat="45.78442" lon="4.84987">
        <ele>219</ele>
        <time>2011-06-19T08:12:16Z</time>
      </trkpt>
      <trkpt lat="45.78444" lon="4.8499">
        <ele>219</ele>
        <time>2011-06-19T08:12:17Z</time>
      </trkpt>
      <trkpt lat="45.78445" lon="4.84993">
        <ele>219</ele>
        <time>2011-06-19T08:12:18Z</time>
      </trkpt>
      <trkpt lat="45.78448" lon="4.84995">
        <ele>219</ele>
        <time>2011-06-19T08:12:19Z</time>
      </trkpt>
      <trkpt lat="45.7845" lon="4.84999">
        <ele>219</ele>
        <time>2011-06-19T08:12:20Z</time>
      </trkpt>
      <trkpt lat="45.78452" lon="4.85002">
        <ele>219</ele>
        <time>2011-06-19T08:12:21Z</time>
      </trkpt>
      <trkpt lat="45.78453" lon="4.85005">
        <ele>220</ele>
        <time>2011-06-19T08:12:22Z</time>
      </trkpt>
      <trkpt lat="45.78455" lon="4.85009">
        <ele>221</ele>
        <time>2011-06-19T08:12:23Z</time>
      </trkpt>
      <trkpt lat="45.78456" lon="4.85013">
        <ele>221</ele>
        <time>2011-06-19T08:12:24Z</time>
      </trkpt>
      <trkpt lat="45.78458" lon="4.85017">
        <ele>221</ele>
        <time>2011-06-19T08:12:25Z</time>
      </trkpt>
      <trkpt lat="45.78459" lon="4.85021">
        <ele>221</ele>
        <time>2011-06-19T08:12:26Z</time>
      </trkpt>
      <trkpt lat="45.78461" lon="4.85024">
        <ele>220</ele>
        <time>2011-06-19T08:12:27Z</time>
      </trkpt>
      <trkpt lat="45.78463" lon="4.85028">
        <ele>220</ele>
        <time>2011-06-19T08:12:28Z</time>
      </trkpt>
      <trkpt lat="45.78466" lon="4.85031">
        <ele>220</ele>
        <time>2011-06-19T08:12:29Z</time>
      </trkpt>
      <trkpt lat="45.78469" lon="4.85034">
        <ele>220</ele>
        <time>2011-06-19T08:12:30Z</time>
      </trkpt>
      <trkpt lat="45.78471" lon="4.85038">
        <ele>220</ele>
        <time>2011-06-19T08:12:31Z</time>
      </trkpt>
      <trkpt lat="45.78473" lon="4.85041">
        <ele>220</ele>
        <time>2011-06-19T08:12:32Z</time>
      </trkpt>
      <trkpt lat="45.78475" lon="4.85044">
        <ele>220</ele>
        <time>2011-06-19T08:12:33Z</time>
      </trkpt>
      <trkpt lat="45.78477" lon="4.85048">
        <ele>219</ele>
        <time>2011-06-19T08:12:34Z</time>
      </trkpt>
      <trkpt lat="45.78479" lon="4.85052">
        <ele>220</ele>
        <time>2011-06-19T08:12:35Z</time>
      </trkpt>
      <trkpt lat="45.7848" lon="4.85056">
        <ele>220</ele>
        <time>2011-06-19T08:12:36Z</time>
      </trkpt>
      <trkpt lat="45.78483" lon="4.85059">
        <ele>220</ele>
        <time>2011-06-19T08:12:37Z</time>
      </trkpt>
      <trkpt lat="45.78486" lon="4.85062">
        <ele>220</ele>
        <time>2011-06-19T08:12:38Z</time>
      </trkpt>
      <trkpt lat="45.78488" lon="4.85066">
        <ele>220</ele>
        <time>2011-06-19T08:12:39Z</time>
      </trkpt>
      <trkpt lat="45.7849" lon="4.85069">
        <ele>220</ele>
        <time>2011-06-19T08:12:40Z</time>
      </trkpt>
      <trkpt lat="45.78492" lon="4.85073">
        <ele>220</ele>
        <time>2011-06-19T08:12:41Z</time>
      </trkpt>
      <trkpt lat="45.78493" lon="4.85077">
        <ele>220</ele>
        <time>2011-06-19T08:12:42Z</time>
      </trkpt>
      <trkpt lat="45.78495" lon="4.85081">
        <ele>220</ele>
        <time>2011-06-19T08:12:43Z</time>
      </trkpt>
      <trkpt lat="45.78496" lon="4.85084">
        <ele>220</ele>
        <time>2011-06-19T08:12:44Z</time>
      </trkpt>
      <trkpt lat="45.78497" lon="4.85088">
        <ele>221</ele>
        <time>2011-06-19T08:12:45Z</time>
      </trkpt>
      <trkpt lat="45.78498" lon="4.85093">
        <ele>221</ele>
        <time>2011-06-19T08:12:46Z</time>
      </trkpt>
      <trkpt lat="45.78499" lon="4.85096">
        <ele>222</ele>
        <time>2011-06-19T08:12:47Z</time>
      </trkpt>
      <trkpt lat="45.785" lon="4.851">
        <ele>221</ele>
        <time>2011-06-19T08:12:48Z</time>
      </trkpt>
      <trkpt lat="45.78502" lon="4.85104">
        <ele>221</ele>
        <time>2011-06-19T08:12:49Z</time>
      </trkpt>
      <trkpt lat="45.78503" lon="4.85108">
        <ele>220</ele>
        <time>2011-06-19T08:12:50Z</time>
      </trkpt>
      <trkpt lat="45.78506" lon="4.85111">
        <ele>220</ele>
        <time>2011-06-19T08:12:51Z</time>
      </trkpt>
      <trkpt lat="45.78507" lon="4.85115">
        <ele>220</ele>
        <time>2011-06-19T08:12:52Z</time>
      </trkpt>
      <trkpt lat="45.78509" lon="4.85119">
        <ele>219</ele>
        <time>2011-06-19T08:12:53Z</time>
      </trkpt>
      <trkpt lat="45.7851" lon="4.85123">
        <ele>219</ele>
        <time>2011-06-19T08:12:54Z</time>
      </trkpt>
      <trkpt lat="45.7851" lon="4.85128">
        <ele>219</ele>
        <time>2011-06-19T08:12:55Z</time>
      </trkpt>
      <trkpt lat="45.78512" lon="4.85132">
        <ele>219</ele>
        <time>2011-06-19T08:12:56Z</time>
      </trkpt>
      <trkpt lat="45.78514" lon="4.85136">
        <ele>219</ele>
        <time>2011-06-19T08:12:57Z</time>
      </trkpt>
      <trkpt lat="45.78516" lon="4.8514">
        <ele>218</ele>
        <time>2011-06-19T08:12:58Z</time>
      </trkpt>
      <trkpt lat="45.78517" lon="4.85144">
        <ele>218</ele>
        <time>2011-06-19T08:12:59Z</time>
      </trkpt>
      <trkpt lat="45.7852" lon="4.85148">
        <ele>217</ele>
        <time>2011-06-19T08:13:00Z</time>
      </trkpt>
      <trkpt lat="45.78522" lon="4.85152">
        <ele>217</ele>
        <time>2011-06-19T08:13:01Z</time>
      </trkpt>
      <trkpt lat="45.78522" lon="4.85157">
        <ele>217</ele>
        <time>2011-06-19T08:13:02Z</time>
      </trkpt>
      <trkpt lat="45.78524" lon="4.85162">
        <ele>218</ele>
        <time>2011-06-19T08:13:03Z</time>
      </trkpt>
      <trkpt lat="45.78527" lon="4.85165">
        <ele>218</ele>
        <time>2011-06-19T08:13:04Z</time>
      </trkpt>
      <trkpt lat="45.78528" lon="4.8517">
        <ele>218</ele>
        <time>2011-06-19T08:13:05Z</time>
      </trkpt>
      <trkpt lat="45.78529" lon="4.85175">
        <ele>218</ele>
        <time>2011-06-19T08:13:06Z</time>
      </trkpt>
      <trkpt lat="45.78531" lon="4.85179">
        <ele>217</ele>
        <time>2011-06-19T08:13:07Z</time>
      </trkpt>
      <trkpt lat="45.78532" lon="4.85184">
        <ele>216</ele>
        <time>2011-06-19T08:13:08Z</time>
      </trkpt>
      <trkpt lat="45.78533" lon="4.85188">
        <ele>216</ele>
        <time>2011-06-19T08:13:09Z</time>
      </trkpt>
      <trkpt lat="45.78535" lon="4.85192">
        <ele>215</ele>
        <time>2011-06-19T08:13:10Z</time>
      </trkpt>
      <trkpt lat="45.78536" lon="4.85196">
        <ele>215</ele>
        <time>2011-06-19T08:13:11Z</time>
      </trkpt>
      <trkpt lat="45.78537" lon="4.852">
        <ele>215</ele>
        <time>2011-06-19T08:13:12Z</time>
      </trkpt>
      <trkpt lat="45.78539" lon="4.85205">
        <ele>214</ele>
        <time>2011-06-19T08:13:13Z</time>
      </trkpt>
      <trkpt lat="45.78541" lon="4.85209">
        <ele>214</ele>
        <time>2011-06-19T08:13:14Z</time>
      </trkpt>
      <trkpt lat="45.78543" lon="4.85213">
        <ele>215</ele>
        <time>2011-06-19T08:13:15Z</time>
      </trkpt>
      <trkpt lat="45.78544" lon="4.85217">
        <ele>215</ele>
        <time>2011-06-19T08:13:16Z</time>
      </trkpt>
      <trkpt lat="45.78545" lon="4.85222">
        <ele>215</ele>
        <time>2011-06-19T08:13:17Z</time>
      </trkpt>
      <trkpt lat="45.78546" lon="4.85226">
        <ele>215</ele>
        <time>2011-06-19T08:13:18Z</time>
      </trkpt>
      <trkpt lat="45.78547" lon="4.8523">
        <ele>216</ele>
        <time>2011-06-19T08:13:19Z</time>
      </trkpt>
      <trkpt lat="45.78548" lon="4.85235">
        <ele>216</ele>
        <time>2011-06-19T08:13:20Z</time>
      </trkpt>
      <trkpt lat="45.7855" lon="4.85238">
        <ele>216</ele>
        <time>2011-06-19T08:13:21Z</time>
      </trkpt>
      <trkpt lat="45.78552" lon="4.85242">
        <ele>216</ele>
        <time>2011-06-19T08:13:22Z</time>
      </trkpt>
      <trkpt lat="45.78553" lon="4.85246">
        <ele>216</ele>
        <time>2011-06-19T08:13:23Z</time>
      </trkpt>
      <trkpt lat="45.78554" lon="4.85251">
        <ele>216</ele>
        <time>2011-06-19T08:13:24Z</time>
      </trkpt>
      <trkpt lat="45.78557" lon="4.85255">
        <ele>216</ele>
        <time>2011-06-19T08:13:25Z</time>
      </trkpt>
      <trkpt lat="45.78559" lon="4.85258">
        <ele>216</ele>
        <time>2011-06-19T08:13:26Z</time>
      </trkpt>
      <trkpt lat="45.7856" lon="4.85262">
        <ele>215</ele>
        <time>2011-06-19T08:13:27Z</time>
      </trkpt>
      <trkpt lat="45.78561" lon="4.85266">
        <ele>214</ele>
        <time>2011-06-19T08:13:28Z</time>
      </trkpt>
      <trkpt lat="45.78562" lon="4.85271">
        <ele>214</ele>
        <time>2011-06-19T08:13:29Z</time>
      </trkpt>
      <trkpt lat="45.78562" lon="4.85275">
        <ele>215</ele>
        <time>2011-06-19T08:13:30Z</time>
      </trkpt>
      <trkpt lat="45.78562" lon="4.8528">
        <ele>214</ele>
        <time>2011-06-19T08:13:31Z</time>
      </trkpt>
      <trkpt lat="45.78564" lon="4.85284">
        <ele>215</ele>
        <time>2011-06-19T08:13:32Z</time>
      </trkpt>
      <trkpt lat="45.78564" lon="4.85288">
        <ele>214</ele>
        <time>2011-06-19T08:13:33Z</time>
      </trkpt>
      <trkpt lat="45.78566" lon="4.85293">
        <ele>214</ele>
        <time>2011-06-19T08:13:34Z</time>
      </trkpt>
      <trkpt lat="45.78567" lon="4.85296">
        <ele>214</ele>
        <time>2011-06-19T08:13:35Z</time>
      </trkpt>
      <trkpt lat="45.78569" lon="4.853">
        <ele>215</ele>
        <time>2011-06-19T08:13:36Z</time>
      </trkpt>
      <trkpt lat="45.7857" lon="4.85304">
        <ele>215</ele>
        <time>2011-06-19T08:13:37Z</time>
      </trkpt>
      <trkpt lat="45.78572" lon="4.85308">
        <ele>216</ele>
        <time>2011-06-19T08:13:38Z</time>
      </trkpt>
      <trkpt lat="45.78573" lon="4.85312">
        <ele>216</ele>
        <time>2011-06-19T08:13:39Z</time>
      </trkpt>
      <trkpt lat="45.78574" lon="4.85317">
        <ele>216</ele>
        <time>2011-06-19T08:13:40Z</time>
      </trkpt>
      <trkpt lat="45.78576" lon="4.85321">
        <ele>216</ele>
        <time>2011-06-19T08:13:41Z</time>
      </trkpt>
      <trkpt lat="45.78577" lon="4.85325">
        <ele>216</ele>
        <time>2011-06-19T08:13:42Z</time>
      </trkpt>
      <trkpt lat="45.78579" lon="4.85329">
        <ele>216</ele>
        <time>2011-06-19T08:13:43Z</time>
      </trkpt>
      <trkpt lat="45.78581" lon="4.85332">
        <ele>217</ele>
        <time>2011-06-19T08:13:44Z</time>
      </trkpt>
      <trkpt lat="45.78583" lon="4.85336">
        <ele>217</ele>
        <time>2011-06-19T08:13:45Z</time>
      </trkpt>
      <trkpt lat="45.78584" lon="4.85339">
        <ele>218</ele>
        <time>2011-06-19T08:13:46Z</time>
      </trkpt>
      <trkpt lat="45.78586" lon="4.85341">
        <ele>219</ele>
        <time>2011-06-19T08:13:47Z</time>
      </trkpt>
      <trkpt lat="45.78587" lon="4.85345">
        <ele>219</ele>
        <time>2011-06-19T08:13:48Z</time>
      </trkpt>
      <trkpt lat="45.78588" lon="4.8535">
        <ele>219</ele>
        <time>2011-06-19T08:13:49Z</time>
      </trkpt>
      <trkpt lat="45.78589" lon="4.85354">
        <ele>220</ele>
        <time>2011-06-19T08:13:50Z</time>
      </trkpt>
      <trkpt lat="45.78591" lon="4.85359">
        <ele>220</ele>
        <time>2011-06-19T08:13:51Z</time>
      </trkpt>
      <trkpt lat="45.78591" lon="4.85364">
        <ele>220</ele>
        <time>2011-06-19T08:13:52Z</time>
      </trkpt>
      <trkpt lat="45.78591" lon="4.85368">
        <ele>220</ele>
        <time>2011-06-19T08:13:53Z</time>
      </trkpt>
      <trkpt lat="45.78592" lon="4.85373">
        <ele>220</ele>
        <time>2011-06-19T08:13:54Z</time>
      </trkpt>
      <trkpt lat="45.78593" lon="4.85377">
        <ele>220</ele>
        <time>2011-06-19T08:13:55Z</time>
      </trkpt>
      <trkpt lat="45.78594" lon="4.85382">
        <ele>220</ele>
        <time>2011-06-19T08:13:56Z</time>
      </trkpt>
      <trkpt lat="45.78595" lon="4.85386">
        <ele>220</ele>
        <time>2011-06-19T08:13:57Z</time>
      </trkpt>
      <trkpt lat="45.78595" lon="4.85391">
        <ele>220</ele>
        <time>2011-06-19T08:13:58Z</time>
      </trkpt>
      <trkpt lat="45.78596" lon="4.85396">
        <ele>219</ele>
        <time>2011-06-19T08:13:59Z</time>
      </trkpt>
      <trkpt lat="45.78597" lon="4.85401">
        <ele>219</ele>
        <time>2011-06-19T08:14:00Z</time>
      </trkpt>
      <trkpt lat="45.78598" lon="4.85405">
        <ele>219</ele>
        <time>2011-06-19T08:14:01Z</time>
      </trkpt>
      <trkpt lat="45.78601" lon="4.85409">
        <ele>219</ele>
        <time>2011-06-19T08:14:02Z</time>
      </trkpt>
      <trkpt lat="45.78601" lon="4.85414">
        <ele>219</ele>
        <time>2011-06-19T08:14:03Z</time>
      </trkpt>
      <trkpt lat="45.78601" lon="4.85419">
        <ele>218</ele>
        <time>2011-06-19T08:14:04Z</time>
      </trkpt>
      <trkpt lat="45.78601" lon="4.85424">
        <ele>218</ele>
        <time>2011-06-19T08:14:05Z</time>
      </trkpt>
      <trkpt lat="45.78603" lon="4.85427">
        <ele>218</ele>
        <time>2011-06-19T08:14:06Z</time>
      </trkpt>
      <trkpt lat="45.78605" lon="4.85431">
        <ele>218</ele>
        <time>2011-06-19T08:14:07Z</time>
      </trkpt>
      <trkpt lat="45.78606" lon="4.85435">
        <ele>219</ele>
        <time>2011-06-19T08:14:08Z</time>
      </trkpt>
      <trkpt lat="45.78607" lon="4.85439">
        <ele>219</ele>
        <time>2011-06-19T08:14:09Z</time>
      </trkpt>
      <trkpt lat="45.78608" lon="4.85443">
        <ele>219</ele>
        <time>2011-06-19T08:14:10Z</time>
      </trkpt>
      <trkpt lat="45.78609" lon="4.85447">
        <ele>219</ele>
        <time>2011-06-19T08:14:11Z</time>
      </trkpt>
      <trkpt lat="45.78609" lon="4.8545">
        <ele>219</ele>
        <time>2011-06-19T08:14:12Z</time>
      </trkpt>
      <trkpt lat="45.7861" lon="4.85455">
        <ele>219</ele>
        <time>2011-06-19T08:14:13Z</time>
      </trkpt>
      <trkpt lat="45.78611" lon="4.8546">
        <ele>219</ele>
        <time>2011-06-19T08:14:14Z</time>
      </trkpt>
      <trkpt lat="45.78612" lon="4.85464">
        <ele>219</ele>
        <time>2011-06-19T08:14:15Z</time>
      </trkpt>
      <trkpt lat="45.78614" lon="4.85469">
        <ele>219</ele>
        <time>2011-06-19T08:14:16Z</time>
      </trkpt>
      <trkpt lat="45.78614" lon="4.85473">
        <ele>219</ele>
        <time>2011-06-19T08:14:17Z</time>
      </trkpt>
      <trkpt lat="45.78614" lon="4.85477">
        <ele>219</ele>
        <time>2011-06-19T08:14:18Z</time>
      </trkpt>
      <trkpt lat="45.78614" lon="4.85481">
        <ele>218</ele>
        <time>2011-06-19T08:14:19Z</time>
      </trkpt>
      <trkpt lat="45.78614" lon="4.85486">
        <ele>219</ele>
        <time>2011-06-19T08:14:20Z</time>
      </trkpt>
      <trkpt lat="45.78616" lon="4.85492">
        <ele>218</ele>
        <time>2011-06-19T08:14:21Z</time>
      </trkpt>
      <trkpt lat="45.78616" lon="4.85497">
        <ele>219</ele>
        <time>2011-06-19T08:14:22Z</time>
      </trkpt>
      <trkpt lat="45.78616" lon="4.85501">
        <ele>220</ele>
        <time>2011-06-19T08:14:23Z</time>
      </trkpt>
      <trkpt lat="45.78617" lon="4.85506">
        <ele>220</ele>
        <time>2011-06-19T08:14:24Z</time>
      </trkpt>
      <trkpt lat="45.78617" lon="4.8551">
        <ele>220</ele>
        <time>2011-06-19T08:14:25Z</time>
      </trkpt>
      <trkpt lat="45.78617" lon="4.85515">
        <ele>220</ele>
        <time>2011-06-19T08:14:26Z</time>
      </trkpt>
      <trkpt lat="45.78618" lon="4.8552">
        <ele>220</ele>
        <time>2011-06-19T08:14:27Z</time>
      </trkpt>
      <trkpt lat="45.78618" lon="4.85524">
        <ele>220</ele>
        <time>2011-06-19T08:14:28Z</time>
      </trkpt>
      <trkpt lat="45.78619" lon="4.85528">
        <ele>220</ele>
        <time>2011-06-19T08:14:29Z</time>
      </trkpt>
      <trkpt lat="45.78619" lon="4.85532">
        <ele>219</ele>
        <time>2011-06-19T08:14:30Z</time>
      </trkpt>
      <trkpt lat="45.7862" lon="4.85537">
        <ele>220</ele>
        <time>2011-06-19T08:14:31Z</time>
      </trkpt>
      <trkpt lat="45.7862" lon="4.85542">
        <ele>220</ele>
        <time>2011-06-19T08:14:32Z</time>
      </trkpt>
      <trkpt lat="45.78621" lon="4.85546">
        <ele>220</ele>
        <time>2011-06-19T08:14:33Z</time>
      </trkpt>
      <trkpt lat="45.78621" lon="4.8555">
        <ele>220</ele>
        <time>2011-06-19T08:14:34Z</time>
      </trkpt>
      <trkpt lat="45.78622" lon="4.85555">
        <ele>220</ele>
        <time>2011-06-19T08:14:35Z</time>
      </trkpt>
      <trkpt lat="45.78623" lon="4.85559">
        <ele>220</ele>
        <time>2011-06-19T08:14:36Z</time>
      </trkpt>
      <trkpt lat="45.78624" lon="4.85564">
        <ele>220</ele>
        <time>2011-06-19T08:14:37Z</time>
      </trkpt>
      <trkpt lat="45.78624" lon="4.85568">
        <ele>219</ele>
        <time>2011-06-19T08:14:38Z</time>
      </trkpt>
      <trkpt lat="45.78624" lon="4.85573">
        <ele>219</ele>
        <time>2011-06-19T08:14:39Z</time>
      </trkpt>
      <trkpt lat="45.78624" lon="4.85577">
        <ele>219</ele>
        <time>2011-06-19T08:14:40Z</time>
      </trkpt>
      <trkpt lat="45.78624" lon="4.85582">
        <ele>219</ele>
        <time>2011-06-19T08:14:41Z</time>
      </trkpt>
      <trkpt lat="45.78625" lon="4.85586">
        <ele>218</ele>
        <time>2011-06-19T08:14:42Z</time>
      </trkpt>
      <trkpt lat="45.78625" lon="4.8559">
        <ele>218</ele>
        <time>2011-06-19T08:14:43Z</time>
      </trkpt>
      <trkpt lat="45.78626" lon="4.85595">
        <ele>218</ele>
        <time>2011-06-19T08:14:44Z</time>
      </trkpt>
      <trkpt lat="45.78625" lon="4.856">
        <ele>218</ele>
        <time>2011-06-19T08:14:45Z</time>
      </trkpt>
      <trkpt lat="45.78625" lon="4.85604">
        <ele>218</ele>
        <time>2011-06-19T08:14:46Z</time>
      </trkpt>
      <trkpt lat="45.78625" lon="4.85609">
        <ele>218</ele>
        <time>2011-06-19T08:14:47Z</time>
      </trkpt>
      <trkpt lat="45.78626" lon="4.85613">
        <ele>217</ele>
        <time>2011-06-19T08:14:48Z</time>
      </trkpt>
      <trkpt lat="45.78626" lon="4.85618">
        <ele>216</ele>
        <time>2011-06-19T08:14:49Z</time>
      </trkpt>
      <trkpt lat="45.78627" lon="4.85623">
        <ele>216</ele>
        <time>2011-06-19T08:14:50Z</time>
      </trkpt>
      <trkpt lat="45.78627" lon="4.85627">
        <ele>215</ele>
        <time>2011-06-19T08:14:51Z</time>
      </trkpt>
      <trkpt lat="45.78627" lon="4.85632">
        <ele>216</ele>
        <time>2011-06-19T08:14:52Z</time>
      </trkpt>
      <trkpt lat="45.78628" lon="4.85636">
        <ele>215</ele>
        <time>2011-06-19T08:14:53Z</time>
      </trkpt>
      <trkpt lat="45.78628" lon="4.85641">
        <ele>215</ele>
        <time>2011-06-19T08:14:54Z</time>
      </trkpt>
      <trkpt lat="45.78629" lon="4.85645">
        <ele>215</ele>
        <time>2011-06-19T08:14:55Z</time>
      </trkpt>
      <trkpt lat="45.78628" lon="4.8565">
        <ele>216</ele>
        <time>2011-06-19T08:14:56Z</time>
      </trkpt>
      <trkpt lat="45.78629" lon="4.85656">
        <ele>216</ele>
        <time>2011-06-19T08:14:57Z</time>
      </trkpt>
      <trkpt lat="45.78629" lon="4.8566">
        <ele>216</ele>
        <time>2011-06-19T08:14:58Z</time>
      </trkpt>
      <trkpt lat="45.78629" lon="4.85664">
        <ele>217</ele>
        <time>2011-06-19T08:14:59Z</time>
      </trkpt>
      <trkpt lat="45.78631" lon="4.8567">
        <ele>217</ele>
        <time>2011-06-19T08:15:00Z</time>
      </trkpt>
      <trkpt lat="45.78631" lon="4.85673">
        <ele>217</ele>
        <time>2011-06-19T08:15:02Z</time>
      </trkpt>
      <trkpt lat="45.78632" lon="4.85678">
        <ele>217</ele>
        <time>2011-06-19T08:15:02Z</time>
      </trkpt>
      <trkpt lat="45.78633" lon="4.85682">
        <ele>217</ele>
        <time>2011-06-19T08:15:03Z</time>
      </trkpt>
      <trkpt lat="45.78633" lon="4.85685">
        <ele>217</ele>
        <time>2011-06-19T08:15:04Z</time>
      </trkpt>
      <trkpt lat="45.78634" lon="4.8569">
        <ele>217</ele>
        <time>2011-06-19T08:15:05Z</time>
      </trkpt>
      <trkpt lat="45.78634" lon="4.85693">
        <ele>217</ele>
        <time>2011-06-19T08:15:06Z</time>
      </trkpt>
      <trkpt lat="45.78634" lon="4.85698">
        <ele>218</ele>
        <time>2011-06-19T08:15:07Z</time>
      </trkpt>
      <trkpt lat="45.78635" lon="4.85701">
        <ele>218</ele>
        <time>2011-06-19T08:15:08Z</time>
      </trkpt>
      <trkpt lat="45.78635" lon="4.85706">
        <ele>218</ele>
        <time>2011-06-19T08:15:09Z</time>
      </trkpt>
      <trkpt lat="45.78636" lon="4.85711">
        <ele>218</ele>
        <time>2011-06-19T08:15:10Z</time>
      </trkpt>
      <trkpt lat="45.78636" lon="4.85715">
        <ele>217</ele>
        <time>2011-06-19T08:15:11Z</time>
      </trkpt>
      <trkpt lat="45.78636" lon="4.8572">
        <ele>217</ele>
        <time>2011-06-19T08:15:12Z</time>
      </trkpt>
      <trkpt lat="45.78635" lon="4.85724">
        <ele>217</ele>
        <time>2011-06-19T08:15:13Z</time>
      </trkpt>
      <trkpt lat="45.78636" lon="4.85729">
        <ele>217</ele>
        <time>2011-06-19T08:15:14Z</time>
      </trkpt>
      <trkpt lat="45.78636" lon="4.85735">
        <ele>217</ele>
        <time>2011-06-19T08:15:15Z</time>
      </trkpt>
      <trkpt lat="45.78635" lon="4.85739">
        <ele>216</ele>
        <time>2011-06-19T08:15:16Z</time>
      </trkpt>
      <trkpt lat="45.78634" lon="4.85744">
        <ele>216</ele>
        <time>2011-06-19T08:15:17Z</time>
      </trkpt>
      <trkpt lat="45.78634" lon="4.85749">
        <ele>216</ele>
        <time>2011-06-19T08:15:18Z</time>
      </trkpt>
      <trkpt lat="45.78635" lon="4.85753">
        <ele>217</ele>
        <time>2011-06-19T08:15:19Z</time>
      </trkpt>
      <trkpt lat="45.78635" lon="4.85758">
        <ele>217</ele>
        <time>2011-06-19T08:15:20Z</time>
      </trkpt>
      <trkpt lat="45.78634" lon="4.85763">
        <ele>217</ele>
        <time>2011-06-19T08:15:21Z</time>
      </trkpt>
      <trkpt lat="45.78634" lon="4.85767">
        <ele>217</ele>
        <time>2011-06-19T08:15:22Z</time>
      </trkpt>
      <trkpt lat="45.78633" lon="4.85772">
        <ele>216</ele>
        <time>2011-06-19T08:15:23Z</time>
      </trkpt>
      <trkpt lat="45.78632" lon="4.85776">
        <ele>217</ele>
        <time>2011-06-19T08:15:24Z</time>
      </trkpt>
      <trkpt lat="45.78632" lon="4.85781">
        <ele>216</ele>
        <time>2011-06-19T08:15:25Z</time>
      </trkpt>
      <trkpt lat="45.78632" lon="4.85786">
        <ele>217</ele>
        <time>2011-06-19T08:15:26Z</time>
      </trkpt>
      <trkpt lat="45.78631" lon="4.8579">
        <ele>217</ele>
        <time>2011-06-19T08:15:27Z</time>
      </trkpt>
      <trkpt lat="45.78631" lon="4.85794">
        <ele>217</ele>
        <time>2011-06-19T08:15:28Z</time>
      </trkpt>
      <trkpt lat="45.78631" lon="4.85798">
        <ele>218</ele>
        <time>2011-06-19T08:15:29Z</time>
      </trkpt>
      <trkpt lat="45.7863" lon="4.85803">
        <ele>218</ele>
        <time>2011-06-19T08:15:30Z</time>
      </trkpt>
      <trkpt lat="45.78629" lon="4.85808">
        <ele>218</ele>
        <time>2011-06-19T08:15:31Z</time>
      </trkpt>
      <trkpt lat="45.78629" lon="4.85812">
        <ele>219</ele>
        <time>2011-06-19T08:15:32Z</time>
      </trkpt>
      <trkpt lat="45.78629" lon="4.85816">
        <ele>219</ele>
        <time>2011-06-19T08:15:33Z</time>
      </trkpt>
      <trkpt lat="45.78628" lon="4.85821">
        <ele>219</ele>
        <time>2011-06-19T08:15:34Z</time>
      </trkpt>
      <trkpt lat="45.78629" lon="4.85826">
        <ele>219</ele>
        <time>2011-06-19T08:15:36Z</time>
      </trkpt>
      <trkpt lat="45.78629" lon="4.85827">
        <ele>219</ele>
        <time>2011-06-19T08:15:37Z</time>
      </trkpt>
      <trkpt lat="45.78628" lon="4.85833">
        <ele>219</ele>
        <time>2011-06-19T08:15:37Z</time>
      </trkpt>
      <trkpt lat="45.78627" lon="4.85838">
        <ele>219</ele>
        <time>2011-06-19T08:15:38Z</time>
      </trkpt>
      <trkpt lat="45.78627" lon="4.85842">
        <ele>221</ele>
        <time>2011-06-19T08:15:39Z</time>
      </trkpt>
      <trkpt lat="45.78627" lon="4.85846">
        <ele>220</ele>
        <time>2011-06-19T08:15:40Z</time>
      </trkpt>
      <trkpt lat="45.78627" lon="4.85851">
        <ele>220</ele>
        <time>2011-06-19T08:15:41Z</time>
      </trkpt>
      <trkpt lat="45.78627" lon="4.85854">
        <ele>220</ele>
        <time>2011-06-19T08:15:42Z</time>
      </trkpt>
      <trkpt lat="45.78626" lon="4.85859">
        <ele>220</ele>
        <time>2011-06-19T08:15:43Z</time>
      </trkpt>
      <trkpt lat="45.78625" lon="4.85863">
        <ele>219</ele>
        <time>2011-06-19T08:15:44Z</time>
      </trkpt>
      <trkpt lat="45.78625" lon="4.85868">
        <ele>219</ele>
        <time>2011-06-19T08:15:45Z</time>
      </trkpt>
      <trkpt lat="45.78625" lon="4.85873">
        <ele>219</ele>
        <time>2011-06-19T08:15:46Z</time>
      </trkpt>
      <trkpt lat="45.78625" lon="4.85878">
        <ele>220</ele>
        <time>2011-06-19T08:15:47Z</time>
      </trkpt>
      <trkpt lat="45.78625" lon="4.85882">
        <ele>221</ele>
        <time>2011-06-19T08:15:48Z</time>
      </trkpt>
      <trkpt lat="45.78624" lon="4.85886">
        <ele>222</ele>
        <time>2011-06-19T08:15:49Z</time>
      </trkpt>
      <trkpt lat="45.78625" lon="4.8589">
        <ele>222</ele>
        <time>2011-06-19T08:15:50Z</time>
      </trkpt>
      <trkpt lat="45.78624" lon="4.85894">
        <ele>223</ele>
        <time>2011-06-19T08:15:51Z</time>
      </trkpt>
      <trkpt lat="45.78625" lon="4.85898">
        <ele>223</ele>
        <time>2011-06-19T08:15:52Z</time>
      </trkpt>
      <trkpt lat="45.78624" lon="4.85902">
        <ele>223</ele>
        <time>2011-06-19T08:15:53Z</time>
      </trkpt>
      <trkpt lat="45.78624" lon="4.85908">
        <ele>222</ele>
        <time>2011-06-19T08:15:54Z</time>
      </trkpt>
      <trkpt lat="45.78624" lon="4.85912">
        <ele>222</ele>
        <time>2011-06-19T08:15:55Z</time>
      </trkpt>
      <trkpt lat="45.78623" lon="4.85918">
        <ele>221</ele>
        <time>2011-06-19T08:15:56Z</time>
      </trkpt>
      <trkpt lat="45.78622" lon="4.85922">
        <ele>221</ele>
        <time>2011-06-19T08:15:57Z</time>
      </trkpt>
      <trkpt lat="45.78622" lon="4.85926">
        <ele>221</ele>
        <time>2011-06-19T08:15:58Z</time>
      </trkpt>
      <trkpt lat="45.78622" lon="4.85931">
        <ele>221</ele>
        <time>2011-06-19T08:15:59Z</time>
      </trkpt>
      <trkpt lat="45.78621" lon="4.85935">
        <ele>222</ele>
        <time>2011-06-19T08:16:00Z</time>
      </trkpt>
      <trkpt lat="45.7862" lon="4.85939">
        <ele>223</ele>
        <time>2011-06-19T08:16:01Z</time>
      </trkpt>
      <trkpt lat="45.7862" lon="4.85943">
        <ele>223</ele>
        <time>2011-06-19T08:16:02Z</time>
      </trkpt>
      <trkpt lat="45.7862" lon="4.85948">
        <ele>223</ele>
        <time>2011-06-19T08:16:03Z</time>
      </trkpt>
      <trkpt lat="45.7862" lon="4.85953">
        <ele>223</ele>
        <time>2011-06-19T08:16:04Z</time>
      </trkpt>
      <trkpt lat="45.78619" lon="4.85958">
        <ele>222</ele>
        <time>2011-06-19T08:16:05Z</time>
      </trkpt>
      <trkpt lat="45.78619" lon="4.85962">
        <ele>223</ele>
        <time>2011-06-19T08:16:06Z</time>
      </trkpt>
      <trkpt lat="45.78619" lon="4.85967">
        <ele>222</ele>
        <time>2011-06-19T08:16:07Z</time>
      </trkpt>
      <trkpt lat="45.78618" lon="4.85971">
        <ele>222</ele>
        <time>2011-06-19T08:16:08Z</time>
      </trkpt>
      <trkpt lat="45.78618" lon="4.85977">
        <ele>222</ele>
        <time>2011-06-19T08:16:09Z</time>
      </trkpt>
      <trkpt lat="45.78619" lon="4.85982">
        <ele>221</ele>
        <time>2011-06-19T08:16:10Z</time>
      </trkpt>
      <trkpt lat="45.78618" lon="4.85986">
        <ele>221</ele>
        <time>2011-06-19T08:16:11Z</time>
      </trkpt>
      <trkpt lat="45.78617" lon="4.8599">
        <ele>221</ele>
        <time>2011-06-19T08:16:12Z</time>
      </trkpt>
      <trkpt lat="45.78618" lon="4.85994">
        <ele>221</ele>
        <time>2011-06-19T08:16:13Z</time>
      </trkpt>
      <trkpt lat="45.78617" lon="4.85997">
        <ele>221</ele>
        <time>2011-06-19T08:16:14Z</time>
      </trkpt>
      <trkpt lat="45.78616" lon="4.85999">
        <ele>222</ele>
        <time>2011-06-19T08:16:15Z</time>
      </trkpt>
      <trkpt lat="45.78617" lon="4.86">
        <ele>222</ele>
        <time>2011-06-19T08:16:16Z</time>
      </trkpt>
      <trkpt lat="45.78618" lon="4.86003">
        <ele>223</ele>
        <time>2011-06-19T08:16:17Z</time>
      </trkpt>
      <trkpt lat="45.78618" lon="4.86006">
        <ele>223</ele>
        <time>2011-06-19T08:16:18Z</time>
      </trkpt>
      <trkpt lat="45.78617" lon="4.86007">
        <ele>224</ele>
        <time>2011-06-19T08:16:19Z</time>
      </trkpt>
      <trkpt lat="45.78618" lon="4.86011">
        <ele>223</ele>
        <time>2011-06-19T08:16:20Z</time>
      </trkpt>
      <trkpt lat="45.78618" lon="4.86016">
        <ele>223</ele>
        <time>2011-06-19T08:16:21Z</time>
      </trkpt>
      <trkpt lat="45.7862" lon="4.86023">
        <ele>223</ele>
        <time>2011-06-19T08:16:22Z</time>
      </trkpt>
      <trkpt lat="45.7862" lon="4.86028">
        <ele>223</ele>
        <time>2011-06-19T08:16:23Z</time>
      </trkpt>
      <trkpt lat="45.78618" lon="4.86033">
        <ele>222</ele>
        <time>2011-06-19T08:16:24Z</time>
      </trkpt>
      <trkpt lat="45.78612" lon="4.8604">
        <ele>222</ele>
        <time>2011-06-19T08:16:25Z</time>
      </trkpt>
      <trkpt lat="45.78607" lon="4.86046">
        <ele>220.50581359863</ele>
        <time>2011-06-19T08:16:26Z</time>
      </trkpt>
      <trkpt lat="45.78605" lon="4.86054">
        <ele>220</ele>
        <time>2011-06-19T08:16:27Z</time>
      </trkpt>
      <trkpt lat="45.78603" lon="4.86056">
        <ele>220</ele>
        <time>2011-06-19T08:16:28Z</time>
      </trkpt>
      <trkpt lat="45.78604" lon="4.86061">
        <ele>222</ele>
        <time>2011-06-19T08:16:29Z</time>
      </trkpt>
      <trkpt lat="45.78605" lon="4.86066">
        <ele>223</ele>
        <time>2011-06-19T08:16:30Z</time>
      </trkpt>
      <trkpt lat="45.78607" lon="4.8607">
        <ele>223</ele>
        <time>2011-06-19T08:16:31Z</time>
      </trkpt>
      <trkpt lat="45.78608" lon="4.86075">
        <ele>222</ele>
        <time>2011-06-19T08:16:32Z</time>
      </trkpt>
      <trkpt lat="45.78609" lon="4.8608">
        <ele>222</ele>
        <time>2011-06-19T08:16:33Z</time>
      </trkpt>
      <trkpt lat="45.78609" lon="4.86085">
        <ele>222</ele>
        <time>2011-06-19T08:16:34Z</time>
      </trkpt>
      <trkpt lat="45.78609" lon="4.8609">
        <ele>221</ele>
        <time>2011-06-19T08:16:35Z</time>
      </trkpt>
      <trkpt lat="45.7861" lon="4.86095">
        <ele>220</ele>
        <time>2011-06-19T08:16:36Z</time>
      </trkpt>
      <trkpt lat="45.7861" lon="4.86099">
        <ele>220</ele>
        <time>2011-06-19T08:16:37Z</time>
      </trkpt>
      <trkpt lat="45.7861" lon="4.86104">
        <ele>219</ele>
        <time>2011-06-19T08:16:38Z</time>
      </trkpt>
      <trkpt lat="45.78609" lon="4.86109">
        <ele>218</ele>
        <time>2011-06-19T08:16:39Z</time>
      </trkpt>
      <trkpt lat="45.7861" lon="4.86114">
        <ele>218</ele>
        <time>2011-06-19T08:16:40Z</time>
      </trkpt>
      <trkpt lat="45.7861" lon="4.86118">
        <ele>218</ele>
        <time>2011-06-19T08:16:41Z</time>
      </trkpt>
      <trkpt lat="45.7861" lon="4.86123">
        <ele>218</ele>
        <time>2011-06-19T08:16:42Z</time>
      </trkpt>
      <trkpt lat="45.7861" lon="4.86126">
        <ele>218</ele>
        <time>2011-06-19T08:16:43Z</time>
      </trkpt>
      <trkpt lat="45.78608" lon="4.86129">
        <ele>217</ele>
        <time>2011-06-19T08:16:44Z</time>
      </trkpt>
      <trkpt lat="45.78607" lon="4.86133">
        <ele>218</ele>
        <time>2011-06-19T08:16:45Z</time>
      </trkpt>
      <trkpt lat="45.78606" lon="4.86138">
        <ele>218</ele>
        <time>2011-06-19T08:16:46Z</time>
      </trkpt>
      <trkpt lat="45.78605" lon="4.86142">
        <ele>218</ele>
        <time>2011-06-19T08:16:47Z</time>
      </trkpt>
      <trkpt lat="45.78605" lon="4.86147">
        <ele>218</ele>
        <time>2011-06-19T08:16:48Z</time>
      </trkpt>
      <trkpt lat="45.78605" lon="4.86151">
        <ele>217</ele>
        <time>2011-06-19T08:16:49Z</time>
      </trkpt>
      <trkpt lat="45.78605" lon="4.86157">
        <ele>217</ele>
        <time>2011-06-19T08:16:50Z</time>
      </trkpt>
      <trkpt lat="45.78605" lon="4.86161">
        <ele>217</ele>
        <time>2011-06-19T08:16:51Z</time>
      </trkpt>
      <trkpt lat="45.78605" lon="4.86165">
        <ele>217</ele>
        <time>2011-06-19T08:16:52Z</time>
      </trkpt>
      <trkpt lat="45.78604" lon="4.8617">
        <ele>217</ele>
        <time>2011-06-19T08:16:53Z</time>
      </trkpt>
      <trkpt lat="45.78604" lon="4.86176">
        <ele>217</ele>
        <time>2011-06-19T08:16:54Z</time>
      </trkpt>
      <trkpt lat="45.78604" lon="4.8618">
        <ele>217</ele>
        <time>2011-06-19T08:16:55Z</time>
      </trkpt>
      <trkpt lat="45.78604" lon="4.86184">
        <ele>217</ele>
        <time>2011-06-19T08:16:56Z</time>
      </trkpt>
      <trkpt lat="45.78603" lon="4.8619">
        <ele>218</ele>
        <time>2011-06-19T08:16:57Z</time>
      </trkpt>
      <trkpt lat="45.78602" lon="4.86195">
        <ele>217</ele>
        <time>2011-06-19T08:16:58Z</time>
      </trkpt>
      <trkpt lat="45.78602" lon="4.862">
        <ele>217</ele>
        <time>2011-06-19T08:16:59Z</time>
      </trkpt>
      <trkpt lat="45.78602" lon="4.86205">
        <ele>217</ele>
        <time>2011-06-19T08:17:00Z</time>
      </trkpt>
      <trkpt lat="45.78602" lon="4.86209">
        <ele>217</ele>
        <time>2011-06-19T08:17:01Z</time>
      </trkpt>
      <trkpt lat="45.786" lon="4.86213">
        <ele>218</ele>
        <time>2011-06-19T08:17:02Z</time>
      </trkpt>
      <trkpt lat="45.78599" lon="4.86217">
        <ele>219</ele>
        <time>2011-06-19T08:17:03Z</time>
      </trkpt>
      <trkpt lat="45.78598" lon="4.86221">
        <ele>219</ele>
        <time>2011-06-19T08:17:04Z</time>
      </trkpt>
      <trkpt lat="45.78597" lon="4.86226">
        <ele>218</ele>
        <time>2011-06-19T08:17:05Z</time>
      </trkpt>
      <trkpt lat="45.78597" lon="4.8623">
        <ele>218</ele>
        <time>2011-06-19T08:17:06Z</time>
      </trkpt>
      <trkpt lat="45.78596" lon="4.86236">
        <ele>219</ele>
        <time>2011-06-19T08:17:07Z</time>
      </trkpt>
      <trkpt lat="45.78596" lon="4.86241">
        <ele>218</ele>
        <time>2011-06-19T08:17:08Z</time>
      </trkpt>
      <trkpt lat="45.78595" lon="4.86244">
        <ele>218</ele>
        <time>2011-06-19T08:17:09Z</time>
      </trkpt>
      <trkpt lat="45.78595" lon="4.86249">
        <ele>218</ele>
        <time>2011-06-19T08:17:10Z</time>
      </trkpt>
      <trkpt lat="45.78596" lon="4.86252">
        <ele>217</ele>
        <time>2011-06-19T08:17:11Z</time>
      </trkpt>
      <trkpt lat="45.78595" lon="4.86258">
        <ele>217</ele>
        <time>2011-06-19T08:17:12Z</time>
      </trkpt>
      <trkpt lat="45.78594" lon="4.86262">
        <ele>217</ele>
        <time>2011-06-19T08:17:13Z</time>
      </trkpt>
      <trkpt lat="45.78593" lon="4.86266">
        <ele>218</ele>
        <time>2011-06-19T08:17:14Z</time>
      </trkpt>
      <trkpt lat="45.78593" lon="4.86269">
        <ele>218</ele>
        <time>2011-06-19T08:17:15Z</time>
      </trkpt>
      <trkpt lat="45.78591" lon="4.86274">
        <ele>218</ele>
        <time>2011-06-19T08:17:16Z</time>
      </trkpt>
      <trkpt lat="45.78591" lon="4.86278">
        <ele>218</ele>
        <time>2011-06-19T08:17:17Z</time>
      </trkpt>
      <trkpt lat="45.78589" lon="4.86286">
        <ele>219</ele>
        <time>2011-06-19T08:17:18Z</time>
      </trkpt>
      <trkpt lat="45.78587" lon="4.86292">
        <ele>219</ele>
        <time>2011-06-19T08:17:19Z</time>
      </trkpt>
      <trkpt lat="45.78586" lon="4.86296">
        <ele>220</ele>
        <time>2011-06-19T08:17:20Z</time>
      </trkpt>
      <trkpt lat="45.78584" lon="4.86301">
        <ele>220</ele>
        <time>2011-06-19T08:17:21Z</time>
      </trkpt>
      <trkpt lat="45.78584" lon="4.86304">
        <ele>220</ele>
        <time>2011-06-19T08:17:22Z</time>
      </trkpt>
      <trkpt lat="45.78583" lon="4.86307">
        <ele>220</ele>
        <time>2011-06-19T08:17:23Z</time>
      </trkpt>
      <trkpt lat="45.78581" lon="4.86311">
        <ele>221</ele>
        <time>2011-06-19T08:17:24Z</time>
      </trkpt>
      <trkpt lat="45.7858" lon="4.86314">
        <ele>221</ele>
        <time>2011-06-19T08:17:25Z</time>
      </trkpt>
      <trkpt lat="45.78578" lon="4.86317">
        <ele>222</ele>
        <time>2011-06-19T08:17:26Z</time>
      </trkpt>
      <trkpt lat="45.78577" lon="4.86319">
        <ele>224</ele>
        <time>2011-06-19T08:17:27Z</time>
      </trkpt>
      <trkpt lat="45.78575" lon="4.86323">
        <ele>224</ele>
        <time>2011-06-19T08:17:28Z</time>
      </trkpt>
      <trkpt lat="45.78574" lon="4.86327">
        <ele>225</ele>
        <time>2011-06-19T08:17:29Z</time>
      </trkpt>
      <trkpt lat="45.78573" lon="4.86332">
        <ele>224</ele>
        <time>2011-06-19T08:17:30Z</time>
      </trkpt>
      <trkpt lat="45.78573" lon="4.86337">
        <ele>224</ele>
        <time>2011-06-19T08:17:31Z</time>
      </trkpt>
      <trkpt lat="45.78572" lon="4.86341">
        <ele>224</ele>
        <time>2011-06-19T08:17:32Z</time>
      </trkpt>
      <trkpt lat="45.78574" lon="4.86345">
        <ele>224</ele>
        <time>2011-06-19T08:17:33Z</time>
      </trkpt>
      <trkpt lat="45.78574" lon="4.86349">
        <ele>224</ele>
        <time>2011-06-19T08:17:34Z</time>
      </trkpt>
      <trkpt lat="45.78573" lon="4.86353">
        <ele>224</ele>
        <time>2011-06-19T08:17:35Z</time>
      </trkpt>
      <trkpt lat="45.78573" lon="4.86357">
        <ele>224</ele>
        <time>2011-06-19T08:17:36Z</time>
      </trkpt>
      <trkpt lat="45.78575" lon="4.86363">
        <ele>223</ele>
        <time>2011-06-19T08:17:37Z</time>
      </trkpt>
      <trkpt lat="45.78575" lon="4.86368">
        <ele>223</ele>
        <time>2011-06-19T08:17:38Z</time>
      </trkpt>
      <trkpt lat="45.78575" lon="4.86373">
        <ele>222</ele>
        <time>2011-06-19T08:17:39Z</time>
      </trkpt>
      <trkpt lat="45.78576" lon="4.86378">
        <ele>221</ele>
        <time>2011-06-19T08:17:40Z</time>
      </trkpt>
      <trkpt lat="45.78576" lon="4.86382">
        <ele>221</ele>
        <time>2011-06-19T08:17:41Z</time>
      </trkpt>
      <trkpt lat="45.78576" lon="4.86386">
        <ele>221</ele>
        <time>2011-06-19T08:17:42Z</time>
      </trkpt>
      <trkpt lat="45.78575" lon="4.86392">
        <ele>221</ele>
        <time>2011-06-19T08:17:43Z</time>
      </trkpt>
      <trkpt lat="45.78574" lon="4.86399">
        <ele>219</ele>
        <time>2011-06-19T08:17:44Z</time>
      </trkpt>
      <trkpt lat="45.78575" lon="4.86404">
        <ele>219</ele>
        <time>2011-06-19T08:17:45Z</time>
      </trkpt>
      <trkpt lat="45.78575" lon="4.86409">
        <ele>219</ele>
        <time>2011-06-19T08:17:46Z</time>
      </trkpt>
      <trkpt lat="45.78576" lon="4.86413">
        <ele>219</ele>
        <time>2011-06-19T08:17:47Z</time>
      </trkpt>
      <trkpt lat="45.78576" lon="4.86419">
        <ele>219</ele>
        <time>2011-06-19T08:17:48Z</time>
      </trkpt>
      <trkpt lat="45.78576" lon="4.86423">
        <ele>219</ele>
        <time>2011-06-19T08:17:49Z</time>
      </trkpt>
      <trkpt lat="45.78576" lon="4.86428">
        <ele>219</ele>
        <time>2011-06-19T08:17:50Z</time>
      </trkpt>
      <trkpt lat="45.78577" lon="4.86433">
        <ele>219</ele>
        <time>2011-06-19T08:17:51Z</time>
      </trkpt>
      <trkpt lat="45.78578" lon="4.86438">
        <ele>219</ele>
        <time>2011-06-19T08:17:52Z</time>
      </trkpt>
      <trkpt lat="45.7858" lon="4.86442">
        <ele>218</ele>
        <time>2011-06-19T08:17:53Z</time>
      </trkpt>
      <trkpt lat="45.78581" lon="4.86447">
        <ele>219</ele>
        <time>2011-06-19T08:17:54Z</time>
      </trkpt>
      <trkpt lat="45.78582" lon="4.86451">
        <ele>219</ele>
        <time>2011-06-19T08:17:55Z</time>
      </trkpt>
      <trkpt lat="45.78584" lon="4.86456">
        <ele>219</ele>
        <time>2011-06-19T08:17:56Z</time>
      </trkpt>
      <trkpt lat="45.78585" lon="4.8646">
        <ele>220</ele>
        <time>2011-06-19T08:17:57Z</time>
      </trkpt>
      <trkpt lat="45.78586" lon="4.86465">
        <ele>220</ele>
        <time>2011-06-19T08:17:58Z</time>
      </trkpt>
      <trkpt lat="45.78587" lon="4.86469">
        <ele>220</ele>
        <time>2011-06-19T08:17:59Z</time>
      </trkpt>
      <trkpt lat="45.78587" lon="4.86473">
        <ele>219</ele>
        <time>2011-06-19T08:18:00Z</time>
      </trkpt>
      <trkpt lat="45.78588" lon="4.86478">
        <ele>219</ele>
        <time>2011-06-19T08:18:01Z</time>
      </trkpt>
      <trkpt lat="45.78589" lon="4.86483">
        <ele>220</ele>
        <time>2011-06-19T08:18:02Z</time>
      </trkpt>
      <trkpt lat="45.7859" lon="4.86487">
        <ele>220</ele>
        <time>2011-06-19T08:18:03Z</time>
      </trkpt>
      <trkpt lat="45.78591" lon="4.86492">
        <ele>220</ele>
        <time>2011-06-19T08:18:04Z</time>
      </trkpt>
      <trkpt lat="45.7859" lon="4.86496">
        <ele>220</ele>
        <time>2011-06-19T08:18:05Z</time>
      </trkpt>
      <trkpt lat="45.78592" lon="4.865">
        <ele>220</ele>
        <time>2011-06-19T08:18:06Z</time>
      </trkpt>
      <trkpt lat="45.78592" lon="4.86503">
        <ele>220</ele>
        <time>2011-06-19T08:18:07Z</time>
      </trkpt>
      <trkpt lat="45.78592" lon="4.86507">
        <ele>220</ele>
        <time>2011-06-19T08:18:08Z</time>
      </trkpt>
      <trkpt lat="45.78594" lon="4.86511">
        <ele>221</ele>
        <time>2011-06-19T08:18:09Z</time>
      </trkpt>
      <trkpt lat="45.78595" lon="4.86515">
        <ele>220</ele>
        <time>2011-06-19T08:18:10Z</time>
      </trkpt>
      <trkpt lat="45.78595" lon="4.86519">
        <ele>220</ele>
        <time>2011-06-19T08:18:11Z</time>
      </trkpt>
      <trkpt lat="45.78596" lon="4.86523">
        <ele>220</ele>
        <time>2011-06-19T08:18:12Z</time>
      </trkpt>
      <trkpt lat="45.78596" lon="4.86528">
        <ele>220</ele>
        <time>2011-06-19T08:18:13Z</time>
      </trkpt>
      <trkpt lat="45.78597" lon="4.86533">
        <ele>219</ele>
        <time>2011-06-19T08:18:14Z</time>
      </trkpt>
      <trkpt lat="45.78598" lon="4.86539">
        <ele>219</ele>
        <time>2011-06-19T08:18:15Z</time>
      </trkpt>
      <trkpt lat="45.78599" lon="4.86543">
        <ele>219</ele>
        <time>2011-06-19T08:18:16Z</time>
      </trkpt>
      <trkpt lat="45.786" lon="4.86547">
        <ele>218</ele>
        <time>2011-06-19T08:18:17Z</time>
      </trkpt>
      <trkpt lat="45.78601" lon="4.86553">
        <ele>217</ele>
        <time>2011-06-19T08:18:18Z</time>
      </trkpt>
      <trkpt lat="45.78601" lon="4.86558">
        <ele>216</ele>
        <time>2011-06-19T08:18:19Z</time>
      </trkpt>
      <trkpt lat="45.78602" lon="4.86561">
        <ele>216</ele>
        <time>2011-06-19T08:18:20Z</time>
      </trkpt>
      <trkpt lat="45.78603" lon="4.86565">
        <ele>216</ele>
        <time>2011-06-19T08:18:21Z</time>
      </trkpt>
      <trkpt lat="45.78604" lon="4.86569">
        <ele>217</ele>
        <time>2011-06-19T08:18:22Z</time>
      </trkpt>
      <trkpt lat="45.78604" lon="4.86573">
        <ele>217</ele>
        <time>2011-06-19T08:18:23Z</time>
      </trkpt>
      <trkpt lat="45.78605" lon="4.86577">
        <ele>217</ele>
        <time>2011-06-19T08:18:24Z</time>
      </trkpt>
      <trkpt lat="45.78606" lon="4.86583">
        <ele>218</ele>
        <time>2011-06-19T08:18:25Z</time>
      </trkpt>
      <trkpt lat="45.78606" lon="4.86588">
        <ele>218</ele>
        <time>2011-06-19T08:18:26Z</time>
      </trkpt>
      <trkpt lat="45.78608" lon="4.86592">
        <ele>218</ele>
        <time>2011-06-19T08:18:27Z</time>
      </trkpt>
      <trkpt lat="45.78609" lon="4.86597">
        <ele>218</ele>
        <time>2011-06-19T08:18:28Z</time>
      </trkpt>
      <trkpt lat="45.7861" lon="4.86601">
        <ele>218</ele>
        <time>2011-06-19T08:18:29Z</time>
      </trkpt>
      <trkpt lat="45.78611" lon="4.86605">
        <ele>218</ele>
        <time>2011-06-19T08:18:30Z</time>
      </trkpt>
      <trkpt lat="45.78611" lon="4.86611">
        <ele>218</ele>
        <time>2011-06-19T08:18:31Z</time>
      </trkpt>
      <trkpt lat="45.78613" lon="4.86614">
        <ele>218</ele>
        <time>2011-06-19T08:18:32Z</time>
      </trkpt>
      <trkpt lat="45.78613" lon="4.86618">
        <ele>218</ele>
        <time>2011-06-19T08:18:33Z</time>
      </trkpt>
      <trkpt lat="45.78613" lon="4.86621">
        <ele>217</ele>
        <time>2011-06-19T08:18:34Z</time>
      </trkpt>
      <trkpt lat="45.78614" lon="4.86626">
        <ele>217</ele>
        <time>2011-06-19T08:18:35Z</time>
      </trkpt>
      <trkpt lat="45.78615" lon="4.86632">
        <ele>218</ele>
        <time>2011-06-19T08:18:36Z</time>
      </trkpt>
      <trkpt lat="45.78616" lon="4.86636">
        <ele>218</ele>
        <time>2011-06-19T08:18:37Z</time>
      </trkpt>
      <trkpt lat="45.78616" lon="4.86642">
        <ele>219</ele>
        <time>2011-06-19T08:18:38Z</time>
      </trkpt>
      <trkpt lat="45.78616" lon="4.86647">
        <ele>219</ele>
        <time>2011-06-19T08:18:39Z</time>
      </trkpt>
      <trkpt lat="45.78617" lon="4.86653">
        <ele>219</ele>
        <time>2011-06-19T08:18:40Z</time>
      </trkpt>
      <trkpt lat="45.78619" lon="4.86657">
        <ele>219</ele>
        <time>2011-06-19T08:18:41Z</time>
      </trkpt>
      <trkpt lat="45.78619" lon="4.86662">
        <ele>219</ele>
        <time>2011-06-19T08:18:42Z</time>
      </trkpt>
      <trkpt lat="45.78619" lon="4.86666">
        <ele>219</ele>
        <time>2011-06-19T08:18:43Z</time>
      </trkpt>
      <trkpt lat="45.7862" lon="4.86671">
        <ele>218</ele>
        <time>2011-06-19T08:18:44Z</time>
      </trkpt>
      <trkpt lat="45.78622" lon="4.86676">
        <ele>217</ele>
        <time>2011-06-19T08:18:45Z</time>
      </trkpt>
      <trkpt lat="45.78624" lon="4.86679">
        <ele>217</ele>
        <time>2011-06-19T08:18:46Z</time>
      </trkpt>
      <trkpt lat="45.78625" lon="4.86683">
        <ele>217</ele>
        <time>2011-06-19T08:18:47Z</time>
      </trkpt>
      <trkpt lat="45.78626" lon="4.86687">
        <ele>217</ele>
        <time>2011-06-19T08:18:48Z</time>
      </trkpt>
      <trkpt lat="45.78627" lon="4.86692">
        <ele>217</ele>
        <time>2011-06-19T08:18:49Z</time>
      </trkpt>
      <trkpt lat="45.78629" lon="4.86695">
        <ele>217</ele>
        <time>2011-06-19T08:18:50Z</time>
      </trkpt>
      <trkpt lat="45.78629" lon="4.86699">
        <ele>217</ele>
        <time>2011-06-19T08:18:51Z</time>
      </trkpt>
      <trkpt lat="45.78631" lon="4.86703">
        <ele>217</ele>
        <time>2011-06-19T08:18:52Z</time>
      </trkpt>
      <trkpt lat="45.78631" lon="4.86706">
        <ele>217</ele>
        <time>2011-06-19T08:18:53Z</time>
      </trkpt>
      <trkpt lat="45.78631" lon="4.86709">
        <ele>217</ele>
        <time>2011-06-19T08:18:54Z</time>
      </trkpt>
      <trkpt lat="45.78632" lon="4.86714">
        <ele>217</ele>
        <time>2011-06-19T08:18:55Z</time>
      </trkpt>
      <trkpt lat="45.78634" lon="4.86719">
        <ele>216</ele>
        <time>2011-06-19T08:18:56Z</time>
      </trkpt>
      <trkpt lat="45.78636" lon="4.86724">
        <ele>217</ele>
        <time>2011-06-19T08:18:57Z</time>
      </trkpt>
      <trkpt lat="45.78638" lon="4.86729">
        <ele>217</ele>
        <time>2011-06-19T08:18:58Z</time>
      </trkpt>
      <trkpt lat="45.7864" lon="4.86734">
        <ele>217</ele>
        <time>2011-06-19T08:18:59Z</time>
      </trkpt>
      <trkpt lat="45.78641" lon="4.86738">
        <ele>217</ele>
        <time>2011-06-19T08:19:00Z</time>
      </trkpt>
      <trkpt lat="45.78642" lon="4.86743">
        <ele>217</ele>
        <time>2011-06-19T08:19:01Z</time>
      </trkpt>
      <trkpt lat="45.78643" lon="4.86747">
        <ele>217</ele>
        <time>2011-06-19T08:19:02Z</time>
      </trkpt>
      <trkpt lat="45.78645" lon="4.8675">
        <ele>217</ele>
        <time>2011-06-19T08:19:03Z</time>
      </trkpt>
      <trkpt lat="45.78646" lon="4.86754">
        <ele>216</ele>
        <time>2011-06-19T08:19:04Z</time>
      </trkpt>
      <trkpt lat="45.78647" lon="4.86758">
        <ele>216</ele>
        <time>2011-06-19T08:19:05Z</time>
      </trkpt>
      <trkpt lat="45.78648" lon="4.86762">
        <ele>216</ele>
        <time>2011-06-19T08:19:06Z</time>
      </trkpt>
      <trkpt lat="45.78649" lon="4.86765">
        <ele>216</ele>
        <time>2011-06-19T08:19:07Z</time>
      </trkpt>
      <trkpt lat="45.7865" lon="4.86769">
        <ele>216</ele>
        <time>2011-06-19T08:19:08Z</time>
      </trkpt>
      <trkpt lat="45.78651" lon="4.86774">
        <ele>216</ele>
        <time>2011-06-19T08:19:09Z</time>
      </trkpt>
      <trkpt lat="45.78653" lon="4.86779">
        <ele>215</ele>
        <time>2011-06-19T08:19:10Z</time>
      </trkpt>
      <trkpt lat="45.78655" lon="4.86783">
        <ele>215</ele>
        <time>2011-06-19T08:19:11Z</time>
      </trkpt>
      <trkpt lat="45.78656" lon="4.86787">
        <ele>216</ele>
        <time>2011-06-19T08:19:12Z</time>
      </trkpt>
      <trkpt lat="45.78657" lon="4.86791">
        <ele>216</ele>
        <time>2011-06-19T08:19:13Z</time>
      </trkpt>
      <trkpt lat="45.78657" lon="4.86795">
        <ele>216</ele>
        <time>2011-06-19T08:19:14Z</time>
      </trkpt>
      <trkpt lat="45.78659" lon="4.86799">
        <ele>216</ele>
        <time>2011-06-19T08:19:15Z</time>
      </trkpt>
      <trkpt lat="45.7866" lon="4.86802">
        <ele>216</ele>
        <time>2011-06-19T08:19:16Z</time>
      </trkpt>
      <trkpt lat="45.78661" lon="4.86808">
        <ele>216</ele>
        <time>2011-06-19T08:19:17Z</time>
      </trkpt>
      <trkpt lat="45.78662" lon="4.86813">
        <ele>217</ele>
        <time>2011-06-19T08:19:18Z</time>
      </trkpt>
      <trkpt lat="45.78663" lon="4.86818">
        <ele>218</ele>
        <time>2011-06-19T08:19:19Z</time>
      </trkpt>
      <trkpt lat="45.78665" lon="4.86821">
        <ele>218</ele>
        <time>2011-06-19T08:19:20Z</time>
      </trkpt>
      <trkpt lat="45.78667" lon="4.86825">
        <ele>218</ele>
        <time>2011-06-19T08:19:21Z</time>
      </trkpt>
      <trkpt lat="45.78668" lon="4.86829">
        <ele>219</ele>
        <time>2011-06-19T08:19:22Z</time>
      </trkpt>
      <trkpt lat="45.78669" lon="4.86833">
        <ele>219</ele>
        <time>2011-06-19T08:19:23Z</time>
      </trkpt>
      <trkpt lat="45.78671" lon="4.86836">
        <ele>219</ele>
        <time>2011-06-19T08:19:24Z</time>
      </trkpt>
      <trkpt lat="45.78672" lon="4.8684">
        <ele>219</ele>
        <time>2011-06-19T08:19:25Z</time>
      </trkpt>
      <trkpt lat="45.78673" lon="4.86843">
        <ele>219</ele>
        <time>2011-06-19T08:19:26Z</time>
      </trkpt>
      <trkpt lat="45.78675" lon="4.86846">
        <ele>219</ele>
        <time>2011-06-19T08:19:27Z</time>
      </trkpt>
      <trkpt lat="45.78676" lon="4.86849">
        <ele>219</ele>
        <time>2011-06-19T08:19:28Z</time>
      </trkpt>
      <trkpt lat="45.78677" lon="4.86854">
        <ele>219</ele>
        <time>2011-06-19T08:19:29Z</time>
      </trkpt>
      <trkpt lat="45.78679" lon="4.86857">
        <ele>219</ele>
        <time>2011-06-19T08:19:30Z</time>
      </trkpt>
      <trkpt lat="45.78681" lon="4.86861">
        <ele>219</ele>
        <time>2011-06-19T08:19:31Z</time>
      </trkpt>
      <trkpt lat="45.78682" lon="4.86865">
        <ele>220</ele>
        <time>2011-06-19T08:19:32Z</time>
      </trkpt>
      <trkpt lat="45.78682" lon="4.86869">
        <ele>219</ele>
        <time>2011-06-19T08:19:33Z</time>
      </trkpt>
      <trkpt lat="45.78683" lon="4.86874">
        <ele>220</ele>
        <time>2011-06-19T08:19:34Z</time>
      </trkpt>
      <trkpt lat="45.78685" lon="4.86878">
        <ele>220</ele>
        <time>2011-06-19T08:19:35Z</time>
      </trkpt>
      <trkpt lat="45.78686" lon="4.86882">
        <ele>220</ele>
        <time>2011-06-19T08:19:36Z</time>
      </trkpt>
      <trkpt lat="45.78687" lon="4.86885">
        <ele>220</ele>
        <time>2011-06-19T08:19:37Z</time>
      </trkpt>
      <trkpt lat="45.78688" lon="4.86889">
        <ele>220</ele>
        <time>2011-06-19T08:19:38Z</time>
      </trkpt>
      <trkpt lat="45.7869" lon="4.86892">
        <ele>220</ele>
        <time>2011-06-19T08:19:39Z</time>
      </trkpt>
      <trkpt lat="45.78692" lon="4.86897">
        <ele>220</ele>
        <time>2011-06-19T08:19:40Z</time>
      </trkpt>
      <trkpt lat="45.78693" lon="4.86901">
        <ele>220</ele>
        <time>2011-06-19T08:19:41Z</time>
      </trkpt>
      <trkpt lat="45.78694" lon="4.86906">
        <ele>220</ele>
        <time>2011-06-19T08:19:42Z</time>
      </trkpt>
      <trkpt lat="45.78695" lon="4.86911">
        <ele>219</ele>
        <time>2011-06-19T08:19:43Z</time>
      </trkpt>
      <trkpt lat="45.78696" lon="4.86915">
        <ele>219</ele>
        <time>2011-06-19T08:19:44Z</time>
      </trkpt>
      <trkpt lat="45.78699" lon="4.86919">
        <ele>219</ele>
        <time>2011-06-19T08:19:45Z</time>
      </trkpt>
      <trkpt lat="45.787" lon="4.86923">
        <ele>218</ele>
        <time>2011-06-19T08:19:46Z</time>
      </trkpt>
      <trkpt lat="45.78702" lon="4.86927">
        <ele>218</ele>
        <time>2011-06-19T08:19:47Z</time>
      </trkpt>
      <trkpt lat="45.78704" lon="4.86931">
        <ele>218</ele>
        <time>2011-06-19T08:19:48Z</time>
      </trkpt>
      <trkpt lat="45.78706" lon="4.86936">
        <ele>219</ele>
        <time>2011-06-19T08:19:49Z</time>
      </trkpt>
      <trkpt lat="45.78708" lon="4.86941">
        <ele>218</ele>
        <time>2011-06-19T08:19:50Z</time>
      </trkpt>
      <trkpt lat="45.7871" lon="4.86946">
        <ele>217</ele>
        <time>2011-06-19T08:19:51Z</time>
      </trkpt>
      <trkpt lat="45.78712" lon="4.86951">
        <ele>217</ele>
        <time>2011-06-19T08:19:53Z</time>
      </trkpt>
      <trkpt lat="45.78713" lon="4.86954">
        <ele>217</ele>
        <time>2011-06-19T08:19:53Z</time>
      </trkpt>
      <trkpt lat="45.78714" lon="4.86958">
        <ele>218</ele>
        <time>2011-06-19T08:19:54Z</time>
      </trkpt>
      <trkpt lat="45.78715" lon="4.8696">
        <ele>218</ele>
        <time>2011-06-19T08:19:55Z</time>
      </trkpt>
      <trkpt lat="45.78717" lon="4.86965">
        <ele>219</ele>
        <time>2011-06-19T08:19:56Z</time>
      </trkpt>
      <trkpt lat="45.78719" lon="4.8697">
        <ele>218</ele>
        <time>2011-06-19T08:19:58Z</time>
      </trkpt>
      <trkpt lat="45.7872" lon="4.86974">
        <ele>219</ele>
        <time>2011-06-19T08:19:58Z</time>
      </trkpt>
      <trkpt lat="45.78721" lon="4.86979">
        <ele>219</ele>
        <time>2011-06-19T08:19:59Z</time>
      </trkpt>
      <trkpt lat="45.78722" lon="4.86982">
        <ele>219</ele>
        <time>2011-06-19T08:20:00Z</time>
      </trkpt>
      <trkpt lat="45.78723" lon="4.86987">
        <ele>220</ele>
        <time>2011-06-19T08:20:01Z</time>
      </trkpt>
      <trkpt lat="45.78724" lon="4.8699">
        <ele>220</ele>
        <time>2011-06-19T08:20:02Z</time>
      </trkpt>
      <trkpt lat="45.78726" lon="4.86994">
        <ele>220</ele>
        <time>2011-06-19T08:20:03Z</time>
      </trkpt>
      <trkpt lat="45.78727" lon="4.86998">
        <ele>221</ele>
        <time>2011-06-19T08:20:04Z</time>
      </trkpt>
      <trkpt lat="45.78729" lon="4.87002">
        <ele>220</ele>
        <time>2011-06-19T08:20:05Z</time>
      </trkpt>
      <trkpt lat="45.78729" lon="4.87007">
        <ele>220</ele>
        <time>2011-06-19T08:20:06Z</time>
      </trkpt>
      <trkpt lat="45.7873" lon="4.87011">
        <ele>220</ele>
        <time>2011-06-19T08:20:07Z</time>
      </trkpt>
      <trkpt lat="45.78731" lon="4.87015">
        <ele>220</ele>
        <time>2011-06-19T08:20:08Z</time>
      </trkpt>
      <trkpt lat="45.78732" lon="4.87019">
        <ele>220</ele>
        <time>2011-06-19T08:20:09Z</time>
      </trkpt>
      <trkpt lat="45.78732" lon="4.87024">
        <ele>219</ele>
        <time>2011-06-19T08:20:10Z</time>
      </trkpt>
      <trkpt lat="45.78731" lon="4.87027">
        <ele>219</ele>
        <time>2011-06-19T08:20:11Z</time>
      </trkpt>
      <trkpt lat="45.78731" lon="4.87032">
        <ele>219</ele>
        <time>2011-06-19T08:20:12Z</time>
      </trkpt>
      <trkpt lat="45.7873" lon="4.87036">
        <ele>219</ele>
        <time>2011-06-19T08:20:13Z</time>
      </trkpt>
      <trkpt lat="45.7873" lon="4.87039">
        <ele>219</ele>
        <time>2011-06-19T08:20:14Z</time>
      </trkpt>
      <trkpt lat="45.7873" lon="4.87042">
        <ele>219</ele>
        <time>2011-06-19T08:20:15Z</time>
      </trkpt>
      <trkpt lat="45.78732" lon="4.87047">
        <ele>220</ele>
        <time>2011-06-19T08:20:16Z</time>
      </trkpt>
      <trkpt lat="45.78732" lon="4.87051">
        <ele>220</ele>
        <time>2011-06-19T08:20:17Z</time>
      </trkpt>
      <trkpt lat="45.78733" lon="4.87055">
        <ele>220</ele>
        <time>2011-06-19T08:20:18Z</time>
      </trkpt>
      <trkpt lat="45.78734" lon="4.87059">
        <ele>220</ele>
        <time>2011-06-19T08:20:19Z</time>
      </trkpt>
      <trkpt lat="45.78734" lon="4.87064">
        <ele>221</ele>
        <time>2011-06-19T08:20:20Z</time>
      </trkpt>
      <trkpt lat="45.78734" lon="4.87069">
        <ele>221</ele>
        <time>2011-06-19T08:20:21Z</time>
      </trkpt>
      <trkpt lat="45.78735" lon="4.87073">
        <ele>222</ele>
        <time>2011-06-19T08:20:22Z</time>
      </trkpt>
      <trkpt lat="45.78736" lon="4.87078">
        <ele>221</ele>
        <time>2011-06-19T08:20:23Z</time>
      </trkpt>
      <trkpt lat="45.78736" lon="4.87085">
        <ele>221</ele>
        <time>2011-06-19T08:20:24Z</time>
      </trkpt>
      <trkpt lat="45.78737" lon="4.87091">
        <ele>220</ele>
        <time>2011-06-19T08:20:25Z</time>
      </trkpt>
      <trkpt lat="45.78737" lon="4.87096">
        <ele>219</ele>
        <time>2011-06-19T08:20:26Z</time>
      </trkpt>
      <trkpt lat="45.78738" lon="4.87101">
        <ele>219</ele>
        <time>2011-06-19T08:20:27Z</time>
      </trkpt>
      <trkpt lat="45.78738" lon="4.87106">
        <ele>218</ele>
        <time>2011-06-19T08:20:28Z</time>
      </trkpt>
      <trkpt lat="45.78738" lon="4.8711">
        <ele>218</ele>
        <time>2011-06-19T08:20:29Z</time>
      </trkpt>
      <trkpt lat="45.78738" lon="4.87114">
        <ele>219</ele>
        <time>2011-06-19T08:20:30Z</time>
      </trkpt>
      <trkpt lat="45.78738" lon="4.87118">
        <ele>218</ele>
        <time>2011-06-19T08:20:31Z</time>
      </trkpt>
      <trkpt lat="45.78739" lon="4.87123">
        <ele>218</ele>
        <time>2011-06-19T08:20:32Z</time>
      </trkpt>
      <trkpt lat="45.78739" lon="4.87127">
        <ele>218</ele>
        <time>2011-06-19T08:20:33Z</time>
      </trkpt>
      <trkpt lat="45.7874" lon="4.87132">
        <ele>218</ele>
        <time>2011-06-19T08:20:34Z</time>
      </trkpt>
      <trkpt lat="45.78741" lon="4.87136">
        <ele>218</ele>
        <time>2011-06-19T08:20:35Z</time>
      </trkpt>
      <trkpt lat="45.78741" lon="4.8714">
        <ele>219</ele>
        <time>2011-06-19T08:20:36Z</time>
      </trkpt>
      <trkpt lat="45.78741" lon="4.87143">
        <ele>219</ele>
        <time>2011-06-19T08:20:37Z</time>
      </trkpt>
      <trkpt lat="45.78741" lon="4.87149">
        <ele>222</ele>
        <time>2011-06-19T08:20:38Z</time>
      </trkpt>
      <trkpt lat="45.78741" lon="4.87153">
        <ele>223</ele>
        <time>2011-06-19T08:20:39Z</time>
      </trkpt>
      <trkpt lat="45.78741" lon="4.87158">
        <ele>225</ele>
        <time>2011-06-19T08:20:40Z</time>
      </trkpt>
      <trkpt lat="45.7874" lon="4.87162">
        <ele>225</ele>
        <time>2011-06-19T08:20:41Z</time>
      </trkpt>
      <trkpt lat="45.78739" lon="4.87167">
        <ele>225</ele>
        <time>2011-06-19T08:20:43Z</time>
      </trkpt>
      <trkpt lat="45.78739" lon="4.87171">
        <ele>225</ele>
        <time>2011-06-19T08:20:43Z</time>
      </trkpt>
      <trkpt lat="45.78739" lon="4.87176">
        <ele>225</ele>
        <time>2011-06-19T08:20:44Z</time>
      </trkpt>
      <trkpt lat="45.78737" lon="4.87182">
        <ele>224</ele>
        <time>2011-06-19T08:20:45Z</time>
      </trkpt>
      <trkpt lat="45.78737" lon="4.87187">
        <ele>223</ele>
        <time>2011-06-19T08:20:46Z</time>
      </trkpt>
      <trkpt lat="45.78738" lon="4.87191">
        <ele>222</ele>
        <time>2011-06-19T08:20:47Z</time>
      </trkpt>
      <trkpt lat="45.78739" lon="4.87195">
        <ele>222</ele>
        <time>2011-06-19T08:20:48Z</time>
      </trkpt>
      <trkpt lat="45.78739" lon="4.87199">
        <ele>220</ele>
        <time>2011-06-19T08:20:49Z</time>
      </trkpt>
      <trkpt lat="45.78739" lon="4.87203">
        <ele>220</ele>
        <time>2011-06-19T08:20:50Z</time>
      </trkpt>
      <trkpt lat="45.78739" lon="4.87207">
        <ele>220</ele>
        <time>2011-06-19T08:20:51Z</time>
      </trkpt>
      <trkpt lat="45.78739" lon="4.87211">
        <ele>220</ele>
        <time>2011-06-19T08:20:52Z</time>
      </trkpt>
      <trkpt lat="45.78739" lon="4.87215">
        <ele>220</ele>
        <time>2011-06-19T08:20:53Z</time>
      </trkpt>
      <trkpt lat="45.7874" lon="4.8722">
        <ele>220</ele>
        <time>2011-06-19T08:20:54Z</time>
      </trkpt>
      <trkpt lat="45.78741" lon="4.87224">
        <ele>220</ele>
        <time>2011-06-19T08:20:55Z</time>
      </trkpt>
      <trkpt lat="45.78741" lon="4.87228">
        <ele>221</ele>
        <time>2011-06-19T08:20:56Z</time>
      </trkpt>
      <trkpt lat="45.78741" lon="4.87231">
        <ele>222</ele>
        <time>2011-06-19T08:20:57Z</time>
      </trkpt>
      <trkpt lat="45.78741" lon="4.87235">
        <ele>222</ele>
        <time>2011-06-19T08:20:58Z</time>
      </trkpt>
      <trkpt lat="45.78739" lon="4.87239">
        <ele>223</ele>
        <time>2011-06-19T08:20:59Z</time>
      </trkpt>
      <trkpt lat="45.78739" lon="4.87244">
        <ele>222</ele>
        <time>2011-06-19T08:21:00Z</time>
      </trkpt>
      <trkpt lat="45.78741" lon="4.87248">
        <ele>222</ele>
        <time>2011-06-19T08:21:01Z</time>
      </trkpt>
      <trkpt lat="45.7874" lon="4.87252">
        <ele>223</ele>
        <time>2011-06-19T08:21:02Z</time>
      </trkpt>
      <trkpt lat="45.78741" lon="4.87256">
        <ele>223</ele>
        <time>2011-06-19T08:21:03Z</time>
      </trkpt>
      <trkpt lat="45.78743" lon="4.87262">
        <ele>223</ele>
        <time>2011-06-19T08:21:04Z</time>
      </trkpt>
      <trkpt lat="45.78744" lon="4.87268">
        <ele>223</ele>
        <time>2011-06-19T08:21:05Z</time>
      </trkpt>
      <trkpt lat="45.78744" lon="4.87273">
        <ele>222</ele>
        <time>2011-06-19T08:21:06Z</time>
      </trkpt>
      <trkpt lat="45.78744" lon="4.87277">
        <ele>222</ele>
        <time>2011-06-19T08:21:07Z</time>
      </trkpt>
      <trkpt lat="45.78745" lon="4.87283">
        <ele>221</ele>
        <time>2011-06-19T08:21:08Z</time>
      </trkpt>
      <trkpt lat="45.78746" lon="4.87288">
        <ele>222</ele>
        <time>2011-06-19T08:21:09Z</time>
      </trkpt>
      <trkpt lat="45.78746" lon="4.87293">
        <ele>222</ele>
        <time>2011-06-19T08:21:10Z</time>
      </trkpt>
      <trkpt lat="45.78747" lon="4.87299">
        <ele>221</ele>
        <time>2011-06-19T08:21:11Z</time>
      </trkpt>
      <trkpt lat="45.78749" lon="4.87303">
        <ele>221</ele>
        <time>2011-06-19T08:21:12Z</time>
      </trkpt>
      <trkpt lat="45.78749" lon="4.87308">
        <ele>221</ele>
        <time>2011-06-19T08:21:13Z</time>
      </trkpt>
      <trkpt lat="45.7875" lon="4.87313">
        <ele>220</ele>
        <time>2011-06-19T08:21:14Z</time>
      </trkpt>
      <trkpt lat="45.78751" lon="4.87318">
        <ele>220</ele>
        <time>2011-06-19T08:21:15Z</time>
      </trkpt>
      <trkpt lat="45.78751" lon="4.87323">
        <ele>220</ele>
        <time>2011-06-19T08:21:16Z</time>
      </trkpt>
      <trkpt lat="45.78753" lon="4.87327">
        <ele>219</ele>
        <time>2011-06-19T08:21:17Z</time>
      </trkpt>
      <trkpt lat="45.78752" lon="4.87332">
        <ele>219</ele>
        <time>2011-06-19T08:21:18Z</time>
      </trkpt>
      <trkpt lat="45.78754" lon="4.87335">
        <ele>220</ele>
        <time>2011-06-19T08:21:19Z</time>
      </trkpt>
      <trkpt lat="45.78755" lon="4.87339">
        <ele>220</ele>
        <time>2011-06-19T08:21:20Z</time>
      </trkpt>
      <trkpt lat="45.78756" lon="4.87342">
        <ele>220</ele>
        <time>2011-06-19T08:21:21Z</time>
      </trkpt>
      <trkpt lat="45.78756" lon="4.87346">
        <ele>220</ele>
        <time>2011-06-19T08:21:22Z</time>
      </trkpt>
      <trkpt lat="45.78756" lon="4.87349">
        <ele>220</ele>
        <time>2011-06-19T08:21:23Z</time>
      </trkpt>
      <trkpt lat="45.78756" lon="4.87354">
        <ele>220</ele>
        <time>2011-06-19T08:21:24Z</time>
      </trkpt>
      <trkpt lat="45.78752" lon="4.87361">
        <ele>221</ele>
        <time>2011-06-19T08:21:25Z</time>
      </trkpt>
      <trkpt lat="45.78752" lon="4.87365">
        <ele>221</ele>
        <time>2011-06-19T08:21:26Z</time>
      </trkpt>
      <trkpt lat="45.78751" lon="4.8737">
        <ele>222</ele>
        <time>2011-06-19T08:21:27Z</time>
      </trkpt>
      <trkpt lat="45.78752" lon="4.87373">
        <ele>221</ele>
        <time>2011-06-19T08:21:28Z</time>
      </trkpt>
      <trkpt lat="45.78754" lon="4.87378">
        <ele>221</ele>
        <time>2011-06-19T08:21:29Z</time>
      </trkpt>
      <trkpt lat="45.78754" lon="4.87382">
        <ele>221</ele>
        <time>2011-06-19T08:21:30Z</time>
      </trkpt>
      <trkpt lat="45.78755" lon="4.87385">
        <ele>220</ele>
        <time>2011-06-19T08:21:32Z</time>
      </trkpt>
      <trkpt lat="45.78757" lon="4.8739">
        <ele>221</ele>
        <time>2011-06-19T08:21:32Z</time>
      </trkpt>
      <trkpt lat="45.78758" lon="4.87394">
        <ele>221</ele>
        <time>2011-06-19T08:21:33Z</time>
      </trkpt>
      <trkpt lat="45.78759" lon="4.87398">
        <ele>221</ele>
        <time>2011-06-19T08:21:34Z</time>
      </trkpt>
      <trkpt lat="45.78759" lon="4.87402">
        <ele>222</ele>
        <time>2011-06-19T08:21:35Z</time>
      </trkpt>
      <trkpt lat="45.7876" lon="4.87407">
        <ele>221</ele>
        <time>2011-06-19T08:21:36Z</time>
      </trkpt>
      <trkpt lat="45.7876" lon="4.87411">
        <ele>222</ele>
        <time>2011-06-19T08:21:37Z</time>
      </trkpt>
      <trkpt lat="45.78761" lon="4.87416">
        <ele>222</ele>
        <time>2011-06-19T08:21:38Z</time>
      </trkpt>
      <trkpt lat="45.78761" lon="4.8742">
        <ele>222</ele>
        <time>2011-06-19T08:21:39Z</time>
      </trkpt>
      <trkpt lat="45.78762" lon="4.87424">
        <ele>222</ele>
        <time>2011-06-19T08:21:40Z</time>
      </trkpt>
      <trkpt lat="45.78764" lon="4.87428">
        <ele>221</ele>
        <time>2011-06-19T08:21:41Z</time>
      </trkpt>
      <trkpt lat="45.78765" lon="4.87433">
        <ele>221</ele>
        <time>2011-06-19T08:21:42Z</time>
      </trkpt>
      <trkpt lat="45.78765" lon="4.87437">
        <ele>222</ele>
        <time>2011-06-19T08:21:43Z</time>
      </trkpt>
      <trkpt lat="45.78765" lon="4.87441">
        <ele>222</ele>
        <time>2011-06-19T08:21:44Z</time>
      </trkpt>
      <trkpt lat="45.78765" lon="4.87445">
        <ele>222</ele>
        <time>2011-06-19T08:21:45Z</time>
      </trkpt>
      <trkpt lat="45.78766" lon="4.87449">
        <ele>222</ele>
        <time>2011-06-19T08:21:46Z</time>
      </trkpt>
      <trkpt lat="45.78766" lon="4.87453">
        <ele>223</ele>
        <time>2011-06-19T08:21:47Z</time>
      </trkpt>
      <trkpt lat="45.78767" lon="4.87458">
        <ele>222</ele>
        <time>2011-06-19T08:21:48Z</time>
      </trkpt>
      <trkpt lat="45.78767" lon="4.87461">
        <ele>223</ele>
        <time>2011-06-19T08:21:49Z</time>
      </trkpt>
      <trkpt lat="45.78767" lon="4.87466">
        <ele>223</ele>
        <time>2011-06-19T08:21:50Z</time>
      </trkpt>
      <trkpt lat="45.78769" lon="4.87469">
        <ele>223</ele>
        <time>2011-06-19T08:21:51Z</time>
      </trkpt>
      <trkpt lat="45.7877" lon="4.87473">
        <ele>223</ele>
        <time>2011-06-19T08:21:52Z</time>
      </trkpt>
      <trkpt lat="45.7877" lon="4.87475">
        <ele>223</ele>
        <time>2011-06-19T08:21:53Z</time>
      </trkpt>
      <trkpt lat="45.78771" lon="4.8748">
        <ele>223</ele>
        <time>2011-06-19T08:21:54Z</time>
      </trkpt>
      <trkpt lat="45.78771" lon="4.87485">
        <ele>223</ele>
        <time>2011-06-19T08:21:55Z</time>
      </trkpt>
      <trkpt lat="45.78771" lon="4.87489">
        <ele>223</ele>
        <time>2011-06-19T08:21:56Z</time>
      </trkpt>
      <trkpt lat="45.78772" lon="4.87491">
        <ele>223</ele>
        <time>2011-06-19T08:21:57Z</time>
      </trkpt>
      <trkpt lat="45.78772" lon="4.87497">
        <ele>223</ele>
        <time>2011-06-19T08:21:58Z</time>
      </trkpt>
      <trkpt lat="45.78773" lon="4.87502">
        <ele>224</ele>
        <time>2011-06-19T08:21:59Z</time>
      </trkpt>
      <trkpt lat="45.78773" lon="4.87505">
        <ele>224</ele>
        <time>2011-06-19T08:22:00Z</time>
      </trkpt>
      <trkpt lat="45.78773" lon="4.87509">
        <ele>223</ele>
        <time>2011-06-19T08:22:01Z</time>
      </trkpt>
      <trkpt lat="45.78774" lon="4.87512">
        <ele>223</ele>
        <time>2011-06-19T08:22:02Z</time>
      </trkpt>
      <trkpt lat="45.78775" lon="4.87517">
        <ele>223</ele>
        <time>2011-06-19T08:22:03Z</time>
      </trkpt>
      <trkpt lat="45.78775" lon="4.87523">
        <ele>223</ele>
        <time>2011-06-19T08:22:04Z</time>
      </trkpt>
      <trkpt lat="45.78776" lon="4.87529">
        <ele>223</ele>
        <time>2011-06-19T08:22:05Z</time>
      </trkpt>
      <trkpt lat="45.78776" lon="4.87534">
        <ele>223</ele>
        <time>2011-06-19T08:22:06Z</time>
      </trkpt>
      <trkpt lat="45.78776" lon="4.87539">
        <ele>223</ele>
        <time>2011-06-19T08:22:07Z</time>
      </trkpt>
      <trkpt lat="45.78776" lon="4.87543">
        <ele>224</ele>
        <time>2011-06-19T08:22:08Z</time>
      </trkpt>
      <trkpt lat="45.78776" lon="4.87548">
        <ele>224</ele>
        <time>2011-06-19T08:22:09Z</time>
      </trkpt>
      <trkpt lat="45.78776" lon="4.87551">
        <ele>224</ele>
        <time>2011-06-19T08:22:10Z</time>
      </trkpt>
      <trkpt lat="45.78776" lon="4.87555">
        <ele>224</ele>
        <time>2011-06-19T08:22:11Z</time>
      </trkpt>
      <trkpt lat="45.78775" lon="4.87561">
        <ele>223</ele>
        <time>2011-06-19T08:22:12Z</time>
      </trkpt>
      <trkpt lat="45.78776" lon="4.87564">
        <ele>222</ele>
        <time>2011-06-19T08:22:13Z</time>
      </trkpt>
      <trkpt lat="45.78776" lon="4.87569">
        <ele>222</ele>
        <time>2011-06-19T08:22:14Z</time>
      </trkpt>
      <trkpt lat="45.78778" lon="4.87574">
        <ele>221</ele>
        <time>2011-06-19T08:22:15Z</time>
      </trkpt>
      <trkpt lat="45.78779" lon="4.87579">
        <ele>220</ele>
        <time>2011-06-19T08:22:16Z</time>
      </trkpt>
      <trkpt lat="45.78781" lon="4.87584">
        <ele>219</ele>
        <time>2011-06-19T08:22:17Z</time>
      </trkpt>
      <trkpt lat="45.78782" lon="4.87589">
        <ele>219</ele>
        <time>2011-06-19T08:22:18Z</time>
      </trkpt>
      <trkpt lat="45.78782" lon="4.87593">
        <ele>218</ele>
        <time>2011-06-19T08:22:19Z</time>
      </trkpt>
      <trkpt lat="45.78782" lon="4.87598">
        <ele>218</ele>
        <time>2011-06-19T08:22:20Z</time>
      </trkpt>
      <trkpt lat="45.78783" lon="4.87603">
        <ele>219</ele>
        <time>2011-06-19T08:22:21Z</time>
      </trkpt>
      <trkpt lat="45.78782" lon="4.87609">
        <ele>218</ele>
        <time>2011-06-19T08:22:22Z</time>
      </trkpt>
      <trkpt lat="45.78782" lon="4.87614">
        <ele>218</ele>
        <time>2011-06-19T08:22:23Z</time>
      </trkpt>
      <trkpt lat="45.78783" lon="4.87621">
        <ele>217</ele>
        <time>2011-06-19T08:22:24Z</time>
      </trkpt>
      <trkpt lat="45.78784" lon="4.87626">
        <ele>217</ele>
        <time>2011-06-19T08:22:25Z</time>
      </trkpt>
      <trkpt lat="45.78787" lon="4.8763">
        <ele>217</ele>
        <time>2011-06-19T08:22:26Z</time>
      </trkpt>
      <trkpt lat="45.78788" lon="4.87634">
        <ele>217</ele>
        <time>2011-06-19T08:22:27Z</time>
      </trkpt>
      <trkpt lat="45.78789" lon="4.87638">
        <ele>217</ele>
        <time>2011-06-19T08:22:28Z</time>
      </trkpt>
      <trkpt lat="45.7879" lon="4.87644">
        <ele>216</ele>
        <time>2011-06-19T08:22:29Z</time>
      </trkpt>
      <trkpt lat="45.78789" lon="4.87651">
        <ele>216</ele>
        <time>2011-06-19T08:22:30Z</time>
      </trkpt>
      <trkpt lat="45.78791" lon="4.87657">
        <ele>215</ele>
        <time>2011-06-19T08:22:31Z</time>
      </trkpt>
      <trkpt lat="45.78792" lon="4.87662">
        <ele>215</ele>
        <time>2011-06-19T08:22:32Z</time>
      </trkpt>
      <trkpt lat="45.78793" lon="4.87668">
        <ele>216</ele>
        <time>2011-06-19T08:22:33Z</time>
      </trkpt>
      <trkpt lat="45.78793" lon="4.87672">
        <ele>216</ele>
        <time>2011-06-19T08:22:34Z</time>
      </trkpt>
      <trkpt lat="45.78794" lon="4.87676">
        <ele>215</ele>
        <time>2011-06-19T08:22:35Z</time>
      </trkpt>
      <trkpt lat="45.78796" lon="4.87681">
        <ele>216</ele>
        <time>2011-06-19T08:22:36Z</time>
      </trkpt>
      <trkpt lat="45.78797" lon="4.87684">
        <ele>217</ele>
        <time>2011-06-19T08:22:37Z</time>
      </trkpt>
      <trkpt lat="45.788" lon="4.87687">
        <ele>218</ele>
        <time>2011-06-19T08:22:38Z</time>
      </trkpt>
      <trkpt lat="45.78802" lon="4.87691">
        <ele>218</ele>
        <time>2011-06-19T08:22:39Z</time>
      </trkpt>
      <trkpt lat="45.78805" lon="4.87694">
        <ele>217</ele>
        <time>2011-06-19T08:22:40Z</time>
      </trkpt>
      <trkpt lat="45.78808" lon="4.87697">
        <ele>217</ele>
        <time>2011-06-19T08:22:41Z</time>
      </trkpt>
      <trkpt lat="45.7881" lon="4.877">
        <ele>216</ele>
        <time>2011-06-19T08:22:42Z</time>
      </trkpt>
      <trkpt lat="45.78813" lon="4.87701">
        <ele>217</ele>
        <time>2011-06-19T08:22:43Z</time>
      </trkpt>
      <trkpt lat="45.78817" lon="4.87703">
        <ele>216</ele>
        <time>2011-06-19T08:22:44Z</time>
      </trkpt>
      <trkpt lat="45.78819" lon="4.87706">
        <ele>217</ele>
        <time>2011-06-19T08:22:45Z</time>
      </trkpt>
      <trkpt lat="45.78823" lon="4.87709">
        <ele>217</ele>
        <time>2011-06-19T08:22:46Z</time>
      </trkpt>
      <trkpt lat="45.78824" lon="4.87712">
        <ele>217</ele>
        <time>2011-06-19T08:22:47Z</time>
      </trkpt>
      <trkpt lat="45.78827" lon="4.87714">
        <ele>216</ele>
        <time>2011-06-19T08:22:48Z</time>
      </trkpt>
      <trkpt lat="45.78831" lon="4.87716">
        <ele>216</ele>
        <time>2011-06-19T08:22:49Z</time>
      </trkpt>
      <trkpt lat="45.78833" lon="4.87718">
        <ele>216</ele>
        <time>2011-06-19T08:22:50Z</time>
      </trkpt>
      <trkpt lat="45.78837" lon="4.8772">
        <ele>215</ele>
        <time>2011-06-19T08:22:51Z</time>
      </trkpt>
      <trkpt lat="45.78839" lon="4.87723">
        <ele>216</ele>
        <time>2011-06-19T08:22:52Z</time>
      </trkpt>
      <trkpt lat="45.78842" lon="4.87726">
        <ele>215</ele>
        <time>2011-06-19T08:22:53Z</time>
      </trkpt>
      <trkpt lat="45.78845" lon="4.87729">
        <ele>215</ele>
        <time>2011-06-19T08:22:54Z</time>
      </trkpt>
      <trkpt lat="45.78848" lon="4.87731">
        <ele>216</ele>
        <time>2011-06-19T08:22:55Z</time>
      </trkpt>
      <trkpt lat="45.78852" lon="4.87732">
        <ele>217</ele>
        <time>2011-06-19T08:22:56Z</time>
      </trkpt>
      <trkpt lat="45.78855" lon="4.87735">
        <ele>217</ele>
        <time>2011-06-19T08:22:57Z</time>
      </trkpt>
      <trkpt lat="45.78859" lon="4.87737">
        <ele>217</ele>
        <time>2011-06-19T08:22:58Z</time>
      </trkpt>
      <trkpt lat="45.78861" lon="4.87739">
        <ele>216</ele>
        <time>2011-06-19T08:22:59Z</time>
      </trkpt>
      <trkpt lat="45.78863" lon="4.87741">
        <ele>217</ele>
        <time>2011-06-19T08:23:01Z</time>
      </trkpt>
      <trkpt lat="45.78866" lon="4.87743">
        <ele>217</ele>
        <time>2011-06-19T08:23:01Z</time>
      </trkpt>
      <trkpt lat="45.78869" lon="4.87744">
        <ele>217</ele>
        <time>2011-06-19T08:23:02Z</time>
      </trkpt>
      <trkpt lat="45.78871" lon="4.87747">
        <ele>217</ele>
        <time>2011-06-19T08:23:03Z</time>
      </trkpt>
      <trkpt lat="45.78875" lon="4.87748">
        <ele>217</ele>
        <time>2011-06-19T08:23:04Z</time>
      </trkpt>
      <trkpt lat="45.78877" lon="4.8775">
        <ele>217</ele>
        <time>2011-06-19T08:23:05Z</time>
      </trkpt>
      <trkpt lat="45.7888" lon="4.87752">
        <ele>216</ele>
        <time>2011-06-19T08:23:06Z</time>
      </trkpt>
      <trkpt lat="45.78882" lon="4.87755">
        <ele>216</ele>
        <time>2011-06-19T08:23:07Z</time>
      </trkpt>
      <trkpt lat="45.78886" lon="4.87757">
        <ele>215</ele>
        <time>2011-06-19T08:23:08Z</time>
      </trkpt>
      <trkpt lat="45.78888" lon="4.87759">
        <ele>215</ele>
        <time>2011-06-19T08:23:09Z</time>
      </trkpt>
      <trkpt lat="45.78889" lon="4.87763">
        <ele>215</ele>
        <time>2011-06-19T08:23:10Z</time>
      </trkpt>
      <trkpt lat="45.78892" lon="4.87766">
        <ele>215</ele>
        <time>2011-06-19T08:23:11Z</time>
      </trkpt>
      <trkpt lat="45.78895" lon="4.87768">
        <ele>215</ele>
        <time>2011-06-19T08:23:12Z</time>
      </trkpt>
      <trkpt lat="45.78898" lon="4.87771">
        <ele>216</ele>
        <time>2011-06-19T08:23:13Z</time>
      </trkpt>
      <trkpt lat="45.789" lon="4.87774">
        <ele>216</ele>
        <time>2011-06-19T08:23:14Z</time>
      </trkpt>
      <trkpt lat="45.78903" lon="4.87776">
        <ele>216</ele>
        <time>2011-06-19T08:23:15Z</time>
      </trkpt>
      <trkpt lat="45.78905" lon="4.87779">
        <ele>216</ele>
        <time>2011-06-19T08:23:16Z</time>
      </trkpt>
      <trkpt lat="45.78908" lon="4.87782">
        <ele>217</ele>
        <time>2011-06-19T08:23:18Z</time>
      </trkpt>
      <trkpt lat="45.78911" lon="4.87784">
        <ele>218</ele>
        <time>2011-06-19T08:23:18Z</time>
      </trkpt>
      <trkpt lat="45.78913" lon="4.87787">
        <ele>219</ele>
        <time>2011-06-19T08:23:19Z</time>
      </trkpt>
      <trkpt lat="45.78916" lon="4.8779">
        <ele>219</ele>
        <time>2011-06-19T08:23:20Z</time>
      </trkpt>
      <trkpt lat="45.78919" lon="4.87792">
        <ele>219</ele>
        <time>2011-06-19T08:23:21Z</time>
      </trkpt>
      <trkpt lat="45.78922" lon="4.87795">
        <ele>219</ele>
        <time>2011-06-19T08:23:22Z</time>
      </trkpt>
      <trkpt lat="45.78926" lon="4.87798">
        <ele>219</ele>
        <time>2011-06-19T08:23:23Z</time>
      </trkpt>
      <trkpt lat="45.78929" lon="4.878">
        <ele>220</ele>
        <time>2011-06-19T08:23:24Z</time>
      </trkpt>
      <trkpt lat="45.78932" lon="4.87803">
        <ele>220</ele>
        <time>2011-06-19T08:23:25Z</time>
      </trkpt>
      <trkpt lat="45.78933" lon="4.87805">
        <ele>220</ele>
        <time>2011-06-19T08:23:26Z</time>
      </trkpt>
      <trkpt lat="45.78935" lon="4.87808">
        <ele>221</ele>
        <time>2011-06-19T08:23:27Z</time>
      </trkpt>
      <trkpt lat="45.78938" lon="4.8781">
        <ele>220</ele>
        <time>2011-06-19T08:23:28Z</time>
      </trkpt>
      <trkpt lat="45.7894" lon="4.87813">
        <ele>221</ele>
        <time>2011-06-19T08:23:29Z</time>
      </trkpt>
      <trkpt lat="45.78942" lon="4.87817">
        <ele>221</ele>
        <time>2011-06-19T08:23:30Z</time>
      </trkpt>
      <trkpt lat="45.78945" lon="4.87819">
        <ele>221</ele>
        <time>2011-06-19T08:23:31Z</time>
      </trkpt>
      <trkpt lat="45.78949" lon="4.8782">
        <ele>221</ele>
        <time>2011-06-19T08:23:32Z</time>
      </trkpt>
      <trkpt lat="45.78951" lon="4.87823">
        <ele>221</ele>
        <time>2011-06-19T08:23:33Z</time>
      </trkpt>
      <trkpt lat="45.78954" lon="4.87825">
        <ele>221</ele>
        <time>2011-06-19T08:23:34Z</time>
      </trkpt>
      <trkpt lat="45.78956" lon="4.87828">
        <ele>221</ele>
        <time>2011-06-19T08:23:35Z</time>
      </trkpt>
      <trkpt lat="45.78958" lon="4.87831">
        <ele>221</ele>
        <time>2011-06-19T08:23:36Z</time>
      </trkpt>
      <trkpt lat="45.78961" lon="4.87832">
        <ele>221</ele>
        <time>2011-06-19T08:23:37Z</time>
      </trkpt>
      <trkpt lat="45.78964" lon="4.87834">
        <ele>221</ele>
        <time>2011-06-19T08:23:38Z</time>
      </trkpt>
      <trkpt lat="45.78967" lon="4.87836">
        <ele>221</ele>
        <time>2011-06-19T08:23:39Z</time>
      </trkpt>
      <trkpt lat="45.7897" lon="4.87839">
        <ele>221</ele>
        <time>2011-06-19T08:23:40Z</time>
      </trkpt>
      <trkpt lat="45.78973" lon="4.87841">
        <ele>222</ele>
        <time>2011-06-19T08:23:41Z</time>
      </trkpt>
      <trkpt lat="45.78975" lon="4.87845">
        <ele>222</ele>
        <time>2011-06-19T08:23:42Z</time>
      </trkpt>
      <trkpt lat="45.78978" lon="4.87848">
        <ele>222</ele>
        <time>2011-06-19T08:23:43Z</time>
      </trkpt>
      <trkpt lat="45.7898" lon="4.87851">
        <ele>223</ele>
        <time>2011-06-19T08:23:44Z</time>
      </trkpt>
      <trkpt lat="45.78982" lon="4.87854">
        <ele>223</ele>
        <time>2011-06-19T08:23:45Z</time>
      </trkpt>
      <trkpt lat="45.78984" lon="4.87856">
        <ele>223</ele>
        <time>2011-06-19T08:23:46Z</time>
      </trkpt>
      <trkpt lat="45.78986" lon="4.87858">
        <ele>224</ele>
        <time>2011-06-19T08:23:47Z</time>
      </trkpt>
      <trkpt lat="45.78989" lon="4.87861">
        <ele>225</ele>
        <time>2011-06-19T08:23:48Z</time>
      </trkpt>
      <trkpt lat="45.78992" lon="4.87863">
        <ele>225</ele>
        <time>2011-06-19T08:23:49Z</time>
      </trkpt>
      <trkpt lat="45.78994" lon="4.87865">
        <ele>226</ele>
        <time>2011-06-19T08:23:50Z</time>
      </trkpt>
      <trkpt lat="45.78998" lon="4.87867">
        <ele>226</ele>
        <time>2011-06-19T08:23:51Z</time>
      </trkpt>
      <trkpt lat="45.79" lon="4.8787">
        <ele>225</ele>
        <time>2011-06-19T08:23:52Z</time>
      </trkpt>
      <trkpt lat="45.79002" lon="4.87872">
        <ele>225</ele>
        <time>2011-06-19T08:23:53Z</time>
      </trkpt>
      <trkpt lat="45.79006" lon="4.87875">
        <ele>225</ele>
        <time>2011-06-19T08:23:54Z</time>
      </trkpt>
      <trkpt lat="45.79009" lon="4.87877">
        <ele>225</ele>
        <time>2011-06-19T08:23:55Z</time>
      </trkpt>
      <trkpt lat="45.79013" lon="4.87878">
        <ele>225</ele>
        <time>2011-06-19T08:23:56Z</time>
      </trkpt>
      <trkpt lat="45.79016" lon="4.87881">
        <ele>225</ele>
        <time>2011-06-19T08:23:57Z</time>
      </trkpt>
      <trkpt lat="45.79018" lon="4.87884">
        <ele>225</ele>
        <time>2011-06-19T08:23:58Z</time>
      </trkpt>
      <trkpt lat="45.79021" lon="4.87886">
        <ele>225</ele>
        <time>2011-06-19T08:23:59Z</time>
      </trkpt>
      <trkpt lat="45.79025" lon="4.87887">
        <ele>223</ele>
        <time>2011-06-19T08:24:01Z</time>
      </trkpt>
      <trkpt lat="45.79027" lon="4.87889">
        <ele>223.90498352051</ele>
        <time>2011-06-19T08:24:01Z</time>
      </trkpt>
      <trkpt lat="45.7903" lon="4.87892">
        <ele>223</ele>
        <time>2011-06-19T08:24:02Z</time>
      </trkpt>
      <trkpt lat="45.79033" lon="4.87894">
        <ele>223</ele>
        <time>2011-06-19T08:24:03Z</time>
      </trkpt>
      <trkpt lat="45.79036" lon="4.87897">
        <ele>224</ele>
        <time>2011-06-19T08:24:04Z</time>
      </trkpt>
      <trkpt lat="45.79038" lon="4.87899">
        <ele>224</ele>
        <time>2011-06-19T08:24:05Z</time>
      </trkpt>
      <trkpt lat="45.79041" lon="4.87901">
        <ele>225</ele>
        <time>2011-06-19T08:24:06Z</time>
      </trkpt>
      <trkpt lat="45.79044" lon="4.87904">
        <ele>225</ele>
        <time>2011-06-19T08:24:07Z</time>
      </trkpt>
      <trkpt lat="45.79046" lon="4.87906">
        <ele>226</ele>
        <time>2011-06-19T08:24:08Z</time>
      </trkpt>
      <trkpt lat="45.79048" lon="4.8791">
        <ele>226</ele>
        <time>2011-06-19T08:24:09Z</time>
      </trkpt>
      <trkpt lat="45.79051" lon="4.87913">
        <ele>226</ele>
        <time>2011-06-19T08:24:10Z</time>
      </trkpt>
      <trkpt lat="45.79054" lon="4.87915">
        <ele>227</ele>
        <time>2011-06-19T08:24:11Z</time>
      </trkpt>
      <trkpt lat="45.79056" lon="4.87918">
        <ele>227</ele>
        <time>2011-06-19T08:24:12Z</time>
      </trkpt>
      <trkpt lat="45.79059" lon="4.8792">
        <ele>227</ele>
        <time>2011-06-19T08:24:13Z</time>
      </trkpt>
      <trkpt lat="45.79061" lon="4.87922">
        <ele>228</ele>
        <time>2011-06-19T08:24:14Z</time>
      </trkpt>
      <trkpt lat="45.79064" lon="4.87924">
        <ele>228</ele>
        <time>2011-06-19T08:24:15Z</time>
      </trkpt>
      <trkpt lat="45.79067" lon="4.87927">
        <ele>229</ele>
        <time>2011-06-19T08:24:16Z</time>
      </trkpt>
      <trkpt lat="45.7907" lon="4.8793">
        <ele>230</ele>
        <time>2011-06-19T08:24:17Z</time>
      </trkpt>
      <trkpt lat="45.79072" lon="4.87932">
        <ele>229</ele>
        <time>2011-06-19T08:24:18Z</time>
      </trkpt>
      <trkpt lat="45.79075" lon="4.87935">
        <ele>230</ele>
        <time>2011-06-19T08:24:19Z</time>
      </trkpt>
      <trkpt lat="45.79078" lon="4.87937">
        <ele>230</ele>
        <time>2011-06-19T08:24:20Z</time>
      </trkpt>
      <trkpt lat="45.7908" lon="4.8794">
        <ele>231</ele>
        <time>2011-06-19T08:24:21Z</time>
      </trkpt>
      <trkpt lat="45.79082" lon="4.87944">
        <ele>231</ele>
        <time>2011-06-19T08:24:22Z</time>
      </trkpt>
      <trkpt lat="45.79084" lon="4.87946">
        <ele>232</ele>
        <time>2011-06-19T08:24:23Z</time>
      </trkpt>
      <trkpt lat="45.79087" lon="4.87949">
        <ele>232</ele>
        <time>2011-06-19T08:24:24Z</time>
      </trkpt>
      <trkpt lat="45.7909" lon="4.87951">
        <ele>233</ele>
        <time>2011-06-19T08:24:25Z</time>
      </trkpt>
      <trkpt lat="45.79092" lon="4.87953">
        <ele>233</ele>
        <time>2011-06-19T08:24:26Z</time>
      </trkpt>
      <trkpt lat="45.79095" lon="4.87955">
        <ele>233</ele>
        <time>2011-06-19T08:24:27Z</time>
      </trkpt>
      <trkpt lat="45.79097" lon="4.87958">
        <ele>233</ele>
        <time>2011-06-19T08:24:28Z</time>
      </trkpt>
      <trkpt lat="45.791" lon="4.87961">
        <ele>234</ele>
        <time>2011-06-19T08:24:29Z</time>
      </trkpt>
      <trkpt lat="45.79102" lon="4.87964">
        <ele>234</ele>
        <time>2011-06-19T08:24:30Z</time>
      </trkpt>
      <trkpt lat="45.79104" lon="4.87966">
        <ele>234</ele>
        <time>2011-06-19T08:24:31Z</time>
      </trkpt>
      <trkpt lat="45.79107" lon="4.87968">
        <ele>234</ele>
        <time>2011-06-19T08:24:32Z</time>
      </trkpt>
      <trkpt lat="45.7911" lon="4.87971">
        <ele>234</ele>
        <time>2011-06-19T08:24:33Z</time>
      </trkpt>
      <trkpt lat="45.79112" lon="4.87974">
        <ele>235</ele>
        <time>2011-06-19T08:24:34Z</time>
      </trkpt>
      <trkpt lat="45.79113" lon="4.87977">
        <ele>235</ele>
        <time>2011-06-19T08:24:35Z</time>
      </trkpt>
      <trkpt lat="45.79117" lon="4.87979">
        <ele>235</ele>
        <time>2011-06-19T08:24:36Z</time>
      </trkpt>
      <trkpt lat="45.79119" lon="4.8798">
        <ele>236</ele>
        <time>2011-06-19T08:24:37Z</time>
      </trkpt>
      <trkpt lat="45.79122" lon="4.87983">
        <ele>237</ele>
        <time>2011-06-19T08:24:38Z</time>
      </trkpt>
      <trkpt lat="45.79125" lon="4.87985">
        <ele>238</ele>
        <time>2011-06-19T08:24:39Z</time>
      </trkpt>
      <trkpt lat="45.79128" lon="4.87987">
        <ele>236</ele>
        <time>2011-06-19T08:24:40Z</time>
      </trkpt>
      <trkpt lat="45.79131" lon="4.8799">
        <ele>237</ele>
        <time>2011-06-19T08:24:41Z</time>
      </trkpt>
      <trkpt lat="45.79133" lon="4.87991">
        <ele>237</ele>
        <time>2011-06-19T08:24:42Z</time>
      </trkpt>
      <trkpt lat="45.79135" lon="4.87995">
        <ele>238</ele>
        <time>2011-06-19T08:24:43Z</time>
      </trkpt>
      <trkpt lat="45.79138" lon="4.87996">
        <ele>235</ele>
        <time>2011-06-19T08:24:45Z</time>
      </trkpt>
      <trkpt lat="45.7914" lon="4.87998">
        <ele>233</ele>
        <time>2011-06-19T08:24:45Z</time>
      </trkpt>
      <trkpt lat="45.79143" lon="4.88001">
        <ele>234</ele>
        <time>2011-06-19T08:24:46Z</time>
      </trkpt>
      <trkpt lat="45.79145" lon="4.88003">
        <ele>234</ele>
        <time>2011-06-19T08:24:47Z</time>
      </trkpt>
      <trkpt lat="45.79149" lon="4.88005">
        <ele>234</ele>
        <time>2011-06-19T08:24:48Z</time>
      </trkpt>
      <trkpt lat="45.79151" lon="4.88009">
        <ele>233</ele>
        <time>2011-06-19T08:24:49Z</time>
      </trkpt>
      <trkpt lat="45.79153" lon="4.88011">
        <ele>232</ele>
        <time>2011-06-19T08:24:50Z</time>
      </trkpt>
      <trkpt lat="45.79156" lon="4.88016">
        <ele>232</ele>
        <time>2011-06-19T08:24:51Z</time>
      </trkpt>
      <trkpt lat="45.79159" lon="4.88018">
        <ele>232</ele>
        <time>2011-06-19T08:24:52Z</time>
      </trkpt>
      <trkpt lat="45.79162" lon="4.88021">
        <ele>232</ele>
        <time>2011-06-19T08:24:53Z</time>
      </trkpt>
      <trkpt lat="45.79164" lon="4.88024">
        <ele>233</ele>
        <time>2011-06-19T08:24:54Z</time>
      </trkpt>
      <trkpt lat="45.79168" lon="4.88026">
        <ele>231</ele>
        <time>2011-06-19T08:24:55Z</time>
      </trkpt>
      <trkpt lat="45.79171" lon="4.88028">
        <ele>230</ele>
        <time>2011-06-19T08:24:56Z</time>
      </trkpt>
      <trkpt lat="45.79173" lon="4.88031">
        <ele>231</ele>
        <time>2011-06-19T08:24:57Z</time>
      </trkpt>
      <trkpt lat="45.79176" lon="4.88033">
        <ele>230</ele>
        <time>2011-06-19T08:24:58Z</time>
      </trkpt>
      <trkpt lat="45.79179" lon="4.88035">
        <ele>229</ele>
        <time>2011-06-19T08:24:59Z</time>
      </trkpt>
      <trkpt lat="45.79183" lon="4.88037">
        <ele>230</ele>
        <time>2011-06-19T08:25:00Z</time>
      </trkpt>
      <trkpt lat="45.79185" lon="4.8804">
        <ele>229</ele>
        <time>2011-06-19T08:25:01Z</time>
      </trkpt>
      <trkpt lat="45.79188" lon="4.88043">
        <ele>229</ele>
        <time>2011-06-19T08:25:02Z</time>
      </trkpt>
      <trkpt lat="45.79191" lon="4.88045">
        <ele>229</ele>
        <time>2011-06-19T08:25:03Z</time>
      </trkpt>
      <trkpt lat="45.79194" lon="4.88047">
        <ele>229</ele>
        <time>2011-06-19T08:25:04Z</time>
      </trkpt>
      <trkpt lat="45.79197" lon="4.88049">
        <ele>229</ele>
        <time>2011-06-19T08:25:05Z</time>
      </trkpt>
      <trkpt lat="45.792" lon="4.88052">
        <ele>229</ele>
        <time>2011-06-19T08:25:06Z</time>
      </trkpt>
      <trkpt lat="45.79202" lon="4.88054">
        <ele>229</ele>
        <time>2011-06-19T08:25:07Z</time>
      </trkpt>
      <trkpt lat="45.79205" lon="4.88055">
        <ele>229</ele>
        <time>2011-06-19T08:25:08Z</time>
      </trkpt>
      <trkpt lat="45.79208" lon="4.88057">
        <ele>229</ele>
        <time>2011-06-19T08:25:09Z</time>
      </trkpt>
      <trkpt lat="45.79211" lon="4.88059">
        <ele>229</ele>
        <time>2011-06-19T08:25:10Z</time>
      </trkpt>
      <trkpt lat="45.79214" lon="4.88061">
        <ele>229</ele>
        <time>2011-06-19T08:25:11Z</time>
      </trkpt>
      <trkpt lat="45.79216" lon="4.88062">
        <ele>229</ele>
        <time>2011-06-19T08:25:12Z</time>
      </trkpt>
      <trkpt lat="45.7922" lon="4.88064">
        <ele>229</ele>
        <time>2011-06-19T08:25:13Z</time>
      </trkpt>
      <trkpt lat="45.79222" lon="4.88066">
        <ele>229</ele>
        <time>2011-06-19T08:25:14Z</time>
      </trkpt>
      <trkpt lat="45.79224" lon="4.88067">
        <ele>228</ele>
        <time>2011-06-19T08:25:15Z</time>
      </trkpt>
      <trkpt lat="45.79227" lon="4.8807">
        <ele>228</ele>
        <time>2011-06-19T08:25:16Z</time>
      </trkpt>
      <trkpt lat="45.7923" lon="4.88071">
        <ele>228</ele>
        <time>2011-06-19T08:25:17Z</time>
      </trkpt>
      <trkpt lat="45.79233" lon="4.88073">
        <ele>228</ele>
        <time>2011-06-19T08:25:18Z</time>
      </trkpt>
      <trkpt lat="45.79236" lon="4.88075">
        <ele>228</ele>
        <time>2011-06-19T08:25:19Z</time>
      </trkpt>
      <trkpt lat="45.79239" lon="4.88077">
        <ele>229</ele>
        <time>2011-06-19T08:25:20Z</time>
      </trkpt>
      <trkpt lat="45.79242" lon="4.88079">
        <ele>229</ele>
        <time>2011-06-19T08:25:21Z</time>
      </trkpt>
      <trkpt lat="45.79245" lon="4.8808">
        <ele>229</ele>
        <time>2011-06-19T08:25:22Z</time>
      </trkpt>
      <trkpt lat="45.79247" lon="4.88082">
        <ele>229</ele>
        <time>2011-06-19T08:25:23Z</time>
      </trkpt>
      <trkpt lat="45.7925" lon="4.88084">
        <ele>228</ele>
        <time>2011-06-19T08:25:24Z</time>
      </trkpt>
      <trkpt lat="45.79253" lon="4.88085">
        <ele>227</ele>
        <time>2011-06-19T08:25:25Z</time>
      </trkpt>
      <trkpt lat="45.79256" lon="4.88087">
        <ele>227</ele>
        <time>2011-06-19T08:25:26Z</time>
      </trkpt>
      <trkpt lat="45.79259" lon="4.88088">
        <ele>226</ele>
        <time>2011-06-19T08:25:27Z</time>
      </trkpt>
      <trkpt lat="45.79261" lon="4.8809">
        <ele>226</ele>
        <time>2011-06-19T08:25:29Z</time>
      </trkpt>
      <trkpt lat="45.79264" lon="4.88091">
        <ele>227</ele>
        <time>2011-06-19T08:25:29Z</time>
      </trkpt>
      <trkpt lat="45.79267" lon="4.88092">
        <ele>227</ele>
        <time>2011-06-19T08:25:30Z</time>
      </trkpt>
      <trkpt lat="45.79269" lon="4.88094">
        <ele>227</ele>
        <time>2011-06-19T08:25:31Z</time>
      </trkpt>
      <trkpt lat="45.79273" lon="4.88097">
        <ele>227</ele>
        <time>2011-06-19T08:25:32Z</time>
      </trkpt>
      <trkpt lat="45.79275" lon="4.881">
        <ele>227</ele>
        <time>2011-06-19T08:25:33Z</time>
      </trkpt>
      <trkpt lat="45.79278" lon="4.88103">
        <ele>226</ele>
        <time>2011-06-19T08:25:35Z</time>
      </trkpt>
      <trkpt lat="45.7928" lon="4.88106">
        <ele>226</ele>
        <time>2011-06-19T08:25:36Z</time>
      </trkpt>
      <trkpt lat="45.79282" lon="4.88111">
        <ele>226</ele>
        <time>2011-06-19T08:25:37Z</time>
      </trkpt>
      <trkpt lat="45.79282" lon="4.88111">
        <ele>225.90167236328</ele>
        <time>2011-06-19T08:25:38Z</time>
      </trkpt>
      <trkpt lat="45.79285" lon="4.88119">
        <ele>225</ele>
        <time>2011-06-19T08:25:38Z</time>
      </trkpt>
      <trkpt lat="45.79288" lon="4.8812">
        <ele>225</ele>
        <time>2011-06-19T08:25:39Z</time>
      </trkpt>
      <trkpt lat="45.79288" lon="4.88123">
        <ele>224</ele>
        <time>2011-06-19T08:25:40Z</time>
      </trkpt>
      <trkpt lat="45.79289" lon="4.88127">
        <ele>222</ele>
        <time>2011-06-19T08:25:41Z</time>
      </trkpt>
      <trkpt lat="45.79289" lon="4.8813">
        <ele>222</ele>
        <time>2011-06-19T08:25:42Z</time>
      </trkpt>
      <trkpt lat="45.79291" lon="4.88134">
        <ele>220</ele>
        <time>2011-06-19T08:25:43Z</time>
      </trkpt>
      <trkpt lat="45.79293" lon="4.88136">
        <ele>219</ele>
        <time>2011-06-19T08:25:44Z</time>
      </trkpt>
      <trkpt lat="45.79295" lon="4.8814">
        <ele>219</ele>
        <time>2011-06-19T08:25:45Z</time>
      </trkpt>
      <trkpt lat="45.79296" lon="4.88143">
        <ele>218</ele>
        <time>2011-06-19T08:25:46Z</time>
      </trkpt>
      <trkpt lat="45.79297" lon="4.88147">
        <ele>218</ele>
        <time>2011-06-19T08:25:47Z</time>
      </trkpt>
      <trkpt lat="45.79298" lon="4.8815">
        <ele>218</ele>
        <time>2011-06-19T08:25:48Z</time>
      </trkpt>
      <trkpt lat="45.79299" lon="4.88153">
        <ele>217</ele>
        <time>2011-06-19T08:25:49Z</time>
      </trkpt>
      <trkpt lat="45.793" lon="4.88157">
        <ele>216</ele>
        <time>2011-06-19T08:25:51Z</time>
      </trkpt>
      <trkpt lat="45.79301" lon="4.88161">
        <ele>215</ele>
        <time>2011-06-19T08:25:51Z</time>
      </trkpt>
      <trkpt lat="45.79301" lon="4.88165">
        <ele>216</ele>
        <time>2011-06-19T08:25:52Z</time>
      </trkpt>
      <trkpt lat="45.79302" lon="4.88168">
        <ele>215</ele>
        <time>2011-06-19T08:25:53Z</time>
      </trkpt>
      <trkpt lat="45.79303" lon="4.88172">
        <ele>215</ele>
        <time>2011-06-19T08:25:54Z</time>
      </trkpt>
      <trkpt lat="45.79303" lon="4.88176">
        <ele>216</ele>
        <time>2011-06-19T08:25:55Z</time>
      </trkpt>
      <trkpt lat="45.79305" lon="4.8818">
        <ele>216</ele>
        <time>2011-06-19T08:25:56Z</time>
      </trkpt>
      <trkpt lat="45.79305" lon="4.88183">
        <ele>216</ele>
        <time>2011-06-19T08:25:57Z</time>
      </trkpt>
      <trkpt lat="45.79305" lon="4.88187">
        <ele>216</ele>
        <time>2011-06-19T08:25:58Z</time>
      </trkpt>
      <trkpt lat="45.79306" lon="4.8819">
        <ele>216</ele>
        <time>2011-06-19T08:25:59Z</time>
      </trkpt>
      <trkpt lat="45.79306" lon="4.88195">
        <ele>217</ele>
        <time>2011-06-19T08:26:00Z</time>
      </trkpt>
      <trkpt lat="45.79307" lon="4.88199">
        <ele>217</ele>
        <time>2011-06-19T08:26:01Z</time>
      </trkpt>
      <trkpt lat="45.79307" lon="4.88203">
        <ele>217</ele>
        <time>2011-06-19T08:26:02Z</time>
      </trkpt>
      <trkpt lat="45.79308" lon="4.88207">
        <ele>217</ele>
        <time>2011-06-19T08:26:03Z</time>
      </trkpt>
      <trkpt lat="45.79308" lon="4.8821">
        <ele>217</ele>
        <time>2011-06-19T08:26:04Z</time>
      </trkpt>
      <trkpt lat="45.79308" lon="4.88214">
        <ele>217</ele>
        <time>2011-06-19T08:26:05Z</time>
      </trkpt>
      <trkpt lat="45.79308" lon="4.88218">
        <ele>217</ele>
        <time>2011-06-19T08:26:06Z</time>
      </trkpt>
      <trkpt lat="45.79308" lon="4.88222">
        <ele>217</ele>
        <time>2011-06-19T08:26:07Z</time>
      </trkpt>
      <trkpt lat="45.79308" lon="4.88226">
        <ele>217</ele>
        <time>2011-06-19T08:26:08Z</time>
      </trkpt>
      <trkpt lat="45.79307" lon="4.8823">
        <ele>217</ele>
        <time>2011-06-19T08:26:09Z</time>
      </trkpt>
      <trkpt lat="45.79305" lon="4.88233">
        <ele>217</ele>
        <time>2011-06-19T08:26:10Z</time>
      </trkpt>
      <trkpt lat="45.79305" lon="4.88237">
        <ele>217</ele>
        <time>2011-06-19T08:26:11Z</time>
      </trkpt>
      <trkpt lat="45.79305" lon="4.88242">
        <ele>217</ele>
        <time>2011-06-19T08:26:13Z</time>
      </trkpt>
      <trkpt lat="45.79305" lon="4.88247">
        <ele>217</ele>
        <time>2011-06-19T08:26:13Z</time>
      </trkpt>
      <trkpt lat="45.79304" lon="4.88251">
        <ele>217</ele>
        <time>2011-06-19T08:26:14Z</time>
      </trkpt>
      <trkpt lat="45.79303" lon="4.88255">
        <ele>217</ele>
        <time>2011-06-19T08:26:15Z</time>
      </trkpt>
      <trkpt lat="45.79303" lon="4.88258">
        <ele>217</ele>
        <time>2011-06-19T08:26:16Z</time>
      </trkpt>
      <trkpt lat="45.79303" lon="4.88262">
        <ele>217</ele>
        <time>2011-06-19T08:26:17Z</time>
      </trkpt>
      <trkpt lat="45.79303" lon="4.88266">
        <ele>217</ele>
        <time>2011-06-19T08:26:18Z</time>
      </trkpt>
      <trkpt lat="45.79301" lon="4.88268">
        <ele>217</ele>
        <time>2011-06-19T08:26:19Z</time>
      </trkpt>
      <trkpt lat="45.79301" lon="4.88273">
        <ele>218</ele>
        <time>2011-06-19T08:26:20Z</time>
      </trkpt>
      <trkpt lat="45.793" lon="4.88277">
        <ele>218</ele>
        <time>2011-06-19T08:26:21Z</time>
      </trkpt>
      <trkpt lat="45.793" lon="4.88281">
        <ele>218</ele>
        <time>2011-06-19T08:26:22Z</time>
      </trkpt>
      <trkpt lat="45.793" lon="4.88285">
        <ele>218</ele>
        <time>2011-06-19T08:26:23Z</time>
      </trkpt>
      <trkpt lat="45.79299" lon="4.88289">
        <ele>218</ele>
        <time>2011-06-19T08:26:24Z</time>
      </trkpt>
      <trkpt lat="45.79297" lon="4.88293">
        <ele>219</ele>
        <time>2011-06-19T08:26:25Z</time>
      </trkpt>
      <trkpt lat="45.79296" lon="4.88298">
        <ele>219</ele>
        <time>2011-06-19T08:26:26Z</time>
      </trkpt>
      <trkpt lat="45.79295" lon="4.88301">
        <ele>220</ele>
        <time>2011-06-19T08:26:27Z</time>
      </trkpt>
      <trkpt lat="45.79295" lon="4.88304">
        <ele>220</ele>
        <time>2011-06-19T08:26:28Z</time>
      </trkpt>
      <trkpt lat="45.79294" lon="4.88307">
        <ele>220</ele>
        <time>2011-06-19T08:26:29Z</time>
      </trkpt>
      <trkpt lat="45.79293" lon="4.88309">
        <ele>220</ele>
        <time>2011-06-19T08:26:30Z</time>
      </trkpt>
      <trkpt lat="45.79292" lon="4.88312">
        <ele>220</ele>
        <time>2011-06-19T08:26:31Z</time>
      </trkpt>
      <trkpt lat="45.79291" lon="4.88314">
        <ele>220</ele>
        <time>2011-06-19T08:26:32Z</time>
      </trkpt>
      <trkpt lat="45.7929" lon="4.88317">
        <ele>220</ele>
        <time>2011-06-19T08:26:33Z</time>
      </trkpt>
      <trkpt lat="45.79288" lon="4.88319">
        <ele>220</ele>
        <time>2011-06-19T08:26:35Z</time>
      </trkpt>
      <trkpt lat="45.79287" lon="4.88321">
        <ele>220</ele>
        <time>2011-06-19T08:26:35Z</time>
      </trkpt>
      <trkpt lat="45.79287" lon="4.88323">
        <ele>219</ele>
        <time>2011-06-19T08:26:36Z</time>
      </trkpt>
      <trkpt lat="45.79286" lon="4.88325">
        <ele>220</ele>
        <time>2011-06-19T08:26:37Z</time>
      </trkpt>
      <trkpt lat="45.79286" lon="4.88326">
        <ele>220</ele>
        <time>2011-06-19T08:26:38Z</time>
      </trkpt>
      <trkpt lat="45.79286" lon="4.88326">
        <ele>221</ele>
        <time>2011-06-19T08:26:39Z</time>
      </trkpt>
      <trkpt lat="45.79286" lon="4.88327">
        <ele>221</ele>
        <time>2011-06-19T08:26:40Z</time>
      </trkpt>
      <trkpt lat="45.79285" lon="4.88329">
        <ele>221</ele>
        <time>2011-06-19T08:26:41Z</time>
      </trkpt>
      <trkpt lat="45.79285" lon="4.88328">
        <ele>221</ele>
        <time>2011-06-19T08:26:42Z</time>
      </trkpt>
      <trkpt lat="45.79286" lon="4.88328">
        <ele>221</ele>
        <time>2011-06-19T08:26:43Z</time>
      </trkpt>
      <trkpt lat="45.79286" lon="4.88327">
        <ele>221</ele>
        <time>2011-06-19T08:26:44Z</time>
      </trkpt>
      <trkpt lat="45.79286" lon="4.88328">
        <ele>221</ele>
        <time>2011-06-19T08:26:45Z</time>
      </trkpt>
      <trkpt lat="45.79286" lon="4.88327">
        <ele>221</ele>
        <time>2011-06-19T08:26:46Z</time>
      </trkpt>
      <trkpt lat="45.79286" lon="4.88327">
        <ele>221</ele>
        <time>2011-06-19T08:26:47Z</time>
      </trkpt>
      <trkpt lat="45.79286" lon="4.88327">
        <ele>221</ele>
        <time>2011-06-19T08:26:48Z</time>
      </trkpt>
      <trkpt lat="45.79286" lon="4.88327">
        <ele>221</ele>
        <time>2011-06-19T08:26:49Z</time>
      </trkpt>
      <trkpt lat="45.79286" lon="4.88327">
        <ele>221</ele>
        <time>2011-06-19T08:26:50Z</time>
      </trkpt>
      <trkpt lat="45.79286" lon="4.88327">
        <ele>221</ele>
        <time>2011-06-19T08:26:51Z</time>
      </trkpt>
      <trkpt lat="45.79286" lon="4.88327">
        <ele>220</ele>
        <time>2011-06-19T08:26:52Z</time>
      </trkpt>
      <trkpt lat="45.79287" lon="4.88326">
        <ele>221</ele>
        <time>2011-06-19T08:26:53Z</time>
      </trkpt>
      <trkpt lat="45.79287" lon="4.88327">
        <ele>220</ele>
        <time>2011-06-19T08:26:54Z</time>
      </trkpt>
      <trkpt lat="45.79288" lon="4.88326">
        <ele>220</ele>
        <time>2011-06-19T08:26:55Z</time>
      </trkpt>
      <trkpt lat="45.79289" lon="4.88325">
        <ele>220</ele>
        <time>2011-06-19T08:26:56Z</time>
      </trkpt>
      <trkpt lat="45.79291" lon="4.88322">
        <ele>220</ele>
        <time>2011-06-19T08:26:57Z</time>
      </trkpt>
      <trkpt lat="45.79293" lon="4.88318">
        <ele>220</ele>
        <time>2011-06-19T08:26:58Z</time>
      </trkpt>
      <trkpt lat="45.79294" lon="4.88314">
        <ele>220</ele>
        <time>2011-06-19T08:26:59Z</time>
      </trkpt>
      <trkpt lat="45.79294" lon="4.88311">
        <ele>220</ele>
        <time>2011-06-19T08:27:00Z</time>
      </trkpt>
      <trkpt lat="45.79296" lon="4.88307">
        <ele>220</ele>
        <time>2011-06-19T08:27:01Z</time>
      </trkpt>
      <trkpt lat="45.79297" lon="4.88304">
        <ele>220</ele>
        <time>2011-06-19T08:27:02Z</time>
      </trkpt>
      <trkpt lat="45.79298" lon="4.88299">
        <ele>220</ele>
        <time>2011-06-19T08:27:03Z</time>
      </trkpt>
      <trkpt lat="45.79298" lon="4.88297">
        <ele>219</ele>
        <time>2011-06-19T08:27:04Z</time>
      </trkpt>
      <trkpt lat="45.79298" lon="4.88294">
        <ele>220</ele>
        <time>2011-06-19T08:27:05Z</time>
      </trkpt>
      <trkpt lat="45.79298" lon="4.8829">
        <ele>221</ele>
        <time>2011-06-19T08:27:06Z</time>
      </trkpt>
      <trkpt lat="45.793" lon="4.88285">
        <ele>220</ele>
        <time>2011-06-19T08:27:07Z</time>
      </trkpt>
      <trkpt lat="45.79301" lon="4.88281">
        <ele>220</ele>
        <time>2011-06-19T08:27:08Z</time>
      </trkpt>
      <trkpt lat="45.79302" lon="4.88277">
        <ele>220</ele>
        <time>2011-06-19T08:27:09Z</time>
      </trkpt>
      <trkpt lat="45.79303" lon="4.88274">
        <ele>220</ele>
        <time>2011-06-19T08:27:10Z</time>
      </trkpt>
      <trkpt lat="45.79303" lon="4.88269">
        <ele>221</ele>
        <time>2011-06-19T08:27:11Z</time>
      </trkpt>
      <trkpt lat="45.79304" lon="4.88266">
        <ele>221</ele>
        <time>2011-06-19T08:27:12Z</time>
      </trkpt>
      <trkpt lat="45.79304" lon="4.88262">
        <ele>220</ele>
        <time>2011-06-19T08:27:13Z</time>
      </trkpt>
      <trkpt lat="45.79303" lon="4.88259">
        <ele>219</ele>
        <time>2011-06-19T08:27:14Z</time>
      </trkpt>
      <trkpt lat="45.79304" lon="4.88254">
        <ele>219</ele>
        <time>2011-06-19T08:27:15Z</time>
      </trkpt>
      <trkpt lat="45.79304" lon="4.88251">
        <ele>218</ele>
        <time>2011-06-19T08:27:16Z</time>
      </trkpt>
      <trkpt lat="45.79305" lon="4.88247">
        <ele>218</ele>
        <time>2011-06-19T08:27:18Z</time>
      </trkpt>
      <trkpt lat="45.79306" lon="4.88244">
        <ele>218</ele>
        <time>2011-06-19T08:27:18Z</time>
      </trkpt>
      <trkpt lat="45.79307" lon="4.8824">
        <ele>218</ele>
        <time>2011-06-19T08:27:19Z</time>
      </trkpt>
      <trkpt lat="45.79306" lon="4.88236">
        <ele>218</ele>
        <time>2011-06-19T08:27:20Z</time>
      </trkpt>
      <trkpt lat="45.79307" lon="4.88232">
        <ele>219</ele>
        <time>2011-06-19T08:27:21Z</time>
      </trkpt>
      <trkpt lat="45.79308" lon="4.88229">
        <ele>220</ele>
        <time>2011-06-19T08:27:22Z</time>
      </trkpt>
      <trkpt lat="45.79309" lon="4.88225">
        <ele>220</ele>
        <time>2011-06-19T08:27:23Z</time>
      </trkpt>
      <trkpt lat="45.79309" lon="4.8822">
        <ele>220</ele>
        <time>2011-06-19T08:27:24Z</time>
      </trkpt>
      <trkpt lat="45.7931" lon="4.88216">
        <ele>220</ele>
        <time>2011-06-19T08:27:25Z</time>
      </trkpt>
      <trkpt lat="45.79311" lon="4.88212">
        <ele>220</ele>
        <time>2011-06-19T08:27:26Z</time>
      </trkpt>
      <trkpt lat="45.79312" lon="4.88208">
        <ele>220</ele>
        <time>2011-06-19T08:27:27Z</time>
      </trkpt>
      <trkpt lat="45.79313" lon="4.88204">
        <ele>219</ele>
        <time>2011-06-19T08:27:29Z</time>
      </trkpt>
      <trkpt lat="45.79313" lon="4.88201">
        <ele>219</ele>
        <time>2011-06-19T08:27:29Z</time>
      </trkpt>
      <trkpt lat="45.79313" lon="4.88196">
        <ele>218</ele>
        <time>2011-06-19T08:27:30Z</time>
      </trkpt>
      <trkpt lat="45.79313" lon="4.88193">
        <ele>218</ele>
        <time>2011-06-19T08:27:31Z</time>
      </trkpt>
      <trkpt lat="45.79313" lon="4.88188">
        <ele>217</ele>
        <time>2011-06-19T08:27:32Z</time>
      </trkpt>
      <trkpt lat="45.79313" lon="4.88185">
        <ele>217</ele>
        <time>2011-06-19T08:27:33Z</time>
      </trkpt>
      <trkpt lat="45.79313" lon="4.88181">
        <ele>217</ele>
        <time>2011-06-19T08:27:34Z</time>
      </trkpt>
      <trkpt lat="45.79313" lon="4.88177">
        <ele>217</ele>
        <time>2011-06-19T08:27:35Z</time>
      </trkpt>
      <trkpt lat="45.79313" lon="4.88173">
        <ele>216</ele>
        <time>2011-06-19T08:27:36Z</time>
      </trkpt>
      <trkpt lat="45.79314" lon="4.88168">
        <ele>217</ele>
        <time>2011-06-19T08:27:37Z</time>
      </trkpt>
      <trkpt lat="45.79313" lon="4.88164">
        <ele>217</ele>
        <time>2011-06-19T08:27:38Z</time>
      </trkpt>
      <trkpt lat="45.79313" lon="4.8816">
        <ele>217</ele>
        <time>2011-06-19T08:27:40Z</time>
      </trkpt>
      <trkpt lat="45.79312" lon="4.88156">
        <ele>217</ele>
        <time>2011-06-19T08:27:40Z</time>
      </trkpt>
      <trkpt lat="45.79312" lon="4.88152">
        <ele>217</ele>
        <time>2011-06-19T08:27:41Z</time>
      </trkpt>
      <trkpt lat="45.7931" lon="4.88149">
        <ele>218</ele>
        <time>2011-06-19T08:27:42Z</time>
      </trkpt>
      <trkpt lat="45.79308" lon="4.88145">
        <ele>219</ele>
        <time>2011-06-19T08:27:43Z</time>
      </trkpt>
      <trkpt lat="45.79307" lon="4.88141">
        <ele>219</ele>
        <time>2011-06-19T08:27:44Z</time>
      </trkpt>
      <trkpt lat="45.79306" lon="4.88137">
        <ele>217</ele>
        <time>2011-06-19T08:27:45Z</time>
      </trkpt>
      <trkpt lat="45.79305" lon="4.88133">
        <ele>217</ele>
        <time>2011-06-19T08:27:46Z</time>
      </trkpt>
      <trkpt lat="45.79304" lon="4.88129">
        <ele>217</ele>
        <time>2011-06-19T08:27:47Z</time>
      </trkpt>
      <trkpt lat="45.79303" lon="4.88126">
        <ele>217</ele>
        <time>2011-06-19T08:27:48Z</time>
      </trkpt>
      <trkpt lat="45.79302" lon="4.88122">
        <ele>217</ele>
        <time>2011-06-19T08:27:49Z</time>
      </trkpt>
      <trkpt lat="45.79301" lon="4.88118">
        <ele>217</ele>
        <time>2011-06-19T08:27:50Z</time>
      </trkpt>
      <trkpt lat="45.79301" lon="4.88114">
        <ele>217</ele>
        <time>2011-06-19T08:27:52Z</time>
      </trkpt>
      <trkpt lat="45.79301" lon="4.88111">
        <ele>217</ele>
        <time>2011-06-19T08:27:52Z</time>
      </trkpt>
      <trkpt lat="45.793" lon="4.88107">
        <ele>217</ele>
        <time>2011-06-19T08:27:53Z</time>
      </trkpt>
      <trkpt lat="45.793" lon="4.88105">
        <ele>217</ele>
        <time>2011-06-19T08:27:54Z</time>
      </trkpt>
      <trkpt lat="45.79298" lon="4.88101">
        <ele>217</ele>
        <time>2011-06-19T08:27:55Z</time>
      </trkpt>
      <trkpt lat="45.79296" lon="4.88099">
        <ele>217</ele>
        <time>2011-06-19T08:27:56Z</time>
      </trkpt>
      <trkpt lat="45.79293" lon="4.88097">
        <ele>217</ele>
        <time>2011-06-19T08:27:57Z</time>
      </trkpt>
      <trkpt lat="45.79289" lon="4.88094">
        <ele>216</ele>
        <time>2011-06-19T08:27:58Z</time>
      </trkpt>
      <trkpt lat="45.79286" lon="4.88091">
        <ele>216</ele>
        <time>2011-06-19T08:27:59Z</time>
      </trkpt>
      <trkpt lat="45.79282" lon="4.88088">
        <ele>216</ele>
        <time>2011-06-19T08:28:00Z</time>
      </trkpt>
      <trkpt lat="45.79279" lon="4.88086">
        <ele>216</ele>
        <time>2011-06-19T08:28:02Z</time>
      </trkpt>
      <trkpt lat="45.79275" lon="4.88085">
        <ele>216</ele>
        <time>2011-06-19T08:28:02Z</time>
      </trkpt>
      <trkpt lat="45.79274" lon="4.88084">
        <ele>216</ele>
        <time>2011-06-19T08:28:03Z</time>
      </trkpt>
      <trkpt lat="45.79269" lon="4.88082">
        <ele>216</ele>
        <time>2011-06-19T08:28:04Z</time>
      </trkpt>
      <trkpt lat="45.79265" lon="4.88081">
        <ele>216</ele>
        <time>2011-06-19T08:28:05Z</time>
      </trkpt>
      <trkpt lat="45.79262" lon="4.8808">
        <ele>217</ele>
        <time>2011-06-19T08:28:06Z</time>
      </trkpt>
      <trkpt lat="45.7926" lon="4.88081">
        <ele>217</ele>
        <time>2011-06-19T08:28:07Z</time>
      </trkpt>
      <trkpt lat="45.79257" lon="4.88082">
        <ele>217</ele>
        <time>2011-06-19T08:28:08Z</time>
      </trkpt>
      <trkpt lat="45.79254" lon="4.88082">
        <ele>217</ele>
        <time>2011-06-19T08:28:09Z</time>
      </trkpt>
      <trkpt lat="45.79253" lon="4.88083">
        <ele>218</ele>
        <time>2011-06-19T08:28:10Z</time>
      </trkpt>
      <trkpt lat="45.79251" lon="4.88084">
        <ele>217</ele>
        <time>2011-06-19T08:28:11Z</time>
      </trkpt>
      <trkpt lat="45.79249" lon="4.88087">
        <ele>216</ele>
        <time>2011-06-19T08:28:12Z</time>
      </trkpt>
      <trkpt lat="45.79246" lon="4.88088">
        <ele>216</ele>
        <time>2011-06-19T08:28:13Z</time>
      </trkpt>
      <trkpt lat="45.79244" lon="4.8809">
        <ele>216</ele>
        <time>2011-06-19T08:28:14Z</time>
      </trkpt>
      <trkpt lat="45.79241" lon="4.88092">
        <ele>216</ele>
        <time>2011-06-19T08:28:15Z</time>
      </trkpt>
      <trkpt lat="45.79239" lon="4.88094">
        <ele>216</ele>
        <time>2011-06-19T08:28:16Z</time>
      </trkpt>
      <trkpt lat="45.79236" lon="4.88095">
        <ele>216</ele>
        <time>2011-06-19T08:28:17Z</time>
      </trkpt>
      <trkpt lat="45.79233" lon="4.88097">
        <ele>216</ele>
        <time>2011-06-19T08:28:18Z</time>
      </trkpt>
      <trkpt lat="45.79231" lon="4.88099">
        <ele>216</ele>
        <time>2011-06-19T08:28:19Z</time>
      </trkpt>
      <trkpt lat="45.79228" lon="4.88101">
        <ele>216</ele>
        <time>2011-06-19T08:28:20Z</time>
      </trkpt>
      <trkpt lat="45.79224" lon="4.88103">
        <ele>216</ele>
        <time>2011-06-19T08:28:21Z</time>
      </trkpt>
      <trkpt lat="45.79222" lon="4.88105">
        <ele>215</ele>
        <time>2011-06-19T08:28:22Z</time>
      </trkpt>
      <trkpt lat="45.7922" lon="4.88109">
        <ele>214</ele>
        <time>2011-06-19T08:28:24Z</time>
      </trkpt>
      <trkpt lat="45.79217" lon="4.88112">
        <ele>214</ele>
        <time>2011-06-19T08:28:24Z</time>
      </trkpt>
      <trkpt lat="45.79215" lon="4.88115">
        <ele>213</ele>
        <time>2011-06-19T08:28:25Z</time>
      </trkpt>
      <trkpt lat="45.79213" lon="4.88116">
        <ele>213</ele>
        <time>2011-06-19T08:28:26Z</time>
      </trkpt>
      <trkpt lat="45.7921" lon="4.88118">
        <ele>213</ele>
        <time>2011-06-19T08:28:27Z</time>
      </trkpt>
      <trkpt lat="45.79208" lon="4.88119">
        <ele>214</ele>
        <time>2011-06-19T08:28:28Z</time>
      </trkpt>
      <trkpt lat="45.79206" lon="4.88121">
        <ele>213</ele>
        <time>2011-06-19T08:28:29Z</time>
      </trkpt>
      <trkpt lat="45.79203" lon="4.88122">
        <ele>214</ele>
        <time>2011-06-19T08:28:30Z</time>
      </trkpt>
      <trkpt lat="45.792" lon="4.88123">
        <ele>214</ele>
        <time>2011-06-19T08:28:31Z</time>
      </trkpt>
      <trkpt lat="45.79198" lon="4.88126">
        <ele>214</ele>
        <time>2011-06-19T08:28:32Z</time>
      </trkpt>
      <trkpt lat="45.79195" lon="4.88128">
        <ele>213</ele>
        <time>2011-06-19T08:28:33Z</time>
      </trkpt>
      <trkpt lat="45.79193" lon="4.8813">
        <ele>213</ele>
        <time>2011-06-19T08:28:34Z</time>
      </trkpt>
      <trkpt lat="45.7919" lon="4.88133">
        <ele>213</ele>
        <time>2011-06-19T08:28:35Z</time>
      </trkpt>
      <trkpt lat="45.79187" lon="4.88134">
        <ele>212</ele>
        <time>2011-06-19T08:28:36Z</time>
      </trkpt>
      <trkpt lat="45.79185" lon="4.88135">
        <ele>212</ele>
        <time>2011-06-19T08:28:37Z</time>
      </trkpt>
      <trkpt lat="45.79183" lon="4.88135">
        <ele>212</ele>
        <time>2011-06-19T08:28:38Z</time>
      </trkpt>
      <trkpt lat="45.7918" lon="4.88136">
        <ele>212</ele>
        <time>2011-06-19T08:28:39Z</time>
      </trkpt>
      <trkpt lat="45.79179" lon="4.88137">
        <ele>213</ele>
        <time>2011-06-19T08:28:40Z</time>
      </trkpt>
      <trkpt lat="45.79176" lon="4.88136">
        <ele>214</ele>
        <time>2011-06-19T08:28:41Z</time>
      </trkpt>
      <trkpt lat="45.79173" lon="4.88136">
        <ele>215</ele>
        <time>2011-06-19T08:28:42Z</time>
      </trkpt>
      <trkpt lat="45.7917" lon="4.88137">
        <ele>215</ele>
        <time>2011-06-19T08:28:43Z</time>
      </trkpt>
      <trkpt lat="45.79167" lon="4.88137">
        <ele>215</ele>
        <time>2011-06-19T08:28:44Z</time>
      </trkpt>
      <trkpt lat="45.79163" lon="4.88136">
        <ele>215</ele>
        <time>2011-06-19T08:28:46Z</time>
      </trkpt>
      <trkpt lat="45.79161" lon="4.88138">
        <ele>214</ele>
        <time>2011-06-19T08:28:46Z</time>
      </trkpt>
      <trkpt lat="45.79158" lon="4.8814">
        <ele>214</ele>
        <time>2011-06-19T08:28:47Z</time>
      </trkpt>
      <trkpt lat="45.79156" lon="4.8814">
        <ele>213</ele>
        <time>2011-06-19T08:28:48Z</time>
      </trkpt>
      <trkpt lat="45.79152" lon="4.88141">
        <ele>213</ele>
        <time>2011-06-19T08:28:49Z</time>
      </trkpt>
      <trkpt lat="45.79149" lon="4.88142">
        <ele>213</ele>
        <time>2011-06-19T08:28:50Z</time>
      </trkpt>
      <trkpt lat="45.79148" lon="4.88143">
        <ele>212</ele>
        <time>2011-06-19T08:28:51Z</time>
      </trkpt>
      <trkpt lat="45.79145" lon="4.88146">
        <ele>212</ele>
        <time>2011-06-19T08:28:52Z</time>
      </trkpt>
      <trkpt lat="45.79142" lon="4.88148">
        <ele>212</ele>
        <time>2011-06-19T08:28:53Z</time>
      </trkpt>
      <trkpt lat="45.79141" lon="4.88151">
        <ele>212</ele>
        <time>2011-06-19T08:28:54Z</time>
      </trkpt>
      <trkpt lat="45.79138" lon="4.88153">
        <ele>213</ele>
        <time>2011-06-19T08:28:55Z</time>
      </trkpt>
      <trkpt lat="45.79136" lon="4.88156">
        <ele>212</ele>
        <time>2011-06-19T08:28:56Z</time>
      </trkpt>
      <trkpt lat="45.79134" lon="4.8816">
        <ele>212</ele>
        <time>2011-06-19T08:28:57Z</time>
      </trkpt>
      <trkpt lat="45.79132" lon="4.88163">
        <ele>213</ele>
        <time>2011-06-19T08:28:58Z</time>
      </trkpt>
      <trkpt lat="45.79131" lon="4.88167">
        <ele>213</ele>
        <time>2011-06-19T08:28:59Z</time>
      </trkpt>
      <trkpt lat="45.79128" lon="4.8817">
        <ele>213</ele>
        <time>2011-06-19T08:29:00Z</time>
      </trkpt>
      <trkpt lat="45.79126" lon="4.88173">
        <ele>213</ele>
        <time>2011-06-19T08:29:01Z</time>
      </trkpt>
      <trkpt lat="45.79124" lon="4.88175">
        <ele>213</ele>
        <time>2011-06-19T08:29:02Z</time>
      </trkpt>
      <trkpt lat="45.79122" lon="4.88178">
        <ele>213</ele>
        <time>2011-06-19T08:29:03Z</time>
      </trkpt>
      <trkpt lat="45.79119" lon="4.88182">
        <ele>213</ele>
        <time>2011-06-19T08:29:04Z</time>
      </trkpt>
      <trkpt lat="45.79117" lon="4.88185">
        <ele>213</ele>
        <time>2011-06-19T08:29:05Z</time>
      </trkpt>
      <trkpt lat="45.79114" lon="4.88188">
        <ele>213</ele>
        <time>2011-06-19T08:29:06Z</time>
      </trkpt>
      <trkpt lat="45.79112" lon="4.88192">
        <ele>214</ele>
        <time>2011-06-19T08:29:08Z</time>
      </trkpt>
      <trkpt lat="45.79111" lon="4.88196">
        <ele>214</ele>
        <time>2011-06-19T08:29:08Z</time>
      </trkpt>
      <trkpt lat="45.79109" lon="4.88202">
        <ele>213</ele>
        <time>2011-06-19T08:29:09Z</time>
      </trkpt>
      <trkpt lat="45.79112" lon="4.88208">
        <ele>214</ele>
        <time>2011-06-19T08:29:10Z</time>
      </trkpt>
      <trkpt lat="45.79112" lon="4.88213">
        <ele>215</ele>
        <time>2011-06-19T08:29:11Z</time>
      </trkpt>
      <trkpt lat="45.79113" lon="4.88217">
        <ele>215</ele>
        <time>2011-06-19T08:29:12Z</time>
      </trkpt>
      <trkpt lat="45.79113" lon="4.88221">
        <ele>215</ele>
        <time>2011-06-19T08:29:13Z</time>
      </trkpt>
      <trkpt lat="45.79114" lon="4.88224">
        <ele>216</ele>
        <time>2011-06-19T08:29:14Z</time>
      </trkpt>
      <trkpt lat="45.79116" lon="4.88228">
        <ele>216</ele>
        <time>2011-06-19T08:29:15Z</time>
      </trkpt>
      <trkpt lat="45.79118" lon="4.88232">
        <ele>216</ele>
        <time>2011-06-19T08:29:16Z</time>
      </trkpt>
      <trkpt lat="45.79119" lon="4.88236">
        <ele>217</ele>
        <time>2011-06-19T08:29:17Z</time>
      </trkpt>
      <trkpt lat="45.7912" lon="4.88239">
        <ele>217</ele>
        <time>2011-06-19T08:29:18Z</time>
      </trkpt>
      <trkpt lat="45.79122" lon="4.88242">
        <ele>217</ele>
        <time>2011-06-19T08:29:19Z</time>
      </trkpt>
      <trkpt lat="45.79124" lon="4.88245">
        <ele>217</ele>
        <time>2011-06-19T08:29:20Z</time>
      </trkpt>
      <trkpt lat="45.79125" lon="4.88248">
        <ele>217</ele>
        <time>2011-06-19T08:29:21Z</time>
      </trkpt>
      <trkpt lat="45.79125" lon="4.88252">
        <ele>217</ele>
        <time>2011-06-19T08:29:22Z</time>
      </trkpt>
      <trkpt lat="45.79125" lon="4.88256">
        <ele>217</ele>
        <time>2011-06-19T08:29:23Z</time>
      </trkpt>
      <trkpt lat="45.79125" lon="4.88261">
        <ele>218</ele>
        <time>2011-06-19T08:29:24Z</time>
      </trkpt>
      <trkpt lat="45.79124" lon="4.88265">
        <ele>217</ele>
        <time>2011-06-19T08:29:25Z</time>
      </trkpt>
      <trkpt lat="45.79124" lon="4.88269">
        <ele>218</ele>
        <time>2011-06-19T08:29:26Z</time>
      </trkpt>
      <trkpt lat="45.79124" lon="4.88273">
        <ele>218</ele>
        <time>2011-06-19T08:29:27Z</time>
      </trkpt>
      <trkpt lat="45.79123" lon="4.88278">
        <ele>218</ele>
        <time>2011-06-19T08:29:28Z</time>
      </trkpt>
      <trkpt lat="45.79122" lon="4.88282">
        <ele>218</ele>
        <time>2011-06-19T08:29:30Z</time>
      </trkpt>
      <trkpt lat="45.79121" lon="4.88285">
        <ele>218</ele>
        <time>2011-06-19T08:29:30Z</time>
      </trkpt>
      <trkpt lat="45.79119" lon="4.88288">
        <ele>218</ele>
        <time>2011-06-19T08:29:31Z</time>
      </trkpt>
      <trkpt lat="45.79117" lon="4.88291">
        <ele>218</ele>
        <time>2011-06-19T08:29:32Z</time>
      </trkpt>
      <trkpt lat="45.79116" lon="4.88292">
        <ele>218</ele>
        <time>2011-06-19T08:29:33Z</time>
      </trkpt>
      <trkpt lat="45.79114" lon="4.88295">
        <ele>218</ele>
        <time>2011-06-19T08:29:34Z</time>
      </trkpt>
      <trkpt lat="45.79113" lon="4.88297">
        <ele>218</ele>
        <time>2011-06-19T08:29:35Z</time>
      </trkpt>
      <trkpt lat="45.79112" lon="4.88299">
        <ele>218</ele>
        <time>2011-06-19T08:29:36Z</time>
      </trkpt>
      <trkpt lat="45.79109" lon="4.883">
        <ele>219</ele>
        <time>2011-06-19T08:29:37Z</time>
      </trkpt>
      <trkpt lat="45.79105" lon="4.88304">
        <ele>218</ele>
        <time>2011-06-19T08:29:38Z</time>
      </trkpt>
      <trkpt lat="45.79103" lon="4.88306">
        <ele>218</ele>
        <time>2011-06-19T08:29:39Z</time>
      </trkpt>
      <trkpt lat="45.791" lon="4.88309">
        <ele>218</ele>
        <time>2011-06-19T08:29:40Z</time>
      </trkpt>
      <trkpt lat="45.79098" lon="4.88311">
        <ele>218</ele>
        <time>2011-06-19T08:29:41Z</time>
      </trkpt>
      <trkpt lat="45.79096" lon="4.88313">
        <ele>218</ele>
        <time>2011-06-19T08:29:42Z</time>
      </trkpt>
      <trkpt lat="45.79094" lon="4.88317">
        <ele>218</ele>
        <time>2011-06-19T08:29:43Z</time>
      </trkpt>
      <trkpt lat="45.79092" lon="4.88319">
        <ele>218</ele>
        <time>2011-06-19T08:29:44Z</time>
      </trkpt>
      <trkpt lat="45.79089" lon="4.88322">
        <ele>218</ele>
        <time>2011-06-19T08:29:45Z</time>
      </trkpt>
      <trkpt lat="45.79088" lon="4.88324">
        <ele>218</ele>
        <time>2011-06-19T08:29:46Z</time>
      </trkpt>
      <trkpt lat="45.79087" lon="4.88327">
        <ele>218</ele>
        <time>2011-06-19T08:29:47Z</time>
      </trkpt>
      <trkpt lat="45.79084" lon="4.88329">
        <ele>217</ele>
        <time>2011-06-19T08:29:48Z</time>
      </trkpt>
      <trkpt lat="45.79081" lon="4.88334">
        <ele>216</ele>
        <time>2011-06-19T08:29:49Z</time>
      </trkpt>
      <trkpt lat="45.79078" lon="4.88337">
        <ele>216</ele>
        <time>2011-06-19T08:29:50Z</time>
      </trkpt>
      <trkpt lat="45.79075" lon="4.88341">
        <ele>216</ele>
        <time>2011-06-19T08:29:52Z</time>
      </trkpt>
      <trkpt lat="45.79072" lon="4.88345">
        <ele>216</ele>
        <time>2011-06-19T08:29:52Z</time>
      </trkpt>
      <trkpt lat="45.79069" lon="4.88348">
        <ele>215</ele>
        <time>2011-06-19T08:29:53Z</time>
      </trkpt>
      <trkpt lat="45.79067" lon="4.8835">
        <ele>215</ele>
        <time>2011-06-19T08:29:54Z</time>
      </trkpt>
      <trkpt lat="45.79063" lon="4.88354">
        <ele>215</ele>
        <time>2011-06-19T08:29:55Z</time>
      </trkpt>
      <trkpt lat="45.79061" lon="4.88357">
        <ele>215</ele>
        <time>2011-06-19T08:29:56Z</time>
      </trkpt>
      <trkpt lat="45.79058" lon="4.88358">
        <ele>214</ele>
        <time>2011-06-19T08:29:57Z</time>
      </trkpt>
      <trkpt lat="45.79058" lon="4.88359">
        <ele>214</ele>
        <time>2011-06-19T08:29:58Z</time>
      </trkpt>
      <trkpt lat="45.79057" lon="4.88359">
        <ele>213</ele>
        <time>2011-06-19T08:29:59Z</time>
      </trkpt>
      <trkpt lat="45.79054" lon="4.88359">
        <ele>214</ele>
        <time>2011-06-19T08:30:00Z</time>
      </trkpt>
      <trkpt lat="45.79052" lon="4.88358">
        <ele>214</ele>
        <time>2011-06-19T08:30:01Z</time>
      </trkpt>
      <trkpt lat="45.7905" lon="4.88358">
        <ele>215</ele>
        <time>2011-06-19T08:30:02Z</time>
      </trkpt>
      <trkpt lat="45.79048" lon="4.88358">
        <ele>215</ele>
        <time>2011-06-19T08:30:03Z</time>
      </trkpt>
      <trkpt lat="45.79047" lon="4.88357">
        <ele>215</ele>
        <time>2011-06-19T08:30:05Z</time>
      </trkpt>
      <trkpt lat="45.79045" lon="4.88356">
        <ele>216</ele>
        <time>2011-06-19T08:30:05Z</time>
      </trkpt>
      <trkpt lat="45.79043" lon="4.88355">
        <ele>216</ele>
        <time>2011-06-19T08:30:06Z</time>
      </trkpt>
      <trkpt lat="45.7904" lon="4.88353">
        <ele>216</ele>
        <time>2011-06-19T08:30:07Z</time>
      </trkpt>
      <trkpt lat="45.79037" lon="4.88351">
        <ele>217</ele>
        <time>2011-06-19T08:30:08Z</time>
      </trkpt>
      <trkpt lat="45.79033" lon="4.88348">
        <ele>217</ele>
        <time>2011-06-19T08:30:09Z</time>
      </trkpt>
      <trkpt lat="45.79031" lon="4.88346">
        <ele>216</ele>
        <time>2011-06-19T08:30:10Z</time>
      </trkpt>
      <trkpt lat="45.7903" lon="4.88343">
        <ele>216</ele>
        <time>2011-06-19T08:30:11Z</time>
      </trkpt>
      <trkpt lat="45.79028" lon="4.88342">
        <ele>216</ele>
        <time>2011-06-19T08:30:12Z</time>
      </trkpt>
      <trkpt lat="45.79025" lon="4.88341">
        <ele>216</ele>
        <time>2011-06-19T08:30:14Z</time>
      </trkpt>
      <trkpt lat="45.79022" lon="4.8834">
        <ele>217</ele>
        <time>2011-06-19T08:30:14Z</time>
      </trkpt>
      <trkpt lat="45.79019" lon="4.8834">
        <ele>217</ele>
        <time>2011-06-19T08:30:15Z</time>
      </trkpt>
      <trkpt lat="45.79015" lon="4.8834">
        <ele>217</ele>
        <time>2011-06-19T08:30:16Z</time>
      </trkpt>
      <trkpt lat="45.79011" lon="4.88341">
        <ele>216</ele>
        <time>2011-06-19T08:30:17Z</time>
      </trkpt>
      <trkpt lat="45.79004" lon="4.88344">
        <ele>215</ele>
        <time>2011-06-19T08:30:18Z</time>
      </trkpt>
      <trkpt lat="45.79002" lon="4.88344">
        <ele>214</ele>
        <time>2011-06-19T08:30:19Z</time>
      </trkpt>
      <trkpt lat="45.79" lon="4.88346">
        <ele>214</ele>
        <time>2011-06-19T08:30:20Z</time>
      </trkpt>
      <trkpt lat="45.78996" lon="4.88348">
        <ele>214</ele>
        <time>2011-06-19T08:30:21Z</time>
      </trkpt>
      <trkpt lat="45.78992" lon="4.88349">
        <ele>214</ele>
        <time>2011-06-19T08:30:22Z</time>
      </trkpt>
      <trkpt lat="45.78988" lon="4.8835">
        <ele>215</ele>
        <time>2011-06-19T08:30:23Z</time>
      </trkpt>
      <trkpt lat="45.78985" lon="4.88349">
        <ele>215</ele>
        <time>2011-06-19T08:30:24Z</time>
      </trkpt>
      <trkpt lat="45.78982" lon="4.8835">
        <ele>215</ele>
        <time>2011-06-19T08:30:25Z</time>
      </trkpt>
      <trkpt lat="45.78978" lon="4.88351">
        <ele>215</ele>
        <time>2011-06-19T08:30:26Z</time>
      </trkpt>
      <trkpt lat="45.78974" lon="4.88352">
        <ele>215</ele>
        <time>2011-06-19T08:30:27Z</time>
      </trkpt>
      <trkpt lat="45.78971" lon="4.88354">
        <ele>215</ele>
        <time>2011-06-19T08:30:28Z</time>
      </trkpt>
      <trkpt lat="45.78969" lon="4.88354">
        <ele>215</ele>
        <time>2011-06-19T08:30:29Z</time>
      </trkpt>
      <trkpt lat="45.78964" lon="4.88354">
        <ele>215</ele>
        <time>2011-06-19T08:30:30Z</time>
      </trkpt>
      <trkpt lat="45.78962" lon="4.88358">
        <ele>216</ele>
        <time>2011-06-19T08:30:31Z</time>
      </trkpt>
      <trkpt lat="45.78959" lon="4.88362">
        <ele>217</ele>
        <time>2011-06-19T08:30:32Z</time>
      </trkpt>
      <trkpt lat="45.78958" lon="4.88365">
        <ele>217</ele>
        <time>2011-06-19T08:30:33Z</time>
      </trkpt>
      <trkpt lat="45.78957" lon="4.8837">
        <ele>217</ele>
        <time>2011-06-19T08:30:34Z</time>
      </trkpt>
      <trkpt lat="45.78956" lon="4.88374">
        <ele>217</ele>
        <time>2011-06-19T08:30:36Z</time>
      </trkpt>
      <trkpt lat="45.78956" lon="4.88378">
        <ele>217</ele>
        <time>2011-06-19T08:30:36Z</time>
      </trkpt>
      <trkpt lat="45.78955" lon="4.88382">
        <ele>217</ele>
        <time>2011-06-19T08:30:37Z</time>
      </trkpt>
      <trkpt lat="45.78954" lon="4.88384">
        <ele>217</ele>
        <time>2011-06-19T08:30:38Z</time>
      </trkpt>
      <trkpt lat="45.78952" lon="4.88388">
        <ele>217</ele>
        <time>2011-06-19T08:30:39Z</time>
      </trkpt>
      <trkpt lat="45.78951" lon="4.88392">
        <ele>218</ele>
        <time>2011-06-19T08:30:40Z</time>
      </trkpt>
      <trkpt lat="45.78949" lon="4.88394">
        <ele>218</ele>
        <time>2011-06-19T08:30:41Z</time>
      </trkpt>
      <trkpt lat="45.78948" lon="4.88395">
        <ele>218</ele>
        <time>2011-06-19T08:30:42Z</time>
      </trkpt>
      <trkpt lat="45.78947" lon="4.88397">
        <ele>217</ele>
        <time>2011-06-19T08:30:43Z</time>
      </trkpt>
      <trkpt lat="45.78944" lon="4.88397">
        <ele>217</ele>
        <time>2011-06-19T08:30:44Z</time>
      </trkpt>
      <trkpt lat="45.78942" lon="4.88397">
        <ele>218</ele>
        <time>2011-06-19T08:30:45Z</time>
      </trkpt>
      <trkpt lat="45.78941" lon="4.88396">
        <ele>217</ele>
        <time>2011-06-19T08:30:46Z</time>
      </trkpt>
      <trkpt lat="45.78938" lon="4.88396">
        <ele>217</ele>
        <time>2011-06-19T08:30:47Z</time>
      </trkpt>
      <trkpt lat="45.78936" lon="4.88395">
        <ele>217</ele>
        <time>2011-06-19T08:30:48Z</time>
      </trkpt>
      <trkpt lat="45.78933" lon="4.88394">
        <ele>218</ele>
        <time>2011-06-19T08:30:49Z</time>
      </trkpt>
      <trkpt lat="45.7893" lon="4.88394">
        <ele>218</ele>
        <time>2011-06-19T08:30:50Z</time>
      </trkpt>
      <trkpt lat="45.78928" lon="4.88392">
        <ele>218</ele>
        <time>2011-06-19T08:30:51Z</time>
      </trkpt>
      <trkpt lat="45.78925" lon="4.88391">
        <ele>218</ele>
        <time>2011-06-19T08:30:52Z</time>
      </trkpt>
      <trkpt lat="45.78923" lon="4.88391">
        <ele>219</ele>
        <time>2011-06-19T08:30:53Z</time>
      </trkpt>
      <trkpt lat="45.78921" lon="4.8839">
        <ele>219</ele>
        <time>2011-06-19T08:30:54Z</time>
      </trkpt>
      <trkpt lat="45.78919" lon="4.88389">
        <ele>219</ele>
        <time>2011-06-19T08:30:55Z</time>
      </trkpt>
      <trkpt lat="45.78915" lon="4.88389">
        <ele>219</ele>
        <time>2011-06-19T08:30:56Z</time>
      </trkpt>
      <trkpt lat="45.78912" lon="4.88389">
        <ele>219</ele>
        <time>2011-06-19T08:30:58Z</time>
      </trkpt>
      <trkpt lat="45.78908" lon="4.88389">
        <ele>219</ele>
        <time>2011-06-19T08:30:58Z</time>
      </trkpt>
      <trkpt lat="45.78906" lon="4.88388">
        <ele>218</ele>
        <time>2011-06-19T08:30:59Z</time>
      </trkpt>
      <trkpt lat="45.78902" lon="4.88388">
        <ele>219</ele>
        <time>2011-06-19T08:31:00Z</time>
      </trkpt>
      <trkpt lat="45.78899" lon="4.88388">
        <ele>219</ele>
        <time>2011-06-19T08:31:01Z</time>
      </trkpt>
      <trkpt lat="45.78897" lon="4.88387">
        <ele>219</ele>
        <time>2011-06-19T08:31:02Z</time>
      </trkpt>
      <trkpt lat="45.78893" lon="4.88385">
        <ele>220</ele>
        <time>2011-06-19T08:31:03Z</time>
      </trkpt>
      <trkpt lat="45.78891" lon="4.88385">
        <ele>220</ele>
        <time>2011-06-19T08:31:04Z</time>
      </trkpt>
      <trkpt lat="45.78888" lon="4.88384">
        <ele>221</ele>
        <time>2011-06-19T08:31:05Z</time>
      </trkpt>
      <trkpt lat="45.78885" lon="4.88384">
        <ele>220</ele>
        <time>2011-06-19T08:31:06Z</time>
      </trkpt>
      <trkpt lat="45.78882" lon="4.88384">
        <ele>220</ele>
        <time>2011-06-19T08:31:07Z</time>
      </trkpt>
      <trkpt lat="45.78879" lon="4.88384">
        <ele>219</ele>
        <time>2011-06-19T08:31:08Z</time>
      </trkpt>
      <trkpt lat="45.78876" lon="4.88383">
        <ele>220</ele>
        <time>2011-06-19T08:31:09Z</time>
      </trkpt>
      <trkpt lat="45.78873" lon="4.88382">
        <ele>219</ele>
        <time>2011-06-19T08:31:10Z</time>
      </trkpt>
      <trkpt lat="45.7887" lon="4.88381">
        <ele>219</ele>
        <time>2011-06-19T08:31:11Z</time>
      </trkpt>
      <trkpt lat="45.78867" lon="4.8838">
        <ele>219</ele>
        <time>2011-06-19T08:31:12Z</time>
      </trkpt>
      <trkpt lat="45.78864" lon="4.88379">
        <ele>219</ele>
        <time>2011-06-19T08:31:13Z</time>
      </trkpt>
      <trkpt lat="45.78862" lon="4.88378">
        <ele>218</ele>
        <time>2011-06-19T08:31:14Z</time>
      </trkpt>
      <trkpt lat="45.78859" lon="4.88376">
        <ele>218</ele>
        <time>2011-06-19T08:31:15Z</time>
      </trkpt>
      <trkpt lat="45.78856" lon="4.88376">
        <ele>218</ele>
        <time>2011-06-19T08:31:16Z</time>
      </trkpt>
      <trkpt lat="45.78853" lon="4.88375">
        <ele>218</ele>
        <time>2011-06-19T08:31:17Z</time>
      </trkpt>
      <trkpt lat="45.78851" lon="4.88374">
        <ele>218</ele>
        <time>2011-06-19T08:31:18Z</time>
      </trkpt>
      <trkpt lat="45.78848" lon="4.88374">
        <ele>218</ele>
        <time>2011-06-19T08:31:20Z</time>
      </trkpt>
      <trkpt lat="45.78845" lon="4.88375">
        <ele>218</ele>
        <time>2011-06-19T08:31:20Z</time>
      </trkpt>
      <trkpt lat="45.78841" lon="4.88375">
        <ele>218</ele>
        <time>2011-06-19T08:31:21Z</time>
      </trkpt>
      <trkpt lat="45.7884" lon="4.88375">
        <ele>217</ele>
        <time>2011-06-19T08:31:22Z</time>
      </trkpt>
      <trkpt lat="45.78838" lon="4.88373">
        <ele>217</ele>
        <time>2011-06-19T08:31:23Z</time>
      </trkpt>
      <trkpt lat="45.78835" lon="4.88373">
        <ele>217</ele>
        <time>2011-06-19T08:31:24Z</time>
      </trkpt>
      <trkpt lat="45.78833" lon="4.88373">
        <ele>217</ele>
        <time>2011-06-19T08:31:25Z</time>
      </trkpt>
      <trkpt lat="45.78831" lon="4.88373">
        <ele>217</ele>
        <time>2011-06-19T08:31:26Z</time>
      </trkpt>
      <trkpt lat="45.78828" lon="4.88372">
        <ele>217</ele>
        <time>2011-06-19T08:31:27Z</time>
      </trkpt>
      <trkpt lat="45.78825" lon="4.88372">
        <ele>218</ele>
        <time>2011-06-19T08:31:28Z</time>
      </trkpt>
      <trkpt lat="45.78822" lon="4.88372">
        <ele>218</ele>
        <time>2011-06-19T08:31:29Z</time>
      </trkpt>
      <trkpt lat="45.78819" lon="4.88373">
        <ele>218</ele>
        <time>2011-06-19T08:31:30Z</time>
      </trkpt>
      <trkpt lat="45.78816" lon="4.88373">
        <ele>217</ele>
        <time>2011-06-19T08:31:31Z</time>
      </trkpt>
      <trkpt lat="45.78812" lon="4.88373">
        <ele>217</ele>
        <time>2011-06-19T08:31:32Z</time>
      </trkpt>
      <trkpt lat="45.78809" lon="4.88372">
        <ele>218</ele>
        <time>2011-06-19T08:31:33Z</time>
      </trkpt>
      <trkpt lat="45.78806" lon="4.88372">
        <ele>218</ele>
        <time>2011-06-19T08:31:34Z</time>
      </trkpt>
      <trkpt lat="45.78803" lon="4.88372">
        <ele>217</ele>
        <time>2011-06-19T08:31:35Z</time>
      </trkpt>
      <trkpt lat="45.788" lon="4.88371">
        <ele>217</ele>
        <time>2011-06-19T08:31:36Z</time>
      </trkpt>
      <trkpt lat="45.78797" lon="4.88371">
        <ele>218</ele>
        <time>2011-06-19T08:31:37Z</time>
      </trkpt>
      <trkpt lat="45.78795" lon="4.88369">
        <ele>218</ele>
        <time>2011-06-19T08:31:38Z</time>
      </trkpt>
      <trkpt lat="45.78791" lon="4.88366">
        <ele>219</ele>
        <time>2011-06-19T08:31:39Z</time>
      </trkpt>
      <trkpt lat="45.7879" lon="4.88363">
        <ele>218</ele>
        <time>2011-06-19T08:31:40Z</time>
      </trkpt>
      <trkpt lat="45.78789" lon="4.88361">
        <ele>217</ele>
        <time>2011-06-19T08:31:42Z</time>
      </trkpt>
      <trkpt lat="45.78788" lon="4.88357">
        <ele>216</ele>
        <time>2011-06-19T08:31:42Z</time>
      </trkpt>
      <trkpt lat="45.78789" lon="4.88354">
        <ele>215</ele>
        <time>2011-06-19T08:31:43Z</time>
      </trkpt>
      <trkpt lat="45.78788" lon="4.88349">
        <ele>216</ele>
        <time>2011-06-19T08:31:44Z</time>
      </trkpt>
      <trkpt lat="45.78788" lon="4.88345">
        <ele>216</ele>
        <time>2011-06-19T08:31:45Z</time>
      </trkpt>
      <trkpt lat="45.78788" lon="4.88341">
        <ele>216</ele>
        <time>2011-06-19T08:31:46Z</time>
      </trkpt>
      <trkpt lat="45.78789" lon="4.88337">
        <ele>216</ele>
        <time>2011-06-19T08:31:47Z</time>
      </trkpt>
      <trkpt lat="45.78789" lon="4.88333">
        <ele>216</ele>
        <time>2011-06-19T08:31:48Z</time>
      </trkpt>
      <trkpt lat="45.7879" lon="4.88329">
        <ele>216</ele>
        <time>2011-06-19T08:31:49Z</time>
      </trkpt>
      <trkpt lat="45.78791" lon="4.88325">
        <ele>216</ele>
        <time>2011-06-19T08:31:50Z</time>
      </trkpt>
      <trkpt lat="45.78791" lon="4.88321">
        <ele>215</ele>
        <time>2011-06-19T08:31:51Z</time>
      </trkpt>
      <trkpt lat="45.78793" lon="4.88318">
        <ele>215</ele>
        <time>2011-06-19T08:31:52Z</time>
      </trkpt>
      <trkpt lat="45.78793" lon="4.88314">
        <ele>215</ele>
        <time>2011-06-19T08:31:53Z</time>
      </trkpt>
      <trkpt lat="45.78795" lon="4.8831">
        <ele>215</ele>
        <time>2011-06-19T08:31:54Z</time>
      </trkpt>
      <trkpt lat="45.78795" lon="4.88306">
        <ele>215</ele>
        <time>2011-06-19T08:31:55Z</time>
      </trkpt>
      <trkpt lat="45.78794" lon="4.88302">
        <ele>215</ele>
        <time>2011-06-19T08:31:56Z</time>
      </trkpt>
      <trkpt lat="45.78794" lon="4.88298">
        <ele>214</ele>
        <time>2011-06-19T08:31:57Z</time>
      </trkpt>
      <trkpt lat="45.78794" lon="4.88293">
        <ele>214</ele>
        <time>2011-06-19T08:31:58Z</time>
      </trkpt>
      <trkpt lat="45.78795" lon="4.88288">
        <ele>215</ele>
        <time>2011-06-19T08:31:59Z</time>
      </trkpt>
      <trkpt lat="45.78795" lon="4.88284">
        <ele>215</ele>
        <time>2011-06-19T08:32:00Z</time>
      </trkpt>
      <trkpt lat="45.78795" lon="4.8828">
        <ele>215</ele>
        <time>2011-06-19T08:32:01Z</time>
      </trkpt>
      <trkpt lat="45.78795" lon="4.88277">
        <ele>215</ele>
        <time>2011-06-19T08:32:02Z</time>
      </trkpt>
      <trkpt lat="45.78794" lon="4.88273">
        <ele>214</ele>
        <time>2011-06-19T08:32:04Z</time>
      </trkpt>
      <trkpt lat="45.78795" lon="4.8827">
        <ele>214.69479370117</ele>
        <time>2011-06-19T08:32:04Z</time>
      </trkpt>
      <trkpt lat="45.78794" lon="4.88265">
        <ele>215</ele>
        <time>2011-06-19T08:32:05Z</time>
      </trkpt>
      <trkpt lat="45.78794" lon="4.88261">
        <ele>215</ele>
        <time>2011-06-19T08:32:06Z</time>
      </trkpt>
      <trkpt lat="45.78794" lon="4.88257">
        <ele>215</ele>
        <time>2011-06-19T08:32:07Z</time>
      </trkpt>
      <trkpt lat="45.78794" lon="4.88253">
        <ele>215</ele>
        <time>2011-06-19T08:32:08Z</time>
      </trkpt>
      <trkpt lat="45.78795" lon="4.8825">
        <ele>215</ele>
        <time>2011-06-19T08:32:09Z</time>
      </trkpt>
      <trkpt lat="45.78795" lon="4.88246">
        <ele>215</ele>
        <time>2011-06-19T08:32:10Z</time>
      </trkpt>
      <trkpt lat="45.78795" lon="4.88241">
        <ele>214</ele>
        <time>2011-06-19T08:32:11Z</time>
      </trkpt>
      <trkpt lat="45.78797" lon="4.88236">
        <ele>214</ele>
        <time>2011-06-19T08:32:12Z</time>
      </trkpt>
      <trkpt lat="45.78797" lon="4.88232">
        <ele>215</ele>
        <time>2011-06-19T08:32:13Z</time>
      </trkpt>
      <trkpt lat="45.788" lon="4.88229">
        <ele>215</ele>
        <time>2011-06-19T08:32:14Z</time>
      </trkpt>
      <trkpt lat="45.788" lon="4.88225">
        <ele>216</ele>
        <time>2011-06-19T08:32:15Z</time>
      </trkpt>
      <trkpt lat="45.78802" lon="4.88222">
        <ele>216</ele>
        <time>2011-06-19T08:32:16Z</time>
      </trkpt>
      <trkpt lat="45.78803" lon="4.88218">
        <ele>217</ele>
        <time>2011-06-19T08:32:17Z</time>
      </trkpt>
      <trkpt lat="45.78804" lon="4.88214">
        <ele>218</ele>
        <time>2011-06-19T08:32:18Z</time>
      </trkpt>
      <trkpt lat="45.78807" lon="4.8821">
        <ele>217</ele>
        <time>2011-06-19T08:32:19Z</time>
      </trkpt>
      <trkpt lat="45.78809" lon="4.88207">
        <ele>218</ele>
        <time>2011-06-19T08:32:20Z</time>
      </trkpt>
      <trkpt lat="45.78809" lon="4.88203">
        <ele>218</ele>
        <time>2011-06-19T08:32:21Z</time>
      </trkpt>
      <trkpt lat="45.78809" lon="4.88199">
        <ele>218</ele>
        <time>2011-06-19T08:32:22Z</time>
      </trkpt>
      <trkpt lat="45.7881" lon="4.88195">
        <ele>217</ele>
        <time>2011-06-19T08:32:24Z</time>
      </trkpt>
      <trkpt lat="45.78812" lon="4.88192">
        <ele>218</ele>
        <time>2011-06-19T08:32:24Z</time>
      </trkpt>
      <trkpt lat="45.78813" lon="4.88188">
        <ele>218</ele>
        <time>2011-06-19T08:32:26Z</time>
      </trkpt>
      <trkpt lat="45.78813" lon="4.88185">
        <ele>219</ele>
        <time>2011-06-19T08:32:26Z</time>
      </trkpt>
      <trkpt lat="45.78813" lon="4.88182">
        <ele>220</ele>
        <time>2011-06-19T08:32:27Z</time>
      </trkpt>
      <trkpt lat="45.78815" lon="4.88179">
        <ele>221</ele>
        <time>2011-06-19T08:32:28Z</time>
      </trkpt>
      <trkpt lat="45.78816" lon="4.88175">
        <ele>222</ele>
        <time>2011-06-19T08:32:29Z</time>
      </trkpt>
      <trkpt lat="45.78817" lon="4.88173">
        <ele>222</ele>
        <time>2011-06-19T08:32:30Z</time>
      </trkpt>
      <trkpt lat="45.78817" lon="4.8817">
        <ele>222</ele>
        <time>2011-06-19T08:32:31Z</time>
      </trkpt>
      <trkpt lat="45.78818" lon="4.88167">
        <ele>223</ele>
        <time>2011-06-19T08:32:32Z</time>
      </trkpt>
      <trkpt lat="45.78819" lon="4.88163">
        <ele>223</ele>
        <time>2011-06-19T08:32:33Z</time>
      </trkpt>
      <trkpt lat="45.78819" lon="4.88159">
        <ele>223</ele>
        <time>2011-06-19T08:32:34Z</time>
      </trkpt>
      <trkpt lat="45.7882" lon="4.88157">
        <ele>222</ele>
        <time>2011-06-19T08:32:35Z</time>
      </trkpt>
      <trkpt lat="45.7882" lon="4.88153">
        <ele>222</ele>
        <time>2011-06-19T08:32:36Z</time>
      </trkpt>
      <trkpt lat="45.78822" lon="4.88148">
        <ele>221</ele>
        <time>2011-06-19T08:32:37Z</time>
      </trkpt>
      <trkpt lat="45.78824" lon="4.88144">
        <ele>220</ele>
        <time>2011-06-19T08:32:38Z</time>
      </trkpt>
      <trkpt lat="45.78824" lon="4.88137">
        <ele>220</ele>
        <time>2011-06-19T08:32:39Z</time>
      </trkpt>
      <trkpt lat="45.78824" lon="4.88131">
        <ele>219</ele>
        <time>2011-06-19T08:32:40Z</time>
      </trkpt>
      <trkpt lat="45.78824" lon="4.88126">
        <ele>218</ele>
        <time>2011-06-19T08:32:41Z</time>
      </trkpt>
      <trkpt lat="45.78823" lon="4.88123">
        <ele>218</ele>
        <time>2011-06-19T08:32:42Z</time>
      </trkpt>
      <trkpt lat="45.78822" lon="4.8812">
        <ele>218</ele>
        <time>2011-06-19T08:32:43Z</time>
      </trkpt>
      <trkpt lat="45.78821" lon="4.88116">
        <ele>218</ele>
        <time>2011-06-19T08:32:44Z</time>
      </trkpt>
      <trkpt lat="45.78821" lon="4.88113">
        <ele>218</ele>
        <time>2011-06-19T08:32:45Z</time>
      </trkpt>
      <trkpt lat="45.78819" lon="4.88109">
        <ele>217</ele>
        <time>2011-06-19T08:32:46Z</time>
      </trkpt>
      <trkpt lat="45.78817" lon="4.88106">
        <ele>217</ele>
        <time>2011-06-19T08:32:48Z</time>
      </trkpt>
      <trkpt lat="45.78815" lon="4.88104">
        <ele>217</ele>
        <time>2011-06-19T08:32:48Z</time>
      </trkpt>
      <trkpt lat="45.78813" lon="4.88101">
        <ele>218</ele>
        <time>2011-06-19T08:32:49Z</time>
      </trkpt>
      <trkpt lat="45.7881" lon="4.88099">
        <ele>218</ele>
        <time>2011-06-19T08:32:50Z</time>
      </trkpt>
      <trkpt lat="45.78808" lon="4.88096">
        <ele>217</ele>
        <time>2011-06-19T08:32:51Z</time>
      </trkpt>
      <trkpt lat="45.78805" lon="4.88093">
        <ele>217</ele>
        <time>2011-06-19T08:32:52Z</time>
      </trkpt>
      <trkpt lat="45.78802" lon="4.88091">
        <ele>217</ele>
        <time>2011-06-19T08:32:53Z</time>
      </trkpt>
      <trkpt lat="45.78798" lon="4.8809">
        <ele>217</ele>
        <time>2011-06-19T08:32:54Z</time>
      </trkpt>
      <trkpt lat="45.78796" lon="4.88088">
        <ele>217</ele>
        <time>2011-06-19T08:32:55Z</time>
      </trkpt>
      <trkpt lat="45.78794" lon="4.88084">
        <ele>216</ele>
        <time>2011-06-19T08:32:56Z</time>
      </trkpt>
      <trkpt lat="45.78791" lon="4.88082">
        <ele>216</ele>
        <time>2011-06-19T08:32:57Z</time>
      </trkpt>
      <trkpt lat="45.7879" lon="4.88081">
        <ele>216</ele>
        <time>2011-06-19T08:32:58Z</time>
      </trkpt>
      <trkpt lat="45.78788" lon="4.88079">
        <ele>216</ele>
        <time>2011-06-19T08:32:59Z</time>
      </trkpt>
      <trkpt lat="45.78786" lon="4.88078">
        <ele>216</ele>
        <time>2011-06-19T08:33:00Z</time>
      </trkpt>
      <trkpt lat="45.78785" lon="4.88075">
        <ele>216</ele>
        <time>2011-06-19T08:33:01Z</time>
      </trkpt>
      <trkpt lat="45.78782" lon="4.88073">
        <ele>216</ele>
        <time>2011-06-19T08:33:02Z</time>
      </trkpt>
      <trkpt lat="45.78781" lon="4.88071">
        <ele>216</ele>
        <time>2011-06-19T08:33:03Z</time>
      </trkpt>
      <trkpt lat="45.7878" lon="4.88068">
        <ele>216</ele>
        <time>2011-06-19T08:33:04Z</time>
      </trkpt>
      <trkpt lat="45.78779" lon="4.88066">
        <ele>216</ele>
        <time>2011-06-19T08:33:05Z</time>
      </trkpt>
      <trkpt lat="45.78778" lon="4.88063">
        <ele>215</ele>
        <time>2011-06-19T08:33:06Z</time>
      </trkpt>
      <trkpt lat="45.78778" lon="4.8806">
        <ele>216</ele>
        <time>2011-06-19T08:33:07Z</time>
      </trkpt>
      <trkpt lat="45.78778" lon="4.88056">
        <ele>215</ele>
        <time>2011-06-19T08:33:08Z</time>
      </trkpt>
      <trkpt lat="45.78778" lon="4.88053">
        <ele>215</ele>
        <time>2011-06-19T08:33:10Z</time>
      </trkpt>
      <trkpt lat="45.78779" lon="4.88051">
        <ele>215</ele>
        <time>2011-06-19T08:33:10Z</time>
      </trkpt>
      <trkpt lat="45.78781" lon="4.88048">
        <ele>216</ele>
        <time>2011-06-19T08:33:11Z</time>
      </trkpt>
      <trkpt lat="45.78783" lon="4.88045">
        <ele>216</ele>
        <time>2011-06-19T08:33:12Z</time>
      </trkpt>
      <trkpt lat="45.78785" lon="4.88042">
        <ele>217</ele>
        <time>2011-06-19T08:33:13Z</time>
      </trkpt>
      <trkpt lat="45.78786" lon="4.88039">
        <ele>217</ele>
        <time>2011-06-19T08:33:14Z</time>
      </trkpt>
      <trkpt lat="45.78788" lon="4.88035">
        <ele>217</ele>
        <time>2011-06-19T08:33:15Z</time>
      </trkpt>
      <trkpt lat="45.78789" lon="4.88032">
        <ele>217</ele>
        <time>2011-06-19T08:33:16Z</time>
      </trkpt>
      <trkpt lat="45.78791" lon="4.8803">
        <ele>217</ele>
        <time>2011-06-19T08:33:17Z</time>
      </trkpt>
      <trkpt lat="45.78794" lon="4.88028">
        <ele>217</ele>
        <time>2011-06-19T08:33:18Z</time>
      </trkpt>
      <trkpt lat="45.78795" lon="4.88025">
        <ele>218</ele>
        <time>2011-06-19T08:33:19Z</time>
      </trkpt>
      <trkpt lat="45.78797" lon="4.88023">
        <ele>218</ele>
        <time>2011-06-19T08:33:20Z</time>
      </trkpt>
      <trkpt lat="45.788" lon="4.88019">
        <ele>218</ele>
        <time>2011-06-19T08:33:21Z</time>
      </trkpt>
      <trkpt lat="45.78801" lon="4.88017">
        <ele>218</ele>
        <time>2011-06-19T08:33:22Z</time>
      </trkpt>
      <trkpt lat="45.78802" lon="4.88015">
        <ele>218</ele>
        <time>2011-06-19T08:33:23Z</time>
      </trkpt>
      <trkpt lat="45.78803" lon="4.88012">
        <ele>218</ele>
        <time>2011-06-19T08:33:24Z</time>
      </trkpt>
      <trkpt lat="45.78805" lon="4.88009">
        <ele>218</ele>
        <time>2011-06-19T08:33:25Z</time>
      </trkpt>
      <trkpt lat="45.78807" lon="4.88002">
        <ele>217</ele>
        <time>2011-06-19T08:33:26Z</time>
      </trkpt>
      <trkpt lat="45.78808" lon="4.87998">
        <ele>217</ele>
        <time>2011-06-19T08:33:27Z</time>
      </trkpt>
      <trkpt lat="45.78809" lon="4.87993">
        <ele>216</ele>
        <time>2011-06-19T08:33:28Z</time>
      </trkpt>
      <trkpt lat="45.78811" lon="4.87987">
        <ele>216</ele>
        <time>2011-06-19T08:33:29Z</time>
      </trkpt>
      <trkpt lat="45.7881" lon="4.87983">
        <ele>215</ele>
        <time>2011-06-19T08:33:30Z</time>
      </trkpt>
      <trkpt lat="45.7881" lon="4.87979">
        <ele>215</ele>
        <time>2011-06-19T08:33:32Z</time>
      </trkpt>
      <trkpt lat="45.78811" lon="4.87976">
        <ele>215</ele>
        <time>2011-06-19T08:33:32Z</time>
      </trkpt>
      <trkpt lat="45.78811" lon="4.87972">
        <ele>215</ele>
        <time>2011-06-19T08:33:33Z</time>
      </trkpt>
      <trkpt lat="45.78812" lon="4.87968">
        <ele>216</ele>
        <time>2011-06-19T08:33:34Z</time>
      </trkpt>
      <trkpt lat="45.78812" lon="4.87965">
        <ele>215</ele>
        <time>2011-06-19T08:33:35Z</time>
      </trkpt>
      <trkpt lat="45.78812" lon="4.8796">
        <ele>215</ele>
        <time>2011-06-19T08:33:36Z</time>
      </trkpt>
      <trkpt lat="45.78812" lon="4.87955">
        <ele>215</ele>
        <time>2011-06-19T08:33:37Z</time>
      </trkpt>
      <trkpt lat="45.78812" lon="4.8795">
        <ele>215</ele>
        <time>2011-06-19T08:33:38Z</time>
      </trkpt>
      <trkpt lat="45.78812" lon="4.87946">
        <ele>215</ele>
        <time>2011-06-19T08:33:39Z</time>
      </trkpt>
      <trkpt lat="45.78812" lon="4.87943">
        <ele>215</ele>
        <time>2011-06-19T08:33:40Z</time>
      </trkpt>
      <trkpt lat="45.7881" lon="4.8794">
        <ele>215</ele>
        <time>2011-06-19T08:33:41Z</time>
      </trkpt>
      <trkpt lat="45.78809" lon="4.87937">
        <ele>214</ele>
        <time>2011-06-19T08:33:42Z</time>
      </trkpt>
      <trkpt lat="45.78808" lon="4.87933">
        <ele>214</ele>
        <time>2011-06-19T08:33:43Z</time>
      </trkpt>
      <trkpt lat="45.78808" lon="4.87929">
        <ele>214</ele>
        <time>2011-06-19T08:33:44Z</time>
      </trkpt>
      <trkpt lat="45.78806" lon="4.87924">
        <ele>214</ele>
        <time>2011-06-19T08:33:45Z</time>
      </trkpt>
      <trkpt lat="45.78805" lon="4.87918">
        <ele>214</ele>
        <time>2011-06-19T08:33:46Z</time>
      </trkpt>
      <trkpt lat="45.78803" lon="4.87914">
        <ele>214</ele>
        <time>2011-06-19T08:33:47Z</time>
      </trkpt>
      <trkpt lat="45.78803" lon="4.8791">
        <ele>213</ele>
        <time>2011-06-19T08:33:48Z</time>
      </trkpt>
      <trkpt lat="45.78802" lon="4.87907">
        <ele>213</ele>
        <time>2011-06-19T08:33:49Z</time>
      </trkpt>
      <trkpt lat="45.78801" lon="4.87904">
        <ele>213</ele>
        <time>2011-06-19T08:33:50Z</time>
      </trkpt>
      <trkpt lat="45.78799" lon="4.879">
        <ele>213</ele>
        <time>2011-06-19T08:33:51Z</time>
      </trkpt>
      <trkpt lat="45.78799" lon="4.87896">
        <ele>213</ele>
        <time>2011-06-19T08:33:52Z</time>
      </trkpt>
      <trkpt lat="45.788" lon="4.87892">
        <ele>213</ele>
        <time>2011-06-19T08:33:54Z</time>
      </trkpt>
      <trkpt lat="45.788" lon="4.87888">
        <ele>212</ele>
        <time>2011-06-19T08:33:54Z</time>
      </trkpt>
      <trkpt lat="45.78801" lon="4.87883">
        <ele>212</ele>
        <time>2011-06-19T08:33:55Z</time>
      </trkpt>
      <trkpt lat="45.78802" lon="4.87879">
        <ele>212</ele>
        <time>2011-06-19T08:33:56Z</time>
      </trkpt>
      <trkpt lat="45.78803" lon="4.87874">
        <ele>212</ele>
        <time>2011-06-19T08:33:57Z</time>
      </trkpt>
      <trkpt lat="45.78804" lon="4.87869">
        <ele>212</ele>
        <time>2011-06-19T08:33:58Z</time>
      </trkpt>
      <trkpt lat="45.78804" lon="4.87863">
        <ele>211</ele>
        <time>2011-06-19T08:33:59Z</time>
      </trkpt>
      <trkpt lat="45.78806" lon="4.87858">
        <ele>211</ele>
        <time>2011-06-19T08:34:00Z</time>
      </trkpt>
      <trkpt lat="45.78808" lon="4.87854">
        <ele>211</ele>
        <time>2011-06-19T08:34:01Z</time>
      </trkpt>
      <trkpt lat="45.78808" lon="4.8785">
        <ele>211</ele>
        <time>2011-06-19T08:34:02Z</time>
      </trkpt>
      <trkpt lat="45.78808" lon="4.87847">
        <ele>211</ele>
        <time>2011-06-19T08:34:03Z</time>
      </trkpt>
      <trkpt lat="45.78808" lon="4.87841">
        <ele>210</ele>
        <time>2011-06-19T08:34:04Z</time>
      </trkpt>
      <trkpt lat="45.78806" lon="4.87836">
        <ele>210</ele>
        <time>2011-06-19T08:34:05Z</time>
      </trkpt>
      <trkpt lat="45.78806" lon="4.87833">
        <ele>210</ele>
        <time>2011-06-19T08:34:06Z</time>
      </trkpt>
      <trkpt lat="45.78805" lon="4.87828">
        <ele>209</ele>
        <time>2011-06-19T08:34:07Z</time>
      </trkpt>
      <trkpt lat="45.78804" lon="4.87824">
        <ele>209</ele>
        <time>2011-06-19T08:34:08Z</time>
      </trkpt>
      <trkpt lat="45.78802" lon="4.87819">
        <ele>209</ele>
        <time>2011-06-19T08:34:09Z</time>
      </trkpt>
      <trkpt lat="45.78801" lon="4.87814">
        <ele>210</ele>
        <time>2011-06-19T08:34:10Z</time>
      </trkpt>
      <trkpt lat="45.78801" lon="4.8781">
        <ele>209</ele>
        <time>2011-06-19T08:34:11Z</time>
      </trkpt>
      <trkpt lat="45.78801" lon="4.87804">
        <ele>210</ele>
        <time>2011-06-19T08:34:12Z</time>
      </trkpt>
      <trkpt lat="45.788" lon="4.878">
        <ele>210</ele>
        <time>2011-06-19T08:34:13Z</time>
      </trkpt>
      <trkpt lat="45.788" lon="4.87796">
        <ele>210</ele>
        <time>2011-06-19T08:34:14Z</time>
      </trkpt>
      <trkpt lat="45.78797" lon="4.8779">
        <ele>211</ele>
        <time>2011-06-19T08:34:16Z</time>
      </trkpt>
      <trkpt lat="45.78796" lon="4.87786">
        <ele>211</ele>
        <time>2011-06-19T08:34:16Z</time>
      </trkpt>
      <trkpt lat="45.78795" lon="4.87782">
        <ele>211</ele>
        <time>2011-06-19T08:34:17Z</time>
      </trkpt>
      <trkpt lat="45.78794" lon="4.87777">
        <ele>210</ele>
        <time>2011-06-19T08:34:18Z</time>
      </trkpt>
      <trkpt lat="45.78794" lon="4.87773">
        <ele>211</ele>
        <time>2011-06-19T08:34:19Z</time>
      </trkpt>
      <trkpt lat="45.78793" lon="4.87769">
        <ele>210</ele>
        <time>2011-06-19T08:34:20Z</time>
      </trkpt>
      <trkpt lat="45.78793" lon="4.87765">
        <ele>210</ele>
        <time>2011-06-19T08:34:21Z</time>
      </trkpt>
      <trkpt lat="45.78794" lon="4.87761">
        <ele>210</ele>
        <time>2011-06-19T08:34:22Z</time>
      </trkpt>
      <trkpt lat="45.78794" lon="4.87756">
        <ele>210</ele>
        <time>2011-06-19T08:34:23Z</time>
      </trkpt>
      <trkpt lat="45.78793" lon="4.87752">
        <ele>210</ele>
        <time>2011-06-19T08:34:24Z</time>
      </trkpt>
      <trkpt lat="45.78794" lon="4.87747">
        <ele>210</ele>
        <time>2011-06-19T08:34:25Z</time>
      </trkpt>
      <trkpt lat="45.78791" lon="4.87743">
        <ele>210</ele>
        <time>2011-06-19T08:34:26Z</time>
      </trkpt>
      <trkpt lat="45.78789" lon="4.87739">
        <ele>210</ele>
        <time>2011-06-19T08:34:27Z</time>
      </trkpt>
      <trkpt lat="45.78788" lon="4.87734">
        <ele>209</ele>
        <time>2011-06-19T08:34:28Z</time>
      </trkpt>
      <trkpt lat="45.78786" lon="4.8773">
        <ele>209</ele>
        <time>2011-06-19T08:34:29Z</time>
      </trkpt>
      <trkpt lat="45.78786" lon="4.87724">
        <ele>209</ele>
        <time>2011-06-19T08:34:30Z</time>
      </trkpt>
      <trkpt lat="45.78786" lon="4.87721">
        <ele>209</ele>
        <time>2011-06-19T08:34:31Z</time>
      </trkpt>
      <trkpt lat="45.78785" lon="4.87716">
        <ele>209</ele>
        <time>2011-06-19T08:34:32Z</time>
      </trkpt>
      <trkpt lat="45.78785" lon="4.87713">
        <ele>209</ele>
        <time>2011-06-19T08:34:33Z</time>
      </trkpt>
      <trkpt lat="45.78784" lon="4.87709">
        <ele>209</ele>
        <time>2011-06-19T08:34:34Z</time>
      </trkpt>
      <trkpt lat="45.78784" lon="4.87706">
        <ele>210</ele>
        <time>2011-06-19T08:34:35Z</time>
      </trkpt>
      <trkpt lat="45.78783" lon="4.87702">
        <ele>210</ele>
        <time>2011-06-19T08:34:36Z</time>
      </trkpt>
      <trkpt lat="45.78781" lon="4.87698">
        <ele>210</ele>
        <time>2011-06-19T08:34:38Z</time>
      </trkpt>
      <trkpt lat="45.78781" lon="4.87696">
        <ele>210.49456787109</ele>
        <time>2011-06-19T08:34:38Z</time>
      </trkpt>
      <trkpt lat="45.78781" lon="4.87689">
        <ele>211</ele>
        <time>2011-06-19T08:34:39Z</time>
      </trkpt>
      <trkpt lat="45.78781" lon="4.87685">
        <ele>211</ele>
        <time>2011-06-19T08:34:40Z</time>
      </trkpt>
      <trkpt lat="45.78781" lon="4.87681">
        <ele>210</ele>
        <time>2011-06-19T08:34:41Z</time>
      </trkpt>
      <trkpt lat="45.7878" lon="4.87677">
        <ele>211</ele>
        <time>2011-06-19T08:34:42Z</time>
      </trkpt>
      <trkpt lat="45.78781" lon="4.87672">
        <ele>211</ele>
        <time>2011-06-19T08:34:43Z</time>
      </trkpt>
      <trkpt lat="45.78781" lon="4.87669">
        <ele>210</ele>
        <time>2011-06-19T08:34:44Z</time>
      </trkpt>
      <trkpt lat="45.78783" lon="4.87665">
        <ele>209</ele>
        <time>2011-06-19T08:34:45Z</time>
      </trkpt>
      <trkpt lat="45.78782" lon="4.8766">
        <ele>209</ele>
        <time>2011-06-19T08:34:46Z</time>
      </trkpt>
      <trkpt lat="45.7878" lon="4.87655">
        <ele>208</ele>
        <time>2011-06-19T08:34:47Z</time>
      </trkpt>
      <trkpt lat="45.78779" lon="4.8765">
        <ele>209</ele>
        <time>2011-06-19T08:34:48Z</time>
      </trkpt>
      <trkpt lat="45.78778" lon="4.87644">
        <ele>208</ele>
        <time>2011-06-19T08:34:49Z</time>
      </trkpt>
      <trkpt lat="45.78776" lon="4.8764">
        <ele>208</ele>
        <time>2011-06-19T08:34:50Z</time>
      </trkpt>
      <trkpt lat="45.78773" lon="4.87636">
        <ele>208</ele>
        <time>2011-06-19T08:34:51Z</time>
      </trkpt>
      <trkpt lat="45.78771" lon="4.87633">
        <ele>208</ele>
        <time>2011-06-19T08:34:52Z</time>
      </trkpt>
      <trkpt lat="45.78769" lon="4.87629">
        <ele>209</ele>
        <time>2011-06-19T08:34:53Z</time>
      </trkpt>
      <trkpt lat="45.78765" lon="4.87626">
        <ele>209</ele>
        <time>2011-06-19T08:34:54Z</time>
      </trkpt>
      <trkpt lat="45.78763" lon="4.87622">
        <ele>209</ele>
        <time>2011-06-19T08:34:55Z</time>
      </trkpt>
      <trkpt lat="45.78761" lon="4.87619">
        <ele>209</ele>
        <time>2011-06-19T08:34:56Z</time>
      </trkpt>
      <trkpt lat="45.78759" lon="4.87615">
        <ele>209</ele>
        <time>2011-06-19T08:34:57Z</time>
      </trkpt>
      <trkpt lat="45.78758" lon="4.87613">
        <ele>209</ele>
        <time>2011-06-19T08:34:58Z</time>
      </trkpt>
      <trkpt lat="45.78756" lon="4.8761">
        <ele>209</ele>
        <time>2011-06-19T08:35:00Z</time>
      </trkpt>
      <trkpt lat="45.78756" lon="4.87609">
        <ele>209</ele>
        <time>2011-06-19T08:35:00Z</time>
      </trkpt>
      <trkpt lat="45.78752" lon="4.87602">
        <ele>209</ele>
        <time>2011-06-19T08:35:01Z</time>
      </trkpt>
      <trkpt lat="45.7875" lon="4.87599">
        <ele>209</ele>
        <time>2011-06-19T08:35:02Z</time>
      </trkpt>
      <trkpt lat="45.78748" lon="4.87596">
        <ele>209</ele>
        <time>2011-06-19T08:35:03Z</time>
      </trkpt>
      <trkpt lat="45.78746" lon="4.87593">
        <ele>210</ele>
        <time>2011-06-19T08:35:04Z</time>
      </trkpt>
      <trkpt lat="45.78744" lon="4.87589">
        <ele>211</ele>
        <time>2011-06-19T08:35:05Z</time>
      </trkpt>
      <trkpt lat="45.78741" lon="4.87585">
        <ele>210</ele>
        <time>2011-06-19T08:35:06Z</time>
      </trkpt>
      <trkpt lat="45.78738" lon="4.87583">
        <ele>210</ele>
        <time>2011-06-19T08:35:07Z</time>
      </trkpt>
      <trkpt lat="45.78736" lon="4.87579">
        <ele>210</ele>
        <time>2011-06-19T08:35:08Z</time>
      </trkpt>
      <trkpt lat="45.78735" lon="4.87577">
        <ele>210</ele>
        <time>2011-06-19T08:35:09Z</time>
      </trkpt>
      <trkpt lat="45.78734" lon="4.87574">
        <ele>209</ele>
        <time>2011-06-19T08:35:10Z</time>
      </trkpt>
      <trkpt lat="45.78732" lon="4.87571">
        <ele>210</ele>
        <time>2011-06-19T08:35:11Z</time>
      </trkpt>
      <trkpt lat="45.78731" lon="4.87568">
        <ele>210</ele>
        <time>2011-06-19T08:35:12Z</time>
      </trkpt>
      <trkpt lat="45.78729" lon="4.87563">
        <ele>209</ele>
        <time>2011-06-19T08:35:13Z</time>
      </trkpt>
      <trkpt lat="45.78728" lon="4.8756">
        <ele>209</ele>
        <time>2011-06-19T08:35:14Z</time>
      </trkpt>
      <trkpt lat="45.78725" lon="4.87556">
        <ele>208</ele>
        <time>2011-06-19T08:35:15Z</time>
      </trkpt>
      <trkpt lat="45.78724" lon="4.87552">
        <ele>208</ele>
        <time>2011-06-19T08:35:16Z</time>
      </trkpt>
      <trkpt lat="45.78722" lon="4.87547">
        <ele>208</ele>
        <time>2011-06-19T08:35:17Z</time>
      </trkpt>
      <trkpt lat="45.7872" lon="4.87544">
        <ele>208</ele>
        <time>2011-06-19T08:35:18Z</time>
      </trkpt>
      <trkpt lat="45.78719" lon="4.8754">
        <ele>208</ele>
        <time>2011-06-19T08:35:19Z</time>
      </trkpt>
      <trkpt lat="45.78718" lon="4.87536">
        <ele>208</ele>
        <time>2011-06-19T08:35:20Z</time>
      </trkpt>
      <trkpt lat="45.78719" lon="4.87533">
        <ele>209</ele>
        <time>2011-06-19T08:35:22Z</time>
      </trkpt>
      <trkpt lat="45.78719" lon="4.87529">
        <ele>208</ele>
        <time>2011-06-19T08:35:22Z</time>
      </trkpt>
      <trkpt lat="45.7872" lon="4.87525">
        <ele>208</ele>
        <time>2011-06-19T08:35:23Z</time>
      </trkpt>
      <trkpt lat="45.78721" lon="4.87522">
        <ele>209</ele>
        <time>2011-06-19T08:35:24Z</time>
      </trkpt>
      <trkpt lat="45.78721" lon="4.87519">
        <ele>209</ele>
        <time>2011-06-19T08:35:25Z</time>
      </trkpt>
      <trkpt lat="45.78721" lon="4.87514">
        <ele>208</ele>
        <time>2011-06-19T08:35:26Z</time>
      </trkpt>
      <trkpt lat="45.78721" lon="4.8751">
        <ele>208</ele>
        <time>2011-06-19T08:35:27Z</time>
      </trkpt>
      <trkpt lat="45.78721" lon="4.87505">
        <ele>209</ele>
        <time>2011-06-19T08:35:28Z</time>
      </trkpt>
      <trkpt lat="45.78722" lon="4.87501">
        <ele>210</ele>
        <time>2011-06-19T08:35:29Z</time>
      </trkpt>
      <trkpt lat="45.78721" lon="4.87497">
        <ele>210</ele>
        <time>2011-06-19T08:35:30Z</time>
      </trkpt>
      <trkpt lat="45.78719" lon="4.87493">
        <ele>211</ele>
        <time>2011-06-19T08:35:31Z</time>
      </trkpt>
      <trkpt lat="45.78718" lon="4.8749">
        <ele>210</ele>
        <time>2011-06-19T08:35:32Z</time>
      </trkpt>
      <trkpt lat="45.78716" lon="4.87486">
        <ele>210</ele>
        <time>2011-06-19T08:35:33Z</time>
      </trkpt>
      <trkpt lat="45.78717" lon="4.87481">
        <ele>209</ele>
        <time>2011-06-19T08:35:34Z</time>
      </trkpt>
      <trkpt lat="45.78716" lon="4.87478">
        <ele>209</ele>
        <time>2011-06-19T08:35:35Z</time>
      </trkpt>
      <trkpt lat="45.78716" lon="4.87474">
        <ele>209</ele>
        <time>2011-06-19T08:35:36Z</time>
      </trkpt>
      <trkpt lat="45.78718" lon="4.87468">
        <ele>209</ele>
        <time>2011-06-19T08:35:37Z</time>
      </trkpt>
      <trkpt lat="45.78716" lon="4.87464">
        <ele>209</ele>
        <time>2011-06-19T08:35:38Z</time>
      </trkpt>
      <trkpt lat="45.78715" lon="4.8746">
        <ele>209</ele>
        <time>2011-06-19T08:35:39Z</time>
      </trkpt>
      <trkpt lat="45.78714" lon="4.87456">
        <ele>210</ele>
        <time>2011-06-19T08:35:40Z</time>
      </trkpt>
      <trkpt lat="45.78713" lon="4.87452">
        <ele>210</ele>
        <time>2011-06-19T08:35:41Z</time>
      </trkpt>
      <trkpt lat="45.78712" lon="4.8745">
        <ele>210</ele>
        <time>2011-06-19T08:35:42Z</time>
      </trkpt>
      <trkpt lat="45.78711" lon="4.87445">
        <ele>209</ele>
        <time>2011-06-19T08:35:44Z</time>
      </trkpt>
      <trkpt lat="45.78712" lon="4.87442">
        <ele>209</ele>
        <time>2011-06-19T08:35:44Z</time>
      </trkpt>
      <trkpt lat="45.78711" lon="4.87438">
        <ele>208</ele>
        <time>2011-06-19T08:35:45Z</time>
      </trkpt>
      <trkpt lat="45.7871" lon="4.87434">
        <ele>209</ele>
        <time>2011-06-19T08:35:46Z</time>
      </trkpt>
      <trkpt lat="45.78709" lon="4.87431">
        <ele>209</ele>
        <time>2011-06-19T08:35:47Z</time>
      </trkpt>
      <trkpt lat="45.78708" lon="4.87426">
        <ele>208</ele>
        <time>2011-06-19T08:35:48Z</time>
      </trkpt>
      <trkpt lat="45.78709" lon="4.87421">
        <ele>208</ele>
        <time>2011-06-19T08:35:49Z</time>
      </trkpt>
      <trkpt lat="45.78708" lon="4.87417">
        <ele>209</ele>
        <time>2011-06-19T08:35:50Z</time>
      </trkpt>
      <trkpt lat="45.78709" lon="4.87413">
        <ele>209</ele>
        <time>2011-06-19T08:35:51Z</time>
      </trkpt>
      <trkpt lat="45.78708" lon="4.87407">
        <ele>209</ele>
        <time>2011-06-19T08:35:52Z</time>
      </trkpt>
      <trkpt lat="45.78708" lon="4.87404">
        <ele>209</ele>
        <time>2011-06-19T08:35:53Z</time>
      </trkpt>
      <trkpt lat="45.78707" lon="4.874">
        <ele>209</ele>
        <time>2011-06-19T08:35:54Z</time>
      </trkpt>
      <trkpt lat="45.78708" lon="4.87397">
        <ele>209</ele>
        <time>2011-06-19T08:35:55Z</time>
      </trkpt>
      <trkpt lat="45.78707" lon="4.87393">
        <ele>209</ele>
        <time>2011-06-19T08:35:56Z</time>
      </trkpt>
      <trkpt lat="45.78707" lon="4.87388">
        <ele>208</ele>
        <time>2011-06-19T08:35:57Z</time>
      </trkpt>
      <trkpt lat="45.78707" lon="4.87384">
        <ele>207</ele>
        <time>2011-06-19T08:35:58Z</time>
      </trkpt>
      <trkpt lat="45.78706" lon="4.87379">
        <ele>208</ele>
        <time>2011-06-19T08:35:59Z</time>
      </trkpt>
      <trkpt lat="45.78706" lon="4.87376">
        <ele>209</ele>
        <time>2011-06-19T08:36:00Z</time>
      </trkpt>
      <trkpt lat="45.78707" lon="4.87372">
        <ele>209</ele>
        <time>2011-06-19T08:36:01Z</time>
      </trkpt>
      <trkpt lat="45.78709" lon="4.87366">
        <ele>209</ele>
        <time>2011-06-19T08:36:02Z</time>
      </trkpt>
      <trkpt lat="45.78709" lon="4.87361">
        <ele>209</ele>
        <time>2011-06-19T08:36:03Z</time>
      </trkpt>
      <trkpt lat="45.78705" lon="4.87357">
        <ele>209</ele>
        <time>2011-06-19T08:36:04Z</time>
      </trkpt>
      <trkpt lat="45.78704" lon="4.87353">
        <ele>209</ele>
        <time>2011-06-19T08:36:06Z</time>
      </trkpt>
      <trkpt lat="45.78704" lon="4.8735">
        <ele>209.66276550293</ele>
        <time>2011-06-19T08:36:06Z</time>
      </trkpt>
      <trkpt lat="45.78703" lon="4.87343">
        <ele>211</ele>
        <time>2011-06-19T08:36:07Z</time>
      </trkpt>
      <trkpt lat="45.78702" lon="4.87338">
        <ele>211</ele>
        <time>2011-06-19T08:36:08Z</time>
      </trkpt>
      <trkpt lat="45.787" lon="4.87335">
        <ele>211</ele>
        <time>2011-06-19T08:36:09Z</time>
      </trkpt>
      <trkpt lat="45.78699" lon="4.8733">
        <ele>211</ele>
        <time>2011-06-19T08:36:10Z</time>
      </trkpt>
      <trkpt lat="45.78697" lon="4.87326">
        <ele>212</ele>
        <time>2011-06-19T08:36:11Z</time>
      </trkpt>
      <trkpt lat="45.78697" lon="4.87321">
        <ele>212</ele>
        <time>2011-06-19T08:36:12Z</time>
      </trkpt>
      <trkpt lat="45.78695" lon="4.87317">
        <ele>213</ele>
        <time>2011-06-19T08:36:13Z</time>
      </trkpt>
      <trkpt lat="45.78694" lon="4.87313">
        <ele>214</ele>
        <time>2011-06-19T08:36:14Z</time>
      </trkpt>
      <trkpt lat="45.78692" lon="4.8731">
        <ele>213</ele>
        <time>2011-06-19T08:36:15Z</time>
      </trkpt>
      <trkpt lat="45.78689" lon="4.87306">
        <ele>213</ele>
        <time>2011-06-19T08:36:16Z</time>
      </trkpt>
      <trkpt lat="45.78686" lon="4.87302">
        <ele>214</ele>
        <time>2011-06-19T08:36:17Z</time>
      </trkpt>
      <trkpt lat="45.78684" lon="4.87298">
        <ele>213</ele>
        <time>2011-06-19T08:36:18Z</time>
      </trkpt>
      <trkpt lat="45.78682" lon="4.87295">
        <ele>213</ele>
        <time>2011-06-19T08:36:19Z</time>
      </trkpt>
      <trkpt lat="45.7868" lon="4.87291">
        <ele>213</ele>
        <time>2011-06-19T08:36:20Z</time>
      </trkpt>
      <trkpt lat="45.78678" lon="4.87287">
        <ele>213</ele>
        <time>2011-06-19T08:36:21Z</time>
      </trkpt>
      <trkpt lat="45.78676" lon="4.87283">
        <ele>213</ele>
        <time>2011-06-19T08:36:22Z</time>
      </trkpt>
      <trkpt lat="45.78674" lon="4.8728">
        <ele>213</ele>
        <time>2011-06-19T08:36:23Z</time>
      </trkpt>
      <trkpt lat="45.78672" lon="4.87275">
        <ele>213</ele>
        <time>2011-06-19T08:36:24Z</time>
      </trkpt>
      <trkpt lat="45.78671" lon="4.87272">
        <ele>214</ele>
        <time>2011-06-19T08:36:25Z</time>
      </trkpt>
      <trkpt lat="45.78669" lon="4.87267">
        <ele>213</ele>
        <time>2011-06-19T08:36:26Z</time>
      </trkpt>
      <trkpt lat="45.78669" lon="4.87264">
        <ele>212</ele>
        <time>2011-06-19T08:36:28Z</time>
      </trkpt>
      <trkpt lat="45.78669" lon="4.8726">
        <ele>212</ele>
        <time>2011-06-19T08:36:28Z</time>
      </trkpt>
      <trkpt lat="45.78667" lon="4.87257">
        <ele>212</ele>
        <time>2011-06-19T08:36:29Z</time>
      </trkpt>
      <trkpt lat="45.78667" lon="4.87253">
        <ele>213</ele>
        <time>2011-06-19T08:36:30Z</time>
      </trkpt>
      <trkpt lat="45.78667" lon="4.87248">
        <ele>212</ele>
        <time>2011-06-19T08:36:31Z</time>
      </trkpt>
      <trkpt lat="45.78665" lon="4.87244">
        <ele>213</ele>
        <time>2011-06-19T08:36:32Z</time>
      </trkpt>
      <trkpt lat="45.78664" lon="4.8724">
        <ele>213</ele>
        <time>2011-06-19T08:36:33Z</time>
      </trkpt>
      <trkpt lat="45.78663" lon="4.87237">
        <ele>213</ele>
        <time>2011-06-19T08:36:34Z</time>
      </trkpt>
      <trkpt lat="45.78663" lon="4.87233">
        <ele>214</ele>
        <time>2011-06-19T08:36:35Z</time>
      </trkpt>
      <trkpt lat="45.78663" lon="4.8723">
        <ele>214</ele>
        <time>2011-06-19T08:36:36Z</time>
      </trkpt>
      <trkpt lat="45.78663" lon="4.87226">
        <ele>213</ele>
        <time>2011-06-19T08:36:37Z</time>
      </trkpt>
      <trkpt lat="45.78663" lon="4.87223">
        <ele>213</ele>
        <time>2011-06-19T08:36:38Z</time>
      </trkpt>
      <trkpt lat="45.78663" lon="4.87218">
        <ele>212</ele>
        <time>2011-06-19T08:36:39Z</time>
      </trkpt>
      <trkpt lat="45.78662" lon="4.87216">
        <ele>212</ele>
        <time>2011-06-19T08:36:40Z</time>
      </trkpt>
      <trkpt lat="45.78663" lon="4.87212">
        <ele>212</ele>
        <time>2011-06-19T08:36:41Z</time>
      </trkpt>
      <trkpt lat="45.78662" lon="4.87208">
        <ele>212</ele>
        <time>2011-06-19T08:36:42Z</time>
      </trkpt>
      <trkpt lat="45.78662" lon="4.87203">
        <ele>212</ele>
        <time>2011-06-19T08:36:43Z</time>
      </trkpt>
      <trkpt lat="45.78661" lon="4.87198">
        <ele>211</ele>
        <time>2011-06-19T08:36:44Z</time>
      </trkpt>
      <trkpt lat="45.78658" lon="4.87193">
        <ele>211</ele>
        <time>2011-06-19T08:36:45Z</time>
      </trkpt>
      <trkpt lat="45.78658" lon="4.87188">
        <ele>211</ele>
        <time>2011-06-19T08:36:46Z</time>
      </trkpt>
      <trkpt lat="45.78658" lon="4.87184">
        <ele>211</ele>
        <time>2011-06-19T08:36:47Z</time>
      </trkpt>
      <trkpt lat="45.78658" lon="4.8718">
        <ele>212</ele>
        <time>2011-06-19T08:36:48Z</time>
      </trkpt>
      <trkpt lat="45.78658" lon="4.87176">
        <ele>212</ele>
        <time>2011-06-19T08:36:50Z</time>
      </trkpt>
      <trkpt lat="45.78658" lon="4.87173">
        <ele>212</ele>
        <time>2011-06-19T08:36:50Z</time>
      </trkpt>
      <trkpt lat="45.78657" lon="4.87169">
        <ele>212</ele>
        <time>2011-06-19T08:36:51Z</time>
      </trkpt>
      <trkpt lat="45.78657" lon="4.87165">
        <ele>213</ele>
        <time>2011-06-19T08:36:52Z</time>
      </trkpt>
      <trkpt lat="45.78657" lon="4.87162">
        <ele>213</ele>
        <time>2011-06-19T08:36:53Z</time>
      </trkpt>
      <trkpt lat="45.78656" lon="4.87158">
        <ele>213</ele>
        <time>2011-06-19T08:36:54Z</time>
      </trkpt>
      <trkpt lat="45.78656" lon="4.87155">
        <ele>213</ele>
        <time>2011-06-19T08:36:55Z</time>
      </trkpt>
      <trkpt lat="45.78655" lon="4.87151">
        <ele>214</ele>
        <time>2011-06-19T08:36:56Z</time>
      </trkpt>
      <trkpt lat="45.78653" lon="4.87147">
        <ele>213</ele>
        <time>2011-06-19T08:36:57Z</time>
      </trkpt>
      <trkpt lat="45.78651" lon="4.87143">
        <ele>213</ele>
        <time>2011-06-19T08:36:58Z</time>
      </trkpt>
      <trkpt lat="45.78649" lon="4.87139">
        <ele>213</ele>
        <time>2011-06-19T08:36:59Z</time>
      </trkpt>
      <trkpt lat="45.78648" lon="4.87135">
        <ele>213</ele>
        <time>2011-06-19T08:37:00Z</time>
      </trkpt>
      <trkpt lat="45.78648" lon="4.8713">
        <ele>214</ele>
        <time>2011-06-19T08:37:01Z</time>
      </trkpt>
      <trkpt lat="45.78647" lon="4.87125">
        <ele>213</ele>
        <time>2011-06-19T08:37:02Z</time>
      </trkpt>
      <trkpt lat="45.78647" lon="4.87118">
        <ele>212</ele>
        <time>2011-06-19T08:37:03Z</time>
      </trkpt>
      <trkpt lat="45.78645" lon="4.87114">
        <ele>212</ele>
        <time>2011-06-19T08:37:04Z</time>
      </trkpt>
      <trkpt lat="45.78645" lon="4.87111">
        <ele>212</ele>
        <time>2011-06-19T08:37:05Z</time>
      </trkpt>
      <trkpt lat="45.78644" lon="4.87107">
        <ele>212</ele>
        <time>2011-06-19T08:37:06Z</time>
      </trkpt>
      <trkpt lat="45.78642" lon="4.87103">
        <ele>214</ele>
        <time>2011-06-19T08:37:07Z</time>
      </trkpt>
      <trkpt lat="45.78642" lon="4.87098">
        <ele>214</ele>
        <time>2011-06-19T08:37:08Z</time>
      </trkpt>
      <trkpt lat="45.78642" lon="4.87093">
        <ele>214</ele>
        <time>2011-06-19T08:37:09Z</time>
      </trkpt>
      <trkpt lat="45.78641" lon="4.8709">
        <ele>214</ele>
        <time>2011-06-19T08:37:10Z</time>
      </trkpt>
      <trkpt lat="45.7864" lon="4.87086">
        <ele>214</ele>
        <time>2011-06-19T08:37:12Z</time>
      </trkpt>
      <trkpt lat="45.7864" lon="4.87085">
        <ele>213.78149414062</ele>
        <time>2011-06-19T08:37:12Z</time>
      </trkpt>
      <trkpt lat="45.78639" lon="4.87078">
        <ele>213</ele>
        <time>2011-06-19T08:37:13Z</time>
      </trkpt>
      <trkpt lat="45.7864" lon="4.87074">
        <ele>213</ele>
        <time>2011-06-19T08:37:14Z</time>
      </trkpt>
      <trkpt lat="45.78639" lon="4.87069">
        <ele>213</ele>
        <time>2011-06-19T08:37:15Z</time>
      </trkpt>
      <trkpt lat="45.78639" lon="4.87066">
        <ele>214</ele>
        <time>2011-06-19T08:37:16Z</time>
      </trkpt>
      <trkpt lat="45.78637" lon="4.87063">
        <ele>213</ele>
        <time>2011-06-19T08:37:17Z</time>
      </trkpt>
      <trkpt lat="45.78636" lon="4.8706">
        <ele>214</ele>
        <time>2011-06-19T08:37:18Z</time>
      </trkpt>
      <trkpt lat="45.78638" lon="4.87056">
        <ele>213</ele>
        <time>2011-06-19T08:37:19Z</time>
      </trkpt>
      <trkpt lat="45.78635" lon="4.87052">
        <ele>214</ele>
        <time>2011-06-19T08:37:20Z</time>
      </trkpt>
      <trkpt lat="45.78635" lon="4.87048">
        <ele>214</ele>
        <time>2011-06-19T08:37:21Z</time>
      </trkpt>
      <trkpt lat="45.78633" lon="4.87045">
        <ele>214</ele>
        <time>2011-06-19T08:37:22Z</time>
      </trkpt>
      <trkpt lat="45.78633" lon="4.8704">
        <ele>214</ele>
        <time>2011-06-19T08:37:23Z</time>
      </trkpt>
      <trkpt lat="45.78632" lon="4.87036">
        <ele>213</ele>
        <time>2011-06-19T08:37:24Z</time>
      </trkpt>
      <trkpt lat="45.78631" lon="4.87031">
        <ele>214</ele>
        <time>2011-06-19T08:37:25Z</time>
      </trkpt>
      <trkpt lat="45.78631" lon="4.87026">
        <ele>213</ele>
        <time>2011-06-19T08:37:26Z</time>
      </trkpt>
      <trkpt lat="45.78631" lon="4.87022">
        <ele>213</ele>
        <time>2011-06-19T08:37:27Z</time>
      </trkpt>
      <trkpt lat="45.78631" lon="4.87017">
        <ele>214</ele>
        <time>2011-06-19T08:37:28Z</time>
      </trkpt>
      <trkpt lat="45.78632" lon="4.87013">
        <ele>214</ele>
        <time>2011-06-19T08:37:29Z</time>
      </trkpt>
      <trkpt lat="45.78629" lon="4.87007">
        <ele>215</ele>
        <time>2011-06-19T08:37:30Z</time>
      </trkpt>
      <trkpt lat="45.78629" lon="4.87002">
        <ele>215</ele>
        <time>2011-06-19T08:37:31Z</time>
      </trkpt>
      <trkpt lat="45.78629" lon="4.86999">
        <ele>215</ele>
        <time>2011-06-19T08:37:32Z</time>
      </trkpt>
      <trkpt lat="45.78627" lon="4.86997">
        <ele>214</ele>
        <time>2011-06-19T08:37:34Z</time>
      </trkpt>
      <trkpt lat="45.78626" lon="4.86995">
        <ele>214.54956054688</ele>
        <time>2011-06-19T08:37:34Z</time>
      </trkpt>
      <trkpt lat="45.78625" lon="4.86988">
        <ele>215</ele>
        <time>2011-06-19T08:37:35Z</time>
      </trkpt>
      <trkpt lat="45.78624" lon="4.86984">
        <ele>214</ele>
        <time>2011-06-19T08:37:36Z</time>
      </trkpt>
      <trkpt lat="45.78624" lon="4.8698">
        <ele>214</ele>
        <time>2011-06-19T08:37:37Z</time>
      </trkpt>
      <trkpt lat="45.78624" lon="4.86975">
        <ele>214</ele>
        <time>2011-06-19T08:37:38Z</time>
      </trkpt>
      <trkpt lat="45.78624" lon="4.86972">
        <ele>213</ele>
        <time>2011-06-19T08:37:39Z</time>
      </trkpt>
      <trkpt lat="45.78624" lon="4.86967">
        <ele>213</ele>
        <time>2011-06-19T08:37:40Z</time>
      </trkpt>
      <trkpt lat="45.78623" lon="4.86963">
        <ele>213</ele>
        <time>2011-06-19T08:37:41Z</time>
      </trkpt>
      <trkpt lat="45.78622" lon="4.86958">
        <ele>213</ele>
        <time>2011-06-19T08:37:42Z</time>
      </trkpt>
      <trkpt lat="45.78622" lon="4.86953">
        <ele>213</ele>
        <time>2011-06-19T08:37:43Z</time>
      </trkpt>
      <trkpt lat="45.7862" lon="4.86949">
        <ele>213</ele>
        <time>2011-06-19T08:37:44Z</time>
      </trkpt>
      <trkpt lat="45.78619" lon="4.86946">
        <ele>214</ele>
        <time>2011-06-19T08:37:45Z</time>
      </trkpt>
      <trkpt lat="45.78618" lon="4.86942">
        <ele>214</ele>
        <time>2011-06-19T08:37:46Z</time>
      </trkpt>
      <trkpt lat="45.78617" lon="4.86938">
        <ele>214</ele>
        <time>2011-06-19T08:37:47Z</time>
      </trkpt>
      <trkpt lat="45.78617" lon="4.86934">
        <ele>214</ele>
        <time>2011-06-19T08:37:48Z</time>
      </trkpt>
      <trkpt lat="45.78618" lon="4.8693">
        <ele>214</ele>
        <time>2011-06-19T08:37:49Z</time>
      </trkpt>
      <trkpt lat="45.78617" lon="4.86926">
        <ele>215</ele>
        <time>2011-06-19T08:37:50Z</time>
      </trkpt>
      <trkpt lat="45.78616" lon="4.86921">
        <ele>215</ele>
        <time>2011-06-19T08:37:51Z</time>
      </trkpt>
      <trkpt lat="45.78614" lon="4.86917">
        <ele>216</ele>
        <time>2011-06-19T08:37:52Z</time>
      </trkpt>
      <trkpt lat="45.78614" lon="4.86914">
        <ele>216</ele>
        <time>2011-06-19T08:37:53Z</time>
      </trkpt>
      <trkpt lat="45.78615" lon="4.86909">
        <ele>216</ele>
        <time>2011-06-19T08:37:54Z</time>
      </trkpt>
      <trkpt lat="45.78614" lon="4.86905">
        <ele>216</ele>
        <time>2011-06-19T08:37:56Z</time>
      </trkpt>
      <trkpt lat="45.78615" lon="4.86902">
        <ele>215.15159606934</ele>
        <time>2011-06-19T08:37:56Z</time>
      </trkpt>
      <trkpt lat="45.78614" lon="4.86897">
        <ele>215</ele>
        <time>2011-06-19T08:37:57Z</time>
      </trkpt>
      <trkpt lat="45.78614" lon="4.86895">
        <ele>216</ele>
        <time>2011-06-19T08:37:58Z</time>
      </trkpt>
      <trkpt lat="45.78613" lon="4.8689">
        <ele>217</ele>
        <time>2011-06-19T08:37:59Z</time>
      </trkpt>
      <trkpt lat="45.78612" lon="4.86887">
        <ele>217</ele>
        <time>2011-06-19T08:38:00Z</time>
      </trkpt>
      <trkpt lat="45.78612" lon="4.86884">
        <ele>217</ele>
        <time>2011-06-19T08:38:01Z</time>
      </trkpt>
      <trkpt lat="45.78613" lon="4.86881">
        <ele>217</ele>
        <time>2011-06-19T08:38:02Z</time>
      </trkpt>
      <trkpt lat="45.78611" lon="4.86878">
        <ele>217</ele>
        <time>2011-06-19T08:38:03Z</time>
      </trkpt>
      <trkpt lat="45.78611" lon="4.86874">
        <ele>217</ele>
        <time>2011-06-19T08:38:04Z</time>
      </trkpt>
      <trkpt lat="45.78609" lon="4.86869">
        <ele>217</ele>
        <time>2011-06-19T08:38:05Z</time>
      </trkpt>
      <trkpt lat="45.78609" lon="4.86864">
        <ele>217</ele>
        <time>2011-06-19T08:38:06Z</time>
      </trkpt>
      <trkpt lat="45.78609" lon="4.8686">
        <ele>217</ele>
        <time>2011-06-19T08:38:07Z</time>
      </trkpt>
      <trkpt lat="45.78609" lon="4.86854">
        <ele>217</ele>
        <time>2011-06-19T08:38:08Z</time>
      </trkpt>
      <trkpt lat="45.78606" lon="4.86849">
        <ele>218</ele>
        <time>2011-06-19T08:38:09Z</time>
      </trkpt>
      <trkpt lat="45.78604" lon="4.86845">
        <ele>217</ele>
        <time>2011-06-19T08:38:10Z</time>
      </trkpt>
      <trkpt lat="45.78603" lon="4.8684">
        <ele>217</ele>
        <time>2011-06-19T08:38:11Z</time>
      </trkpt>
      <trkpt lat="45.78601" lon="4.86836">
        <ele>217</ele>
        <time>2011-06-19T08:38:12Z</time>
      </trkpt>
      <trkpt lat="45.78602" lon="4.86833">
        <ele>217</ele>
        <time>2011-06-19T08:38:13Z</time>
      </trkpt>
      <trkpt lat="45.786" lon="4.86831">
        <ele>218</ele>
        <time>2011-06-19T08:38:14Z</time>
      </trkpt>
      <trkpt lat="45.78601" lon="4.86826">
        <ele>218</ele>
        <time>2011-06-19T08:38:15Z</time>
      </trkpt>
      <trkpt lat="45.786" lon="4.86821">
        <ele>218</ele>
        <time>2011-06-19T08:38:16Z</time>
      </trkpt>
      <trkpt lat="45.78598" lon="4.86816">
        <ele>218</ele>
        <time>2011-06-19T08:38:18Z</time>
      </trkpt>
      <trkpt lat="45.78598" lon="4.86816">
        <ele>217.89956665039</ele>
        <time>2011-06-19T08:38:18Z</time>
      </trkpt>
      <trkpt lat="45.78596" lon="4.86809">
        <ele>217</ele>
        <time>2011-06-19T08:38:19Z</time>
      </trkpt>
      <trkpt lat="45.78592" lon="4.86804">
        <ele>217</ele>
        <time>2011-06-19T08:38:20Z</time>
      </trkpt>
      <trkpt lat="45.7859" lon="4.868">
        <ele>217</ele>
        <time>2011-06-19T08:38:21Z</time>
      </trkpt>
      <trkpt lat="45.78589" lon="4.86797">
        <ele>217</ele>
        <time>2011-06-19T08:38:22Z</time>
      </trkpt>
      <trkpt lat="45.78588" lon="4.86793">
        <ele>216</ele>
        <time>2011-06-19T08:38:23Z</time>
      </trkpt>
      <trkpt lat="45.78588" lon="4.86788">
        <ele>216</ele>
        <time>2011-06-19T08:38:24Z</time>
      </trkpt>
      <trkpt lat="45.78588" lon="4.86785">
        <ele>217</ele>
        <time>2011-06-19T08:38:25Z</time>
      </trkpt>
      <trkpt lat="45.78586" lon="4.86783">
        <ele>217</ele>
        <time>2011-06-19T08:38:26Z</time>
      </trkpt>
      <trkpt lat="45.78585" lon="4.86778">
        <ele>217</ele>
        <time>2011-06-19T08:38:27Z</time>
      </trkpt>
      <trkpt lat="45.78585" lon="4.86774">
        <ele>217</ele>
        <time>2011-06-19T08:38:28Z</time>
      </trkpt>
      <trkpt lat="45.78586" lon="4.8677">
        <ele>217</ele>
        <time>2011-06-19T08:38:29Z</time>
      </trkpt>
      <trkpt lat="45.78586" lon="4.86763">
        <ele>217</ele>
        <time>2011-06-19T08:38:30Z</time>
      </trkpt>
      <trkpt lat="45.78586" lon="4.86758">
        <ele>217</ele>
        <time>2011-06-19T08:38:31Z</time>
      </trkpt>
      <trkpt lat="45.78586" lon="4.86751">
        <ele>216</ele>
        <time>2011-06-19T08:38:32Z</time>
      </trkpt>
      <trkpt lat="45.78586" lon="4.86746">
        <ele>215</ele>
        <time>2011-06-19T08:38:33Z</time>
      </trkpt>
      <trkpt lat="45.78586" lon="4.86741">
        <ele>214</ele>
        <time>2011-06-19T08:38:34Z</time>
      </trkpt>
      <trkpt lat="45.78586" lon="4.86736">
        <ele>214</ele>
        <time>2011-06-19T08:38:35Z</time>
      </trkpt>
      <trkpt lat="45.78587" lon="4.86731">
        <ele>214</ele>
        <time>2011-06-19T08:38:36Z</time>
      </trkpt>
      <trkpt lat="45.78586" lon="4.86725">
        <ele>214</ele>
        <time>2011-06-19T08:38:37Z</time>
      </trkpt>
      <trkpt lat="45.78585" lon="4.86721">
        <ele>214</ele>
        <time>2011-06-19T08:38:38Z</time>
      </trkpt>
      <trkpt lat="45.78584" lon="4.86717">
        <ele>214</ele>
        <time>2011-06-19T08:38:40Z</time>
      </trkpt>
      <trkpt lat="45.78583" lon="4.86714">
        <ele>213</ele>
        <time>2011-06-19T08:38:40Z</time>
      </trkpt>
      <trkpt lat="45.78583" lon="4.86708">
        <ele>213</ele>
        <time>2011-06-19T08:38:41Z</time>
      </trkpt>
      <trkpt lat="45.78583" lon="4.86704">
        <ele>213</ele>
        <time>2011-06-19T08:38:42Z</time>
      </trkpt>
      <trkpt lat="45.78583" lon="4.867">
        <ele>214</ele>
        <time>2011-06-19T08:38:43Z</time>
      </trkpt>
      <trkpt lat="45.78582" lon="4.86695">
        <ele>214</ele>
        <time>2011-06-19T08:38:44Z</time>
      </trkpt>
      <trkpt lat="45.78581" lon="4.86692">
        <ele>214</ele>
        <time>2011-06-19T08:38:45Z</time>
      </trkpt>
      <trkpt lat="45.78581" lon="4.86687">
        <ele>214</ele>
        <time>2011-06-19T08:38:46Z</time>
      </trkpt>
      <trkpt lat="45.78576" lon="4.86683">
        <ele>214</ele>
        <time>2011-06-19T08:38:47Z</time>
      </trkpt>
      <trkpt lat="45.78575" lon="4.86679">
        <ele>214</ele>
        <time>2011-06-19T08:38:48Z</time>
      </trkpt>
      <trkpt lat="45.78573" lon="4.86676">
        <ele>214</ele>
        <time>2011-06-19T08:38:49Z</time>
      </trkpt>
      <trkpt lat="45.78573" lon="4.86671">
        <ele>215</ele>
        <time>2011-06-19T08:38:50Z</time>
      </trkpt>
      <trkpt lat="45.78573" lon="4.86668">
        <ele>214</ele>
        <time>2011-06-19T08:38:51Z</time>
      </trkpt>
      <trkpt lat="45.78572" lon="4.86665">
        <ele>214</ele>
        <time>2011-06-19T08:38:52Z</time>
      </trkpt>
      <trkpt lat="45.78572" lon="4.86661">
        <ele>213</ele>
        <time>2011-06-19T08:38:53Z</time>
      </trkpt>
      <trkpt lat="45.7857" lon="4.86657">
        <ele>213</ele>
        <time>2011-06-19T08:38:54Z</time>
      </trkpt>
      <trkpt lat="45.78569" lon="4.86655">
        <ele>213</ele>
        <time>2011-06-19T08:38:55Z</time>
      </trkpt>
      <trkpt lat="45.78569" lon="4.86651">
        <ele>213</ele>
        <time>2011-06-19T08:38:56Z</time>
      </trkpt>
      <trkpt lat="45.78568" lon="4.86648">
        <ele>212</ele>
        <time>2011-06-19T08:38:57Z</time>
      </trkpt>
      <trkpt lat="45.78568" lon="4.86643">
        <ele>212</ele>
        <time>2011-06-19T08:38:58Z</time>
      </trkpt>
      <trkpt lat="45.78568" lon="4.86639">
        <ele>212</ele>
        <time>2011-06-19T08:38:59Z</time>
      </trkpt>
      <trkpt lat="45.78567" lon="4.86632">
        <ele>212</ele>
        <time>2011-06-19T08:39:00Z</time>
      </trkpt>
      <trkpt lat="45.78566" lon="4.86628">
        <ele>212</ele>
        <time>2011-06-19T08:39:02Z</time>
      </trkpt>
      <trkpt lat="45.78565" lon="4.86627">
        <ele>212</ele>
        <time>2011-06-19T08:39:02Z</time>
      </trkpt>
      <trkpt lat="45.78565" lon="4.8662">
        <ele>212</ele>
        <time>2011-06-19T08:39:03Z</time>
      </trkpt>
      <trkpt lat="45.78565" lon="4.86615">
        <ele>212</ele>
        <time>2011-06-19T08:39:04Z</time>
      </trkpt>
      <trkpt lat="45.78565" lon="4.86609">
        <ele>212</ele>
        <time>2011-06-19T08:39:05Z</time>
      </trkpt>
      <trkpt lat="45.78566" lon="4.86605">
        <ele>212</ele>
        <time>2011-06-19T08:39:06Z</time>
      </trkpt>
      <trkpt lat="45.78566" lon="4.86602">
        <ele>213</ele>
        <time>2011-06-19T08:39:07Z</time>
      </trkpt>
      <trkpt lat="45.78564" lon="4.86599">
        <ele>213</ele>
        <time>2011-06-19T08:39:08Z</time>
      </trkpt>
      <trkpt lat="45.78562" lon="4.86595">
        <ele>214</ele>
        <time>2011-06-19T08:39:09Z</time>
      </trkpt>
      <trkpt lat="45.78561" lon="4.86591">
        <ele>214</ele>
        <time>2011-06-19T08:39:10Z</time>
      </trkpt>
      <trkpt lat="45.78559" lon="4.86587">
        <ele>214</ele>
        <time>2011-06-19T08:39:11Z</time>
      </trkpt>
      <trkpt lat="45.7856" lon="4.86582">
        <ele>214</ele>
        <time>2011-06-19T08:39:12Z</time>
      </trkpt>
      <trkpt lat="45.78558" lon="4.86578">
        <ele>214</ele>
        <time>2011-06-19T08:39:13Z</time>
      </trkpt>
      <trkpt lat="45.78557" lon="4.86574">
        <ele>213</ele>
        <time>2011-06-19T08:39:14Z</time>
      </trkpt>
      <trkpt lat="45.78556" lon="4.8657">
        <ele>213</ele>
        <time>2011-06-19T08:39:15Z</time>
      </trkpt>
      <trkpt lat="45.78555" lon="4.86565">
        <ele>212</ele>
        <time>2011-06-19T08:39:16Z</time>
      </trkpt>
      <trkpt lat="45.78554" lon="4.8656">
        <ele>212</ele>
        <time>2011-06-19T08:39:17Z</time>
      </trkpt>
      <trkpt lat="45.78555" lon="4.86557">
        <ele>212</ele>
        <time>2011-06-19T08:39:18Z</time>
      </trkpt>
      <trkpt lat="45.78554" lon="4.86551">
        <ele>213</ele>
        <time>2011-06-19T08:39:19Z</time>
      </trkpt>
      <trkpt lat="45.78551" lon="4.86548">
        <ele>213</ele>
        <time>2011-06-19T08:39:20Z</time>
      </trkpt>
      <trkpt lat="45.78548" lon="4.86543">
        <ele>212</ele>
        <time>2011-06-19T08:39:21Z</time>
      </trkpt>
      <trkpt lat="45.78547" lon="4.86538">
        <ele>212</ele>
        <time>2011-06-19T08:39:22Z</time>
      </trkpt>
      <trkpt lat="45.78547" lon="4.86532">
        <ele>212</ele>
        <time>2011-06-19T08:39:24Z</time>
      </trkpt>
      <trkpt lat="45.78547" lon="4.86531">
        <ele>211.72187805176</ele>
        <time>2011-06-19T08:39:24Z</time>
      </trkpt>
      <trkpt lat="45.78543" lon="4.86523">
        <ele>212</ele>
        <time>2011-06-19T08:39:25Z</time>
      </trkpt>
      <trkpt lat="45.78543" lon="4.86519">
        <ele>211</ele>
        <time>2011-06-19T08:39:26Z</time>
      </trkpt>
      <trkpt lat="45.78543" lon="4.86515">
        <ele>211</ele>
        <time>2011-06-19T08:39:27Z</time>
      </trkpt>
      <trkpt lat="45.78542" lon="4.86511">
        <ele>211</ele>
        <time>2011-06-19T08:39:28Z</time>
      </trkpt>
      <trkpt lat="45.7854" lon="4.86508">
        <ele>211</ele>
        <time>2011-06-19T08:39:29Z</time>
      </trkpt>
      <trkpt lat="45.7854" lon="4.86503">
        <ele>212</ele>
        <time>2011-06-19T08:39:30Z</time>
      </trkpt>
      <trkpt lat="45.78539" lon="4.865">
        <ele>212</ele>
        <time>2011-06-19T08:39:31Z</time>
      </trkpt>
      <trkpt lat="45.7854" lon="4.86496">
        <ele>212</ele>
        <time>2011-06-19T08:39:32Z</time>
      </trkpt>
      <trkpt lat="45.7854" lon="4.86492">
        <ele>212</ele>
        <time>2011-06-19T08:39:33Z</time>
      </trkpt>
      <trkpt lat="45.7854" lon="4.86489">
        <ele>211</ele>
        <time>2011-06-19T08:39:34Z</time>
      </trkpt>
      <trkpt lat="45.78539" lon="4.86485">
        <ele>212</ele>
        <time>2011-06-19T08:39:35Z</time>
      </trkpt>
      <trkpt lat="45.78539" lon="4.86482">
        <ele>212</ele>
        <time>2011-06-19T08:39:36Z</time>
      </trkpt>
      <trkpt lat="45.78542" lon="4.86478">
        <ele>212</ele>
        <time>2011-06-19T08:39:37Z</time>
      </trkpt>
      <trkpt lat="45.78543" lon="4.86474">
        <ele>211</ele>
        <time>2011-06-19T08:39:38Z</time>
      </trkpt>
      <trkpt lat="45.78543" lon="4.8647">
        <ele>211</ele>
        <time>2011-06-19T08:39:39Z</time>
      </trkpt>
      <trkpt lat="45.78544" lon="4.86466">
        <ele>211</ele>
        <time>2011-06-19T08:39:40Z</time>
      </trkpt>
      <trkpt lat="45.78546" lon="4.86463">
        <ele>211</ele>
        <time>2011-06-19T08:39:41Z</time>
      </trkpt>
      <trkpt lat="45.78547" lon="4.8646">
        <ele>210</ele>
        <time>2011-06-19T08:39:42Z</time>
      </trkpt>
      <trkpt lat="45.7855" lon="4.86458">
        <ele>209</ele>
        <time>2011-06-19T08:39:43Z</time>
      </trkpt>
      <trkpt lat="45.78552" lon="4.86455">
        <ele>209</ele>
        <time>2011-06-19T08:39:44Z</time>
      </trkpt>
      <trkpt lat="45.78554" lon="4.86451">
        <ele>209</ele>
        <time>2011-06-19T08:39:46Z</time>
      </trkpt>
      <trkpt lat="45.78556" lon="4.86449">
        <ele>209</ele>
        <time>2011-06-19T08:39:46Z</time>
      </trkpt>
      <trkpt lat="45.78557" lon="4.86443">
        <ele>209</ele>
        <time>2011-06-19T08:39:47Z</time>
      </trkpt>
      <trkpt lat="45.7856" lon="4.8644">
        <ele>210</ele>
        <time>2011-06-19T08:39:48Z</time>
      </trkpt>
      <trkpt lat="45.78562" lon="4.86437">
        <ele>211</ele>
        <time>2011-06-19T08:39:49Z</time>
      </trkpt>
      <trkpt lat="45.78564" lon="4.86433">
        <ele>210</ele>
        <time>2011-06-19T08:39:50Z</time>
      </trkpt>
      <trkpt lat="45.78566" lon="4.86429">
        <ele>210</ele>
        <time>2011-06-19T08:39:51Z</time>
      </trkpt>
      <trkpt lat="45.78568" lon="4.86425">
        <ele>210</ele>
        <time>2011-06-19T08:39:52Z</time>
      </trkpt>
      <trkpt lat="45.78569" lon="4.8642">
        <ele>210</ele>
        <time>2011-06-19T08:39:53Z</time>
      </trkpt>
      <trkpt lat="45.78571" lon="4.86416">
        <ele>211</ele>
        <time>2011-06-19T08:39:54Z</time>
      </trkpt>
      <trkpt lat="45.78572" lon="4.86412">
        <ele>212</ele>
        <time>2011-06-19T08:39:55Z</time>
      </trkpt>
      <trkpt lat="45.78574" lon="4.86409">
        <ele>212</ele>
        <time>2011-06-19T08:39:56Z</time>
      </trkpt>
      <trkpt lat="45.78575" lon="4.86405">
        <ele>212</ele>
        <time>2011-06-19T08:39:57Z</time>
      </trkpt>
      <trkpt lat="45.78576" lon="4.86401">
        <ele>213</ele>
        <time>2011-06-19T08:39:58Z</time>
      </trkpt>
      <trkpt lat="45.78579" lon="4.86397">
        <ele>213</ele>
        <time>2011-06-19T08:39:59Z</time>
      </trkpt>
      <trkpt lat="45.78579" lon="4.86392">
        <ele>213</ele>
        <time>2011-06-19T08:40:00Z</time>
      </trkpt>
      <trkpt lat="45.78581" lon="4.86389">
        <ele>213</ele>
        <time>2011-06-19T08:40:01Z</time>
      </trkpt>
      <trkpt lat="45.78582" lon="4.86384">
        <ele>213</ele>
        <time>2011-06-19T08:40:02Z</time>
      </trkpt>
      <trkpt lat="45.78582" lon="4.8638">
        <ele>214</ele>
        <time>2011-06-19T08:40:03Z</time>
      </trkpt>
      <trkpt lat="45.78582" lon="4.86375">
        <ele>213</ele>
        <time>2011-06-19T08:40:04Z</time>
      </trkpt>
      <trkpt lat="45.78581" lon="4.86371">
        <ele>213</ele>
        <time>2011-06-19T08:40:05Z</time>
      </trkpt>
      <trkpt lat="45.78582" lon="4.86367">
        <ele>213</ele>
        <time>2011-06-19T08:40:06Z</time>
      </trkpt>
      <trkpt lat="45.78582" lon="4.86362">
        <ele>213</ele>
        <time>2011-06-19T08:40:08Z</time>
      </trkpt>
      <trkpt lat="45.78582" lon="4.8636">
        <ele>213</ele>
        <time>2011-06-19T08:40:08Z</time>
      </trkpt>
      <trkpt lat="45.78581" lon="4.86353">
        <ele>212</ele>
        <time>2011-06-19T08:40:09Z</time>
      </trkpt>
      <trkpt lat="45.78582" lon="4.86349">
        <ele>212</ele>
        <time>2011-06-19T08:40:10Z</time>
      </trkpt>
      <trkpt lat="45.78582" lon="4.86345">
        <ele>212</ele>
        <time>2011-06-19T08:40:11Z</time>
      </trkpt>
      <trkpt lat="45.78583" lon="4.8634">
        <ele>212</ele>
        <time>2011-06-19T08:40:12Z</time>
      </trkpt>
      <trkpt lat="45.78583" lon="4.86336">
        <ele>212</ele>
        <time>2011-06-19T08:40:13Z</time>
      </trkpt>
      <trkpt lat="45.78584" lon="4.86333">
        <ele>212</ele>
        <time>2011-06-19T08:40:14Z</time>
      </trkpt>
      <trkpt lat="45.78586" lon="4.86328">
        <ele>213</ele>
        <time>2011-06-19T08:40:15Z</time>
      </trkpt>
      <trkpt lat="45.78587" lon="4.86325">
        <ele>212</ele>
        <time>2011-06-19T08:40:16Z</time>
      </trkpt>
      <trkpt lat="45.78587" lon="4.86322">
        <ele>212</ele>
        <time>2011-06-19T08:40:17Z</time>
      </trkpt>
      <trkpt lat="45.78588" lon="4.86318">
        <ele>212</ele>
        <time>2011-06-19T08:40:18Z</time>
      </trkpt>
      <trkpt lat="45.78589" lon="4.86314">
        <ele>213</ele>
        <time>2011-06-19T08:40:19Z</time>
      </trkpt>
      <trkpt lat="45.78589" lon="4.86309">
        <ele>212</ele>
        <time>2011-06-19T08:40:20Z</time>
      </trkpt>
      <trkpt lat="45.78591" lon="4.86305">
        <ele>212</ele>
        <time>2011-06-19T08:40:21Z</time>
      </trkpt>
      <trkpt lat="45.78591" lon="4.86301">
        <ele>213</ele>
        <time>2011-06-19T08:40:22Z</time>
      </trkpt>
      <trkpt lat="45.78592" lon="4.86295">
        <ele>213</ele>
        <time>2011-06-19T08:40:23Z</time>
      </trkpt>
      <trkpt lat="45.78591" lon="4.8629">
        <ele>213</ele>
        <time>2011-06-19T08:40:24Z</time>
      </trkpt>
      <trkpt lat="45.78592" lon="4.86285">
        <ele>213</ele>
        <time>2011-06-19T08:40:25Z</time>
      </trkpt>
      <trkpt lat="45.78594" lon="4.8628">
        <ele>213</ele>
        <time>2011-06-19T08:40:26Z</time>
      </trkpt>
      <trkpt lat="45.78596" lon="4.86275">
        <ele>213</ele>
        <time>2011-06-19T08:40:27Z</time>
      </trkpt>
      <trkpt lat="45.78595" lon="4.86272">
        <ele>213</ele>
        <time>2011-06-19T08:40:28Z</time>
      </trkpt>
      <trkpt lat="45.78597" lon="4.86267">
        <ele>213</ele>
        <time>2011-06-19T08:40:30Z</time>
      </trkpt>
      <trkpt lat="45.78597" lon="4.86265">
        <ele>213</ele>
        <time>2011-06-19T08:40:30Z</time>
      </trkpt>
      <trkpt lat="45.78599" lon="4.86258">
        <ele>213</ele>
        <time>2011-06-19T08:40:31Z</time>
      </trkpt>
      <trkpt lat="45.78601" lon="4.86254">
        <ele>213</ele>
        <time>2011-06-19T08:40:32Z</time>
      </trkpt>
      <trkpt lat="45.78602" lon="4.8625">
        <ele>213</ele>
        <time>2011-06-19T08:40:33Z</time>
      </trkpt>
      <trkpt lat="45.78604" lon="4.86245">
        <ele>213</ele>
        <time>2011-06-19T08:40:34Z</time>
      </trkpt>
      <trkpt lat="45.78604" lon="4.86241">
        <ele>213</ele>
        <time>2011-06-19T08:40:35Z</time>
      </trkpt>
      <trkpt lat="45.78606" lon="4.86236">
        <ele>213</ele>
        <time>2011-06-19T08:40:36Z</time>
      </trkpt>
      <trkpt lat="45.78606" lon="4.86231">
        <ele>214</ele>
        <time>2011-06-19T08:40:37Z</time>
      </trkpt>
      <trkpt lat="45.78607" lon="4.86226">
        <ele>213</ele>
        <time>2011-06-19T08:40:38Z</time>
      </trkpt>
      <trkpt lat="45.78608" lon="4.86221">
        <ele>213</ele>
        <time>2011-06-19T08:40:39Z</time>
      </trkpt>
      <trkpt lat="45.78609" lon="4.86217">
        <ele>213</ele>
        <time>2011-06-19T08:40:40Z</time>
      </trkpt>
      <trkpt lat="45.7861" lon="4.86213">
        <ele>213</ele>
        <time>2011-06-19T08:40:41Z</time>
      </trkpt>
      <trkpt lat="45.78611" lon="4.86208">
        <ele>213</ele>
        <time>2011-06-19T08:40:42Z</time>
      </trkpt>
      <trkpt lat="45.78611" lon="4.86204">
        <ele>213</ele>
        <time>2011-06-19T08:40:43Z</time>
      </trkpt>
      <trkpt lat="45.78611" lon="4.862">
        <ele>213</ele>
        <time>2011-06-19T08:40:44Z</time>
      </trkpt>
      <trkpt lat="45.78611" lon="4.86195">
        <ele>214</ele>
        <time>2011-06-19T08:40:45Z</time>
      </trkpt>
      <trkpt lat="45.78611" lon="4.86191">
        <ele>214</ele>
        <time>2011-06-19T08:40:46Z</time>
      </trkpt>
      <trkpt lat="45.78612" lon="4.86186">
        <ele>214</ele>
        <time>2011-06-19T08:40:47Z</time>
      </trkpt>
      <trkpt lat="45.78612" lon="4.86181">
        <ele>214</ele>
        <time>2011-06-19T08:40:48Z</time>
      </trkpt>
      <trkpt lat="45.78613" lon="4.86178">
        <ele>214</ele>
        <time>2011-06-19T08:40:49Z</time>
      </trkpt>
      <trkpt lat="45.78616" lon="4.86173">
        <ele>213</ele>
        <time>2011-06-19T08:40:50Z</time>
      </trkpt>
      <trkpt lat="45.78617" lon="4.86169">
        <ele>213</ele>
        <time>2011-06-19T08:40:52Z</time>
      </trkpt>
      <trkpt lat="45.78617" lon="4.86168">
        <ele>213</ele>
        <time>2011-06-19T08:40:52Z</time>
      </trkpt>
      <trkpt lat="45.78619" lon="4.8616">
        <ele>213</ele>
        <time>2011-06-19T08:40:53Z</time>
      </trkpt>
      <trkpt lat="45.7862" lon="4.86156">
        <ele>213</ele>
        <time>2011-06-19T08:40:54Z</time>
      </trkpt>
      <trkpt lat="45.7862" lon="4.86151">
        <ele>213</ele>
        <time>2011-06-19T08:40:55Z</time>
      </trkpt>
      <trkpt lat="45.78621" lon="4.86147">
        <ele>213</ele>
        <time>2011-06-19T08:40:56Z</time>
      </trkpt>
      <trkpt lat="45.78622" lon="4.86143">
        <ele>213</ele>
        <time>2011-06-19T08:40:57Z</time>
      </trkpt>
      <trkpt lat="45.7862" lon="4.86139">
        <ele>213</ele>
        <time>2011-06-19T08:40:58Z</time>
      </trkpt>
      <trkpt lat="45.78619" lon="4.86134">
        <ele>213</ele>
        <time>2011-06-19T08:40:59Z</time>
      </trkpt>
      <trkpt lat="45.7862" lon="4.86129">
        <ele>215</ele>
        <time>2011-06-19T08:41:00Z</time>
      </trkpt>
      <trkpt lat="45.7862" lon="4.86126">
        <ele>215</ele>
        <time>2011-06-19T08:41:01Z</time>
      </trkpt>
      <trkpt lat="45.7862" lon="4.86121">
        <ele>215</ele>
        <time>2011-06-19T08:41:02Z</time>
      </trkpt>
      <trkpt lat="45.78619" lon="4.86117">
        <ele>216</ele>
        <time>2011-06-19T08:41:03Z</time>
      </trkpt>
      <trkpt lat="45.78619" lon="4.86113">
        <ele>216</ele>
        <time>2011-06-19T08:41:04Z</time>
      </trkpt>
      <trkpt lat="45.78619" lon="4.86109">
        <ele>215</ele>
        <time>2011-06-19T08:41:05Z</time>
      </trkpt>
      <trkpt lat="45.78619" lon="4.86104">
        <ele>216</ele>
        <time>2011-06-19T08:41:06Z</time>
      </trkpt>
      <trkpt lat="45.78619" lon="4.861">
        <ele>216</ele>
        <time>2011-06-19T08:41:07Z</time>
      </trkpt>
      <trkpt lat="45.78619" lon="4.86096">
        <ele>216</ele>
        <time>2011-06-19T08:41:08Z</time>
      </trkpt>
      <trkpt lat="45.7862" lon="4.86092">
        <ele>216</ele>
        <time>2011-06-19T08:41:09Z</time>
      </trkpt>
      <trkpt lat="45.7862" lon="4.86088">
        <ele>215</ele>
        <time>2011-06-19T08:41:10Z</time>
      </trkpt>
      <trkpt lat="45.7862" lon="4.86083">
        <ele>216</ele>
        <time>2011-06-19T08:41:11Z</time>
      </trkpt>
      <trkpt lat="45.78619" lon="4.86077">
        <ele>217</ele>
        <time>2011-06-19T08:41:12Z</time>
      </trkpt>
      <trkpt lat="45.7862" lon="4.86074">
        <ele>218</ele>
        <time>2011-06-19T08:41:14Z</time>
      </trkpt>
      <trkpt lat="45.78621" lon="4.86072">
        <ele>218.27983093262</ele>
        <time>2011-06-19T08:41:14Z</time>
      </trkpt>
      <trkpt lat="45.78621" lon="4.86065">
        <ele>219</ele>
        <time>2011-06-19T08:41:15Z</time>
      </trkpt>
      <trkpt lat="45.78621" lon="4.86061">
        <ele>220</ele>
        <time>2011-06-19T08:41:16Z</time>
      </trkpt>
      <trkpt lat="45.78622" lon="4.86058">
        <ele>219</ele>
        <time>2011-06-19T08:41:18Z</time>
      </trkpt>
      <trkpt lat="45.78621" lon="4.86054">
        <ele>219</ele>
        <time>2011-06-19T08:41:18Z</time>
      </trkpt>
      <trkpt lat="45.78622" lon="4.86051">
        <ele>219</ele>
        <time>2011-06-19T08:41:19Z</time>
      </trkpt>
      <trkpt lat="45.78623" lon="4.86047">
        <ele>219</ele>
        <time>2011-06-19T08:41:20Z</time>
      </trkpt>
      <trkpt lat="45.78623" lon="4.86045">
        <ele>219</ele>
        <time>2011-06-19T08:41:21Z</time>
      </trkpt>
      <trkpt lat="45.78623" lon="4.86041">
        <ele>219</ele>
        <time>2011-06-19T08:41:23Z</time>
      </trkpt>
      <trkpt lat="45.78623" lon="4.86037">
        <ele>219</ele>
        <time>2011-06-19T08:41:23Z</time>
      </trkpt>
      <trkpt lat="45.78623" lon="4.86034">
        <ele>219</ele>
        <time>2011-06-19T08:41:24Z</time>
      </trkpt>
      <trkpt lat="45.78623" lon="4.86028">
        <ele>218</ele>
        <time>2011-06-19T08:41:25Z</time>
      </trkpt>
      <trkpt lat="45.78624" lon="4.86024">
        <ele>218</ele>
        <time>2011-06-19T08:41:26Z</time>
      </trkpt>
      <trkpt lat="45.78624" lon="4.8602">
        <ele>219</ele>
        <time>2011-06-19T08:41:27Z</time>
      </trkpt>
      <trkpt lat="45.78626" lon="4.86016">
        <ele>219</ele>
        <time>2011-06-19T08:41:28Z</time>
      </trkpt>
      <trkpt lat="45.78626" lon="4.86013">
        <ele>219</ele>
        <time>2011-06-19T08:41:29Z</time>
      </trkpt>
      <trkpt lat="45.78627" lon="4.86011">
        <ele>220</ele>
        <time>2011-06-19T08:41:30Z</time>
      </trkpt>
      <trkpt lat="45.78626" lon="4.8601">
        <ele>221</ele>
        <time>2011-06-19T08:41:31Z</time>
      </trkpt>
      <trkpt lat="45.78625" lon="4.86009">
        <ele>221</ele>
        <time>2011-06-19T08:41:32Z</time>
      </trkpt>
      <trkpt lat="45.78625" lon="4.86009">
        <ele>222</ele>
        <time>2011-06-19T08:41:33Z</time>
      </trkpt>
      <trkpt lat="45.78627" lon="4.86006">
        <ele>222</ele>
        <time>2011-06-19T08:41:34Z</time>
      </trkpt>
      <trkpt lat="45.78629" lon="4.86001">
        <ele>222</ele>
        <time>2011-06-19T08:41:36Z</time>
      </trkpt>
      <trkpt lat="45.78629" lon="4.85997">
        <ele>221.23049926758</ele>
        <time>2011-06-19T08:41:36Z</time>
      </trkpt>
      <trkpt lat="45.78629" lon="4.85986">
        <ele>219.47442626953</ele>
        <time>2011-06-19T08:41:37Z</time>
      </trkpt>
      <trkpt lat="45.78631" lon="4.85977">
        <ele>219</ele>
        <time>2011-06-19T08:41:38Z</time>
      </trkpt>
      <trkpt lat="45.78632" lon="4.85972">
        <ele>219</ele>
        <time>2011-06-19T08:41:39Z</time>
      </trkpt>
      <trkpt lat="45.78633" lon="4.85965">
        <ele>218</ele>
        <time>2011-06-19T08:41:40Z</time>
      </trkpt>
      <trkpt lat="45.78634" lon="4.8596">
        <ele>218</ele>
        <time>2011-06-19T08:41:41Z</time>
      </trkpt>
      <trkpt lat="45.78634" lon="4.85955">
        <ele>219</ele>
        <time>2011-06-19T08:41:42Z</time>
      </trkpt>
      <trkpt lat="45.78635" lon="4.85952">
        <ele>219</ele>
        <time>2011-06-19T08:41:43Z</time>
      </trkpt>
      <trkpt lat="45.78633" lon="4.85948">
        <ele>219</ele>
        <time>2011-06-19T08:41:44Z</time>
      </trkpt>
      <trkpt lat="45.78632" lon="4.85944">
        <ele>218</ele>
        <time>2011-06-19T08:41:45Z</time>
      </trkpt>
      <trkpt lat="45.7863" lon="4.8594">
        <ele>217</ele>
        <time>2011-06-19T08:41:46Z</time>
      </trkpt>
      <trkpt lat="45.7863" lon="4.85935">
        <ele>217</ele>
        <time>2011-06-19T08:41:47Z</time>
      </trkpt>
      <trkpt lat="45.7863" lon="4.85931">
        <ele>217</ele>
        <time>2011-06-19T08:41:48Z</time>
      </trkpt>
      <trkpt lat="45.7863" lon="4.85926">
        <ele>216</ele>
        <time>2011-06-19T08:41:49Z</time>
      </trkpt>
      <trkpt lat="45.7863" lon="4.85922">
        <ele>215</ele>
        <time>2011-06-19T08:41:50Z</time>
      </trkpt>
      <trkpt lat="45.7863" lon="4.85917">
        <ele>215</ele>
        <time>2011-06-19T08:41:51Z</time>
      </trkpt>
      <trkpt lat="45.78632" lon="4.85912">
        <ele>216</ele>
        <time>2011-06-19T08:41:52Z</time>
      </trkpt>
      <trkpt lat="45.78632" lon="4.85907">
        <ele>215</ele>
        <time>2011-06-19T08:41:53Z</time>
      </trkpt>
      <trkpt lat="45.78633" lon="4.85903">
        <ele>214</ele>
        <time>2011-06-19T08:41:54Z</time>
      </trkpt>
      <trkpt lat="45.78633" lon="4.859">
        <ele>214</ele>
        <time>2011-06-19T08:41:55Z</time>
      </trkpt>
      <trkpt lat="45.78633" lon="4.85896">
        <ele>213</ele>
        <time>2011-06-19T08:41:56Z</time>
      </trkpt>
      <trkpt lat="45.78633" lon="4.85891">
        <ele>213</ele>
        <time>2011-06-19T08:41:58Z</time>
      </trkpt>
      <trkpt lat="45.78633" lon="4.85891">
        <ele>212.85935974121</ele>
        <time>2011-06-19T08:41:58Z</time>
      </trkpt>
      <trkpt lat="45.78634" lon="4.85883">
        <ele>212</ele>
        <time>2011-06-19T08:41:59Z</time>
      </trkpt>
      <trkpt lat="45.78634" lon="4.85878">
        <ele>212</ele>
        <time>2011-06-19T08:42:00Z</time>
      </trkpt>
      <trkpt lat="45.78635" lon="4.85874">
        <ele>212</ele>
        <time>2011-06-19T08:42:01Z</time>
      </trkpt>
      <trkpt lat="45.78635" lon="4.8587">
        <ele>212</ele>
        <time>2011-06-19T08:42:02Z</time>
      </trkpt>
      <trkpt lat="45.78636" lon="4.85865">
        <ele>212</ele>
        <time>2011-06-19T08:42:03Z</time>
      </trkpt>
      <trkpt lat="45.78636" lon="4.8586">
        <ele>212</ele>
        <time>2011-06-19T08:42:04Z</time>
      </trkpt>
      <trkpt lat="45.78636" lon="4.85856">
        <ele>212</ele>
        <time>2011-06-19T08:42:05Z</time>
      </trkpt>
      <trkpt lat="45.78636" lon="4.85851">
        <ele>212</ele>
        <time>2011-06-19T08:42:06Z</time>
      </trkpt>
      <trkpt lat="45.78636" lon="4.85847">
        <ele>212</ele>
        <time>2011-06-19T08:42:07Z</time>
      </trkpt>
      <trkpt lat="45.78636" lon="4.85842">
        <ele>212</ele>
        <time>2011-06-19T08:42:08Z</time>
      </trkpt>
      <trkpt lat="45.78636" lon="4.85838">
        <ele>211</ele>
        <time>2011-06-19T08:42:09Z</time>
      </trkpt>
      <trkpt lat="45.78637" lon="4.85834">
        <ele>211</ele>
        <time>2011-06-19T08:42:10Z</time>
      </trkpt>
      <trkpt lat="45.78637" lon="4.85831">
        <ele>211</ele>
        <time>2011-06-19T08:42:11Z</time>
      </trkpt>
      <trkpt lat="45.78636" lon="4.85825">
        <ele>211</ele>
        <time>2011-06-19T08:42:12Z</time>
      </trkpt>
      <trkpt lat="45.78635" lon="4.85822">
        <ele>211</ele>
        <time>2011-06-19T08:42:13Z</time>
      </trkpt>
      <trkpt lat="45.78635" lon="4.85817">
        <ele>211</ele>
        <time>2011-06-19T08:42:14Z</time>
      </trkpt>
      <trkpt lat="45.78635" lon="4.85813">
        <ele>211</ele>
        <time>2011-06-19T08:42:15Z</time>
      </trkpt>
      <trkpt lat="45.78635" lon="4.85809">
        <ele>211</ele>
        <time>2011-06-19T08:42:16Z</time>
      </trkpt>
      <trkpt lat="45.78635" lon="4.85805">
        <ele>211</ele>
        <time>2011-06-19T08:42:17Z</time>
      </trkpt>
      <trkpt lat="45.78636" lon="4.858">
        <ele>212</ele>
        <time>2011-06-19T08:42:18Z</time>
      </trkpt>
      <trkpt lat="45.78637" lon="4.85795">
        <ele>212</ele>
        <time>2011-06-19T08:42:20Z</time>
      </trkpt>
      <trkpt lat="45.78638" lon="4.85792">
        <ele>211.35279846191</ele>
        <time>2011-06-19T08:42:20Z</time>
      </trkpt>
      <trkpt lat="45.78638" lon="4.85784">
        <ele>211</ele>
        <time>2011-06-19T08:42:21Z</time>
      </trkpt>
      <trkpt lat="45.78638" lon="4.8578">
        <ele>211</ele>
        <time>2011-06-19T08:42:22Z</time>
      </trkpt>
      <trkpt lat="45.78639" lon="4.85775">
        <ele>211</ele>
        <time>2011-06-19T08:42:23Z</time>
      </trkpt>
      <trkpt lat="45.7864" lon="4.85771">
        <ele>211</ele>
        <time>2011-06-19T08:42:24Z</time>
      </trkpt>
      <trkpt lat="45.7864" lon="4.85766">
        <ele>211</ele>
        <time>2011-06-19T08:42:25Z</time>
      </trkpt>
      <trkpt lat="45.7864" lon="4.85762">
        <ele>211</ele>
        <time>2011-06-19T08:42:26Z</time>
      </trkpt>
      <trkpt lat="45.78641" lon="4.85757">
        <ele>211</ele>
        <time>2011-06-19T08:42:27Z</time>
      </trkpt>
      <trkpt lat="45.78641" lon="4.85753">
        <ele>211</ele>
        <time>2011-06-19T08:42:28Z</time>
      </trkpt>
      <trkpt lat="45.78641" lon="4.85749">
        <ele>212</ele>
        <time>2011-06-19T08:42:29Z</time>
      </trkpt>
      <trkpt lat="45.78642" lon="4.85745">
        <ele>211</ele>
        <time>2011-06-19T08:42:30Z</time>
      </trkpt>
      <trkpt lat="45.78642" lon="4.8574">
        <ele>211</ele>
        <time>2011-06-19T08:42:31Z</time>
      </trkpt>
      <trkpt lat="45.78642" lon="4.85736">
        <ele>211</ele>
        <time>2011-06-19T08:42:32Z</time>
      </trkpt>
      <trkpt lat="45.78642" lon="4.8573">
        <ele>212</ele>
        <time>2011-06-19T08:42:33Z</time>
      </trkpt>
      <trkpt lat="45.78642" lon="4.85726">
        <ele>212</ele>
        <time>2011-06-19T08:42:34Z</time>
      </trkpt>
      <trkpt lat="45.78643" lon="4.85722">
        <ele>212</ele>
        <time>2011-06-19T08:42:35Z</time>
      </trkpt>
      <trkpt lat="45.78642" lon="4.85717">
        <ele>212</ele>
        <time>2011-06-19T08:42:36Z</time>
      </trkpt>
      <trkpt lat="45.78643" lon="4.85714">
        <ele>212</ele>
        <time>2011-06-19T08:42:37Z</time>
      </trkpt>
      <trkpt lat="45.78642" lon="4.85708">
        <ele>213</ele>
        <time>2011-06-19T08:42:38Z</time>
      </trkpt>
      <trkpt lat="45.78643" lon="4.85704">
        <ele>212</ele>
        <time>2011-06-19T08:42:39Z</time>
      </trkpt>
      <trkpt lat="45.78642" lon="4.85699">
        <ele>212</ele>
        <time>2011-06-19T08:42:40Z</time>
      </trkpt>
      <trkpt lat="45.78643" lon="4.85694">
        <ele>213</ele>
        <time>2011-06-19T08:42:42Z</time>
      </trkpt>
      <trkpt lat="45.78643" lon="4.85692">
        <ele>213</ele>
        <time>2011-06-19T08:42:42Z</time>
      </trkpt>
      <trkpt lat="45.78642" lon="4.85685">
        <ele>213</ele>
        <time>2011-06-19T08:42:43Z</time>
      </trkpt>
      <trkpt lat="45.7864" lon="4.85682">
        <ele>213</ele>
        <time>2011-06-19T08:42:44Z</time>
      </trkpt>
      <trkpt lat="45.78639" lon="4.85677">
        <ele>213</ele>
        <time>2011-06-19T08:42:45Z</time>
      </trkpt>
      <trkpt lat="45.78639" lon="4.85673">
        <ele>213</ele>
        <time>2011-06-19T08:42:46Z</time>
      </trkpt>
      <trkpt lat="45.78639" lon="4.85669">
        <ele>214</ele>
        <time>2011-06-19T08:42:47Z</time>
      </trkpt>
      <trkpt lat="45.78639" lon="4.85665">
        <ele>214</ele>
        <time>2011-06-19T08:42:48Z</time>
      </trkpt>
      <trkpt lat="45.78639" lon="4.85661">
        <ele>214</ele>
        <time>2011-06-19T08:42:49Z</time>
      </trkpt>
      <trkpt lat="45.78638" lon="4.85657">
        <ele>215</ele>
        <time>2011-06-19T08:42:50Z</time>
      </trkpt>
      <trkpt lat="45.78636" lon="4.85655">
        <ele>215</ele>
        <time>2011-06-19T08:42:51Z</time>
      </trkpt>
      <trkpt lat="45.78634" lon="4.8565">
        <ele>216</ele>
        <time>2011-06-19T08:42:52Z</time>
      </trkpt>
      <trkpt lat="45.78633" lon="4.85645">
        <ele>216</ele>
        <time>2011-06-19T08:42:53Z</time>
      </trkpt>
      <trkpt lat="45.78634" lon="4.8564">
        <ele>215</ele>
        <time>2011-06-19T08:42:54Z</time>
      </trkpt>
      <trkpt lat="45.78634" lon="4.85635">
        <ele>214</ele>
        <time>2011-06-19T08:42:55Z</time>
      </trkpt>
      <trkpt lat="45.78634" lon="4.85629">
        <ele>214</ele>
        <time>2011-06-19T08:42:56Z</time>
      </trkpt>
      <trkpt lat="45.78635" lon="4.85626">
        <ele>213</ele>
        <time>2011-06-19T08:42:57Z</time>
      </trkpt>
      <trkpt lat="45.78635" lon="4.8562">
        <ele>212</ele>
        <time>2011-06-19T08:42:58Z</time>
      </trkpt>
      <trkpt lat="45.78634" lon="4.85615">
        <ele>211</ele>
        <time>2011-06-19T08:42:59Z</time>
      </trkpt>
      <trkpt lat="45.78635" lon="4.85612">
        <ele>211</ele>
        <time>2011-06-19T08:43:00Z</time>
      </trkpt>
      <trkpt lat="45.78634" lon="4.85608">
        <ele>211</ele>
        <time>2011-06-19T08:43:01Z</time>
      </trkpt>
      <trkpt lat="45.78633" lon="4.85603">
        <ele>211</ele>
        <time>2011-06-19T08:43:02Z</time>
      </trkpt>
      <trkpt lat="45.78633" lon="4.85599">
        <ele>211</ele>
        <time>2011-06-19T08:43:04Z</time>
      </trkpt>
      <trkpt lat="45.78633" lon="4.85599">
        <ele>211</ele>
        <time>2011-06-19T08:43:04Z</time>
      </trkpt>
      <trkpt lat="45.78632" lon="4.85593">
        <ele>211.60565185547</ele>
        <time>2011-06-19T08:43:05Z</time>
      </trkpt>
      <trkpt lat="45.78631" lon="4.85586">
        <ele>212</ele>
        <time>2011-06-19T08:43:06Z</time>
      </trkpt>
      <trkpt lat="45.78629" lon="4.85581">
        <ele>212</ele>
        <time>2011-06-19T08:43:07Z</time>
      </trkpt>
      <trkpt lat="45.78629" lon="4.85577">
        <ele>212</ele>
        <time>2011-06-19T08:43:08Z</time>
      </trkpt>
      <trkpt lat="45.78628" lon="4.85572">
        <ele>212</ele>
        <time>2011-06-19T08:43:09Z</time>
      </trkpt>
      <trkpt lat="45.78626" lon="4.85568">
        <ele>212</ele>
        <time>2011-06-19T08:43:10Z</time>
      </trkpt>
      <trkpt lat="45.78625" lon="4.85565">
        <ele>212</ele>
        <time>2011-06-19T08:43:11Z</time>
      </trkpt>
      <trkpt lat="45.78625" lon="4.8556">
        <ele>212</ele>
        <time>2011-06-19T08:43:12Z</time>
      </trkpt>
      <trkpt lat="45.78626" lon="4.85555">
        <ele>212</ele>
        <time>2011-06-19T08:43:13Z</time>
      </trkpt>
      <trkpt lat="45.78626" lon="4.85552">
        <ele>213</ele>
        <time>2011-06-19T08:43:14Z</time>
      </trkpt>
      <trkpt lat="45.78626" lon="4.85548">
        <ele>213</ele>
        <time>2011-06-19T08:43:15Z</time>
      </trkpt>
      <trkpt lat="45.78625" lon="4.85543">
        <ele>213</ele>
        <time>2011-06-19T08:43:16Z</time>
      </trkpt>
      <trkpt lat="45.78626" lon="4.85539">
        <ele>213</ele>
        <time>2011-06-19T08:43:17Z</time>
      </trkpt>
      <trkpt lat="45.78626" lon="4.85536">
        <ele>213</ele>
        <time>2011-06-19T08:43:18Z</time>
      </trkpt>
      <trkpt lat="45.78626" lon="4.85533">
        <ele>214</ele>
        <time>2011-06-19T08:43:19Z</time>
      </trkpt>
      <trkpt lat="45.78624" lon="4.85529">
        <ele>214</ele>
        <time>2011-06-19T08:43:20Z</time>
      </trkpt>
      <trkpt lat="45.78624" lon="4.85524">
        <ele>214</ele>
        <time>2011-06-19T08:43:21Z</time>
      </trkpt>
      <trkpt lat="45.78625" lon="4.8552">
        <ele>214</ele>
        <time>2011-06-19T08:43:22Z</time>
      </trkpt>
      <trkpt lat="45.78624" lon="4.85514">
        <ele>214</ele>
        <time>2011-06-19T08:43:23Z</time>
      </trkpt>
      <trkpt lat="45.78623" lon="4.8551">
        <ele>213</ele>
        <time>2011-06-19T08:43:24Z</time>
      </trkpt>
      <trkpt lat="45.78623" lon="4.85505">
        <ele>213</ele>
        <time>2011-06-19T08:43:26Z</time>
      </trkpt>
      <trkpt lat="45.78623" lon="4.85502">
        <ele>213</ele>
        <time>2011-06-19T08:43:26Z</time>
      </trkpt>
      <trkpt lat="45.78621" lon="4.85495">
        <ele>213</ele>
        <time>2011-06-19T08:43:27Z</time>
      </trkpt>
      <trkpt lat="45.78621" lon="4.85489">
        <ele>212</ele>
        <time>2011-06-19T08:43:28Z</time>
      </trkpt>
      <trkpt lat="45.7862" lon="4.85484">
        <ele>212</ele>
        <time>2011-06-19T08:43:29Z</time>
      </trkpt>
      <trkpt lat="45.7862" lon="4.8548">
        <ele>212</ele>
        <time>2011-06-19T08:43:30Z</time>
      </trkpt>
      <trkpt lat="45.78619" lon="4.85474">
        <ele>211</ele>
        <time>2011-06-19T08:43:31Z</time>
      </trkpt>
      <trkpt lat="45.7862" lon="4.8547">
        <ele>211</ele>
        <time>2011-06-19T08:43:32Z</time>
      </trkpt>
      <trkpt lat="45.78621" lon="4.85466">
        <ele>210</ele>
        <time>2011-06-19T08:43:33Z</time>
      </trkpt>
      <trkpt lat="45.7862" lon="4.85462">
        <ele>211</ele>
        <time>2011-06-19T08:43:34Z</time>
      </trkpt>
      <trkpt lat="45.78618" lon="4.85457">
        <ele>210</ele>
        <time>2011-06-19T08:43:35Z</time>
      </trkpt>
      <trkpt lat="45.78617" lon="4.85452">
        <ele>209</ele>
        <time>2011-06-19T08:43:36Z</time>
      </trkpt>
      <trkpt lat="45.78617" lon="4.85447">
        <ele>208</ele>
        <time>2011-06-19T08:43:37Z</time>
      </trkpt>
      <trkpt lat="45.78616" lon="4.85442">
        <ele>207</ele>
        <time>2011-06-19T08:43:38Z</time>
      </trkpt>
      <trkpt lat="45.78616" lon="4.85437">
        <ele>207</ele>
        <time>2011-06-19T08:43:39Z</time>
      </trkpt>
      <trkpt lat="45.78615" lon="4.85433">
        <ele>207</ele>
        <time>2011-06-19T08:43:40Z</time>
      </trkpt>
      <trkpt lat="45.78614" lon="4.85429">
        <ele>207</ele>
        <time>2011-06-19T08:43:41Z</time>
      </trkpt>
      <trkpt lat="45.78613" lon="4.85424">
        <ele>207</ele>
        <time>2011-06-19T08:43:42Z</time>
      </trkpt>
      <trkpt lat="45.78612" lon="4.8542">
        <ele>207</ele>
        <time>2011-06-19T08:43:43Z</time>
      </trkpt>
      <trkpt lat="45.78611" lon="4.85416">
        <ele>207</ele>
        <time>2011-06-19T08:43:44Z</time>
      </trkpt>
      <trkpt lat="45.78607" lon="4.85413">
        <ele>208</ele>
        <time>2011-06-19T08:43:45Z</time>
      </trkpt>
      <trkpt lat="45.78606" lon="4.85409">
        <ele>207</ele>
        <time>2011-06-19T08:43:46Z</time>
      </trkpt>
      <trkpt lat="45.78604" lon="4.85405">
        <ele>207</ele>
        <time>2011-06-19T08:43:48Z</time>
      </trkpt>
      <trkpt lat="45.78604" lon="4.85405">
        <ele>207</ele>
        <time>2011-06-19T08:43:48Z</time>
      </trkpt>
      <trkpt lat="45.78602" lon="4.85397">
        <ele>207</ele>
        <time>2011-06-19T08:43:49Z</time>
      </trkpt>
      <trkpt lat="45.78602" lon="4.85393">
        <ele>208</ele>
        <time>2011-06-19T08:43:50Z</time>
      </trkpt>
      <trkpt lat="45.78602" lon="4.85388">
        <ele>208</ele>
        <time>2011-06-19T08:43:51Z</time>
      </trkpt>
      <trkpt lat="45.78601" lon="4.85384">
        <ele>208</ele>
        <time>2011-06-19T08:43:52Z</time>
      </trkpt>
      <trkpt lat="45.78599" lon="4.8538">
        <ele>208</ele>
        <time>2011-06-19T08:43:53Z</time>
      </trkpt>
      <trkpt lat="45.78599" lon="4.85374">
        <ele>207</ele>
        <time>2011-06-19T08:43:54Z</time>
      </trkpt>
      <trkpt lat="45.78599" lon="4.85369">
        <ele>207</ele>
        <time>2011-06-19T08:43:55Z</time>
      </trkpt>
      <trkpt lat="45.78598" lon="4.85366">
        <ele>207</ele>
        <time>2011-06-19T08:43:56Z</time>
      </trkpt>
      <trkpt lat="45.78597" lon="4.85361">
        <ele>207</ele>
        <time>2011-06-19T08:43:57Z</time>
      </trkpt>
      <trkpt lat="45.78596" lon="4.85356">
        <ele>207</ele>
        <time>2011-06-19T08:43:58Z</time>
      </trkpt>
      <trkpt lat="45.78595" lon="4.85351">
        <ele>208</ele>
        <time>2011-06-19T08:43:59Z</time>
      </trkpt>
      <trkpt lat="45.78592" lon="4.85347">
        <ele>209</ele>
        <time>2011-06-19T08:44:00Z</time>
      </trkpt>
      <trkpt lat="45.78589" lon="4.85344">
        <ele>209</ele>
        <time>2011-06-19T08:44:01Z</time>
      </trkpt>
      <trkpt lat="45.78589" lon="4.8534">
        <ele>211</ele>
        <time>2011-06-19T08:44:02Z</time>
      </trkpt>
      <trkpt lat="45.78587" lon="4.85336">
        <ele>211</ele>
        <time>2011-06-19T08:44:03Z</time>
      </trkpt>
      <trkpt lat="45.78586" lon="4.85331">
        <ele>211</ele>
        <time>2011-06-19T08:44:04Z</time>
      </trkpt>
      <trkpt lat="45.78584" lon="4.85327">
        <ele>211</ele>
        <time>2011-06-19T08:44:05Z</time>
      </trkpt>
      <trkpt lat="45.78583" lon="4.85324">
        <ele>212</ele>
        <time>2011-06-19T08:44:06Z</time>
      </trkpt>
      <trkpt lat="45.78581" lon="4.85319">
        <ele>212</ele>
        <time>2011-06-19T08:44:07Z</time>
      </trkpt>
      <trkpt lat="45.7858" lon="4.85315">
        <ele>212</ele>
        <time>2011-06-19T08:44:08Z</time>
      </trkpt>
      <trkpt lat="45.78579" lon="4.85311">
        <ele>212</ele>
        <time>2011-06-19T08:44:11Z</time>
      </trkpt>
      <trkpt lat="45.78579" lon="4.85311">
        <ele>212.00231933594</ele>
        <time>2011-06-19T08:44:11Z</time>
      </trkpt>
      <trkpt lat="45.78577" lon="4.85306">
        <ele>212.0011138916</ele>
        <time>2011-06-19T08:44:11Z</time>
      </trkpt>
      <trkpt lat="45.78575" lon="4.85299">
        <ele>212</ele>
        <time>2011-06-19T08:44:12Z</time>
      </trkpt>
      <trkpt lat="45.78575" lon="4.85294">
        <ele>213</ele>
        <time>2011-06-19T08:44:13Z</time>
      </trkpt>
      <trkpt lat="45.78574" lon="4.85289">
        <ele>212</ele>
        <time>2011-06-19T08:44:14Z</time>
      </trkpt>
      <trkpt lat="45.78574" lon="4.85284">
        <ele>212</ele>
        <time>2011-06-19T08:44:15Z</time>
      </trkpt>
      <trkpt lat="45.78573" lon="4.85281">
        <ele>211</ele>
        <time>2011-06-19T08:44:16Z</time>
      </trkpt>
      <trkpt lat="45.78572" lon="4.85277">
        <ele>211</ele>
        <time>2011-06-19T08:44:17Z</time>
      </trkpt>
      <trkpt lat="45.78571" lon="4.85272">
        <ele>211</ele>
        <time>2011-06-19T08:44:18Z</time>
      </trkpt>
      <trkpt lat="45.7857" lon="4.85268">
        <ele>210</ele>
        <time>2011-06-19T08:44:19Z</time>
      </trkpt>
      <trkpt lat="45.78568" lon="4.85264">
        <ele>210</ele>
        <time>2011-06-19T08:44:20Z</time>
      </trkpt>
      <trkpt lat="45.78567" lon="4.85259">
        <ele>209</ele>
        <time>2011-06-19T08:44:21Z</time>
      </trkpt>
      <trkpt lat="45.78566" lon="4.85255">
        <ele>209</ele>
        <time>2011-06-19T08:44:22Z</time>
      </trkpt>
      <trkpt lat="45.78565" lon="4.85251">
        <ele>209</ele>
        <time>2011-06-19T08:44:23Z</time>
      </trkpt>
      <trkpt lat="45.78565" lon="4.85246">
        <ele>209</ele>
        <time>2011-06-19T08:44:24Z</time>
      </trkpt>
      <trkpt lat="45.78563" lon="4.85242">
        <ele>209</ele>
        <time>2011-06-19T08:44:25Z</time>
      </trkpt>
      <trkpt lat="45.78562" lon="4.85238">
        <ele>209</ele>
        <time>2011-06-19T08:44:26Z</time>
      </trkpt>
      <trkpt lat="45.78561" lon="4.85234">
        <ele>210</ele>
        <time>2011-06-19T08:44:27Z</time>
      </trkpt>
      <trkpt lat="45.7856" lon="4.85228">
        <ele>210</ele>
        <time>2011-06-19T08:44:28Z</time>
      </trkpt>
      <trkpt lat="45.78559" lon="4.85224">
        <ele>210</ele>
        <time>2011-06-19T08:44:29Z</time>
      </trkpt>
      <trkpt lat="45.78558" lon="4.85219">
        <ele>211</ele>
        <time>2011-06-19T08:44:30Z</time>
      </trkpt>
      <trkpt lat="45.78557" lon="4.85213">
        <ele>210</ele>
        <time>2011-06-19T08:44:31Z</time>
      </trkpt>
      <trkpt lat="45.78555" lon="4.85209">
        <ele>211</ele>
        <time>2011-06-19T08:44:33Z</time>
      </trkpt>
      <trkpt lat="45.78555" lon="4.85207">
        <ele>210.515625</ele>
        <time>2011-06-19T08:44:33Z</time>
      </trkpt>
      <trkpt lat="45.78552" lon="4.85201">
        <ele>210</ele>
        <time>2011-06-19T08:44:34Z</time>
      </trkpt>
      <trkpt lat="45.7855" lon="4.85198">
        <ele>210</ele>
        <time>2011-06-19T08:44:35Z</time>
      </trkpt>
      <trkpt lat="45.78549" lon="4.85195">
        <ele>209</ele>
        <time>2011-06-19T08:44:36Z</time>
      </trkpt>
      <trkpt lat="45.78547" lon="4.85191">
        <ele>209</ele>
        <time>2011-06-19T08:44:37Z</time>
      </trkpt>
      <trkpt lat="45.78546" lon="4.85189">
        <ele>209</ele>
        <time>2011-06-19T08:44:38Z</time>
      </trkpt>
      <trkpt lat="45.78545" lon="4.85184">
        <ele>209</ele>
        <time>2011-06-19T08:44:39Z</time>
      </trkpt>
      <trkpt lat="45.78544" lon="4.8518">
        <ele>209</ele>
        <time>2011-06-19T08:44:40Z</time>
      </trkpt>
      <trkpt lat="45.78542" lon="4.85176">
        <ele>209</ele>
        <time>2011-06-19T08:44:41Z</time>
      </trkpt>
      <trkpt lat="45.7854" lon="4.85172">
        <ele>209</ele>
        <time>2011-06-19T08:44:42Z</time>
      </trkpt>
      <trkpt lat="45.78539" lon="4.85169">
        <ele>209</ele>
        <time>2011-06-19T08:44:43Z</time>
      </trkpt>
      <trkpt lat="45.78537" lon="4.85166">
        <ele>209</ele>
        <time>2011-06-19T08:44:44Z</time>
      </trkpt>
      <trkpt lat="45.78536" lon="4.85162">
        <ele>209</ele>
        <time>2011-06-19T08:44:45Z</time>
      </trkpt>
      <trkpt lat="45.78534" lon="4.85158">
        <ele>208</ele>
        <time>2011-06-19T08:44:46Z</time>
      </trkpt>
      <trkpt lat="45.78532" lon="4.85154">
        <ele>208</ele>
        <time>2011-06-19T08:44:47Z</time>
      </trkpt>
      <trkpt lat="45.7853" lon="4.85149">
        <ele>208</ele>
        <time>2011-06-19T08:44:48Z</time>
      </trkpt>
      <trkpt lat="45.78529" lon="4.85145">
        <ele>208</ele>
        <time>2011-06-19T08:44:49Z</time>
      </trkpt>
      <trkpt lat="45.78527" lon="4.85141">
        <ele>209</ele>
        <time>2011-06-19T08:44:50Z</time>
      </trkpt>
      <trkpt lat="45.78525" lon="4.85138">
        <ele>209</ele>
        <time>2011-06-19T08:44:51Z</time>
      </trkpt>
      <trkpt lat="45.78523" lon="4.85135">
        <ele>208</ele>
        <time>2011-06-19T08:44:52Z</time>
      </trkpt>
      <trkpt lat="45.78522" lon="4.85131">
        <ele>208</ele>
        <time>2011-06-19T08:44:53Z</time>
      </trkpt>
      <trkpt lat="45.7852" lon="4.85128">
        <ele>208</ele>
        <time>2011-06-19T08:44:55Z</time>
      </trkpt>
      <trkpt lat="45.7852" lon="4.85127">
        <ele>207.85426330566</ele>
        <time>2011-06-19T08:44:55Z</time>
      </trkpt>
      <trkpt lat="45.78518" lon="4.8512">
        <ele>207</ele>
        <time>2011-06-19T08:44:56Z</time>
      </trkpt>
      <trkpt lat="45.78518" lon="4.85116">
        <ele>206</ele>
        <time>2011-06-19T08:44:57Z</time>
      </trkpt>
      <trkpt lat="45.78517" lon="4.85111">
        <ele>206</ele>
        <time>2011-06-19T08:44:58Z</time>
      </trkpt>
      <trkpt lat="45.78514" lon="4.85109">
        <ele>206</ele>
        <time>2011-06-19T08:44:59Z</time>
      </trkpt>
      <trkpt lat="45.78512" lon="4.85105">
        <ele>207</ele>
        <time>2011-06-19T08:45:00Z</time>
      </trkpt>
      <trkpt lat="45.7851" lon="4.85102">
        <ele>206</ele>
        <time>2011-06-19T08:45:01Z</time>
      </trkpt>
      <trkpt lat="45.78509" lon="4.85098">
        <ele>206</ele>
        <time>2011-06-19T08:45:02Z</time>
      </trkpt>
      <trkpt lat="45.78507" lon="4.85095">
        <ele>206</ele>
        <time>2011-06-19T08:45:03Z</time>
      </trkpt>
      <trkpt lat="45.78506" lon="4.85091">
        <ele>206</ele>
        <time>2011-06-19T08:45:04Z</time>
      </trkpt>
      <trkpt lat="45.78504" lon="4.85087">
        <ele>207</ele>
        <time>2011-06-19T08:45:05Z</time>
      </trkpt>
      <trkpt lat="45.78502" lon="4.85083">
        <ele>206</ele>
        <time>2011-06-19T08:45:06Z</time>
      </trkpt>
      <trkpt lat="45.78501" lon="4.85079">
        <ele>206</ele>
        <time>2011-06-19T08:45:07Z</time>
      </trkpt>
      <trkpt lat="45.78499" lon="4.85076">
        <ele>206</ele>
        <time>2011-06-19T08:45:08Z</time>
      </trkpt>
      <trkpt lat="45.78498" lon="4.85072">
        <ele>206</ele>
        <time>2011-06-19T08:45:09Z</time>
      </trkpt>
      <trkpt lat="45.78496" lon="4.85068">
        <ele>207</ele>
        <time>2011-06-19T08:45:10Z</time>
      </trkpt>
      <trkpt lat="45.78494" lon="4.85065">
        <ele>207</ele>
        <time>2011-06-19T08:45:11Z</time>
      </trkpt>
      <trkpt lat="45.78492" lon="4.85062">
        <ele>207</ele>
        <time>2011-06-19T08:45:12Z</time>
      </trkpt>
      <trkpt lat="45.78489" lon="4.85058">
        <ele>207</ele>
        <time>2011-06-19T08:45:13Z</time>
      </trkpt>
      <trkpt lat="45.78488" lon="4.85055">
        <ele>207</ele>
        <time>2011-06-19T08:45:14Z</time>
      </trkpt>
      <trkpt lat="45.78486" lon="4.85051">
        <ele>207</ele>
        <time>2011-06-19T08:45:15Z</time>
      </trkpt>
      <trkpt lat="45.78483" lon="4.85047">
        <ele>207</ele>
        <time>2011-06-19T08:45:17Z</time>
      </trkpt>
      <trkpt lat="45.78483" lon="4.85047">
        <ele>207</ele>
        <time>2011-06-19T08:45:17Z</time>
      </trkpt>
      <trkpt lat="45.78479" lon="4.85039">
        <ele>207.98867797852</ele>
        <time>2011-06-19T08:45:18Z</time>
      </trkpt>
      <trkpt lat="45.78479" lon="4.85034">
        <ele>207</ele>
        <time>2011-06-19T08:45:19Z</time>
      </trkpt>
      <trkpt lat="45.78478" lon="4.85029">
        <ele>207</ele>
        <time>2011-06-19T08:45:20Z</time>
      </trkpt>
      <trkpt lat="45.78478" lon="4.85025">
        <ele>207</ele>
        <time>2011-06-19T08:45:21Z</time>
      </trkpt>
      <trkpt lat="45.78476" lon="4.85022">
        <ele>207</ele>
        <time>2011-06-19T08:45:22Z</time>
      </trkpt>
      <trkpt lat="45.78475" lon="4.85018">
        <ele>205</ele>
        <time>2011-06-19T08:45:23Z</time>
      </trkpt>
      <trkpt lat="45.78473" lon="4.85015">
        <ele>205</ele>
        <time>2011-06-19T08:45:24Z</time>
      </trkpt>
      <trkpt lat="45.78471" lon="4.85012">
        <ele>205</ele>
        <time>2011-06-19T08:45:25Z</time>
      </trkpt>
      <trkpt lat="45.7847" lon="4.85009">
        <ele>206</ele>
        <time>2011-06-19T08:45:26Z</time>
      </trkpt>
      <trkpt lat="45.78468" lon="4.85006">
        <ele>205</ele>
        <time>2011-06-19T08:45:27Z</time>
      </trkpt>
      <trkpt lat="45.78466" lon="4.85001">
        <ele>205</ele>
        <time>2011-06-19T08:45:28Z</time>
      </trkpt>
      <trkpt lat="45.78464" lon="4.84998">
        <ele>206</ele>
        <time>2011-06-19T08:45:29Z</time>
      </trkpt>
      <trkpt lat="45.78461" lon="4.84994">
        <ele>206</ele>
        <time>2011-06-19T08:45:30Z</time>
      </trkpt>
      <trkpt lat="45.78457" lon="4.84991">
        <ele>206</ele>
        <time>2011-06-19T08:45:31Z</time>
      </trkpt>
      <trkpt lat="45.78456" lon="4.84986">
        <ele>207</ele>
        <time>2011-06-19T08:45:32Z</time>
      </trkpt>
      <trkpt lat="45.78454" lon="4.84983">
        <ele>206</ele>
        <time>2011-06-19T08:45:34Z</time>
      </trkpt>
      <trkpt lat="45.78452" lon="4.8498">
        <ele>206</ele>
        <time>2011-06-19T08:45:34Z</time>
      </trkpt>
      <trkpt lat="45.78451" lon="4.84977">
        <ele>206</ele>
        <time>2011-06-19T08:45:35Z</time>
      </trkpt>
      <trkpt lat="45.78449" lon="4.84975">
        <ele>207</ele>
        <time>2011-06-19T08:45:36Z</time>
      </trkpt>
      <trkpt lat="45.78447" lon="4.84971">
        <ele>207</ele>
        <time>2011-06-19T08:45:37Z</time>
      </trkpt>
      <trkpt lat="45.78444" lon="4.84968">
        <ele>208</ele>
        <time>2011-06-19T08:45:39Z</time>
      </trkpt>
      <trkpt lat="45.78444" lon="4.84967">
        <ele>208</ele>
        <time>2011-06-19T08:45:39Z</time>
      </trkpt>
      <trkpt lat="45.78442" lon="4.84961">
        <ele>207</ele>
        <time>2011-06-19T08:45:40Z</time>
      </trkpt>
      <trkpt lat="45.78441" lon="4.84958">
        <ele>208</ele>
        <time>2011-06-19T08:45:41Z</time>
      </trkpt>
      <trkpt lat="45.78439" lon="4.84954">
        <ele>208</ele>
        <time>2011-06-19T08:45:42Z</time>
      </trkpt>
      <trkpt lat="45.78436" lon="4.8495">
        <ele>209</ele>
        <time>2011-06-19T08:45:43Z</time>
      </trkpt>
      <trkpt lat="45.78433" lon="4.84947">
        <ele>208</ele>
        <time>2011-06-19T08:45:44Z</time>
      </trkpt>
      <trkpt lat="45.7843" lon="4.84943">
        <ele>209</ele>
        <time>2011-06-19T08:45:45Z</time>
      </trkpt>
      <trkpt lat="45.78429" lon="4.84939">
        <ele>209</ele>
        <time>2011-06-19T08:45:46Z</time>
      </trkpt>
      <trkpt lat="45.78426" lon="4.84936">
        <ele>210</ele>
        <time>2011-06-19T08:45:47Z</time>
      </trkpt>
      <trkpt lat="45.78424" lon="4.84932">
        <ele>212</ele>
        <time>2011-06-19T08:45:48Z</time>
      </trkpt>
      <trkpt lat="45.78422" lon="4.8493">
        <ele>212</ele>
        <time>2011-06-19T08:45:49Z</time>
      </trkpt>
      <trkpt lat="45.7842" lon="4.84926">
        <ele>212</ele>
        <time>2011-06-19T08:45:50Z</time>
      </trkpt>
      <trkpt lat="45.78419" lon="4.84922">
        <ele>212</ele>
        <time>2011-06-19T08:45:51Z</time>
      </trkpt>
      <trkpt lat="45.78415" lon="4.84921">
        <ele>214</ele>
        <time>2011-06-19T08:45:52Z</time>
      </trkpt>
      <trkpt lat="45.78413" lon="4.84918">
        <ele>214</ele>
        <time>2011-06-19T08:45:53Z</time>
      </trkpt>
      <trkpt lat="45.78411" lon="4.84914">
        <ele>215</ele>
        <time>2011-06-19T08:45:54Z</time>
      </trkpt>
      <trkpt lat="45.78409" lon="4.84911">
        <ele>215</ele>
        <time>2011-06-19T08:45:55Z</time>
      </trkpt>
      <trkpt lat="45.78407" lon="4.84909">
        <ele>215</ele>
        <time>2011-06-19T08:45:56Z</time>
      </trkpt>
      <trkpt lat="45.78406" lon="4.84906">
        <ele>215</ele>
        <time>2011-06-19T08:45:57Z</time>
      </trkpt>
      <trkpt lat="45.78405" lon="4.84903">
        <ele>215</ele>
        <time>2011-06-19T08:45:58Z</time>
      </trkpt>
      <trkpt lat="45.78403" lon="4.849">
        <ele>215</ele>
        <time>2011-06-19T08:45:59Z</time>
      </trkpt>
      <trkpt lat="45.78402" lon="4.84897">
        <ele>215</ele>
        <time>2011-06-19T08:46:02Z</time>
      </trkpt>
      <trkpt lat="45.78402" lon="4.84897">
        <ele>215</ele>
        <time>2011-06-19T08:46:02Z</time>
      </trkpt>
      <trkpt lat="45.784" lon="4.84893">
        <ele>214.45826721191</ele>
        <time>2011-06-19T08:46:02Z</time>
      </trkpt>
      <trkpt lat="45.78398" lon="4.84887">
        <ele>214</ele>
        <time>2011-06-19T08:46:03Z</time>
      </trkpt>
      <trkpt lat="45.78397" lon="4.84883">
        <ele>214</ele>
        <time>2011-06-19T08:46:04Z</time>
      </trkpt>
      <trkpt lat="45.78395" lon="4.8488">
        <ele>214</ele>
        <time>2011-06-19T08:46:05Z</time>
      </trkpt>
      <trkpt lat="45.78393" lon="4.84877">
        <ele>213</ele>
        <time>2011-06-19T08:46:06Z</time>
      </trkpt>
      <trkpt lat="45.7839" lon="4.84875">
        <ele>212</ele>
        <time>2011-06-19T08:46:07Z</time>
      </trkpt>
      <trkpt lat="45.78388" lon="4.84872">
        <ele>212</ele>
        <time>2011-06-19T08:46:08Z</time>
      </trkpt>
      <trkpt lat="45.78386" lon="4.84869">
        <ele>212</ele>
        <time>2011-06-19T08:46:09Z</time>
      </trkpt>
      <trkpt lat="45.78384" lon="4.84867">
        <ele>212</ele>
        <time>2011-06-19T08:46:10Z</time>
      </trkpt>
      <trkpt lat="45.78383" lon="4.84864">
        <ele>212</ele>
        <time>2011-06-19T08:46:11Z</time>
      </trkpt>
      <trkpt lat="45.78381" lon="4.8486">
        <ele>211</ele>
        <time>2011-06-19T08:46:12Z</time>
      </trkpt>
      <trkpt lat="45.78378" lon="4.84857">
        <ele>211</ele>
        <time>2011-06-19T08:46:13Z</time>
      </trkpt>
      <trkpt lat="45.78375" lon="4.84854">
        <ele>211</ele>
        <time>2011-06-19T08:46:14Z</time>
      </trkpt>
      <trkpt lat="45.78373" lon="4.84851">
        <ele>211</ele>
        <time>2011-06-19T08:46:15Z</time>
      </trkpt>
      <trkpt lat="45.78371" lon="4.84847">
        <ele>211</ele>
        <time>2011-06-19T08:46:16Z</time>
      </trkpt>
      <trkpt lat="45.78368" lon="4.84845">
        <ele>212</ele>
        <time>2011-06-19T08:46:17Z</time>
      </trkpt>
      <trkpt lat="45.78366" lon="4.84843">
        <ele>213</ele>
        <time>2011-06-19T08:46:18Z</time>
      </trkpt>
      <trkpt lat="45.78364" lon="4.8484">
        <ele>213</ele>
        <time>2011-06-19T08:46:19Z</time>
      </trkpt>
      <trkpt lat="45.78362" lon="4.84837">
        <ele>214</ele>
        <time>2011-06-19T08:46:20Z</time>
      </trkpt>
      <trkpt lat="45.78361" lon="4.84834">
        <ele>213</ele>
        <time>2011-06-19T08:46:21Z</time>
      </trkpt>
      <trkpt lat="45.7836" lon="4.84831">
        <ele>213</ele>
        <time>2011-06-19T08:46:22Z</time>
      </trkpt>
      <trkpt lat="45.78358" lon="4.84828">
        <ele>213</ele>
        <time>2011-06-19T08:46:24Z</time>
      </trkpt>
      <trkpt lat="45.78358" lon="4.84828">
        <ele>212.99702453613</ele>
        <time>2011-06-19T08:46:24Z</time>
      </trkpt>
      <trkpt lat="45.78354" lon="4.84823">
        <ele>212.99963378906</ele>
        <time>2011-06-19T08:46:25Z</time>
      </trkpt>
      <trkpt lat="45.78352" lon="4.84819">
        <ele>213</ele>
        <time>2011-06-19T08:46:26Z</time>
      </trkpt>
      <trkpt lat="45.78349" lon="4.84817">
        <ele>213</ele>
        <time>2011-06-19T08:46:27Z</time>
      </trkpt>
      <trkpt lat="45.78347" lon="4.84814">
        <ele>213</ele>
        <time>2011-06-19T08:46:28Z</time>
      </trkpt>
      <trkpt lat="45.78345" lon="4.84811">
        <ele>212</ele>
        <time>2011-06-19T08:46:29Z</time>
      </trkpt>
      <trkpt lat="45.78344" lon="4.84809">
        <ele>213</ele>
        <time>2011-06-19T08:46:30Z</time>
      </trkpt>
      <trkpt lat="45.78341" lon="4.84807">
        <ele>212</ele>
        <time>2011-06-19T08:46:31Z</time>
      </trkpt>
      <trkpt lat="45.78339" lon="4.84805">
        <ele>212</ele>
        <time>2011-06-19T08:46:32Z</time>
      </trkpt>
      <trkpt lat="45.78336" lon="4.84803">
        <ele>212</ele>
        <time>2011-06-19T08:46:34Z</time>
      </trkpt>
      <trkpt lat="45.78333" lon="4.84802">
        <ele>212</ele>
        <time>2011-06-19T08:46:34Z</time>
      </trkpt>
      <trkpt lat="45.78331" lon="4.84799">
        <ele>212</ele>
        <time>2011-06-19T08:46:35Z</time>
      </trkpt>
      <trkpt lat="45.78327" lon="4.84796">
        <ele>211</ele>
        <time>2011-06-19T08:46:36Z</time>
      </trkpt>
      <trkpt lat="45.78326" lon="4.84793">
        <ele>211</ele>
        <time>2011-06-19T08:46:37Z</time>
      </trkpt>
      <trkpt lat="45.78323" lon="4.84789">
        <ele>211</ele>
        <time>2011-06-19T08:46:38Z</time>
      </trkpt>
      <trkpt lat="45.78322" lon="4.84786">
        <ele>211</ele>
        <time>2011-06-19T08:46:39Z</time>
      </trkpt>
      <trkpt lat="45.7832" lon="4.84784">
        <ele>211</ele>
        <time>2011-06-19T08:46:40Z</time>
      </trkpt>
      <trkpt lat="45.78318" lon="4.84781">
        <ele>210</ele>
        <time>2011-06-19T08:46:41Z</time>
      </trkpt>
      <trkpt lat="45.78315" lon="4.84778">
        <ele>210</ele>
        <time>2011-06-19T08:46:42Z</time>
      </trkpt>
      <trkpt lat="45.78313" lon="4.84774">
        <ele>210</ele>
        <time>2011-06-19T08:46:43Z</time>
      </trkpt>
      <trkpt lat="45.78311" lon="4.84772">
        <ele>210</ele>
        <time>2011-06-19T08:46:44Z</time>
      </trkpt>
      <trkpt lat="45.78309" lon="4.84769">
        <ele>210</ele>
        <time>2011-06-19T08:46:46Z</time>
      </trkpt>
      <trkpt lat="45.78308" lon="4.84768">
        <ele>210</ele>
        <time>2011-06-19T08:46:46Z</time>
      </trkpt>
      <trkpt lat="45.78304" lon="4.84764">
        <ele>209</ele>
        <time>2011-06-19T08:46:47Z</time>
      </trkpt>
      <trkpt lat="45.78302" lon="4.84762">
        <ele>209</ele>
        <time>2011-06-19T08:46:48Z</time>
      </trkpt>
      <trkpt lat="45.78299" lon="4.84758">
        <ele>209</ele>
        <time>2011-06-19T08:46:49Z</time>
      </trkpt>
      <trkpt lat="45.78297" lon="4.84755">
        <ele>208</ele>
        <time>2011-06-19T08:46:50Z</time>
      </trkpt>
      <trkpt lat="45.78294" lon="4.84752">
        <ele>209</ele>
        <time>2011-06-19T08:46:51Z</time>
      </trkpt>
      <trkpt lat="45.78292" lon="4.84749">
        <ele>209</ele>
        <time>2011-06-19T08:46:52Z</time>
      </trkpt>
      <trkpt lat="45.78289" lon="4.84747">
        <ele>208</ele>
        <time>2011-06-19T08:46:53Z</time>
      </trkpt>
      <trkpt lat="45.78287" lon="4.84744">
        <ele>209</ele>
        <time>2011-06-19T08:46:54Z</time>
      </trkpt>
      <trkpt lat="45.78285" lon="4.84741">
        <ele>208</ele>
        <time>2011-06-19T08:46:55Z</time>
      </trkpt>
      <trkpt lat="45.78283" lon="4.84738">
        <ele>209</ele>
        <time>2011-06-19T08:46:56Z</time>
      </trkpt>
      <trkpt lat="45.78281" lon="4.84735">
        <ele>209</ele>
        <time>2011-06-19T08:46:57Z</time>
      </trkpt>
      <trkpt lat="45.78278" lon="4.84733">
        <ele>208</ele>
        <time>2011-06-19T08:46:58Z</time>
      </trkpt>
      <trkpt lat="45.78275" lon="4.84731">
        <ele>209</ele>
        <time>2011-06-19T08:46:59Z</time>
      </trkpt>
      <trkpt lat="45.78273" lon="4.84728">
        <ele>210</ele>
        <time>2011-06-19T08:47:00Z</time>
      </trkpt>
      <trkpt lat="45.78271" lon="4.84726">
        <ele>209</ele>
        <time>2011-06-19T08:47:01Z</time>
      </trkpt>
      <trkpt lat="45.78268" lon="4.84723">
        <ele>209</ele>
        <time>2011-06-19T08:47:02Z</time>
      </trkpt>
      <trkpt lat="45.78267" lon="4.84721">
        <ele>210</ele>
        <time>2011-06-19T08:47:03Z</time>
      </trkpt>
      <trkpt lat="45.78267" lon="4.84719">
        <ele>210</ele>
        <time>2011-06-19T08:47:04Z</time>
      </trkpt>
      <trkpt lat="45.78265" lon="4.84716">
        <ele>209</ele>
        <time>2011-06-19T08:47:05Z</time>
      </trkpt>
      <trkpt lat="45.78263" lon="4.84714">
        <ele>209</ele>
        <time>2011-06-19T08:47:06Z</time>
      </trkpt>
      <trkpt lat="45.78259" lon="4.84711">
        <ele>210</ele>
        <time>2011-06-19T08:47:08Z</time>
      </trkpt>
      <trkpt lat="45.78258" lon="4.8471">
        <ele>210</ele>
        <time>2011-06-19T08:47:08Z</time>
      </trkpt>
      <trkpt lat="45.78254" lon="4.84706">
        <ele>210</ele>
        <time>2011-06-19T08:47:09Z</time>
      </trkpt>
      <trkpt lat="45.78252" lon="4.84704">
        <ele>210</ele>
        <time>2011-06-19T08:47:10Z</time>
      </trkpt>
      <trkpt lat="45.78249" lon="4.84702">
        <ele>209</ele>
        <time>2011-06-19T08:47:11Z</time>
      </trkpt>
      <trkpt lat="45.78248" lon="4.84699">
        <ele>210</ele>
        <time>2011-06-19T08:47:12Z</time>
      </trkpt>
      <trkpt lat="45.78244" lon="4.84697">
        <ele>210</ele>
        <time>2011-06-19T08:47:13Z</time>
      </trkpt>
      <trkpt lat="45.78242" lon="4.84696">
        <ele>210</ele>
        <time>2011-06-19T08:47:14Z</time>
      </trkpt>
      <trkpt lat="45.78238" lon="4.84693">
        <ele>210</ele>
        <time>2011-06-19T08:47:15Z</time>
      </trkpt>
      <trkpt lat="45.78235" lon="4.8469">
        <ele>210</ele>
        <time>2011-06-19T08:47:16Z</time>
      </trkpt>
      <trkpt lat="45.78231" lon="4.84688">
        <ele>210</ele>
        <time>2011-06-19T08:47:17Z</time>
      </trkpt>
      <trkpt lat="45.78228" lon="4.84686">
        <ele>210</ele>
        <time>2011-06-19T08:47:18Z</time>
      </trkpt>
      <trkpt lat="45.78224" lon="4.84684">
        <ele>210</ele>
        <time>2011-06-19T08:47:19Z</time>
      </trkpt>
      <trkpt lat="45.78221" lon="4.84683">
        <ele>210</ele>
        <time>2011-06-19T08:47:20Z</time>
      </trkpt>
      <trkpt lat="45.78219" lon="4.8468">
        <ele>209</ele>
        <time>2011-06-19T08:47:21Z</time>
      </trkpt>
      <trkpt lat="45.78215" lon="4.84678">
        <ele>210</ele>
        <time>2011-06-19T08:47:22Z</time>
      </trkpt>
      <trkpt lat="45.78213" lon="4.84676">
        <ele>210</ele>
        <time>2011-06-19T08:47:23Z</time>
      </trkpt>
      <trkpt lat="45.7821" lon="4.84674">
        <ele>210</ele>
        <time>2011-06-19T08:47:24Z</time>
      </trkpt>
      <trkpt lat="45.78207" lon="4.84671">
        <ele>210</ele>
        <time>2011-06-19T08:47:25Z</time>
      </trkpt>
      <trkpt lat="45.78206" lon="4.8467">
        <ele>210</ele>
        <time>2011-06-19T08:47:26Z</time>
      </trkpt>
      <trkpt lat="45.78203" lon="4.84668">
        <ele>210</ele>
        <time>2011-06-19T08:47:27Z</time>
      </trkpt>
      <trkpt lat="45.782" lon="4.84665">
        <ele>209</ele>
        <time>2011-06-19T08:47:28Z</time>
      </trkpt>
      <trkpt lat="45.78198" lon="4.84663">
        <ele>209</ele>
        <time>2011-06-19T08:47:30Z</time>
      </trkpt>
      <trkpt lat="45.78197" lon="4.84663">
        <ele>209</ele>
        <time>2011-06-19T08:47:30Z</time>
      </trkpt>
      <trkpt lat="45.78193" lon="4.84659">
        <ele>209</ele>
        <time>2011-06-19T08:47:31Z</time>
      </trkpt>
      <trkpt lat="45.7819" lon="4.84659">
        <ele>209</ele>
        <time>2011-06-19T08:47:32Z</time>
      </trkpt>
      <trkpt lat="45.78188" lon="4.84657">
        <ele>209</ele>
        <time>2011-06-19T08:47:33Z</time>
      </trkpt>
      <trkpt lat="45.78185" lon="4.84656">
        <ele>209</ele>
        <time>2011-06-19T08:47:34Z</time>
      </trkpt>
      <trkpt lat="45.78183" lon="4.84655">
        <ele>210</ele>
        <time>2011-06-19T08:47:35Z</time>
      </trkpt>
      <trkpt lat="45.78179" lon="4.84654">
        <ele>210</ele>
        <time>2011-06-19T08:47:36Z</time>
      </trkpt>
      <trkpt lat="45.78176" lon="4.84652">
        <ele>210</ele>
        <time>2011-06-19T08:47:37Z</time>
      </trkpt>
      <trkpt lat="45.78174" lon="4.8465">
        <ele>210</ele>
        <time>2011-06-19T08:47:38Z</time>
      </trkpt>
      <trkpt lat="45.78171" lon="4.84648">
        <ele>210</ele>
        <time>2011-06-19T08:47:39Z</time>
      </trkpt>
      <trkpt lat="45.78169" lon="4.84646">
        <ele>211</ele>
        <time>2011-06-19T08:47:40Z</time>
      </trkpt>
      <trkpt lat="45.78165" lon="4.84645">
        <ele>212</ele>
        <time>2011-06-19T08:47:41Z</time>
      </trkpt>
      <trkpt lat="45.78162" lon="4.84642">
        <ele>211</ele>
        <time>2011-06-19T08:47:42Z</time>
      </trkpt>
      <trkpt lat="45.7816" lon="4.8464">
        <ele>211</ele>
        <time>2011-06-19T08:47:43Z</time>
      </trkpt>
      <trkpt lat="45.78157" lon="4.84639">
        <ele>211</ele>
        <time>2011-06-19T08:47:44Z</time>
      </trkpt>
      <trkpt lat="45.78154" lon="4.84636">
        <ele>211</ele>
        <time>2011-06-19T08:47:45Z</time>
      </trkpt>
      <trkpt lat="45.7815" lon="4.84634">
        <ele>211</ele>
        <time>2011-06-19T08:47:46Z</time>
      </trkpt>
      <trkpt lat="45.78147" lon="4.84632">
        <ele>210</ele>
        <time>2011-06-19T08:47:47Z</time>
      </trkpt>
      <trkpt lat="45.78145" lon="4.84628">
        <ele>210</ele>
        <time>2011-06-19T08:47:48Z</time>
      </trkpt>
      <trkpt lat="45.78143" lon="4.84625">
        <ele>210</ele>
        <time>2011-06-19T08:47:49Z</time>
      </trkpt>
      <trkpt lat="45.7814" lon="4.84622">
        <ele>210</ele>
        <time>2011-06-19T08:47:50Z</time>
      </trkpt>
      <trkpt lat="45.78137" lon="4.84619">
        <ele>211</ele>
        <time>2011-06-19T08:47:52Z</time>
      </trkpt>
      <trkpt lat="45.78136" lon="4.84618">
        <ele>210.55378723145</ele>
        <time>2011-06-19T08:47:52Z</time>
      </trkpt>
      <trkpt lat="45.78133" lon="4.84615">
        <ele>210</ele>
        <time>2011-06-19T08:47:53Z</time>
      </trkpt>
      <trkpt lat="45.78131" lon="4.84612">
        <ele>210</ele>
        <time>2011-06-19T08:47:54Z</time>
      </trkpt>
      <trkpt lat="45.78128" lon="4.84611">
        <ele>210</ele>
        <time>2011-06-19T08:47:55Z</time>
      </trkpt>
      <trkpt lat="45.78125" lon="4.84609">
        <ele>210</ele>
        <time>2011-06-19T08:47:56Z</time>
      </trkpt>
      <trkpt lat="45.78124" lon="4.84608">
        <ele>210</ele>
        <time>2011-06-19T08:47:57Z</time>
      </trkpt>
      <trkpt lat="45.78121" lon="4.84607">
        <ele>211</ele>
        <time>2011-06-19T08:47:58Z</time>
      </trkpt>
      <trkpt lat="45.78119" lon="4.84604">
        <ele>211</ele>
        <time>2011-06-19T08:47:59Z</time>
      </trkpt>
      <trkpt lat="45.78117" lon="4.84603">
        <ele>211</ele>
        <time>2011-06-19T08:48:00Z</time>
      </trkpt>
      <trkpt lat="45.78114" lon="4.846">
        <ele>211</ele>
        <time>2011-06-19T08:48:01Z</time>
      </trkpt>
      <trkpt lat="45.78112" lon="4.84597">
        <ele>211</ele>
        <time>2011-06-19T08:48:02Z</time>
      </trkpt>
      <trkpt lat="45.78111" lon="4.84595">
        <ele>211</ele>
        <time>2011-06-19T08:48:03Z</time>
      </trkpt>
      <trkpt lat="45.78109" lon="4.84594">
        <ele>211</ele>
        <time>2011-06-19T08:48:04Z</time>
      </trkpt>
      <trkpt lat="45.78108" lon="4.84591">
        <ele>211</ele>
        <time>2011-06-19T08:48:05Z</time>
      </trkpt>
      <trkpt lat="45.78105" lon="4.84589">
        <ele>211</ele>
        <time>2011-06-19T08:48:06Z</time>
      </trkpt>
      <trkpt lat="45.78104" lon="4.84586">
        <ele>211</ele>
        <time>2011-06-19T08:48:07Z</time>
      </trkpt>
      <trkpt lat="45.78103" lon="4.84582">
        <ele>211</ele>
        <time>2011-06-19T08:48:08Z</time>
      </trkpt>
      <trkpt lat="45.78101" lon="4.8458">
        <ele>211</ele>
        <time>2011-06-19T08:48:10Z</time>
      </trkpt>
      <trkpt lat="45.78098" lon="4.84578">
        <ele>212</ele>
        <time>2011-06-19T08:48:10Z</time>
      </trkpt>
      <trkpt lat="45.78096" lon="4.84574">
        <ele>212</ele>
        <time>2011-06-19T08:48:11Z</time>
      </trkpt>
      <trkpt lat="45.78092" lon="4.84572">
        <ele>213</ele>
        <time>2011-06-19T08:48:12Z</time>
      </trkpt>
      <trkpt lat="45.7809" lon="4.84569">
        <ele>213</ele>
        <time>2011-06-19T08:48:15Z</time>
      </trkpt>
      <trkpt lat="45.7809" lon="4.84569">
        <ele>213</ele>
        <time>2011-06-19T08:48:15Z</time>
      </trkpt>
      <trkpt lat="45.78088" lon="4.84568">
        <ele>213</ele>
        <time>2011-06-19T08:48:15Z</time>
      </trkpt>
      <trkpt lat="45.78081" lon="4.84566">
        <ele>213</ele>
        <time>2011-06-19T08:48:16Z</time>
      </trkpt>
      <trkpt lat="45.78076" lon="4.84561">
        <ele>213</ele>
        <time>2011-06-19T08:48:17Z</time>
      </trkpt>
      <trkpt lat="45.78075" lon="4.84558">
        <ele>212</ele>
        <time>2011-06-19T08:48:18Z</time>
      </trkpt>
      <trkpt lat="45.78074" lon="4.84556">
        <ele>212</ele>
        <time>2011-06-19T08:48:19Z</time>
      </trkpt>
      <trkpt lat="45.78071" lon="4.84552">
        <ele>211</ele>
        <time>2011-06-19T08:48:20Z</time>
      </trkpt>
      <trkpt lat="45.78068" lon="4.84551">
        <ele>211</ele>
        <time>2011-06-19T08:48:21Z</time>
      </trkpt>
      <trkpt lat="45.78064" lon="4.84549">
        <ele>211</ele>
        <time>2011-06-19T08:48:22Z</time>
      </trkpt>
      <trkpt lat="45.78062" lon="4.84546">
        <ele>211</ele>
        <time>2011-06-19T08:48:23Z</time>
      </trkpt>
      <trkpt lat="45.7806" lon="4.84544">
        <ele>211</ele>
        <time>2011-06-19T08:48:24Z</time>
      </trkpt>
      <trkpt lat="45.78057" lon="4.84543">
        <ele>212</ele>
        <time>2011-06-19T08:48:25Z</time>
      </trkpt>
      <trkpt lat="45.78056" lon="4.84539">
        <ele>212</ele>
        <time>2011-06-19T08:48:26Z</time>
      </trkpt>
      <trkpt lat="45.78053" lon="4.84537">
        <ele>212</ele>
        <time>2011-06-19T08:48:27Z</time>
      </trkpt>
      <trkpt lat="45.78052" lon="4.84535">
        <ele>212</ele>
        <time>2011-06-19T08:48:28Z</time>
      </trkpt>
      <trkpt lat="45.78049" lon="4.84531">
        <ele>212</ele>
        <time>2011-06-19T08:48:29Z</time>
      </trkpt>
      <trkpt lat="45.78046" lon="4.84529">
        <ele>211</ele>
        <time>2011-06-19T08:48:30Z</time>
      </trkpt>
      <trkpt lat="45.78043" lon="4.84526">
        <ele>212</ele>
        <time>2011-06-19T08:48:31Z</time>
      </trkpt>
      <trkpt lat="45.78039" lon="4.84524">
        <ele>211</ele>
        <time>2011-06-19T08:48:32Z</time>
      </trkpt>
      <trkpt lat="45.78037" lon="4.84522">
        <ele>211</ele>
        <time>2011-06-19T08:48:33Z</time>
      </trkpt>
      <trkpt lat="45.78034" lon="4.8452">
        <ele>212</ele>
        <time>2011-06-19T08:48:34Z</time>
      </trkpt>
      <trkpt lat="45.78031" lon="4.84517">
        <ele>212</ele>
        <time>2011-06-19T08:48:35Z</time>
      </trkpt>
      <trkpt lat="45.7803" lon="4.84515">
        <ele>212</ele>
        <time>2011-06-19T08:48:37Z</time>
      </trkpt>
      <trkpt lat="45.7803" lon="4.84515">
        <ele>212</ele>
        <time>2011-06-19T08:48:37Z</time>
      </trkpt>
      <trkpt lat="45.78026" lon="4.84513">
        <ele>212</ele>
        <time>2011-06-19T08:48:38Z</time>
      </trkpt>
      <trkpt lat="45.78024" lon="4.84512">
        <ele>212</ele>
        <time>2011-06-19T08:48:39Z</time>
      </trkpt>
      <trkpt lat="45.78019" lon="4.84508">
        <ele>211.00975036621</ele>
        <time>2011-06-19T08:48:40Z</time>
      </trkpt>
      <trkpt lat="45.78016" lon="4.84506">
        <ele>211</ele>
        <time>2011-06-19T08:48:41Z</time>
      </trkpt>
      <trkpt lat="45.78013" lon="4.84503">
        <ele>211</ele>
        <time>2011-06-19T08:48:42Z</time>
      </trkpt>
      <trkpt lat="45.7801" lon="4.84501">
        <ele>211</ele>
        <time>2011-06-19T08:48:43Z</time>
      </trkpt>
      <trkpt lat="45.78008" lon="4.84497">
        <ele>212</ele>
        <time>2011-06-19T08:48:44Z</time>
      </trkpt>
      <trkpt lat="45.78005" lon="4.84495">
        <ele>210</ele>
        <time>2011-06-19T08:48:45Z</time>
      </trkpt>
      <trkpt lat="45.78001" lon="4.84494">
        <ele>210</ele>
        <time>2011-06-19T08:48:46Z</time>
      </trkpt>
      <trkpt lat="45.77997" lon="4.84493">
        <ele>210</ele>
        <time>2011-06-19T08:48:47Z</time>
      </trkpt>
      <trkpt lat="45.77993" lon="4.8449">
        <ele>209</ele>
        <time>2011-06-19T08:48:48Z</time>
      </trkpt>
      <trkpt lat="45.7799" lon="4.84488">
        <ele>209</ele>
        <time>2011-06-19T08:48:49Z</time>
      </trkpt>
      <trkpt lat="45.77988" lon="4.84485">
        <ele>210</ele>
        <time>2011-06-19T08:48:50Z</time>
      </trkpt>
      <trkpt lat="45.77985" lon="4.84484">
        <ele>210</ele>
        <time>2011-06-19T08:48:51Z</time>
      </trkpt>
      <trkpt lat="45.77983" lon="4.84482">
        <ele>210</ele>
        <time>2011-06-19T08:48:52Z</time>
      </trkpt>
      <trkpt lat="45.77981" lon="4.84481">
        <ele>210</ele>
        <time>2011-06-19T08:48:53Z</time>
      </trkpt>
      <trkpt lat="45.77979" lon="4.84479">
        <ele>209</ele>
        <time>2011-06-19T08:48:54Z</time>
      </trkpt>
      <trkpt lat="45.77977" lon="4.84477">
        <ele>209</ele>
        <time>2011-06-19T08:48:55Z</time>
      </trkpt>
      <trkpt lat="45.77974" lon="4.84475">
        <ele>210</ele>
        <time>2011-06-19T08:48:56Z</time>
      </trkpt>
      <trkpt lat="45.77972" lon="4.84472">
        <ele>210</ele>
        <time>2011-06-19T08:48:57Z</time>
      </trkpt>
      <trkpt lat="45.77969" lon="4.8447">
        <ele>210</ele>
        <time>2011-06-19T08:48:59Z</time>
      </trkpt>
      <trkpt lat="45.77969" lon="4.8447">
        <ele>210.09547424316</ele>
        <time>2011-06-19T08:48:59Z</time>
      </trkpt>
      <trkpt lat="45.77963" lon="4.84467">
        <ele>210.97496032715</ele>
        <time>2011-06-19T08:49:00Z</time>
      </trkpt>
      <trkpt lat="45.77961" lon="4.84465">
        <ele>210</ele>
        <time>2011-06-19T08:49:01Z</time>
      </trkpt>
      <trkpt lat="45.77959" lon="4.84464">
        <ele>210</ele>
        <time>2011-06-19T08:49:02Z</time>
      </trkpt>
      <trkpt lat="45.77957" lon="4.84463">
        <ele>210</ele>
        <time>2011-06-19T08:49:03Z</time>
      </trkpt>
      <trkpt lat="45.77955" lon="4.84461">
        <ele>210</ele>
        <time>2011-06-19T08:49:04Z</time>
      </trkpt>
      <trkpt lat="45.77951" lon="4.84458">
        <ele>211</ele>
        <time>2011-06-19T08:49:05Z</time>
      </trkpt>
      <trkpt lat="45.77949" lon="4.84456">
        <ele>211</ele>
        <time>2011-06-19T08:49:06Z</time>
      </trkpt>
      <trkpt lat="45.77947" lon="4.84455">
        <ele>211</ele>
        <time>2011-06-19T08:49:07Z</time>
      </trkpt>
      <trkpt lat="45.77944" lon="4.84453">
        <ele>210</ele>
        <time>2011-06-19T08:49:08Z</time>
      </trkpt>
      <trkpt lat="45.7794" lon="4.8445">
        <ele>210</ele>
        <time>2011-06-19T08:49:09Z</time>
      </trkpt>
      <trkpt lat="45.77936" lon="4.84448">
        <ele>210</ele>
        <time>2011-06-19T08:49:10Z</time>
      </trkpt>
      <trkpt lat="45.77934" lon="4.84447">
        <ele>210</ele>
        <time>2011-06-19T08:49:11Z</time>
      </trkpt>
      <trkpt lat="45.77932" lon="4.84446">
        <ele>210</ele>
        <time>2011-06-19T08:49:12Z</time>
      </trkpt>
      <trkpt lat="45.7793" lon="4.84446">
        <ele>210</ele>
        <time>2011-06-19T08:49:13Z</time>
      </trkpt>
      <trkpt lat="45.77927" lon="4.84442">
        <ele>210</ele>
        <time>2011-06-19T08:49:14Z</time>
      </trkpt>
      <trkpt lat="45.77923" lon="4.84441">
        <ele>210</ele>
        <time>2011-06-19T08:49:15Z</time>
      </trkpt>
      <trkpt lat="45.7792" lon="4.84439">
        <ele>210</ele>
        <time>2011-06-19T08:49:16Z</time>
      </trkpt>
      <trkpt lat="45.77917" lon="4.84436">
        <ele>210</ele>
        <time>2011-06-19T08:49:17Z</time>
      </trkpt>
      <trkpt lat="45.77914" lon="4.84435">
        <ele>210</ele>
        <time>2011-06-19T08:49:18Z</time>
      </trkpt>
      <trkpt lat="45.77912" lon="4.84433">
        <ele>210</ele>
        <time>2011-06-19T08:49:19Z</time>
      </trkpt>
      <trkpt lat="45.7791" lon="4.84431">
        <ele>211</ele>
        <time>2011-06-19T08:49:22Z</time>
      </trkpt>
      <trkpt lat="45.7791" lon="4.84431">
        <ele>211</ele>
        <time>2011-06-19T08:49:22Z</time>
      </trkpt>
      <trkpt lat="45.77907" lon="4.84426">
        <ele>211.75486755371</ele>
        <time>2011-06-19T08:49:22Z</time>
      </trkpt>
      <trkpt lat="45.77903" lon="4.84424">
        <ele>212</ele>
        <time>2011-06-19T08:49:23Z</time>
      </trkpt>
      <trkpt lat="45.77902" lon="4.84423">
        <ele>212</ele>
        <time>2011-06-19T08:49:24Z</time>
      </trkpt>
      <trkpt lat="45.779" lon="4.8442">
        <ele>212</ele>
        <time>2011-06-19T08:49:25Z</time>
      </trkpt>
      <trkpt lat="45.77897" lon="4.8442">
        <ele>212</ele>
        <time>2011-06-19T08:49:26Z</time>
      </trkpt>
      <trkpt lat="45.77894" lon="4.8442">
        <ele>212</ele>
        <time>2011-06-19T08:49:27Z</time>
      </trkpt>
      <trkpt lat="45.77891" lon="4.84419">
        <ele>212</ele>
        <time>2011-06-19T08:49:28Z</time>
      </trkpt>
      <trkpt lat="45.77888" lon="4.84418">
        <ele>214</ele>
        <time>2011-06-19T08:49:29Z</time>
      </trkpt>
      <trkpt lat="45.77886" lon="4.84417">
        <ele>213</ele>
        <time>2011-06-19T08:49:30Z</time>
      </trkpt>
      <trkpt lat="45.77883" lon="4.84413">
        <ele>213</ele>
        <time>2011-06-19T08:49:31Z</time>
      </trkpt>
      <trkpt lat="45.77879" lon="4.84409">
        <ele>212</ele>
        <time>2011-06-19T08:49:32Z</time>
      </trkpt>
      <trkpt lat="45.77874" lon="4.84407">
        <ele>213</ele>
        <time>2011-06-19T08:49:33Z</time>
      </trkpt>
      <trkpt lat="45.7787" lon="4.84403">
        <ele>212</ele>
        <time>2011-06-19T08:49:34Z</time>
      </trkpt>
      <trkpt lat="45.77867" lon="4.84399">
        <ele>212</ele>
        <time>2011-06-19T08:49:35Z</time>
      </trkpt>
      <trkpt lat="45.77863" lon="4.84398">
        <ele>211</ele>
        <time>2011-06-19T08:49:36Z</time>
      </trkpt>
      <trkpt lat="45.7786" lon="4.84396">
        <ele>212</ele>
        <time>2011-06-19T08:49:37Z</time>
      </trkpt>
      <trkpt lat="45.77857" lon="4.84394">
        <ele>212</ele>
        <time>2011-06-19T08:49:39Z</time>
      </trkpt>
      <trkpt lat="45.77855" lon="4.84392">
        <ele>212</ele>
        <time>2011-06-19T08:49:39Z</time>
      </trkpt>
      <trkpt lat="45.77853" lon="4.84391">
        <ele>212</ele>
        <time>2011-06-19T08:49:40Z</time>
      </trkpt>
      <trkpt lat="45.77851" lon="4.84391">
        <ele>213</ele>
        <time>2011-06-19T08:49:41Z</time>
      </trkpt>
      <trkpt lat="45.77851" lon="4.84388">
        <ele>212</ele>
        <time>2011-06-19T08:49:42Z</time>
      </trkpt>
      <trkpt lat="45.7785" lon="4.84387">
        <ele>212</ele>
        <time>2011-06-19T08:49:44Z</time>
      </trkpt>
      <trkpt lat="45.77849" lon="4.84386">
        <ele>212</ele>
        <time>2011-06-19T08:49:44Z</time>
      </trkpt>
      <trkpt lat="45.77848" lon="4.84386">
        <ele>212</ele>
        <time>2011-06-19T08:49:45Z</time>
      </trkpt>
      <trkpt lat="45.77846" lon="4.84385">
        <ele>212</ele>
        <time>2011-06-19T08:49:46Z</time>
      </trkpt>
      <trkpt lat="45.77844" lon="4.84383">
        <ele>212</ele>
        <time>2011-06-19T08:49:47Z</time>
      </trkpt>
      <trkpt lat="45.77843" lon="4.84381">
        <ele>212</ele>
        <time>2011-06-19T08:49:48Z</time>
      </trkpt>
      <trkpt lat="45.77838" lon="4.84378">
        <ele>211</ele>
        <time>2011-06-19T08:49:49Z</time>
      </trkpt>
      <trkpt lat="45.77834" lon="4.84375">
        <ele>211</ele>
        <time>2011-06-19T08:49:50Z</time>
      </trkpt>
      <trkpt lat="45.77831" lon="4.84374">
        <ele>212</ele>
        <time>2011-06-19T08:49:51Z</time>
      </trkpt>
      <trkpt lat="45.77829" lon="4.84374">
        <ele>212</ele>
        <time>2011-06-19T08:49:52Z</time>
      </trkpt>
      <trkpt lat="45.77824" lon="4.8437">
        <ele>212</ele>
        <time>2011-06-19T08:49:53Z</time>
      </trkpt>
      <trkpt lat="45.77819" lon="4.84368">
        <ele>213</ele>
        <time>2011-06-19T08:49:54Z</time>
      </trkpt>
      <trkpt lat="45.77817" lon="4.84367">
        <ele>213</ele>
        <time>2011-06-19T08:49:55Z</time>
      </trkpt>
      <trkpt lat="45.77814" lon="4.84365">
        <ele>213</ele>
        <time>2011-06-19T08:49:56Z</time>
      </trkpt>
      <trkpt lat="45.77811" lon="4.84365">
        <ele>214</ele>
        <time>2011-06-19T08:49:57Z</time>
      </trkpt>
      <trkpt lat="45.77806" lon="4.84365">
        <ele>213</ele>
        <time>2011-06-19T08:49:58Z</time>
      </trkpt>
      <trkpt lat="45.77802" lon="4.84364">
        <ele>212</ele>
        <time>2011-06-19T08:49:59Z</time>
      </trkpt>
      <trkpt lat="45.77796" lon="4.84362">
        <ele>211</ele>
        <time>2011-06-19T08:50:00Z</time>
      </trkpt>
      <trkpt lat="45.77791" lon="4.84362">
        <ele>211</ele>
        <time>2011-06-19T08:50:01Z</time>
      </trkpt>
      <trkpt lat="45.77786" lon="4.84361">
        <ele>210</ele>
        <time>2011-06-19T08:50:02Z</time>
      </trkpt>
      <trkpt lat="45.77783" lon="4.84361">
        <ele>210</ele>
        <time>2011-06-19T08:50:03Z</time>
      </trkpt>
      <trkpt lat="45.77778" lon="4.84362">
        <ele>212</ele>
        <time>2011-06-19T08:50:05Z</time>
      </trkpt>
      <trkpt lat="45.77774" lon="4.84364">
        <ele>212</ele>
        <time>2011-06-19T08:50:07Z</time>
      </trkpt>
      <trkpt lat="45.77774" lon="4.84364">
        <ele>212</ele>
        <time>2011-06-19T08:50:07Z</time>
      </trkpt>
      <trkpt lat="45.77772" lon="4.84366">
        <ele>212.36108398438</ele>
        <time>2011-06-19T08:50:07Z</time>
      </trkpt>
      <trkpt lat="45.77765" lon="4.84371">
        <ele>212.90270996094</ele>
        <time>2011-06-19T08:50:08Z</time>
      </trkpt>
      <trkpt lat="45.77762" lon="4.84373">
        <ele>214</ele>
        <time>2011-06-19T08:50:09Z</time>
      </trkpt>
      <trkpt lat="45.77759" lon="4.84377">
        <ele>214</ele>
        <time>2011-06-19T08:50:10Z</time>
      </trkpt>
      <trkpt lat="45.77758" lon="4.84382">
        <ele>214</ele>
        <time>2011-06-19T08:50:11Z</time>
      </trkpt>
      <trkpt lat="45.77756" lon="4.84385">
        <ele>213</ele>
        <time>2011-06-19T08:50:12Z</time>
      </trkpt>
      <trkpt lat="45.77755" lon="4.84387">
        <ele>214</ele>
        <time>2011-06-19T08:50:13Z</time>
      </trkpt>
      <trkpt lat="45.77753" lon="4.84388">
        <ele>214</ele>
        <time>2011-06-19T08:50:14Z</time>
      </trkpt>
      <trkpt lat="45.77751" lon="4.84388">
        <ele>214</ele>
        <time>2011-06-19T08:50:15Z</time>
      </trkpt>
      <trkpt lat="45.77751" lon="4.84385">
        <ele>214</ele>
        <time>2011-06-19T08:50:16Z</time>
      </trkpt>
      <trkpt lat="45.7775" lon="4.84382">
        <ele>214</ele>
        <time>2011-06-19T08:50:17Z</time>
      </trkpt>
      <trkpt lat="45.77748" lon="4.84381">
        <ele>214</ele>
        <time>2011-06-19T08:50:18Z</time>
      </trkpt>
      <trkpt lat="45.77747" lon="4.84379">
        <ele>213</ele>
        <time>2011-06-19T08:50:19Z</time>
      </trkpt>
      <trkpt lat="45.77743" lon="4.84377">
        <ele>213</ele>
        <time>2011-06-19T08:50:20Z</time>
      </trkpt>
      <trkpt lat="45.77741" lon="4.84378">
        <ele>213</ele>
        <time>2011-06-19T08:50:21Z</time>
      </trkpt>
      <trkpt lat="45.77737" lon="4.84376">
        <ele>214</ele>
        <time>2011-06-19T08:50:22Z</time>
      </trkpt>
      <trkpt lat="45.77734" lon="4.84373">
        <ele>214</ele>
        <time>2011-06-19T08:50:23Z</time>
      </trkpt>
      <trkpt lat="45.77732" lon="4.84371">
        <ele>214</ele>
        <time>2011-06-19T08:50:24Z</time>
      </trkpt>
      <trkpt lat="45.7773" lon="4.84368">
        <ele>214</ele>
        <time>2011-06-19T08:50:25Z</time>
      </trkpt>
      <trkpt lat="45.77728" lon="4.84367">
        <ele>213</ele>
        <time>2011-06-19T08:50:26Z</time>
      </trkpt>
      <trkpt lat="45.77725" lon="4.84365">
        <ele>213</ele>
        <time>2011-06-19T08:50:27Z</time>
      </trkpt>
      <trkpt lat="45.77722" lon="4.84363">
        <ele>213</ele>
        <time>2011-06-19T08:50:30Z</time>
      </trkpt>
      <trkpt lat="45.77722" lon="4.84363">
        <ele>213</ele>
        <time>2011-06-19T08:50:30Z</time>
      </trkpt>
      <trkpt lat="45.7772" lon="4.84363">
        <ele>213</ele>
        <time>2011-06-19T08:50:30Z</time>
      </trkpt>
      <trkpt lat="45.77712" lon="4.84362">
        <ele>213.83354187012</ele>
        <time>2011-06-19T08:50:31Z</time>
      </trkpt>
      <trkpt lat="45.77708" lon="4.8436">
        <ele>214</ele>
        <time>2011-06-19T08:50:32Z</time>
      </trkpt>
      <trkpt lat="45.77706" lon="4.8436">
        <ele>214</ele>
        <time>2011-06-19T08:50:33Z</time>
      </trkpt>
      <trkpt lat="45.77704" lon="4.8436">
        <ele>214</ele>
        <time>2011-06-19T08:50:34Z</time>
      </trkpt>
      <trkpt lat="45.777" lon="4.84359">
        <ele>215</ele>
        <time>2011-06-19T08:50:35Z</time>
      </trkpt>
      <trkpt lat="45.77698" lon="4.84359">
        <ele>215</ele>
        <time>2011-06-19T08:50:36Z</time>
      </trkpt>
      <trkpt lat="45.77694" lon="4.84359">
        <ele>215</ele>
        <time>2011-06-19T08:50:37Z</time>
      </trkpt>
      <trkpt lat="45.77691" lon="4.84361">
        <ele>216</ele>
        <time>2011-06-19T08:50:38Z</time>
      </trkpt>
      <trkpt lat="45.77689" lon="4.84362">
        <ele>216</ele>
        <time>2011-06-19T08:50:39Z</time>
      </trkpt>
      <trkpt lat="45.77686" lon="4.84364">
        <ele>216</ele>
        <time>2011-06-19T08:50:40Z</time>
      </trkpt>
      <trkpt lat="45.77686" lon="4.84366">
        <ele>217</ele>
        <time>2011-06-19T08:50:41Z</time>
      </trkpt>
      <trkpt lat="45.77686" lon="4.84369">
        <ele>216</ele>
        <time>2011-06-19T08:50:42Z</time>
      </trkpt>
      <trkpt lat="45.77688" lon="4.84373">
        <ele>216</ele>
        <time>2011-06-19T08:50:43Z</time>
      </trkpt>
      <trkpt lat="45.7769" lon="4.84375">
        <ele>217</ele>
        <time>2011-06-19T08:50:44Z</time>
      </trkpt>
      <trkpt lat="45.77692" lon="4.84377">
        <ele>217</ele>
        <time>2011-06-19T08:50:45Z</time>
      </trkpt>
      <trkpt lat="45.77692" lon="4.84377">
        <ele>219</ele>
        <time>2011-06-19T08:50:46Z</time>
      </trkpt>
      <trkpt lat="45.77692" lon="4.84379">
        <ele>221</ele>
        <time>2011-06-19T08:50:47Z</time>
      </trkpt>
      <trkpt lat="45.77696" lon="4.84382">
        <ele>221</ele>
        <time>2011-06-19T08:50:48Z</time>
      </trkpt>
      <trkpt lat="45.77692" lon="4.84388">
        <ele>221</ele>
        <time>2011-06-19T08:50:50Z</time>
      </trkpt>
      <trkpt lat="45.77693" lon="4.84392">
        <ele>222</ele>
        <time>2011-06-19T08:50:52Z</time>
      </trkpt>
      <trkpt lat="45.77693" lon="4.84392">
        <ele>222</ele>
        <time>2011-06-19T08:50:52Z</time>
      </trkpt>
      <trkpt lat="45.77697" lon="4.84394">
        <ele>221.52905273438</ele>
        <time>2011-06-19T08:50:52Z</time>
      </trkpt>
      <trkpt lat="45.77703" lon="4.84399">
        <ele>219.24082946777</ele>
        <time>2011-06-19T08:50:53Z</time>
      </trkpt>
      <trkpt lat="45.77707" lon="4.84404">
        <ele>219</ele>
        <time>2011-06-19T08:50:54Z</time>
      </trkpt>
      <trkpt lat="45.77711" lon="4.84409">
        <ele>218</ele>
        <time>2011-06-19T08:50:55Z</time>
      </trkpt>
      <trkpt lat="45.77714" lon="4.84412">
        <ele>217</ele>
        <time>2011-06-19T08:50:56Z</time>
      </trkpt>
      <trkpt lat="45.77717" lon="4.84413">
        <ele>217</ele>
        <time>2011-06-19T08:50:57Z</time>
      </trkpt>
      <trkpt lat="45.77721" lon="4.84415">
        <ele>215</ele>
        <time>2011-06-19T08:50:58Z</time>
      </trkpt>
      <trkpt lat="45.77723" lon="4.84418">
        <ele>216</ele>
        <time>2011-06-19T08:50:59Z</time>
      </trkpt>
      <trkpt lat="45.77725" lon="4.84419">
        <ele>217</ele>
        <time>2011-06-19T08:51:00Z</time>
      </trkpt>
      <trkpt lat="45.77726" lon="4.84421">
        <ele>217</ele>
        <time>2011-06-19T08:51:01Z</time>
      </trkpt>
      <trkpt lat="45.77728" lon="4.84424">
        <ele>217</ele>
        <time>2011-06-19T08:51:02Z</time>
      </trkpt>
      <trkpt lat="45.7773" lon="4.84426">
        <ele>217</ele>
        <time>2011-06-19T08:51:03Z</time>
      </trkpt>
      <trkpt lat="45.77733" lon="4.84427">
        <ele>216</ele>
        <time>2011-06-19T08:51:04Z</time>
      </trkpt>
      <trkpt lat="45.77736" lon="4.84428">
        <ele>216</ele>
        <time>2011-06-19T08:51:05Z</time>
      </trkpt>
      <trkpt lat="45.7774" lon="4.84429">
        <ele>216</ele>
        <time>2011-06-19T08:51:06Z</time>
      </trkpt>
      <trkpt lat="45.77742" lon="4.84431">
        <ele>216</ele>
        <time>2011-06-19T08:51:07Z</time>
      </trkpt>
      <trkpt lat="45.77745" lon="4.84432">
        <ele>216</ele>
        <time>2011-06-19T08:51:08Z</time>
      </trkpt>
      <trkpt lat="45.7775" lon="4.84434">
        <ele>217</ele>
        <time>2011-06-19T08:51:09Z</time>
      </trkpt>
      <trkpt lat="45.77753" lon="4.84434">
        <ele>217</ele>
        <time>2011-06-19T08:51:10Z</time>
      </trkpt>
      <trkpt lat="45.77756" lon="4.84436">
        <ele>218</ele>
        <time>2011-06-19T08:51:11Z</time>
      </trkpt>
      <trkpt lat="45.77759" lon="4.84439">
        <ele>218</ele>
        <time>2011-06-19T08:51:12Z</time>
      </trkpt>
      <trkpt lat="45.77763" lon="4.84442">
        <ele>218</ele>
        <time>2011-06-19T08:51:14Z</time>
      </trkpt>
      <trkpt lat="45.77764" lon="4.84442">
        <ele>218.26147460938</ele>
        <time>2011-06-19T08:51:14Z</time>
      </trkpt>
      <trkpt lat="45.77769" lon="4.84444">
        <ele>219</ele>
        <time>2011-06-19T08:51:15Z</time>
      </trkpt>
      <trkpt lat="45.77773" lon="4.84444">
        <ele>219</ele>
        <time>2011-06-19T08:51:16Z</time>
      </trkpt>
      <trkpt lat="45.77776" lon="4.84444">
        <ele>220</ele>
        <time>2011-06-19T08:51:17Z</time>
      </trkpt>
      <trkpt lat="45.77779" lon="4.84443">
        <ele>220</ele>
        <time>2011-06-19T08:51:18Z</time>
      </trkpt>
      <trkpt lat="45.77783" lon="4.84441">
        <ele>220</ele>
        <time>2011-06-19T08:51:19Z</time>
      </trkpt>
      <trkpt lat="45.77785" lon="4.84437">
        <ele>219</ele>
        <time>2011-06-19T08:51:20Z</time>
      </trkpt>
      <trkpt lat="45.77787" lon="4.84434">
        <ele>218</ele>
        <time>2011-06-19T08:51:21Z</time>
      </trkpt>
      <trkpt lat="45.77789" lon="4.84431">
        <ele>217</ele>
        <time>2011-06-19T08:51:22Z</time>
      </trkpt>
      <trkpt lat="45.77791" lon="4.84429">
        <ele>218</ele>
        <time>2011-06-19T08:51:23Z</time>
      </trkpt>
      <trkpt lat="45.77794" lon="4.84425">
        <ele>218</ele>
        <time>2011-06-19T08:51:24Z</time>
      </trkpt>
      <trkpt lat="45.77797" lon="4.8442">
        <ele>217</ele>
        <time>2011-06-19T08:51:25Z</time>
      </trkpt>
      <trkpt lat="45.77799" lon="4.84418">
        <ele>217</ele>
        <time>2011-06-19T08:51:26Z</time>
      </trkpt>
      <trkpt lat="45.77801" lon="4.84414">
        <ele>218</ele>
        <time>2011-06-19T08:51:27Z</time>
      </trkpt>
      <trkpt lat="45.77803" lon="4.8441">
        <ele>219</ele>
        <time>2011-06-19T08:51:28Z</time>
      </trkpt>
      <trkpt lat="45.77804" lon="4.84405">
        <ele>220</ele>
        <time>2011-06-19T08:51:29Z</time>
      </trkpt>
      <trkpt lat="45.77807" lon="4.84401">
        <ele>220</ele>
        <time>2011-06-19T08:51:30Z</time>
      </trkpt>
      <trkpt lat="45.77809" lon="4.84397">
        <ele>219</ele>
        <time>2011-06-19T08:51:31Z</time>
      </trkpt>
      <trkpt lat="45.7781" lon="4.84392">
        <ele>219</ele>
        <time>2011-06-19T08:51:32Z</time>
      </trkpt>
      <trkpt lat="45.77813" lon="4.84389">
        <ele>219</ele>
        <time>2011-06-19T08:51:33Z</time>
      </trkpt>
      <trkpt lat="45.77814" lon="4.84385">
        <ele>220</ele>
        <time>2011-06-19T08:51:34Z</time>
      </trkpt>
      <trkpt lat="45.77815" lon="4.84381">
        <ele>220</ele>
        <time>2011-06-19T08:51:36Z</time>
      </trkpt>
      <trkpt lat="45.77815" lon="4.8438">
        <ele>220.10855102539</ele>
        <time>2011-06-19T08:51:36Z</time>
      </trkpt>
      <trkpt lat="45.77817" lon="4.84373">
        <ele>221.79475402832</ele>
        <time>2011-06-19T08:51:37Z</time>
      </trkpt>
      <trkpt lat="45.77816" lon="4.84368">
        <ele>223</ele>
        <time>2011-06-19T08:51:38Z</time>
      </trkpt>
      <trkpt lat="45.77818" lon="4.84365">
        <ele>222</ele>
        <time>2011-06-19T08:51:39Z</time>
      </trkpt>
      <trkpt lat="45.77821" lon="4.84361">
        <ele>222</ele>
        <time>2011-06-19T08:51:40Z</time>
      </trkpt>
      <trkpt lat="45.77823" lon="4.84357">
        <ele>221</ele>
        <time>2011-06-19T08:51:41Z</time>
      </trkpt>
      <trkpt lat="45.77824" lon="4.84354">
        <ele>221</ele>
        <time>2011-06-19T08:51:42Z</time>
      </trkpt>
      <trkpt lat="45.77825" lon="4.84351">
        <ele>222</ele>
        <time>2011-06-19T08:51:43Z</time>
      </trkpt>
      <trkpt lat="45.77826" lon="4.84347">
        <ele>222</ele>
        <time>2011-06-19T08:51:44Z</time>
      </trkpt>
      <trkpt lat="45.77828" lon="4.84344">
        <ele>222</ele>
        <time>2011-06-19T08:51:45Z</time>
      </trkpt>
      <trkpt lat="45.77829" lon="4.8434">
        <ele>222</ele>
        <time>2011-06-19T08:51:46Z</time>
      </trkpt>
      <trkpt lat="45.7783" lon="4.84337">
        <ele>222</ele>
        <time>2011-06-19T08:51:47Z</time>
      </trkpt>
      <trkpt lat="45.77831" lon="4.84333">
        <ele>223</ele>
        <time>2011-06-19T08:51:48Z</time>
      </trkpt>
      <trkpt lat="45.77832" lon="4.8433">
        <ele>223</ele>
        <time>2011-06-19T08:51:49Z</time>
      </trkpt>
      <trkpt lat="45.77836" lon="4.84327">
        <ele>222</ele>
        <time>2011-06-19T08:51:50Z</time>
      </trkpt>
      <trkpt lat="45.77837" lon="4.84324">
        <ele>223</ele>
        <time>2011-06-19T08:51:51Z</time>
      </trkpt>
      <trkpt lat="45.77839" lon="4.84318">
        <ele>223</ele>
        <time>2011-06-19T08:51:52Z</time>
      </trkpt>
      <trkpt lat="45.7784" lon="4.84316">
        <ele>224</ele>
        <time>2011-06-19T08:51:53Z</time>
      </trkpt>
      <trkpt lat="45.77841" lon="4.84312">
        <ele>224</ele>
        <time>2011-06-19T08:51:54Z</time>
      </trkpt>
      <trkpt lat="45.77843" lon="4.84307">
        <ele>224</ele>
        <time>2011-06-19T08:51:55Z</time>
      </trkpt>
      <trkpt lat="45.77844" lon="4.84304">
        <ele>224</ele>
        <time>2011-06-19T08:51:56Z</time>
      </trkpt>
      <trkpt lat="45.77845" lon="4.84301">
        <ele>224</ele>
        <time>2011-06-19T08:51:58Z</time>
      </trkpt>
      <trkpt lat="45.77845" lon="4.84301">
        <ele>224</ele>
        <time>2011-06-19T08:51:58Z</time>
      </trkpt>
      <trkpt lat="45.77847" lon="4.84294">
        <ele>224</ele>
        <time>2011-06-19T08:51:59Z</time>
      </trkpt>
      <trkpt lat="45.77848" lon="4.84291">
        <ele>224</ele>
        <time>2011-06-19T08:52:00Z</time>
      </trkpt>
      <trkpt lat="45.7785" lon="4.84287">
        <ele>224</ele>
        <time>2011-06-19T08:52:01Z</time>
      </trkpt>
      <trkpt lat="45.7785" lon="4.84284">
        <ele>224</ele>
        <time>2011-06-19T08:52:02Z</time>
      </trkpt>
      <trkpt lat="45.77852" lon="4.84281">
        <ele>224</ele>
        <time>2011-06-19T08:52:03Z</time>
      </trkpt>
      <trkpt lat="45.77854" lon="4.84277">
        <ele>225</ele>
        <time>2011-06-19T08:52:04Z</time>
      </trkpt>
      <trkpt lat="45.77855" lon="4.84274">
        <ele>224</ele>
        <time>2011-06-19T08:52:06Z</time>
      </trkpt>
      <trkpt lat="45.77856" lon="4.84271">
        <ele>224</ele>
        <time>2011-06-19T08:52:06Z</time>
      </trkpt>
      <trkpt lat="45.77858" lon="4.84268">
        <ele>224</ele>
        <time>2011-06-19T08:52:07Z</time>
      </trkpt>
      <trkpt lat="45.77858" lon="4.84264">
        <ele>225</ele>
        <time>2011-06-19T08:52:08Z</time>
      </trkpt>
      <trkpt lat="45.77859" lon="4.8426">
        <ele>225</ele>
        <time>2011-06-19T08:52:09Z</time>
      </trkpt>
      <trkpt lat="45.77861" lon="4.84257">
        <ele>225</ele>
        <time>2011-06-19T08:52:10Z</time>
      </trkpt>
      <trkpt lat="45.77862" lon="4.84254">
        <ele>225</ele>
        <time>2011-06-19T08:52:11Z</time>
      </trkpt>
      <trkpt lat="45.77863" lon="4.8425">
        <ele>225</ele>
        <time>2011-06-19T08:52:12Z</time>
      </trkpt>
      <trkpt lat="45.77865" lon="4.84247">
        <ele>225</ele>
        <time>2011-06-19T08:52:13Z</time>
      </trkpt>
      <trkpt lat="45.77866" lon="4.84244">
        <ele>225</ele>
        <time>2011-06-19T08:52:14Z</time>
      </trkpt>
      <trkpt lat="45.77867" lon="4.8424">
        <ele>225</ele>
        <time>2011-06-19T08:52:15Z</time>
      </trkpt>
      <trkpt lat="45.77869" lon="4.84237">
        <ele>225</ele>
        <time>2011-06-19T08:52:16Z</time>
      </trkpt>
      <trkpt lat="45.77871" lon="4.84235">
        <ele>225</ele>
        <time>2011-06-19T08:52:17Z</time>
      </trkpt>
      <trkpt lat="45.77873" lon="4.84231">
        <ele>225</ele>
        <time>2011-06-19T08:52:18Z</time>
      </trkpt>
      <trkpt lat="45.77873" lon="4.84227">
        <ele>225</ele>
        <time>2011-06-19T08:52:21Z</time>
      </trkpt>
      <trkpt lat="45.77873" lon="4.84227">
        <ele>225</ele>
        <time>2011-06-19T08:52:21Z</time>
      </trkpt>
      <trkpt lat="45.77873" lon="4.84222">
        <ele>225.64218139648</ele>
        <time>2011-06-19T08:52:21Z</time>
      </trkpt>
      <trkpt lat="45.77876" lon="4.84215">
        <ele>225</ele>
        <time>2011-06-19T08:52:22Z</time>
      </trkpt>
      <trkpt lat="45.77876" lon="4.84212">
        <ele>225</ele>
        <time>2011-06-19T08:52:23Z</time>
      </trkpt>
      <trkpt lat="45.77876" lon="4.84209">
        <ele>225</ele>
        <time>2011-06-19T08:52:24Z</time>
      </trkpt>
      <trkpt lat="45.77877" lon="4.84206">
        <ele>225</ele>
        <time>2011-06-19T08:52:25Z</time>
      </trkpt>
      <trkpt lat="45.77878" lon="4.84202">
        <ele>225</ele>
        <time>2011-06-19T08:52:26Z</time>
      </trkpt>
      <trkpt lat="45.7788" lon="4.84199">
        <ele>224</ele>
        <time>2011-06-19T08:52:27Z</time>
      </trkpt>
      <trkpt lat="45.77881" lon="4.84197">
        <ele>224</ele>
        <time>2011-06-19T08:52:28Z</time>
      </trkpt>
      <trkpt lat="45.77882" lon="4.84193">
        <ele>223</ele>
        <time>2011-06-19T08:52:29Z</time>
      </trkpt>
      <trkpt lat="45.77883" lon="4.8419">
        <ele>223</ele>
        <time>2011-06-19T08:52:30Z</time>
      </trkpt>
      <trkpt lat="45.77884" lon="4.84187">
        <ele>223</ele>
        <time>2011-06-19T08:52:31Z</time>
      </trkpt>
      <trkpt lat="45.77885" lon="4.84184">
        <ele>224</ele>
        <time>2011-06-19T08:52:32Z</time>
      </trkpt>
      <trkpt lat="45.77888" lon="4.84181">
        <ele>223</ele>
        <time>2011-06-19T08:52:33Z</time>
      </trkpt>
      <trkpt lat="45.77889" lon="4.84176">
        <ele>223</ele>
        <time>2011-06-19T08:52:34Z</time>
      </trkpt>
      <trkpt lat="45.7789" lon="4.84172">
        <ele>223</ele>
        <time>2011-06-19T08:52:35Z</time>
      </trkpt>
      <trkpt lat="45.77891" lon="4.84168">
        <ele>222</ele>
        <time>2011-06-19T08:52:36Z</time>
      </trkpt>
      <trkpt lat="45.77892" lon="4.84165">
        <ele>223</ele>
        <time>2011-06-19T08:52:37Z</time>
      </trkpt>
      <trkpt lat="45.77893" lon="4.84162">
        <ele>221</ele>
        <time>2011-06-19T08:52:38Z</time>
      </trkpt>
      <trkpt lat="45.77895" lon="4.84157">
        <ele>220</ele>
        <time>2011-06-19T08:52:39Z</time>
      </trkpt>
      <trkpt lat="45.77896" lon="4.84153">
        <ele>219</ele>
        <time>2011-06-19T08:52:40Z</time>
      </trkpt>
      <trkpt lat="45.77897" lon="4.84151">
        <ele>219</ele>
        <time>2011-06-19T08:52:41Z</time>
      </trkpt>
      <trkpt lat="45.77898" lon="4.84147">
        <ele>219</ele>
        <time>2011-06-19T08:52:43Z</time>
      </trkpt>
      <trkpt lat="45.77898" lon="4.84147">
        <ele>219</ele>
        <time>2011-06-19T08:52:43Z</time>
      </trkpt>
      <trkpt lat="45.77901" lon="4.84141">
        <ele>219</ele>
        <time>2011-06-19T08:52:44Z</time>
      </trkpt>
      <trkpt lat="45.77902" lon="4.84138">
        <ele>219</ele>
        <time>2011-06-19T08:52:45Z</time>
      </trkpt>
      <trkpt lat="45.77903" lon="4.84135">
        <ele>219</ele>
        <time>2011-06-19T08:52:46Z</time>
      </trkpt>
      <trkpt lat="45.77903" lon="4.84132">
        <ele>220</ele>
        <time>2011-06-19T08:52:47Z</time>
      </trkpt>
      <trkpt lat="45.77903" lon="4.8413">
        <ele>220</ele>
        <time>2011-06-19T08:52:48Z</time>
      </trkpt>
      <trkpt lat="45.77904" lon="4.84126">
        <ele>220</ele>
        <time>2011-06-19T08:52:49Z</time>
      </trkpt>
      <trkpt lat="45.77904" lon="4.84124">
        <ele>220</ele>
        <time>2011-06-19T08:52:50Z</time>
      </trkpt>
      <trkpt lat="45.77904" lon="4.84122">
        <ele>220</ele>
        <time>2011-06-19T08:52:51Z</time>
      </trkpt>
      <trkpt lat="45.77904" lon="4.84122">
        <ele>219</ele>
        <time>2011-06-19T08:52:52Z</time>
      </trkpt>
      <trkpt lat="45.77904" lon="4.84122">
        <ele>219</ele>
        <time>2011-06-19T08:52:53Z</time>
      </trkpt>
      <trkpt lat="45.77905" lon="4.84122">
        <ele>219</ele>
        <time>2011-06-19T08:52:54Z</time>
      </trkpt>
      <trkpt lat="45.77904" lon="4.84122">
        <ele>219</ele>
        <time>2011-06-19T08:52:55Z</time>
      </trkpt>
      <trkpt lat="45.77904" lon="4.84122">
        <ele>219</ele>
        <time>2011-06-19T08:52:56Z</time>
      </trkpt>
      <trkpt lat="45.77902" lon="4.84119">
        <ele>219</ele>
        <time>2011-06-19T08:52:57Z</time>
      </trkpt>
      <trkpt lat="45.77903" lon="4.84119">
        <ele>219</ele>
        <time>2011-06-19T08:52:58Z</time>
      </trkpt>
      <trkpt lat="45.77903" lon="4.84119">
        <ele>219</ele>
        <time>2011-06-19T08:52:59Z</time>
      </trkpt>
      <trkpt lat="45.77903" lon="4.84117">
        <ele>219</ele>
        <time>2011-06-19T08:53:00Z</time>
      </trkpt>
      <trkpt lat="45.77903" lon="4.84116">
        <ele>220</ele>
        <time>2011-06-19T08:53:01Z</time>
      </trkpt>
      <trkpt lat="45.77904" lon="4.84116">
        <ele>220</ele>
        <time>2011-06-19T08:53:02Z</time>
      </trkpt>
      <trkpt lat="45.77904" lon="4.84115">
        <ele>220</ele>
        <time>2011-06-19T08:53:03Z</time>
      </trkpt>
      <trkpt lat="45.77904" lon="4.84115">
        <ele>220</ele>
        <time>2011-06-19T08:53:06Z</time>
      </trkpt>
      <trkpt lat="45.77904" lon="4.84115">
        <ele>220</ele>
        <time>2011-06-19T08:53:06Z</time>
      </trkpt>
      <trkpt lat="45.77904" lon="4.84114">
        <ele>220</ele>
        <time>2011-06-19T08:53:06Z</time>
      </trkpt>
      <trkpt lat="45.77907" lon="4.84114">
        <ele>220</ele>
        <time>2011-06-19T08:53:07Z</time>
      </trkpt>
      <trkpt lat="45.77907" lon="4.8411">
        <ele>220</ele>
        <time>2011-06-19T08:53:08Z</time>
      </trkpt>
      <trkpt lat="45.77908" lon="4.84106">
        <ele>221</ele>
        <time>2011-06-19T08:53:09Z</time>
      </trkpt>
      <trkpt lat="45.7791" lon="4.84104">
        <ele>221</ele>
        <time>2011-06-19T08:53:10Z</time>
      </trkpt>
      <trkpt lat="45.77911" lon="4.84101">
        <ele>222</ele>
        <time>2011-06-19T08:53:11Z</time>
      </trkpt>
      <trkpt lat="45.77912" lon="4.84097">
        <ele>222</ele>
        <time>2011-06-19T08:53:12Z</time>
      </trkpt>
      <trkpt lat="45.77912" lon="4.84094">
        <ele>223</ele>
        <time>2011-06-19T08:53:13Z</time>
      </trkpt>
      <trkpt lat="45.77912" lon="4.84092">
        <ele>223</ele>
        <time>2011-06-19T08:53:14Z</time>
      </trkpt>
      <trkpt lat="45.77912" lon="4.8409">
        <ele>223</ele>
        <time>2011-06-19T08:53:15Z</time>
      </trkpt>
      <trkpt lat="45.77913" lon="4.84088">
        <ele>224</ele>
        <time>2011-06-19T08:53:16Z</time>
      </trkpt>
      <trkpt lat="45.77912" lon="4.84087">
        <ele>224</ele>
        <time>2011-06-19T08:53:17Z</time>
      </trkpt>
      <trkpt lat="45.77911" lon="4.84085">
        <ele>224</ele>
        <time>2011-06-19T08:53:18Z</time>
      </trkpt>
      <trkpt lat="45.77911" lon="4.84082">
        <ele>225</ele>
        <time>2011-06-19T08:53:19Z</time>
      </trkpt>
      <trkpt lat="45.77911" lon="4.84079">
        <ele>225</ele>
        <time>2011-06-19T08:53:20Z</time>
      </trkpt>
      <trkpt lat="45.77909" lon="4.84074">
        <ele>225</ele>
        <time>2011-06-19T08:53:21Z</time>
      </trkpt>
      <trkpt lat="45.77905" lon="4.84071">
        <ele>226</ele>
        <time>2011-06-19T08:53:22Z</time>
      </trkpt>
      <trkpt lat="45.77904" lon="4.84068">
        <ele>226</ele>
        <time>2011-06-19T08:53:23Z</time>
      </trkpt>
      <trkpt lat="45.77902" lon="4.84066">
        <ele>226</ele>
        <time>2011-06-19T08:53:24Z</time>
      </trkpt>
      <trkpt lat="45.77902" lon="4.84065">
        <ele>226</ele>
        <time>2011-06-19T08:53:25Z</time>
      </trkpt>
      <trkpt lat="45.77899" lon="4.84065">
        <ele>227</ele>
        <time>2011-06-19T08:53:26Z</time>
      </trkpt>
      <trkpt lat="45.77898" lon="4.84064">
        <ele>228</ele>
        <time>2011-06-19T08:53:29Z</time>
      </trkpt>
      <trkpt lat="45.77898" lon="4.84064">
        <ele>228</ele>
        <time>2011-06-19T08:53:29Z</time>
      </trkpt>
      <trkpt lat="45.77899" lon="4.84064">
        <ele>228</ele>
        <time>2011-06-19T08:53:29Z</time>
      </trkpt>
      <trkpt lat="45.77897" lon="4.84063">
        <ele>229</ele>
        <time>2011-06-19T08:53:30Z</time>
      </trkpt>
      <trkpt lat="45.77897" lon="4.84063">
        <ele>229</ele>
        <time>2011-06-19T08:53:31Z</time>
      </trkpt>
      <trkpt lat="45.77896" lon="4.84061">
        <ele>229</ele>
        <time>2011-06-19T08:53:32Z</time>
      </trkpt>
      <trkpt lat="45.77893" lon="4.84061">
        <ele>229</ele>
        <time>2011-06-19T08:53:33Z</time>
      </trkpt>
      <trkpt lat="45.77894" lon="4.84061">
        <ele>229</ele>
        <time>2011-06-19T08:53:34Z</time>
      </trkpt>
      <trkpt lat="45.77892" lon="4.8406">
        <ele>229</ele>
        <time>2011-06-19T08:53:35Z</time>
      </trkpt>
      <trkpt lat="45.77891" lon="4.8406">
        <ele>229</ele>
        <time>2011-06-19T08:53:36Z</time>
      </trkpt>
      <trkpt lat="45.77889" lon="4.84059">
        <ele>229</ele>
        <time>2011-06-19T08:53:37Z</time>
      </trkpt>
      <trkpt lat="45.77888" lon="4.84059">
        <ele>229</ele>
        <time>2011-06-19T08:53:38Z</time>
      </trkpt>
      <trkpt lat="45.77888" lon="4.84059">
        <ele>230</ele>
        <time>2011-06-19T08:53:39Z</time>
      </trkpt>
      <trkpt lat="45.77887" lon="4.84058">
        <ele>230</ele>
        <time>2011-06-19T08:53:40Z</time>
      </trkpt>
      <trkpt lat="45.77884" lon="4.84057">
        <ele>230</ele>
        <time>2011-06-19T08:53:41Z</time>
      </trkpt>
      <trkpt lat="45.77885" lon="4.84056">
        <ele>231</ele>
        <time>2011-06-19T08:53:42Z</time>
      </trkpt>
      <trkpt lat="45.77886" lon="4.84058">
        <ele>231</ele>
        <time>2011-06-19T08:53:43Z</time>
      </trkpt>
      <trkpt lat="45.77886" lon="4.84056">
        <ele>231</ele>
        <time>2011-06-19T08:53:44Z</time>
      </trkpt>
      <trkpt lat="45.77885" lon="4.84055">
        <ele>232</ele>
        <time>2011-06-19T08:53:45Z</time>
      </trkpt>
      <trkpt lat="45.77885" lon="4.8405">
        <ele>232</ele>
        <time>2011-06-19T08:53:46Z</time>
      </trkpt>
      <trkpt lat="45.77885" lon="4.84043">
        <ele>232</ele>
        <time>2011-06-19T08:53:47Z</time>
      </trkpt>
      <trkpt lat="45.77885" lon="4.8404">
        <ele>234</ele>
        <time>2011-06-19T08:53:48Z</time>
      </trkpt>
      <trkpt lat="45.77884" lon="4.84035">
        <ele>234</ele>
        <time>2011-06-19T08:53:49Z</time>
      </trkpt>
      <trkpt lat="45.77883" lon="4.84036">
        <ele>235</ele>
        <time>2011-06-19T08:53:52Z</time>
      </trkpt>
      <trkpt lat="45.77883" lon="4.84036">
        <ele>235</ele>
        <time>2011-06-19T08:53:52Z</time>
      </trkpt>
      <trkpt lat="45.77883" lon="4.84033">
        <ele>235</ele>
        <time>2011-06-19T08:53:52Z</time>
      </trkpt>
      <trkpt lat="45.77882" lon="4.8403">
        <ele>235</ele>
        <time>2011-06-19T08:53:53Z</time>
      </trkpt>
      <trkpt lat="45.77883" lon="4.84029">
        <ele>236</ele>
        <time>2011-06-19T08:53:54Z</time>
      </trkpt>
      <trkpt lat="45.77884" lon="4.84029">
        <ele>236</ele>
        <time>2011-06-19T08:53:55Z</time>
      </trkpt>
      <trkpt lat="45.77883" lon="4.84028">
        <ele>237</ele>
        <time>2011-06-19T08:53:56Z</time>
      </trkpt>
      <trkpt lat="45.77884" lon="4.84027">
        <ele>237</ele>
        <time>2011-06-19T08:53:57Z</time>
      </trkpt>
      <trkpt lat="45.77884" lon="4.84026">
        <ele>237</ele>
        <time>2011-06-19T08:53:58Z</time>
      </trkpt>
      <trkpt lat="45.77883" lon="4.84027">
        <ele>237</ele>
        <time>2011-06-19T08:53:59Z</time>
      </trkpt>
      <trkpt lat="45.77882" lon="4.84027">
        <ele>237</ele>
        <time>2011-06-19T08:54:00Z</time>
      </trkpt>
      <trkpt lat="45.77882" lon="4.84028">
        <ele>237</ele>
        <time>2011-06-19T08:54:01Z</time>
      </trkpt>
      <trkpt lat="45.77881" lon="4.84027">
        <ele>237</ele>
        <time>2011-06-19T08:54:02Z</time>
      </trkpt>
      <trkpt lat="45.77881" lon="4.84026">
        <ele>237</ele>
        <time>2011-06-19T08:54:03Z</time>
      </trkpt>
      <trkpt lat="45.77881" lon="4.84025">
        <ele>238</ele>
        <time>2011-06-19T08:54:04Z</time>
      </trkpt>
      <trkpt lat="45.77881" lon="4.84024">
        <ele>238</ele>
        <time>2011-06-19T08:54:05Z</time>
      </trkpt>
      <trkpt lat="45.77881" lon="4.84023">
        <ele>238</ele>
        <time>2011-06-19T08:54:06Z</time>
      </trkpt>
      <trkpt lat="45.77881" lon="4.84023">
        <ele>238</ele>
        <time>2011-06-19T08:54:07Z</time>
      </trkpt>
      <trkpt lat="45.77881" lon="4.84022">
        <ele>238</ele>
        <time>2011-06-19T08:54:08Z</time>
      </trkpt>
      <trkpt lat="45.77881" lon="4.84021">
        <ele>238</ele>
        <time>2011-06-19T08:54:09Z</time>
      </trkpt>
      <trkpt lat="45.77881" lon="4.8402">
        <ele>238</ele>
        <time>2011-06-19T08:54:10Z</time>
      </trkpt>
      <trkpt lat="45.77881" lon="4.8402">
        <ele>238</ele>
        <time>2011-06-19T08:54:11Z</time>
      </trkpt>
      <trkpt lat="45.77881" lon="4.8402">
        <ele>238</ele>
        <time>2011-06-19T08:54:12Z</time>
      </trkpt>
      <trkpt lat="45.77878" lon="4.84015">
        <ele>238</ele>
        <time>2011-06-19T08:54:15Z</time>
      </trkpt>
      <trkpt lat="45.77878" lon="4.84015">
        <ele>238</ele>
        <time>2011-06-19T08:54:15Z</time>
      </trkpt>
      <trkpt lat="45.77877" lon="4.84013">
        <ele>238</ele>
        <time>2011-06-19T08:54:15Z</time>
      </trkpt>
      <trkpt lat="45.77875" lon="4.84008">
        <ele>239</ele>
        <time>2011-06-19T08:54:16Z</time>
      </trkpt>
      <trkpt lat="45.77872" lon="4.84007">
        <ele>240</ele>
        <time>2011-06-19T08:54:17Z</time>
      </trkpt>
      <trkpt lat="45.77872" lon="4.84007">
        <ele>241</ele>
        <time>2011-06-19T08:54:18Z</time>
      </trkpt>
      <trkpt lat="45.77871" lon="4.84007">
        <ele>241</ele>
        <time>2011-06-19T08:54:19Z</time>
      </trkpt>
      <trkpt lat="45.7787" lon="4.84006">
        <ele>241</ele>
        <time>2011-06-19T08:54:20Z</time>
      </trkpt>
      <trkpt lat="45.7787" lon="4.84006">
        <ele>241</ele>
        <time>2011-06-19T08:54:21Z</time>
      </trkpt>
      <trkpt lat="45.77869" lon="4.84006">
        <ele>241</ele>
        <time>2011-06-19T08:54:22Z</time>
      </trkpt>
      <trkpt lat="45.77867" lon="4.84005">
        <ele>242</ele>
        <time>2011-06-19T08:54:23Z</time>
      </trkpt>
      <trkpt lat="45.77865" lon="4.84005">
        <ele>242</ele>
        <time>2011-06-19T08:54:24Z</time>
      </trkpt>
      <trkpt lat="45.77863" lon="4.84004">
        <ele>242</ele>
        <time>2011-06-19T08:54:25Z</time>
      </trkpt>
      <trkpt lat="45.77862" lon="4.84004">
        <ele>242</ele>
        <time>2011-06-19T08:54:26Z</time>
      </trkpt>
      <trkpt lat="45.77861" lon="4.84004">
        <ele>242</ele>
        <time>2011-06-19T08:54:27Z</time>
      </trkpt>
      <trkpt lat="45.77861" lon="4.84002">
        <ele>243</ele>
        <time>2011-06-19T08:54:28Z</time>
      </trkpt>
      <trkpt lat="45.7786" lon="4.84001">
        <ele>243</ele>
        <time>2011-06-19T08:54:29Z</time>
      </trkpt>
      <trkpt lat="45.7786" lon="4.84">
        <ele>243</ele>
        <time>2011-06-19T08:54:30Z</time>
      </trkpt>
      <trkpt lat="45.77859" lon="4.83999">
        <ele>243</ele>
        <time>2011-06-19T08:54:31Z</time>
      </trkpt>
      <trkpt lat="45.7786" lon="4.83998">
        <ele>243</ele>
        <time>2011-06-19T08:54:32Z</time>
      </trkpt>
      <trkpt lat="45.77858" lon="4.83997">
        <ele>243</ele>
        <time>2011-06-19T08:54:33Z</time>
      </trkpt>
      <trkpt lat="45.77858" lon="4.83996">
        <ele>243</ele>
        <time>2011-06-19T08:54:34Z</time>
      </trkpt>
      <trkpt lat="45.77858" lon="4.83996">
        <ele>243</ele>
        <time>2011-06-19T08:54:35Z</time>
      </trkpt>
      <trkpt lat="45.77856" lon="4.83992">
        <ele>243</ele>
        <time>2011-06-19T08:54:38Z</time>
      </trkpt>
      <trkpt lat="45.77856" lon="4.83992">
        <ele>243.0068359375</ele>
        <time>2011-06-19T08:54:38Z</time>
      </trkpt>
      <trkpt lat="45.77854" lon="4.83991">
        <ele>243.93211364746</ele>
        <time>2011-06-19T08:54:38Z</time>
      </trkpt>
      <trkpt lat="45.77852" lon="4.83993">
        <ele>244</ele>
        <time>2011-06-19T08:54:39Z</time>
      </trkpt>
      <trkpt lat="45.77852" lon="4.83992">
        <ele>245</ele>
        <time>2011-06-19T08:54:40Z</time>
      </trkpt>
      <trkpt lat="45.77851" lon="4.83991">
        <ele>245</ele>
        <time>2011-06-19T08:54:41Z</time>
      </trkpt>
      <trkpt lat="45.77851" lon="4.83993">
        <ele>245</ele>
        <time>2011-06-19T08:54:42Z</time>
      </trkpt>
      <trkpt lat="45.7785" lon="4.83992">
        <ele>245</ele>
        <time>2011-06-19T08:54:43Z</time>
      </trkpt>
      <trkpt lat="45.77849" lon="4.83991">
        <ele>245</ele>
        <time>2011-06-19T08:54:44Z</time>
      </trkpt>
      <trkpt lat="45.77849" lon="4.83991">
        <ele>245</ele>
        <time>2011-06-19T08:54:45Z</time>
      </trkpt>
      <trkpt lat="45.77846" lon="4.83992">
        <ele>245</ele>
        <time>2011-06-19T08:54:46Z</time>
      </trkpt>
      <trkpt lat="45.77845" lon="4.83992">
        <ele>245</ele>
        <time>2011-06-19T08:54:47Z</time>
      </trkpt>
      <trkpt lat="45.77845" lon="4.83992">
        <ele>244</ele>
        <time>2011-06-19T08:54:48Z</time>
      </trkpt>
      <trkpt lat="45.77845" lon="4.83992">
        <ele>244</ele>
        <time>2011-06-19T08:54:49Z</time>
      </trkpt>
      <trkpt lat="45.77845" lon="4.83993">
        <ele>244</ele>
        <time>2011-06-19T08:54:50Z</time>
      </trkpt>
      <trkpt lat="45.77845" lon="4.83993">
        <ele>244</ele>
        <time>2011-06-19T08:54:51Z</time>
      </trkpt>
      <trkpt lat="45.77845" lon="4.83993">
        <ele>244</ele>
        <time>2011-06-19T08:54:52Z</time>
      </trkpt>
      <trkpt lat="45.77845" lon="4.83993">
        <ele>244</ele>
        <time>2011-06-19T08:54:53Z</time>
      </trkpt>
      <trkpt lat="45.77845" lon="4.83992">
        <ele>245</ele>
        <time>2011-06-19T08:54:54Z</time>
      </trkpt>
      <trkpt lat="45.77845" lon="4.83992">
        <ele>245</ele>
        <time>2011-06-19T08:54:55Z</time>
      </trkpt>
      <trkpt lat="45.77845" lon="4.83992">
        <ele>245</ele>
        <time>2011-06-19T08:54:56Z</time>
      </trkpt>
      <trkpt lat="45.77845" lon="4.83992">
        <ele>244</ele>
        <time>2011-06-19T08:54:57Z</time>
      </trkpt>
      <trkpt lat="45.77845" lon="4.83992">
        <ele>244</ele>
        <time>2011-06-19T08:54:58Z</time>
      </trkpt>
      <trkpt lat="45.77845" lon="4.83992">
        <ele>245</ele>
        <time>2011-06-19T08:55:01Z</time>
      </trkpt>
      <trkpt lat="45.77845" lon="4.83992">
        <ele>245</ele>
        <time>2011-06-19T08:55:01Z</time>
      </trkpt>
      <trkpt lat="45.77845" lon="4.83992">
        <ele>245</ele>
        <time>2011-06-19T08:55:01Z</time>
      </trkpt>
      <trkpt lat="45.77846" lon="4.83992">
        <ele>245</ele>
        <time>2011-06-19T08:55:02Z</time>
      </trkpt>
      <trkpt lat="45.77846" lon="4.83992">
        <ele>245</ele>
        <time>2011-06-19T08:55:03Z</time>
      </trkpt>
      <trkpt lat="45.77846" lon="4.83992">
        <ele>245</ele>
        <time>2011-06-19T08:55:04Z</time>
      </trkpt>
      <trkpt lat="45.77842" lon="4.8399">
        <ele>244.07597351074</ele>
        <time>2011-06-19T08:55:05Z</time>
      </trkpt>
      <trkpt lat="45.7784" lon="4.83985">
        <ele>245</ele>
        <time>2011-06-19T08:55:06Z</time>
      </trkpt>
      <trkpt lat="45.77839" lon="4.8398">
        <ele>245</ele>
        <time>2011-06-19T08:55:07Z</time>
      </trkpt>
      <trkpt lat="45.77837" lon="4.83978">
        <ele>245</ele>
        <time>2011-06-19T08:55:08Z</time>
      </trkpt>
      <trkpt lat="45.77836" lon="4.83974">
        <ele>246</ele>
        <time>2011-06-19T08:55:09Z</time>
      </trkpt>
      <trkpt lat="45.77834" lon="4.83971">
        <ele>246</ele>
        <time>2011-06-19T08:55:11Z</time>
      </trkpt>
      <trkpt lat="45.77833" lon="4.83969">
        <ele>247</ele>
        <time>2011-06-19T08:55:11Z</time>
      </trkpt>
      <trkpt lat="45.77832" lon="4.83965">
        <ele>247</ele>
        <time>2011-06-19T08:55:12Z</time>
      </trkpt>
      <trkpt lat="45.7783" lon="4.83962">
        <ele>248</ele>
        <time>2011-06-19T08:55:13Z</time>
      </trkpt>
      <trkpt lat="45.77828" lon="4.83961">
        <ele>248</ele>
        <time>2011-06-19T08:55:14Z</time>
      </trkpt>
      <trkpt lat="45.77827" lon="4.83958">
        <ele>249</ele>
        <time>2011-06-19T08:55:16Z</time>
      </trkpt>
      <trkpt lat="45.77824" lon="4.83955">
        <ele>249</ele>
        <time>2011-06-19T08:55:16Z</time>
      </trkpt>
      <trkpt lat="45.7782" lon="4.83952">
        <ele>249</ele>
        <time>2011-06-19T08:55:17Z</time>
      </trkpt>
      <trkpt lat="45.77818" lon="4.83952">
        <ele>250</ele>
        <time>2011-06-19T08:55:18Z</time>
      </trkpt>
      <trkpt lat="45.77817" lon="4.83949">
        <ele>250</ele>
        <time>2011-06-19T08:55:19Z</time>
      </trkpt>
      <trkpt lat="45.77814" lon="4.83948">
        <ele>250</ele>
        <time>2011-06-19T08:55:20Z</time>
      </trkpt>
      <trkpt lat="45.7781" lon="4.83947">
        <ele>250</ele>
        <time>2011-06-19T08:55:21Z</time>
      </trkpt>
      <trkpt lat="45.7781" lon="4.83947">
        <ele>249</ele>
        <time>2011-06-19T08:55:24Z</time>
      </trkpt>
      <trkpt lat="45.7781" lon="4.83947">
        <ele>249</ele>
        <time>2011-06-19T08:55:24Z</time>
      </trkpt>
      <trkpt lat="45.7781" lon="4.83946">
        <ele>249.26383972168</ele>
        <time>2011-06-19T08:55:24Z</time>
      </trkpt>
      <trkpt lat="45.77807" lon="4.83948">
        <ele>253</ele>
        <time>2011-06-19T08:55:25Z</time>
      </trkpt>
      <trkpt lat="45.77806" lon="4.83947">
        <ele>253</ele>
        <time>2011-06-19T08:55:26Z</time>
      </trkpt>
      <trkpt lat="45.77807" lon="4.83945">
        <ele>253</ele>
        <time>2011-06-19T08:55:27Z</time>
      </trkpt>
      <trkpt lat="45.77807" lon="4.83944">
        <ele>253</ele>
        <time>2011-06-19T08:55:28Z</time>
      </trkpt>
      <trkpt lat="45.77806" lon="4.83943">
        <ele>253</ele>
        <time>2011-06-19T08:55:29Z</time>
      </trkpt>
      <trkpt lat="45.77806" lon="4.83942">
        <ele>253</ele>
        <time>2011-06-19T08:55:30Z</time>
      </trkpt>
      <trkpt lat="45.77804" lon="4.83941">
        <ele>253</ele>
        <time>2011-06-19T08:55:31Z</time>
      </trkpt>
      <trkpt lat="45.77803" lon="4.83939">
        <ele>254</ele>
        <time>2011-06-19T08:55:32Z</time>
      </trkpt>
      <trkpt lat="45.77803" lon="4.83938">
        <ele>255</ele>
        <time>2011-06-19T08:55:33Z</time>
      </trkpt>
      <trkpt lat="45.77802" lon="4.83935">
        <ele>255</ele>
        <time>2011-06-19T08:55:34Z</time>
      </trkpt>
      <trkpt lat="45.77801" lon="4.83933">
        <ele>255</ele>
        <time>2011-06-19T08:55:35Z</time>
      </trkpt>
      <trkpt lat="45.778" lon="4.83934">
        <ele>256</ele>
        <time>2011-06-19T08:55:36Z</time>
      </trkpt>
      <trkpt lat="45.77799" lon="4.83934">
        <ele>256</ele>
        <time>2011-06-19T08:55:37Z</time>
      </trkpt>
      <trkpt lat="45.77796" lon="4.83932">
        <ele>256</ele>
        <time>2011-06-19T08:55:38Z</time>
      </trkpt>
      <trkpt lat="45.77794" lon="4.83928">
        <ele>256</ele>
        <time>2011-06-19T08:55:39Z</time>
      </trkpt>
      <trkpt lat="45.77794" lon="4.83925">
        <ele>257</ele>
        <time>2011-06-19T08:55:41Z</time>
      </trkpt>
      <trkpt lat="45.77794" lon="4.83924">
        <ele>257</ele>
        <time>2011-06-19T08:55:41Z</time>
      </trkpt>
      <trkpt lat="45.77794" lon="4.83925">
        <ele>257</ele>
        <time>2011-06-19T08:55:42Z</time>
      </trkpt>
      <trkpt lat="45.77794" lon="4.83925">
        <ele>257</ele>
        <time>2011-06-19T08:55:43Z</time>
      </trkpt>
      <trkpt lat="45.77793" lon="4.83925">
        <ele>257</ele>
        <time>2011-06-19T08:55:44Z</time>
      </trkpt>
      <trkpt lat="45.77793" lon="4.83923">
        <ele>257</ele>
        <time>2011-06-19T08:55:47Z</time>
      </trkpt>
      <trkpt lat="45.77793" lon="4.83923">
        <ele>257</ele>
        <time>2011-06-19T08:55:47Z</time>
      </trkpt>
      <trkpt lat="45.77793" lon="4.83923">
        <ele>257</ele>
        <time>2011-06-19T08:55:47Z</time>
      </trkpt>
      <trkpt lat="45.77793" lon="4.83923">
        <ele>257</ele>
        <time>2011-06-19T08:55:48Z</time>
      </trkpt>
      <trkpt lat="45.77793" lon="4.83922">
        <ele>258</ele>
        <time>2011-06-19T08:55:49Z</time>
      </trkpt>
      <trkpt lat="45.77793" lon="4.83922">
        <ele>258</ele>
        <time>2011-06-19T08:55:50Z</time>
      </trkpt>
      <trkpt lat="45.77793" lon="4.83921">
        <ele>258</ele>
        <time>2011-06-19T08:55:51Z</time>
      </trkpt>
      <trkpt lat="45.77793" lon="4.83921">
        <ele>258</ele>
        <time>2011-06-19T08:55:52Z</time>
      </trkpt>
      <trkpt lat="45.77793" lon="4.83921">
        <ele>258</ele>
        <time>2011-06-19T08:55:53Z</time>
      </trkpt>
      <trkpt lat="45.77793" lon="4.83921">
        <ele>258</ele>
        <time>2011-06-19T08:55:54Z</time>
      </trkpt>
      <trkpt lat="45.77793" lon="4.83921">
        <ele>258</ele>
        <time>2011-06-19T08:55:55Z</time>
      </trkpt>
      <trkpt lat="45.77793" lon="4.83921">
        <ele>258</ele>
        <time>2011-06-19T08:55:56Z</time>
      </trkpt>
      <trkpt lat="45.77793" lon="4.83922">
        <ele>258</ele>
        <time>2011-06-19T08:55:57Z</time>
      </trkpt>
      <trkpt lat="45.77793" lon="4.83921">
        <ele>258</ele>
        <time>2011-06-19T08:55:58Z</time>
      </trkpt>
      <trkpt lat="45.77793" lon="4.83921">
        <ele>258</ele>
        <time>2011-06-19T08:55:59Z</time>
      </trkpt>
      <trkpt lat="45.77793" lon="4.83922">
        <ele>258</ele>
        <time>2011-06-19T08:56:00Z</time>
      </trkpt>
      <trkpt lat="45.77793" lon="4.83922">
        <ele>258</ele>
        <time>2011-06-19T08:56:01Z</time>
      </trkpt>
      <trkpt lat="45.77793" lon="4.83917">
        <ele>259.41207885742</ele>
        <time>2011-06-19T08:56:02Z</time>
      </trkpt>
      <trkpt lat="45.77794" lon="4.83911">
        <ele>261</ele>
        <time>2011-06-19T08:56:03Z</time>
      </trkpt>
      <trkpt lat="45.7779" lon="4.83909">
        <ele>261</ele>
        <time>2011-06-19T08:56:04Z</time>
      </trkpt>
      <trkpt lat="45.77788" lon="4.83907">
        <ele>262</ele>
        <time>2011-06-19T08:56:05Z</time>
      </trkpt>
      <trkpt lat="45.77785" lon="4.83902">
        <ele>262</ele>
        <time>2011-06-19T08:56:06Z</time>
      </trkpt>
      <trkpt lat="45.77785" lon="4.839">
        <ele>262</ele>
        <time>2011-06-19T08:56:07Z</time>
      </trkpt>
      <trkpt lat="45.77783" lon="4.83895">
        <ele>262</ele>
        <time>2011-06-19T08:56:10Z</time>
      </trkpt>
      <trkpt lat="45.77783" lon="4.83895">
        <ele>262</ele>
        <time>2011-06-19T08:56:10Z</time>
      </trkpt>
      <trkpt lat="45.77782" lon="4.83895">
        <ele>262</ele>
        <time>2011-06-19T08:56:10Z</time>
      </trkpt>
      <trkpt lat="45.77783" lon="4.83894">
        <ele>262</ele>
        <time>2011-06-19T08:56:11Z</time>
      </trkpt>
      <trkpt lat="45.77782" lon="4.83894">
        <ele>262</ele>
        <time>2011-06-19T08:56:12Z</time>
      </trkpt>
      <trkpt lat="45.77782" lon="4.83895">
        <ele>262</ele>
        <time>2011-06-19T08:56:13Z</time>
      </trkpt>
      <trkpt lat="45.77782" lon="4.83894">
        <ele>262</ele>
        <time>2011-06-19T08:56:14Z</time>
      </trkpt>
      <trkpt lat="45.77782" lon="4.83894">
        <ele>262</ele>
        <time>2011-06-19T08:56:15Z</time>
      </trkpt>
      <trkpt lat="45.77782" lon="4.83894">
        <ele>262</ele>
        <time>2011-06-19T08:56:16Z</time>
      </trkpt>
      <trkpt lat="45.77782" lon="4.83894">
        <ele>262</ele>
        <time>2011-06-19T08:56:17Z</time>
      </trkpt>
      <trkpt lat="45.77782" lon="4.83893">
        <ele>262</ele>
        <time>2011-06-19T08:56:18Z</time>
      </trkpt>
      <trkpt lat="45.77782" lon="4.83893">
        <ele>262</ele>
        <time>2011-06-19T08:56:19Z</time>
      </trkpt>
      <trkpt lat="45.77781" lon="4.83894">
        <ele>262</ele>
        <time>2011-06-19T08:56:20Z</time>
      </trkpt>
      <trkpt lat="45.77782" lon="4.83894">
        <ele>262</ele>
        <time>2011-06-19T08:56:21Z</time>
      </trkpt>
      <trkpt lat="45.77781" lon="4.83894">
        <ele>262</ele>
        <time>2011-06-19T08:56:22Z</time>
      </trkpt>
      <trkpt lat="45.77781" lon="4.83895">
        <ele>262</ele>
        <time>2011-06-19T08:56:23Z</time>
      </trkpt>
      <trkpt lat="45.77781" lon="4.83895">
        <ele>262</ele>
        <time>2011-06-19T08:56:24Z</time>
      </trkpt>
      <trkpt lat="45.77778" lon="4.83893">
        <ele>263.07891845703</ele>
        <time>2011-06-19T08:56:25Z</time>
      </trkpt>
      <trkpt lat="45.77772" lon="4.83887">
        <ele>266.17874145508</ele>
        <time>2011-06-19T08:56:26Z</time>
      </trkpt>
      <trkpt lat="45.77765" lon="4.83881">
        <ele>268.9782409668</ele>
        <time>2011-06-19T08:56:27Z</time>
      </trkpt>
      <trkpt lat="45.77762" lon="4.83878">
        <ele>272</ele>
        <time>2011-06-19T08:56:28Z</time>
      </trkpt>
      <trkpt lat="45.77761" lon="4.83876">
        <ele>272</ele>
        <time>2011-06-19T08:56:29Z</time>
      </trkpt>
      <trkpt lat="45.77758" lon="4.83874">
        <ele>272</ele>
        <time>2011-06-19T08:56:30Z</time>
      </trkpt>
      <trkpt lat="45.77757" lon="4.83874">
        <ele>272</ele>
        <time>2011-06-19T08:56:32Z</time>
      </trkpt>
      <trkpt lat="45.77757" lon="4.83874">
        <ele>272</ele>
        <time>2011-06-19T08:56:32Z</time>
      </trkpt>
      <trkpt lat="45.77754" lon="4.83872">
        <ele>273</ele>
        <time>2011-06-19T08:56:33Z</time>
      </trkpt>
      <trkpt lat="45.77752" lon="4.83871">
        <ele>273</ele>
        <time>2011-06-19T08:56:34Z</time>
      </trkpt>
      <trkpt lat="45.77749" lon="4.83872">
        <ele>273</ele>
        <time>2011-06-19T08:56:35Z</time>
      </trkpt>
      <trkpt lat="45.77747" lon="4.83871">
        <ele>272</ele>
        <time>2011-06-19T08:56:36Z</time>
      </trkpt>
      <trkpt lat="45.77744" lon="4.83871">
        <ele>272</ele>
        <time>2011-06-19T08:56:37Z</time>
      </trkpt>
      <trkpt lat="45.77743" lon="4.8387">
        <ele>273</ele>
        <time>2011-06-19T08:56:38Z</time>
      </trkpt>
      <trkpt lat="45.77741" lon="4.8387">
        <ele>273</ele>
        <time>2011-06-19T08:56:39Z</time>
      </trkpt>
      <trkpt lat="45.7774" lon="4.8387">
        <ele>274</ele>
        <time>2011-06-19T08:56:40Z</time>
      </trkpt>
      <trkpt lat="45.77738" lon="4.83869">
        <ele>275</ele>
        <time>2011-06-19T08:56:41Z</time>
      </trkpt>
      <trkpt lat="45.77737" lon="4.83868">
        <ele>275</ele>
        <time>2011-06-19T08:56:42Z</time>
      </trkpt>
      <trkpt lat="45.77735" lon="4.83867">
        <ele>276</ele>
        <time>2011-06-19T08:56:43Z</time>
      </trkpt>
      <trkpt lat="45.77733" lon="4.83866">
        <ele>276</ele>
        <time>2011-06-19T08:56:44Z</time>
      </trkpt>
      <trkpt lat="45.77731" lon="4.83864">
        <ele>276</ele>
        <time>2011-06-19T08:56:45Z</time>
      </trkpt>
      <trkpt lat="45.7773" lon="4.83863">
        <ele>276</ele>
        <time>2011-06-19T08:56:46Z</time>
      </trkpt>
      <trkpt lat="45.77728" lon="4.83862">
        <ele>276</ele>
        <time>2011-06-19T08:56:47Z</time>
      </trkpt>
      <trkpt lat="45.77727" lon="4.83861">
        <ele>276</ele>
        <time>2011-06-19T08:56:48Z</time>
      </trkpt>
      <trkpt lat="45.77726" lon="4.83859">
        <ele>276</ele>
        <time>2011-06-19T08:56:49Z</time>
      </trkpt>
      <trkpt lat="45.77725" lon="4.83858">
        <ele>276</ele>
        <time>2011-06-19T08:56:50Z</time>
      </trkpt>
      <trkpt lat="45.77722" lon="4.83854">
        <ele>277</ele>
        <time>2011-06-19T08:56:51Z</time>
      </trkpt>
      <trkpt lat="45.7772" lon="4.83852">
        <ele>278</ele>
        <time>2011-06-19T08:56:52Z</time>
      </trkpt>
      <trkpt lat="45.77718" lon="4.83851">
        <ele>279</ele>
        <time>2011-06-19T08:56:55Z</time>
      </trkpt>
      <trkpt lat="45.77718" lon="4.83851">
        <ele>279</ele>
        <time>2011-06-19T08:56:55Z</time>
      </trkpt>
      <trkpt lat="45.77715" lon="4.8385">
        <ele>279.53591918945</ele>
        <time>2011-06-19T08:56:55Z</time>
      </trkpt>
      <trkpt lat="45.77711" lon="4.83847">
        <ele>280</ele>
        <time>2011-06-19T08:56:56Z</time>
      </trkpt>
      <trkpt lat="45.77707" lon="4.83851">
        <ele>280</ele>
        <time>2011-06-19T08:56:57Z</time>
      </trkpt>
      <trkpt lat="45.77706" lon="4.8385">
        <ele>280</ele>
        <time>2011-06-19T08:56:58Z</time>
      </trkpt>
      <trkpt lat="45.77705" lon="4.83847">
        <ele>280</ele>
        <time>2011-06-19T08:56:59Z</time>
      </trkpt>
      <trkpt lat="45.77703" lon="4.83845">
        <ele>281</ele>
        <time>2011-06-19T08:57:00Z</time>
      </trkpt>
      <trkpt lat="45.77701" lon="4.83841">
        <ele>281</ele>
        <time>2011-06-19T08:57:01Z</time>
      </trkpt>
      <trkpt lat="45.77701" lon="4.83838">
        <ele>281</ele>
        <time>2011-06-19T08:57:02Z</time>
      </trkpt>
      <trkpt lat="45.777" lon="4.83837">
        <ele>282</ele>
        <time>2011-06-19T08:57:03Z</time>
      </trkpt>
      <trkpt lat="45.77699" lon="4.83833">
        <ele>282</ele>
        <time>2011-06-19T08:57:04Z</time>
      </trkpt>
      <trkpt lat="45.77699" lon="4.83833">
        <ele>282</ele>
        <time>2011-06-19T08:57:05Z</time>
      </trkpt>
      <trkpt lat="45.77698" lon="4.8383">
        <ele>282</ele>
        <time>2011-06-19T08:57:06Z</time>
      </trkpt>
      <trkpt lat="45.77699" lon="4.83828">
        <ele>283</ele>
        <time>2011-06-19T08:57:07Z</time>
      </trkpt>
      <trkpt lat="45.77698" lon="4.83825">
        <ele>283</ele>
        <time>2011-06-19T08:57:08Z</time>
      </trkpt>
      <trkpt lat="45.77697" lon="4.83821">
        <ele>282</ele>
        <time>2011-06-19T08:57:09Z</time>
      </trkpt>
      <trkpt lat="45.77696" lon="4.83817">
        <ele>281</ele>
        <time>2011-06-19T08:57:10Z</time>
      </trkpt>
      <trkpt lat="45.77694" lon="4.83814">
        <ele>282</ele>
        <time>2011-06-19T08:57:11Z</time>
      </trkpt>
      <trkpt lat="45.77694" lon="4.83809">
        <ele>282</ele>
        <time>2011-06-19T08:57:12Z</time>
      </trkpt>
      <trkpt lat="45.77695" lon="4.83805">
        <ele>282</ele>
        <time>2011-06-19T08:57:13Z</time>
      </trkpt>
      <trkpt lat="45.77694" lon="4.83798">
        <ele>281</ele>
        <time>2011-06-19T08:57:14Z</time>
      </trkpt>
      <trkpt lat="45.77693" lon="4.83795">
        <ele>281</ele>
        <time>2011-06-19T08:57:15Z</time>
      </trkpt>
      <trkpt lat="45.77691" lon="4.83791">
        <ele>281</ele>
        <time>2011-06-19T08:57:18Z</time>
      </trkpt>
      <trkpt lat="45.77691" lon="4.83791">
        <ele>280.99786376953</ele>
        <time>2011-06-19T08:57:18Z</time>
      </trkpt>
      <trkpt lat="45.77691" lon="4.8379">
        <ele>280.94076538086</ele>
        <time>2011-06-19T08:57:18Z</time>
      </trkpt>
      <trkpt lat="45.77689" lon="4.83783">
        <ele>280.45346069336</ele>
        <time>2011-06-19T08:57:19Z</time>
      </trkpt>
      <trkpt lat="45.77686" lon="4.83774">
        <ele>280</ele>
        <time>2011-06-19T08:57:20Z</time>
      </trkpt>
      <trkpt lat="45.77684" lon="4.83774">
        <ele>280</ele>
        <time>2011-06-19T08:57:21Z</time>
      </trkpt>
      <trkpt lat="45.77685" lon="4.8377">
        <ele>280</ele>
        <time>2011-06-19T08:57:22Z</time>
      </trkpt>
      <trkpt lat="45.77682" lon="4.8377">
        <ele>280</ele>
        <time>2011-06-19T08:57:23Z</time>
      </trkpt>
      <trkpt lat="45.77685" lon="4.83762">
        <ele>280.89007568359</ele>
        <time>2011-06-19T08:57:24Z</time>
      </trkpt>
      <trkpt lat="45.77684" lon="4.83758">
        <ele>281</ele>
        <time>2011-06-19T08:57:25Z</time>
      </trkpt>
      <trkpt lat="45.77683" lon="4.83756">
        <ele>281</ele>
        <time>2011-06-19T08:57:26Z</time>
      </trkpt>
      <trkpt lat="45.77681" lon="4.83753">
        <ele>281</ele>
        <time>2011-06-19T08:57:27Z</time>
      </trkpt>
      <trkpt lat="45.77676" lon="4.83752">
        <ele>282.76553344727</ele>
        <time>2011-06-19T08:57:28Z</time>
      </trkpt>
      <trkpt lat="45.77674" lon="4.83749">
        <ele>283</ele>
        <time>2011-06-19T08:57:29Z</time>
      </trkpt>
      <trkpt lat="45.77674" lon="4.83745">
        <ele>283</ele>
        <time>2011-06-19T08:57:30Z</time>
      </trkpt>
      <trkpt lat="45.77672" lon="4.83742">
        <ele>284</ele>
        <time>2011-06-19T08:57:31Z</time>
      </trkpt>
      <trkpt lat="45.77672" lon="4.83736">
        <ele>285</ele>
        <time>2011-06-19T08:57:32Z</time>
      </trkpt>
      <trkpt lat="45.7767" lon="4.83734">
        <ele>286</ele>
        <time>2011-06-19T08:57:33Z</time>
      </trkpt>
      <trkpt lat="45.7767" lon="4.8373">
        <ele>287</ele>
        <time>2011-06-19T08:57:34Z</time>
      </trkpt>
      <trkpt lat="45.77669" lon="4.83727">
        <ele>287</ele>
        <time>2011-06-19T08:57:35Z</time>
      </trkpt>
      <trkpt lat="45.77668" lon="4.83725">
        <ele>287</ele>
        <time>2011-06-19T08:57:36Z</time>
      </trkpt>
      <trkpt lat="45.77667" lon="4.83722">
        <ele>287</ele>
        <time>2011-06-19T08:57:37Z</time>
      </trkpt>
      <trkpt lat="45.77667" lon="4.8372">
        <ele>286</ele>
        <time>2011-06-19T08:57:38Z</time>
      </trkpt>
      <trkpt lat="45.77663" lon="4.83719">
        <ele>287</ele>
        <time>2011-06-19T08:57:41Z</time>
      </trkpt>
      <trkpt lat="45.77663" lon="4.83719">
        <ele>287.00338745117</ele>
        <time>2011-06-19T08:57:41Z</time>
      </trkpt>
      <trkpt lat="45.77662" lon="4.83716">
        <ele>287.73220825195</ele>
        <time>2011-06-19T08:57:41Z</time>
      </trkpt>
      <trkpt lat="45.77661" lon="4.83713">
        <ele>289</ele>
        <time>2011-06-19T08:57:42Z</time>
      </trkpt>
      <trkpt lat="45.77661" lon="4.8371">
        <ele>290</ele>
        <time>2011-06-19T08:57:43Z</time>
      </trkpt>
      <trkpt lat="45.77662" lon="4.83706">
        <ele>291</ele>
        <time>2011-06-19T08:57:44Z</time>
      </trkpt>
      <trkpt lat="45.77662" lon="4.83705">
        <ele>291</ele>
        <time>2011-06-19T08:57:45Z</time>
      </trkpt>
      <trkpt lat="45.7766" lon="4.83703">
        <ele>292</ele>
        <time>2011-06-19T08:57:47Z</time>
      </trkpt>
      <trkpt lat="45.77657" lon="4.83698">
        <ele>293</ele>
        <time>2011-06-19T08:57:47Z</time>
      </trkpt>
      <trkpt lat="45.77659" lon="4.83694">
        <ele>295</ele>
        <time>2011-06-19T08:57:48Z</time>
      </trkpt>
      <trkpt lat="45.77657" lon="4.83691">
        <ele>295</ele>
        <time>2011-06-19T08:57:49Z</time>
      </trkpt>
      <trkpt lat="45.77656" lon="4.83687">
        <ele>296</ele>
        <time>2011-06-19T08:57:50Z</time>
      </trkpt>
      <trkpt lat="45.77655" lon="4.83683">
        <ele>295</ele>
        <time>2011-06-19T08:57:51Z</time>
      </trkpt>
      <trkpt lat="45.77656" lon="4.8368">
        <ele>296</ele>
        <time>2011-06-19T08:57:52Z</time>
      </trkpt>
      <trkpt lat="45.77656" lon="4.83676">
        <ele>294</ele>
        <time>2011-06-19T08:57:53Z</time>
      </trkpt>
      <trkpt lat="45.77657" lon="4.83672">
        <ele>293</ele>
        <time>2011-06-19T08:57:54Z</time>
      </trkpt>
      <trkpt lat="45.77656" lon="4.83667">
        <ele>294</ele>
        <time>2011-06-19T08:57:55Z</time>
      </trkpt>
      <trkpt lat="45.77656" lon="4.83663">
        <ele>293</ele>
        <time>2011-06-19T08:57:56Z</time>
      </trkpt>
      <trkpt lat="45.77655" lon="4.83659">
        <ele>292</ele>
        <time>2011-06-19T08:57:57Z</time>
      </trkpt>
      <trkpt lat="45.77656" lon="4.83654">
        <ele>292</ele>
        <time>2011-06-19T08:57:58Z</time>
      </trkpt>
      <trkpt lat="45.77655" lon="4.8365">
        <ele>292</ele>
        <time>2011-06-19T08:57:59Z</time>
      </trkpt>
      <trkpt lat="45.77654" lon="4.83647">
        <ele>292</ele>
        <time>2011-06-19T08:58:00Z</time>
      </trkpt>
      <trkpt lat="45.77655" lon="4.83644">
        <ele>292</ele>
        <time>2011-06-19T08:58:01Z</time>
      </trkpt>
      <trkpt lat="45.77656" lon="4.83639">
        <ele>292</ele>
        <time>2011-06-19T08:58:04Z</time>
      </trkpt>
      <trkpt lat="45.77656" lon="4.83639">
        <ele>292</ele>
        <time>2011-06-19T08:58:04Z</time>
      </trkpt>
      <trkpt lat="45.77657" lon="4.83635">
        <ele>292</ele>
        <time>2011-06-19T08:58:04Z</time>
      </trkpt>
      <trkpt lat="45.77657" lon="4.83627">
        <ele>292</ele>
        <time>2011-06-19T08:58:05Z</time>
      </trkpt>
      <trkpt lat="45.77656" lon="4.83625">
        <ele>293</ele>
        <time>2011-06-19T08:58:06Z</time>
      </trkpt>
      <trkpt lat="45.77656" lon="4.83623">
        <ele>294</ele>
        <time>2011-06-19T08:58:07Z</time>
      </trkpt>
      <trkpt lat="45.77654" lon="4.83623">
        <ele>295</ele>
        <time>2011-06-19T08:58:08Z</time>
      </trkpt>
      <trkpt lat="45.77653" lon="4.83621">
        <ele>295</ele>
        <time>2011-06-19T08:58:09Z</time>
      </trkpt>
      <trkpt lat="45.77652" lon="4.83621">
        <ele>297</ele>
        <time>2011-06-19T08:58:10Z</time>
      </trkpt>
      <trkpt lat="45.77652" lon="4.83618">
        <ele>297</ele>
        <time>2011-06-19T08:58:11Z</time>
      </trkpt>
      <trkpt lat="45.77652" lon="4.83616">
        <ele>298</ele>
        <time>2011-06-19T08:58:12Z</time>
      </trkpt>
      <trkpt lat="45.77652" lon="4.83615">
        <ele>299</ele>
        <time>2011-06-19T08:58:13Z</time>
      </trkpt>
      <trkpt lat="45.77651" lon="4.83613">
        <ele>300</ele>
        <time>2011-06-19T08:58:14Z</time>
      </trkpt>
      <trkpt lat="45.77652" lon="4.83611">
        <ele>301</ele>
        <time>2011-06-19T08:58:15Z</time>
      </trkpt>
      <trkpt lat="45.77651" lon="4.83608">
        <ele>302</ele>
        <time>2011-06-19T08:58:16Z</time>
      </trkpt>
      <trkpt lat="45.77651" lon="4.83606">
        <ele>303</ele>
        <time>2011-06-19T08:58:17Z</time>
      </trkpt>
      <trkpt lat="45.77651" lon="4.83601">
        <ele>303</ele>
        <time>2011-06-19T08:58:18Z</time>
      </trkpt>
      <trkpt lat="45.77652" lon="4.83597">
        <ele>303</ele>
        <time>2011-06-19T08:58:19Z</time>
      </trkpt>
      <trkpt lat="45.77651" lon="4.83593">
        <ele>304</ele>
        <time>2011-06-19T08:58:20Z</time>
      </trkpt>
      <trkpt lat="45.77651" lon="4.83588">
        <ele>304</ele>
        <time>2011-06-19T08:58:21Z</time>
      </trkpt>
      <trkpt lat="45.7765" lon="4.83582">
        <ele>305</ele>
        <time>2011-06-19T08:58:22Z</time>
      </trkpt>
      <trkpt lat="45.7765" lon="4.83578">
        <ele>304</ele>
        <time>2011-06-19T08:58:23Z</time>
      </trkpt>
      <trkpt lat="45.7765" lon="4.83574">
        <ele>305</ele>
        <time>2011-06-19T08:58:24Z</time>
      </trkpt>
      <trkpt lat="45.77649" lon="4.83569">
        <ele>306</ele>
        <time>2011-06-19T08:58:27Z</time>
      </trkpt>
      <trkpt lat="45.77649" lon="4.83569">
        <ele>305.99731445312</ele>
        <time>2011-06-19T08:58:27Z</time>
      </trkpt>
      <trkpt lat="45.77649" lon="4.83565">
        <ele>305.517578125</ele>
        <time>2011-06-19T08:58:27Z</time>
      </trkpt>
      <trkpt lat="45.77649" lon="4.83556">
        <ele>305</ele>
        <time>2011-06-19T08:58:28Z</time>
      </trkpt>
      <trkpt lat="45.77649" lon="4.83551">
        <ele>305</ele>
        <time>2011-06-19T08:58:29Z</time>
      </trkpt>
      <trkpt lat="45.77649" lon="4.83546">
        <ele>305</ele>
        <time>2011-06-19T08:58:30Z</time>
      </trkpt>
      <trkpt lat="45.77649" lon="4.83542">
        <ele>305</ele>
        <time>2011-06-19T08:58:31Z</time>
      </trkpt>
      <trkpt lat="45.77647" lon="4.83537">
        <ele>305</ele>
        <time>2011-06-19T08:58:32Z</time>
      </trkpt>
      <trkpt lat="45.77647" lon="4.83533">
        <ele>305</ele>
        <time>2011-06-19T08:58:33Z</time>
      </trkpt>
      <trkpt lat="45.77646" lon="4.83527">
        <ele>303</ele>
        <time>2011-06-19T08:58:34Z</time>
      </trkpt>
      <trkpt lat="45.77647" lon="4.83518">
        <ele>302</ele>
        <time>2011-06-19T08:58:35Z</time>
      </trkpt>
      <trkpt lat="45.77646" lon="4.83512">
        <ele>301</ele>
        <time>2011-06-19T08:58:36Z</time>
      </trkpt>
      <trkpt lat="45.77646" lon="4.83509">
        <ele>301</ele>
        <time>2011-06-19T08:58:37Z</time>
      </trkpt>
      <trkpt lat="45.77645" lon="4.83506">
        <ele>301</ele>
        <time>2011-06-19T08:58:38Z</time>
      </trkpt>
      <trkpt lat="45.77643" lon="4.83502">
        <ele>300</ele>
        <time>2011-06-19T08:58:39Z</time>
      </trkpt>
      <trkpt lat="45.77643" lon="4.83499">
        <ele>300</ele>
        <time>2011-06-19T08:58:40Z</time>
      </trkpt>
      <trkpt lat="45.77644" lon="4.83497">
        <ele>300</ele>
        <time>2011-06-19T08:58:42Z</time>
      </trkpt>
      <trkpt lat="45.77641" lon="4.83494">
        <ele>300</ele>
        <time>2011-06-19T08:58:42Z</time>
      </trkpt>
      <trkpt lat="45.77639" lon="4.83492">
        <ele>299</ele>
        <time>2011-06-19T08:58:43Z</time>
      </trkpt>
      <trkpt lat="45.77638" lon="4.83491">
        <ele>299</ele>
        <time>2011-06-19T08:58:44Z</time>
      </trkpt>
      <trkpt lat="45.77635" lon="4.83489">
        <ele>299</ele>
        <time>2011-06-19T08:58:45Z</time>
      </trkpt>
      <trkpt lat="45.77634" lon="4.83488">
        <ele>299</ele>
        <time>2011-06-19T08:58:47Z</time>
      </trkpt>
      <trkpt lat="45.77631" lon="4.83488">
        <ele>300</ele>
        <time>2011-06-19T08:58:47Z</time>
      </trkpt>
      <trkpt lat="45.7763" lon="4.83487">
        <ele>300</ele>
        <time>2011-06-19T08:58:50Z</time>
      </trkpt>
      <trkpt lat="45.7763" lon="4.83487">
        <ele>300</ele>
        <time>2011-06-19T08:58:50Z</time>
      </trkpt>
      <trkpt lat="45.77628" lon="4.83487">
        <ele>300</ele>
        <time>2011-06-19T08:58:50Z</time>
      </trkpt>
      <trkpt lat="45.77621" lon="4.83488">
        <ele>300.80749511719</ele>
        <time>2011-06-19T08:58:51Z</time>
      </trkpt>
      <trkpt lat="45.77614" lon="4.83489">
        <ele>301</ele>
        <time>2011-06-19T08:58:52Z</time>
      </trkpt>
      <trkpt lat="45.77611" lon="4.83488">
        <ele>301</ele>
        <time>2011-06-19T08:58:53Z</time>
      </trkpt>
      <trkpt lat="45.7761" lon="4.83489">
        <ele>301</ele>
        <time>2011-06-19T08:58:54Z</time>
      </trkpt>
      <trkpt lat="45.77607" lon="4.83489">
        <ele>301</ele>
        <time>2011-06-19T08:58:55Z</time>
      </trkpt>
      <trkpt lat="45.77604" lon="4.83491">
        <ele>301</ele>
        <time>2011-06-19T08:58:56Z</time>
      </trkpt>
      <trkpt lat="45.77604" lon="4.83493">
        <ele>301</ele>
        <time>2011-06-19T08:58:57Z</time>
      </trkpt>
      <trkpt lat="45.776" lon="4.83494">
        <ele>301</ele>
        <time>2011-06-19T08:58:58Z</time>
      </trkpt>
      <trkpt lat="45.77596" lon="4.83491">
        <ele>301</ele>
        <time>2011-06-19T08:58:59Z</time>
      </trkpt>
      <trkpt lat="45.77592" lon="4.8349">
        <ele>301</ele>
        <time>2011-06-19T08:59:00Z</time>
      </trkpt>
      <trkpt lat="45.77589" lon="4.83492">
        <ele>301</ele>
        <time>2011-06-19T08:59:01Z</time>
      </trkpt>
      <trkpt lat="45.77587" lon="4.83492">
        <ele>301</ele>
        <time>2011-06-19T08:59:02Z</time>
      </trkpt>
      <trkpt lat="45.77583" lon="4.83494">
        <ele>301</ele>
        <time>2011-06-19T08:59:03Z</time>
      </trkpt>
      <trkpt lat="45.77578" lon="4.83495">
        <ele>300</ele>
        <time>2011-06-19T08:59:04Z</time>
      </trkpt>
      <trkpt lat="45.77574" lon="4.83497">
        <ele>300</ele>
        <time>2011-06-19T08:59:05Z</time>
      </trkpt>
      <trkpt lat="45.77571" lon="4.83499">
        <ele>300</ele>
        <time>2011-06-19T08:59:06Z</time>
      </trkpt>
      <trkpt lat="45.77568" lon="4.83503">
        <ele>300</ele>
        <time>2011-06-19T08:59:07Z</time>
      </trkpt>
      <trkpt lat="45.77567" lon="4.83499">
        <ele>300</ele>
        <time>2011-06-19T08:59:08Z</time>
      </trkpt>
      <trkpt lat="45.77565" lon="4.83492">
        <ele>299.06692504883</ele>
        <time>2011-06-19T08:59:09Z</time>
      </trkpt>
      <trkpt lat="45.77562" lon="4.83489">
        <ele>298</ele>
        <time>2011-06-19T08:59:10Z</time>
      </trkpt>
      <trkpt lat="45.7756" lon="4.83488">
        <ele>298</ele>
        <time>2011-06-19T08:59:13Z</time>
      </trkpt>
      <trkpt lat="45.7756" lon="4.83488">
        <ele>297.99816894531</ele>
        <time>2011-06-19T08:59:13Z</time>
      </trkpt>
      <trkpt lat="45.77559" lon="4.83487">
        <ele>297.32125854492</ele>
        <time>2011-06-19T08:59:13Z</time>
      </trkpt>
      <trkpt lat="45.77556" lon="4.83486">
        <ele>296</ele>
        <time>2011-06-19T08:59:14Z</time>
      </trkpt>
      <trkpt lat="45.77553" lon="4.83486">
        <ele>296</ele>
        <time>2011-06-19T08:59:15Z</time>
      </trkpt>
      <trkpt lat="45.77552" lon="4.83485">
        <ele>297</ele>
        <time>2011-06-19T08:59:16Z</time>
      </trkpt>
      <trkpt lat="45.77551" lon="4.83485">
        <ele>298</ele>
        <time>2011-06-19T08:59:17Z</time>
      </trkpt>
      <trkpt lat="45.77549" lon="4.83484">
        <ele>299</ele>
        <time>2011-06-19T08:59:18Z</time>
      </trkpt>
      <trkpt lat="45.77546" lon="4.83486">
        <ele>300</ele>
        <time>2011-06-19T08:59:19Z</time>
      </trkpt>
      <trkpt lat="45.77543" lon="4.83485">
        <ele>301</ele>
        <time>2011-06-19T08:59:20Z</time>
      </trkpt>
      <trkpt lat="45.7754" lon="4.83486">
        <ele>302</ele>
        <time>2011-06-19T08:59:21Z</time>
      </trkpt>
      <trkpt lat="45.77536" lon="4.83487">
        <ele>303</ele>
        <time>2011-06-19T08:59:22Z</time>
      </trkpt>
      <trkpt lat="45.77533" lon="4.8349">
        <ele>303</ele>
        <time>2011-06-19T08:59:23Z</time>
      </trkpt>
      <trkpt lat="45.77529" lon="4.83492">
        <ele>304</ele>
        <time>2011-06-19T08:59:24Z</time>
      </trkpt>
      <trkpt lat="45.77527" lon="4.83493">
        <ele>304</ele>
        <time>2011-06-19T08:59:25Z</time>
      </trkpt>
      <trkpt lat="45.77522" lon="4.83495">
        <ele>304</ele>
        <time>2011-06-19T08:59:26Z</time>
      </trkpt>
      <trkpt lat="45.77519" lon="4.83497">
        <ele>304</ele>
        <time>2011-06-19T08:59:27Z</time>
      </trkpt>
      <trkpt lat="45.77514" lon="4.83498">
        <ele>304</ele>
        <time>2011-06-19T08:59:28Z</time>
      </trkpt>
      <trkpt lat="45.7751" lon="4.83499">
        <ele>304</ele>
        <time>2011-06-19T08:59:29Z</time>
      </trkpt>
      <trkpt lat="45.77508" lon="4.835">
        <ele>305</ele>
        <time>2011-06-19T08:59:30Z</time>
      </trkpt>
      <trkpt lat="45.77504" lon="4.835">
        <ele>305</ele>
        <time>2011-06-19T08:59:31Z</time>
      </trkpt>
      <trkpt lat="45.775" lon="4.835">
        <ele>306</ele>
        <time>2011-06-19T08:59:32Z</time>
      </trkpt>
      <trkpt lat="45.77498" lon="4.83498">
        <ele>306</ele>
        <time>2011-06-19T08:59:33Z</time>
      </trkpt>
      <trkpt lat="45.77495" lon="4.83494">
        <ele>307</ele>
        <time>2011-06-19T08:59:36Z</time>
      </trkpt>
      <trkpt lat="45.77495" lon="4.83494">
        <ele>307.00177001953</ele>
        <time>2011-06-19T08:59:36Z</time>
      </trkpt>
      <trkpt lat="45.77495" lon="4.83492">
        <ele>307.23284912109</ele>
        <time>2011-06-19T08:59:36Z</time>
      </trkpt>
      <trkpt lat="45.77493" lon="4.83482">
        <ele>306.55752563477</ele>
        <time>2011-06-19T08:59:37Z</time>
      </trkpt>
      <trkpt lat="45.77491" lon="4.83472">
        <ele>306.11618041992</ele>
        <time>2011-06-19T08:59:38Z</time>
      </trkpt>
      <trkpt lat="45.77489" lon="4.83464">
        <ele>306</ele>
        <time>2011-06-19T08:59:39Z</time>
      </trkpt>
      <trkpt lat="45.77488" lon="4.8346">
        <ele>306</ele>
        <time>2011-06-19T08:59:40Z</time>
      </trkpt>
      <trkpt lat="45.77487" lon="4.83456">
        <ele>305</ele>
        <time>2011-06-19T08:59:41Z</time>
      </trkpt>
      <trkpt lat="45.77484" lon="4.83451">
        <ele>305</ele>
        <time>2011-06-19T08:59:42Z</time>
      </trkpt>
      <trkpt lat="45.77485" lon="4.8345">
        <ele>305</ele>
        <time>2011-06-19T08:59:43Z</time>
      </trkpt>
      <trkpt lat="45.77483" lon="4.83447">
        <ele>305</ele>
        <time>2011-06-19T08:59:44Z</time>
      </trkpt>
      <trkpt lat="45.77482" lon="4.83442">
        <ele>305</ele>
        <time>2011-06-19T08:59:45Z</time>
      </trkpt>
      <trkpt lat="45.77482" lon="4.83439">
        <ele>305</ele>
        <time>2011-06-19T08:59:46Z</time>
      </trkpt>
      <trkpt lat="45.77482" lon="4.83435">
        <ele>305</ele>
        <time>2011-06-19T08:59:47Z</time>
      </trkpt>
      <trkpt lat="45.77481" lon="4.83431">
        <ele>305</ele>
        <time>2011-06-19T08:59:48Z</time>
      </trkpt>
      <trkpt lat="45.77479" lon="4.83427">
        <ele>305</ele>
        <time>2011-06-19T08:59:49Z</time>
      </trkpt>
      <trkpt lat="45.77479" lon="4.83424">
        <ele>305</ele>
        <time>2011-06-19T08:59:50Z</time>
      </trkpt>
      <trkpt lat="45.77479" lon="4.8342">
        <ele>305</ele>
        <time>2011-06-19T08:59:51Z</time>
      </trkpt>
      <trkpt lat="45.7748" lon="4.83416">
        <ele>305</ele>
        <time>2011-06-19T08:59:52Z</time>
      </trkpt>
      <trkpt lat="45.7748" lon="4.83412">
        <ele>305</ele>
        <time>2011-06-19T08:59:53Z</time>
      </trkpt>
      <trkpt lat="45.77479" lon="4.83408">
        <ele>305</ele>
        <time>2011-06-19T08:59:54Z</time>
      </trkpt>
      <trkpt lat="45.77478" lon="4.83404">
        <ele>305</ele>
        <time>2011-06-19T08:59:55Z</time>
      </trkpt>
      <trkpt lat="45.77476" lon="4.834">
        <ele>304</ele>
        <time>2011-06-19T08:59:56Z</time>
      </trkpt>
      <trkpt lat="45.77475" lon="4.83396">
        <ele>303</ele>
        <time>2011-06-19T08:59:59Z</time>
      </trkpt>
      <trkpt lat="45.77475" lon="4.83396">
        <ele>302.99624633789</ele>
        <time>2011-06-19T08:59:59Z</time>
      </trkpt>
      <trkpt lat="45.77474" lon="4.83393">
        <ele>302.65548706055</ele>
        <time>2011-06-19T08:59:59Z</time>
      </trkpt>
      <trkpt lat="45.77475" lon="4.83384">
        <ele>302.05328369141</ele>
        <time>2011-06-19T09:00:00Z</time>
      </trkpt>
      <trkpt lat="45.77476" lon="4.83378">
        <ele>302</ele>
        <time>2011-06-19T09:00:01Z</time>
      </trkpt>
      <trkpt lat="45.77476" lon="4.83373">
        <ele>302</ele>
        <time>2011-06-19T09:00:02Z</time>
      </trkpt>
      <trkpt lat="45.77476" lon="4.83368">
        <ele>301</ele>
        <time>2011-06-19T09:00:03Z</time>
      </trkpt>
      <trkpt lat="45.77476" lon="4.83364">
        <ele>301</ele>
        <time>2011-06-19T09:00:04Z</time>
      </trkpt>
      <trkpt lat="45.77476" lon="4.83359">
        <ele>300</ele>
        <time>2011-06-19T09:00:05Z</time>
      </trkpt>
      <trkpt lat="45.77476" lon="4.83354">
        <ele>300</ele>
        <time>2011-06-19T09:00:06Z</time>
      </trkpt>
      <trkpt lat="45.77478" lon="4.8335">
        <ele>300</ele>
        <time>2011-06-19T09:00:07Z</time>
      </trkpt>
      <trkpt lat="45.77479" lon="4.83346">
        <ele>300</ele>
        <time>2011-06-19T09:00:08Z</time>
      </trkpt>
      <trkpt lat="45.77479" lon="4.83342">
        <ele>301</ele>
        <time>2011-06-19T09:00:09Z</time>
      </trkpt>
      <trkpt lat="45.7748" lon="4.83338">
        <ele>301</ele>
        <time>2011-06-19T09:00:10Z</time>
      </trkpt>
      <trkpt lat="45.7748" lon="4.83335">
        <ele>301</ele>
        <time>2011-06-19T09:00:11Z</time>
      </trkpt>
      <trkpt lat="45.77481" lon="4.83331">
        <ele>302</ele>
        <time>2011-06-19T09:00:12Z</time>
      </trkpt>
      <trkpt lat="45.77482" lon="4.83327">
        <ele>302</ele>
        <time>2011-06-19T09:00:13Z</time>
      </trkpt>
      <trkpt lat="45.77481" lon="4.83324">
        <ele>301</ele>
        <time>2011-06-19T09:00:14Z</time>
      </trkpt>
      <trkpt lat="45.7748" lon="4.8332">
        <ele>301</ele>
        <time>2011-06-19T09:00:15Z</time>
      </trkpt>
      <trkpt lat="45.77479" lon="4.83316">
        <ele>301</ele>
        <time>2011-06-19T09:00:16Z</time>
      </trkpt>
      <trkpt lat="45.77478" lon="4.83313">
        <ele>301</ele>
        <time>2011-06-19T09:00:17Z</time>
      </trkpt>
      <trkpt lat="45.77478" lon="4.8331">
        <ele>301</ele>
        <time>2011-06-19T09:00:18Z</time>
      </trkpt>
      <trkpt lat="45.77479" lon="4.83306">
        <ele>302</ele>
        <time>2011-06-19T09:00:19Z</time>
      </trkpt>
      <trkpt lat="45.77479" lon="4.83302">
        <ele>302</ele>
        <time>2011-06-19T09:00:22Z</time>
      </trkpt>
      <trkpt lat="45.77479" lon="4.83302">
        <ele>302</ele>
        <time>2011-06-19T09:00:22Z</time>
      </trkpt>
      <trkpt lat="45.77479" lon="4.83298">
        <ele>302.68707275391</ele>
        <time>2011-06-19T09:00:22Z</time>
      </trkpt>
      <trkpt lat="45.77479" lon="4.83291">
        <ele>303</ele>
        <time>2011-06-19T09:00:23Z</time>
      </trkpt>
      <trkpt lat="45.77479" lon="4.83287">
        <ele>303</ele>
        <time>2011-06-19T09:00:24Z</time>
      </trkpt>
      <trkpt lat="45.7748" lon="4.83284">
        <ele>303</ele>
        <time>2011-06-19T09:00:25Z</time>
      </trkpt>
      <trkpt lat="45.77481" lon="4.8328">
        <ele>304</ele>
        <time>2011-06-19T09:00:26Z</time>
      </trkpt>
      <trkpt lat="45.77483" lon="4.83277">
        <ele>304</ele>
        <time>2011-06-19T09:00:27Z</time>
      </trkpt>
      <trkpt lat="45.77483" lon="4.83273">
        <ele>305</ele>
        <time>2011-06-19T09:00:28Z</time>
      </trkpt>
      <trkpt lat="45.77483" lon="4.83269">
        <ele>306</ele>
        <time>2011-06-19T09:00:29Z</time>
      </trkpt>
      <trkpt lat="45.77484" lon="4.83265">
        <ele>307</ele>
        <time>2011-06-19T09:00:30Z</time>
      </trkpt>
      <trkpt lat="45.77484" lon="4.8326">
        <ele>308</ele>
        <time>2011-06-19T09:00:31Z</time>
      </trkpt>
      <trkpt lat="45.77484" lon="4.83257">
        <ele>309</ele>
        <time>2011-06-19T09:00:32Z</time>
      </trkpt>
      <trkpt lat="45.77485" lon="4.83251">
        <ele>310</ele>
        <time>2011-06-19T09:00:33Z</time>
      </trkpt>
      <trkpt lat="45.77484" lon="4.83246">
        <ele>310</ele>
        <time>2011-06-19T09:00:34Z</time>
      </trkpt>
      <trkpt lat="45.77484" lon="4.8324">
        <ele>311</ele>
        <time>2011-06-19T09:00:35Z</time>
      </trkpt>
      <trkpt lat="45.77482" lon="4.83234">
        <ele>311</ele>
        <time>2011-06-19T09:00:37Z</time>
      </trkpt>
      <trkpt lat="45.7748" lon="4.83229">
        <ele>312</ele>
        <time>2011-06-19T09:00:37Z</time>
      </trkpt>
      <trkpt lat="45.77478" lon="4.83226">
        <ele>313</ele>
        <time>2011-06-19T09:00:38Z</time>
      </trkpt>
      <trkpt lat="45.77473" lon="4.83224">
        <ele>313</ele>
        <time>2011-06-19T09:00:39Z</time>
      </trkpt>
      <trkpt lat="45.77471" lon="4.83222">
        <ele>313</ele>
        <time>2011-06-19T09:00:40Z</time>
      </trkpt>
      <trkpt lat="45.77465" lon="4.83224">
        <ele>312</ele>
        <time>2011-06-19T09:00:41Z</time>
      </trkpt>
      <trkpt lat="45.7746" lon="4.83225">
        <ele>312</ele>
        <time>2011-06-19T09:00:42Z</time>
      </trkpt>
      <trkpt lat="45.77456" lon="4.83226">
        <ele>312</ele>
        <time>2011-06-19T09:00:45Z</time>
      </trkpt>
      <trkpt lat="45.77456" lon="4.83226">
        <ele>312.00128173828</ele>
        <time>2011-06-19T09:00:45Z</time>
      </trkpt>
      <trkpt lat="45.77454" lon="4.83226">
        <ele>312.20532226562</ele>
        <time>2011-06-19T09:00:45Z</time>
      </trkpt>
      <trkpt lat="45.77446" lon="4.83225">
        <ele>312.88330078125</ele>
        <time>2011-06-19T09:00:46Z</time>
      </trkpt>
      <trkpt lat="45.77439" lon="4.83225">
        <ele>313.75610351562</ele>
        <time>2011-06-19T09:00:47Z</time>
      </trkpt>
      <trkpt lat="45.77431" lon="4.83224">
        <ele>314.29067993164</ele>
        <time>2011-06-19T09:00:48Z</time>
      </trkpt>
      <trkpt lat="45.77424" lon="4.83224">
        <ele>314.15698242188</ele>
        <time>2011-06-19T09:00:49Z</time>
      </trkpt>
      <trkpt lat="45.77417" lon="4.83222">
        <ele>314.06820678711</ele>
        <time>2011-06-19T09:00:50Z</time>
      </trkpt>
      <trkpt lat="45.77409" lon="4.83221">
        <ele>314.00796508789</ele>
        <time>2011-06-19T09:00:51Z</time>
      </trkpt>
      <trkpt lat="45.77404" lon="4.83217">
        <ele>314</ele>
        <time>2011-06-19T09:00:52Z</time>
      </trkpt>
      <trkpt lat="45.77403" lon="4.83212">
        <ele>313</ele>
        <time>2011-06-19T09:00:53Z</time>
      </trkpt>
      <trkpt lat="45.77401" lon="4.83211">
        <ele>313</ele>
        <time>2011-06-19T09:00:54Z</time>
      </trkpt>
      <trkpt lat="45.77399" lon="4.8321">
        <ele>314</ele>
        <time>2011-06-19T09:00:55Z</time>
      </trkpt>
      <trkpt lat="45.77395" lon="4.8321">
        <ele>314</ele>
        <time>2011-06-19T09:00:56Z</time>
      </trkpt>
      <trkpt lat="45.77393" lon="4.83209">
        <ele>315</ele>
        <time>2011-06-19T09:00:57Z</time>
      </trkpt>
      <trkpt lat="45.77389" lon="4.8321">
        <ele>315</ele>
        <time>2011-06-19T09:00:58Z</time>
      </trkpt>
      <trkpt lat="45.77385" lon="4.8321">
        <ele>316</ele>
        <time>2011-06-19T09:00:59Z</time>
      </trkpt>
      <trkpt lat="45.77382" lon="4.83211">
        <ele>316</ele>
        <time>2011-06-19T09:01:00Z</time>
      </trkpt>
      <trkpt lat="45.7738" lon="4.83211">
        <ele>316</ele>
        <time>2011-06-19T09:01:01Z</time>
      </trkpt>
      <trkpt lat="45.77377" lon="4.8321">
        <ele>316</ele>
        <time>2011-06-19T09:01:02Z</time>
      </trkpt>
      <trkpt lat="45.77373" lon="4.83209">
        <ele>316</ele>
        <time>2011-06-19T09:01:03Z</time>
      </trkpt>
      <trkpt lat="45.7737" lon="4.83209">
        <ele>316</ele>
        <time>2011-06-19T09:01:04Z</time>
      </trkpt>
      <trkpt lat="45.77366" lon="4.83207">
        <ele>316</ele>
        <time>2011-06-19T09:01:05Z</time>
      </trkpt>
      <trkpt lat="45.77363" lon="4.83207">
        <ele>316</ele>
        <time>2011-06-19T09:01:08Z</time>
      </trkpt>
      <trkpt lat="45.77363" lon="4.83207">
        <ele>315.99722290039</ele>
        <time>2011-06-19T09:01:08Z</time>
      </trkpt>
      <trkpt lat="45.77361" lon="4.83207">
        <ele>315.99780273438</ele>
        <time>2011-06-19T09:01:08Z</time>
      </trkpt>
      <trkpt lat="45.77354" lon="4.83207">
        <ele>315.99938964844</ele>
        <time>2011-06-19T09:01:09Z</time>
      </trkpt>
      <trkpt lat="45.77347" lon="4.83206">
        <ele>315</ele>
        <time>2011-06-19T09:01:10Z</time>
      </trkpt>
      <trkpt lat="45.77343" lon="4.83205">
        <ele>315</ele>
        <time>2011-06-19T09:01:11Z</time>
      </trkpt>
      <trkpt lat="45.77339" lon="4.83204">
        <ele>315</ele>
        <time>2011-06-19T09:01:12Z</time>
      </trkpt>
      <trkpt lat="45.77334" lon="4.83202">
        <ele>314</ele>
        <time>2011-06-19T09:01:13Z</time>
      </trkpt>
      <trkpt lat="45.77332" lon="4.83201">
        <ele>315</ele>
        <time>2011-06-19T09:01:14Z</time>
      </trkpt>
      <trkpt lat="45.77329" lon="4.83201">
        <ele>314</ele>
        <time>2011-06-19T09:01:15Z</time>
      </trkpt>
      <trkpt lat="45.77323" lon="4.832">
        <ele>314</ele>
        <time>2011-06-19T09:01:16Z</time>
      </trkpt>
      <trkpt lat="45.77315" lon="4.83198">
        <ele>311.76699829102</ele>
        <time>2011-06-19T09:01:17Z</time>
      </trkpt>
      <trkpt lat="45.77309" lon="4.83195">
        <ele>310.56683349609</ele>
        <time>2011-06-19T09:01:18Z</time>
      </trkpt>
      <trkpt lat="45.77302" lon="4.83191">
        <ele>311</ele>
        <time>2011-06-19T09:01:19Z</time>
      </trkpt>
      <trkpt lat="45.77302" lon="4.83188">
        <ele>311</ele>
        <time>2011-06-19T09:01:20Z</time>
      </trkpt>
      <trkpt lat="45.77301" lon="4.83183">
        <ele>311</ele>
        <time>2011-06-19T09:01:21Z</time>
      </trkpt>
      <trkpt lat="45.77301" lon="4.83181">
        <ele>311</ele>
        <time>2011-06-19T09:01:23Z</time>
      </trkpt>
      <trkpt lat="45.773" lon="4.83178">
        <ele>310</ele>
        <time>2011-06-19T09:01:23Z</time>
      </trkpt>
      <trkpt lat="45.77297" lon="4.83175">
        <ele>310</ele>
        <time>2011-06-19T09:01:24Z</time>
      </trkpt>
      <trkpt lat="45.77296" lon="4.83174">
        <ele>310</ele>
        <time>2011-06-19T09:01:25Z</time>
      </trkpt>
      <trkpt lat="45.77294" lon="4.83173">
        <ele>309</ele>
        <time>2011-06-19T09:01:26Z</time>
      </trkpt>
      <trkpt lat="45.77292" lon="4.83169">
        <ele>309</ele>
        <time>2011-06-19T09:01:28Z</time>
      </trkpt>
      <trkpt lat="45.77289" lon="4.83167">
        <ele>309</ele>
        <time>2011-06-19T09:01:28Z</time>
      </trkpt>
      <trkpt lat="45.77286" lon="4.83164">
        <ele>309</ele>
        <time>2011-06-19T09:01:31Z</time>
      </trkpt>
      <trkpt lat="45.77286" lon="4.83164">
        <ele>309</ele>
        <time>2011-06-19T09:01:31Z</time>
      </trkpt>
      <trkpt lat="45.77284" lon="4.83161">
        <ele>309</ele>
        <time>2011-06-19T09:01:31Z</time>
      </trkpt>
      <trkpt lat="45.7728" lon="4.83158">
        <ele>309</ele>
        <time>2011-06-19T09:01:32Z</time>
      </trkpt>
      <trkpt lat="45.77278" lon="4.83156">
        <ele>309</ele>
        <time>2011-06-19T09:01:33Z</time>
      </trkpt>
      <trkpt lat="45.77276" lon="4.83157">
        <ele>309</ele>
        <time>2011-06-19T09:01:34Z</time>
      </trkpt>
      <trkpt lat="45.77275" lon="4.83151">
        <ele>309</ele>
        <time>2011-06-19T09:01:35Z</time>
      </trkpt>
      <trkpt lat="45.77277" lon="4.83141">
        <ele>309</ele>
        <time>2011-06-19T09:01:36Z</time>
      </trkpt>
      <trkpt lat="45.77277" lon="4.83139">
        <ele>309</ele>
        <time>2011-06-19T09:01:37Z</time>
      </trkpt>
      <trkpt lat="45.77275" lon="4.83135">
        <ele>309</ele>
        <time>2011-06-19T09:01:38Z</time>
      </trkpt>
      <trkpt lat="45.77275" lon="4.83131">
        <ele>308</ele>
        <time>2011-06-19T09:01:39Z</time>
      </trkpt>
      <trkpt lat="45.77273" lon="4.83128">
        <ele>309</ele>
        <time>2011-06-19T09:01:40Z</time>
      </trkpt>
      <trkpt lat="45.77272" lon="4.83125">
        <ele>309</ele>
        <time>2011-06-19T09:01:41Z</time>
      </trkpt>
      <trkpt lat="45.77271" lon="4.83122">
        <ele>309</ele>
        <time>2011-06-19T09:01:42Z</time>
      </trkpt>
      <trkpt lat="45.77272" lon="4.83122">
        <ele>309</ele>
        <time>2011-06-19T09:01:43Z</time>
      </trkpt>
      <trkpt lat="45.77271" lon="4.83119">
        <ele>310</ele>
        <time>2011-06-19T09:01:44Z</time>
      </trkpt>
      <trkpt lat="45.77271" lon="4.83116">
        <ele>310</ele>
        <time>2011-06-19T09:01:45Z</time>
      </trkpt>
      <trkpt lat="45.7727" lon="4.83113">
        <ele>310</ele>
        <time>2011-06-19T09:01:46Z</time>
      </trkpt>
      <trkpt lat="45.77271" lon="4.83109">
        <ele>310</ele>
        <time>2011-06-19T09:01:47Z</time>
      </trkpt>
      <trkpt lat="45.77271" lon="4.83104">
        <ele>311</ele>
        <time>2011-06-19T09:01:48Z</time>
      </trkpt>
      <trkpt lat="45.77271" lon="4.83099">
        <ele>311</ele>
        <time>2011-06-19T09:01:49Z</time>
      </trkpt>
      <trkpt lat="45.77271" lon="4.83094">
        <ele>311</ele>
        <time>2011-06-19T09:01:50Z</time>
      </trkpt>
      <trkpt lat="45.77271" lon="4.83089">
        <ele>310</ele>
        <time>2011-06-19T09:01:51Z</time>
      </trkpt>
      <trkpt lat="45.77268" lon="4.83085">
        <ele>310</ele>
        <time>2011-06-19T09:01:54Z</time>
      </trkpt>
      <trkpt lat="45.77268" lon="4.83085">
        <ele>310</ele>
        <time>2011-06-19T09:01:54Z</time>
      </trkpt>
      <trkpt lat="45.77268" lon="4.83085">
        <ele>310.0676574707</ele>
        <time>2011-06-19T09:01:54Z</time>
      </trkpt>
      <trkpt lat="45.77266" lon="4.83078">
        <ele>310.59564208984</ele>
        <time>2011-06-19T09:01:55Z</time>
      </trkpt>
      <trkpt lat="45.77263" lon="4.83068">
        <ele>310.99090576172</ele>
        <time>2011-06-19T09:01:56Z</time>
      </trkpt>
      <trkpt lat="45.77263" lon="4.83065">
        <ele>311</ele>
        <time>2011-06-19T09:01:57Z</time>
      </trkpt>
      <trkpt lat="45.77262" lon="4.83061">
        <ele>311</ele>
        <time>2011-06-19T09:01:58Z</time>
      </trkpt>
      <trkpt lat="45.77261" lon="4.83057">
        <ele>311</ele>
        <time>2011-06-19T09:01:59Z</time>
      </trkpt>
      <trkpt lat="45.77257" lon="4.83054">
        <ele>310</ele>
        <time>2011-06-19T09:02:00Z</time>
      </trkpt>
      <trkpt lat="45.77254" lon="4.83051">
        <ele>310</ele>
        <time>2011-06-19T09:02:01Z</time>
      </trkpt>
      <trkpt lat="45.77252" lon="4.83048">
        <ele>310</ele>
        <time>2011-06-19T09:02:02Z</time>
      </trkpt>
      <trkpt lat="45.77251" lon="4.83043">
        <ele>311</ele>
        <time>2011-06-19T09:02:03Z</time>
      </trkpt>
      <trkpt lat="45.77248" lon="4.8304">
        <ele>311</ele>
        <time>2011-06-19T09:02:04Z</time>
      </trkpt>
      <trkpt lat="45.77246" lon="4.83035">
        <ele>310</ele>
        <time>2011-06-19T09:02:05Z</time>
      </trkpt>
      <trkpt lat="45.77247" lon="4.83034">
        <ele>310</ele>
        <time>2011-06-19T09:02:06Z</time>
      </trkpt>
      <trkpt lat="45.77247" lon="4.8303">
        <ele>309</ele>
        <time>2011-06-19T09:02:07Z</time>
      </trkpt>
      <trkpt lat="45.77247" lon="4.83024">
        <ele>308</ele>
        <time>2011-06-19T09:02:08Z</time>
      </trkpt>
      <trkpt lat="45.77244" lon="4.83016">
        <ele>308</ele>
        <time>2011-06-19T09:02:09Z</time>
      </trkpt>
      <trkpt lat="45.77244" lon="4.83012">
        <ele>307</ele>
        <time>2011-06-19T09:02:10Z</time>
      </trkpt>
      <trkpt lat="45.77244" lon="4.83006">
        <ele>307</ele>
        <time>2011-06-19T09:02:11Z</time>
      </trkpt>
      <trkpt lat="45.77244" lon="4.83001">
        <ele>306</ele>
        <time>2011-06-19T09:02:12Z</time>
      </trkpt>
      <trkpt lat="45.77243" lon="4.82998">
        <ele>306</ele>
        <time>2011-06-19T09:02:13Z</time>
      </trkpt>
      <trkpt lat="45.7724" lon="4.82993">
        <ele>306</ele>
        <time>2011-06-19T09:02:14Z</time>
      </trkpt>
      <trkpt lat="45.77236" lon="4.82984">
        <ele>306</ele>
        <time>2011-06-19T09:02:17Z</time>
      </trkpt>
      <trkpt lat="45.77236" lon="4.82984">
        <ele>306</ele>
        <time>2011-06-19T09:02:17Z</time>
      </trkpt>
      <trkpt lat="45.77235" lon="4.82982">
        <ele>306</ele>
        <time>2011-06-19T09:02:17Z</time>
      </trkpt>
      <trkpt lat="45.77231" lon="4.82972">
        <ele>306</ele>
        <time>2011-06-19T09:02:18Z</time>
      </trkpt>
      <trkpt lat="45.77227" lon="4.82963">
        <ele>306</ele>
        <time>2011-06-19T09:02:19Z</time>
      </trkpt>
      <trkpt lat="45.77224" lon="4.82954">
        <ele>306</ele>
        <time>2011-06-19T09:02:20Z</time>
      </trkpt>
      <trkpt lat="45.77222" lon="4.82952">
        <ele>305</ele>
        <time>2011-06-19T09:02:21Z</time>
      </trkpt>
      <trkpt lat="45.77221" lon="4.82949">
        <ele>305</ele>
        <time>2011-06-19T09:02:22Z</time>
      </trkpt>
      <trkpt lat="45.77219" lon="4.82946">
        <ele>304</ele>
        <time>2011-06-19T09:02:23Z</time>
      </trkpt>
      <trkpt lat="45.77219" lon="4.82944">
        <ele>305</ele>
        <time>2011-06-19T09:02:24Z</time>
      </trkpt>
      <trkpt lat="45.77219" lon="4.82942">
        <ele>305</ele>
        <time>2011-06-19T09:02:25Z</time>
      </trkpt>
      <trkpt lat="45.77217" lon="4.82939">
        <ele>305</ele>
        <time>2011-06-19T09:02:26Z</time>
      </trkpt>
      <trkpt lat="45.77217" lon="4.82934">
        <ele>306</ele>
        <time>2011-06-19T09:02:27Z</time>
      </trkpt>
      <trkpt lat="45.77217" lon="4.8293">
        <ele>307</ele>
        <time>2011-06-19T09:02:28Z</time>
      </trkpt>
      <trkpt lat="45.77218" lon="4.82927">
        <ele>308</ele>
        <time>2011-06-19T09:02:29Z</time>
      </trkpt>
      <trkpt lat="45.77218" lon="4.82924">
        <ele>309</ele>
        <time>2011-06-19T09:02:30Z</time>
      </trkpt>
      <trkpt lat="45.7722" lon="4.82915">
        <ele>308.04220581055</ele>
        <time>2011-06-19T09:02:31Z</time>
      </trkpt>
      <trkpt lat="45.77223" lon="4.82907">
        <ele>307</ele>
        <time>2011-06-19T09:02:32Z</time>
      </trkpt>
      <trkpt lat="45.77223" lon="4.82901">
        <ele>307</ele>
        <time>2011-06-19T09:02:33Z</time>
      </trkpt>
      <trkpt lat="45.77224" lon="4.82895">
        <ele>307</ele>
        <time>2011-06-19T09:02:34Z</time>
      </trkpt>
      <trkpt lat="45.77226" lon="4.82889">
        <ele>306</ele>
        <time>2011-06-19T09:02:35Z</time>
      </trkpt>
      <trkpt lat="45.77227" lon="4.82886">
        <ele>305</ele>
        <time>2011-06-19T09:02:36Z</time>
      </trkpt>
      <trkpt lat="45.77227" lon="4.82881">
        <ele>305</ele>
        <time>2011-06-19T09:02:37Z</time>
      </trkpt>
      <trkpt lat="45.77227" lon="4.82878">
        <ele>305</ele>
        <time>2011-06-19T09:02:40Z</time>
      </trkpt>
      <trkpt lat="45.77227" lon="4.82878">
        <ele>305</ele>
        <time>2011-06-19T09:02:40Z</time>
      </trkpt>
      <trkpt lat="45.77227" lon="4.82877">
        <ele>304.85293579102</ele>
        <time>2011-06-19T09:02:40Z</time>
      </trkpt>
      <trkpt lat="45.77225" lon="4.82869">
        <ele>304.18267822266</ele>
        <time>2011-06-19T09:02:41Z</time>
      </trkpt>
      <trkpt lat="45.77221" lon="4.82862">
        <ele>303</ele>
        <time>2011-06-19T09:02:42Z</time>
      </trkpt>
      <trkpt lat="45.77219" lon="4.82857">
        <ele>301</ele>
        <time>2011-06-19T09:02:43Z</time>
      </trkpt>
      <trkpt lat="45.77215" lon="4.82851">
        <ele>299</ele>
        <time>2011-06-19T09:02:44Z</time>
      </trkpt>
      <trkpt lat="45.77213" lon="4.82845">
        <ele>298</ele>
        <time>2011-06-19T09:02:45Z</time>
      </trkpt>
      <trkpt lat="45.77212" lon="4.82841">
        <ele>297</ele>
        <time>2011-06-19T09:02:46Z</time>
      </trkpt>
      <trkpt lat="45.77213" lon="4.82835">
        <ele>297</ele>
        <time>2011-06-19T09:02:47Z</time>
      </trkpt>
      <trkpt lat="45.77213" lon="4.82832">
        <ele>296</ele>
        <time>2011-06-19T09:02:48Z</time>
      </trkpt>
      <trkpt lat="45.77213" lon="4.82829">
        <ele>297</ele>
        <time>2011-06-19T09:02:49Z</time>
      </trkpt>
      <trkpt lat="45.77213" lon="4.82825">
        <ele>296</ele>
        <time>2011-06-19T09:02:50Z</time>
      </trkpt>
      <trkpt lat="45.77213" lon="4.82821">
        <ele>296</ele>
        <time>2011-06-19T09:02:51Z</time>
      </trkpt>
      <trkpt lat="45.77213" lon="4.82816">
        <ele>296</ele>
        <time>2011-06-19T09:02:52Z</time>
      </trkpt>
      <trkpt lat="45.77213" lon="4.82812">
        <ele>296</ele>
        <time>2011-06-19T09:02:53Z</time>
      </trkpt>
      <trkpt lat="45.77214" lon="4.82808">
        <ele>297</ele>
        <time>2011-06-19T09:02:54Z</time>
      </trkpt>
      <trkpt lat="45.77215" lon="4.82804">
        <ele>296</ele>
        <time>2011-06-19T09:02:55Z</time>
      </trkpt>
      <trkpt lat="45.77215" lon="4.828">
        <ele>296</ele>
        <time>2011-06-19T09:02:56Z</time>
      </trkpt>
      <trkpt lat="45.77217" lon="4.82797">
        <ele>296</ele>
        <time>2011-06-19T09:02:57Z</time>
      </trkpt>
      <trkpt lat="45.77214" lon="4.82791">
        <ele>296</ele>
        <time>2011-06-19T09:02:58Z</time>
      </trkpt>
      <trkpt lat="45.77215" lon="4.82787">
        <ele>296</ele>
        <time>2011-06-19T09:02:59Z</time>
      </trkpt>
      <trkpt lat="45.77216" lon="4.82783">
        <ele>296</ele>
        <time>2011-06-19T09:03:00Z</time>
      </trkpt>
      <trkpt lat="45.77214" lon="4.82777">
        <ele>297</ele>
        <time>2011-06-19T09:03:03Z</time>
      </trkpt>
      <trkpt lat="45.77214" lon="4.82777">
        <ele>297</ele>
        <time>2011-06-19T09:03:03Z</time>
      </trkpt>
      <trkpt lat="45.77214" lon="4.82777">
        <ele>297</ele>
        <time>2011-06-19T09:03:03Z</time>
      </trkpt>
      <trkpt lat="45.77214" lon="4.82769">
        <ele>297</ele>
        <time>2011-06-19T09:03:04Z</time>
      </trkpt>
      <trkpt lat="45.77213" lon="4.82758">
        <ele>297</ele>
        <time>2011-06-19T09:03:05Z</time>
      </trkpt>
      <trkpt lat="45.77213" lon="4.82753">
        <ele>297</ele>
        <time>2011-06-19T09:03:06Z</time>
      </trkpt>
      <trkpt lat="45.77213" lon="4.82743">
        <ele>296.03656005859</ele>
        <time>2011-06-19T09:03:07Z</time>
      </trkpt>
      <trkpt lat="45.77214" lon="4.82737">
        <ele>295</ele>
        <time>2011-06-19T09:03:08Z</time>
      </trkpt>
      <trkpt lat="45.77213" lon="4.82733">
        <ele>295</ele>
        <time>2011-06-19T09:03:09Z</time>
      </trkpt>
      <trkpt lat="45.77212" lon="4.82729">
        <ele>295</ele>
        <time>2011-06-19T09:03:10Z</time>
      </trkpt>
      <trkpt lat="45.77212" lon="4.82725">
        <ele>295</ele>
        <time>2011-06-19T09:03:11Z</time>
      </trkpt>
      <trkpt lat="45.77214" lon="4.8272">
        <ele>294</ele>
        <time>2011-06-19T09:03:12Z</time>
      </trkpt>
      <trkpt lat="45.77213" lon="4.82717">
        <ele>293</ele>
        <time>2011-06-19T09:03:13Z</time>
      </trkpt>
      <trkpt lat="45.77212" lon="4.82714">
        <ele>293</ele>
        <time>2011-06-19T09:03:14Z</time>
      </trkpt>
      <trkpt lat="45.77212" lon="4.82713">
        <ele>292</ele>
        <time>2011-06-19T09:03:15Z</time>
      </trkpt>
      <trkpt lat="45.77212" lon="4.82711">
        <ele>293</ele>
        <time>2011-06-19T09:03:16Z</time>
      </trkpt>
      <trkpt lat="45.77211" lon="4.82709">
        <ele>293</ele>
        <time>2011-06-19T09:03:17Z</time>
      </trkpt>
      <trkpt lat="45.7721" lon="4.82708">
        <ele>293</ele>
        <time>2011-06-19T09:03:18Z</time>
      </trkpt>
      <trkpt lat="45.77211" lon="4.82702">
        <ele>292</ele>
        <time>2011-06-19T09:03:19Z</time>
      </trkpt>
      <trkpt lat="45.77212" lon="4.82698">
        <ele>291</ele>
        <time>2011-06-19T09:03:20Z</time>
      </trkpt>
      <trkpt lat="45.77213" lon="4.82695">
        <ele>291</ele>
        <time>2011-06-19T09:03:21Z</time>
      </trkpt>
      <trkpt lat="45.77214" lon="4.82693">
        <ele>291</ele>
        <time>2011-06-19T09:03:22Z</time>
      </trkpt>
      <trkpt lat="45.77216" lon="4.82691">
        <ele>291</ele>
        <time>2011-06-19T09:03:23Z</time>
      </trkpt>
      <trkpt lat="45.77217" lon="4.82689">
        <ele>292</ele>
        <time>2011-06-19T09:03:26Z</time>
      </trkpt>
      <trkpt lat="45.77217" lon="4.82689">
        <ele>292</ele>
        <time>2011-06-19T09:03:26Z</time>
      </trkpt>
      <trkpt lat="45.77217" lon="4.82686">
        <ele>292.31387329102</ele>
        <time>2011-06-19T09:03:26Z</time>
      </trkpt>
      <trkpt lat="45.77218" lon="4.82677">
        <ele>292.89450073242</ele>
        <time>2011-06-19T09:03:27Z</time>
      </trkpt>
      <trkpt lat="45.77218" lon="4.8267">
        <ele>294</ele>
        <time>2011-06-19T09:03:28Z</time>
      </trkpt>
      <trkpt lat="45.77218" lon="4.82665">
        <ele>295</ele>
        <time>2011-06-19T09:03:29Z</time>
      </trkpt>
      <trkpt lat="45.7722" lon="4.82661">
        <ele>296</ele>
        <time>2011-06-19T09:03:30Z</time>
      </trkpt>
      <trkpt lat="45.77222" lon="4.82657">
        <ele>299</ele>
        <time>2011-06-19T09:03:31Z</time>
      </trkpt>
      <trkpt lat="45.77221" lon="4.82658">
        <ele>299</ele>
        <time>2011-06-19T09:03:32Z</time>
      </trkpt>
      <trkpt lat="45.77217" lon="4.82661">
        <ele>299</ele>
        <time>2011-06-19T09:03:33Z</time>
      </trkpt>
      <trkpt lat="45.77212" lon="4.82666">
        <ele>300</ele>
        <time>2011-06-19T09:03:34Z</time>
      </trkpt>
      <trkpt lat="45.77207" lon="4.8267">
        <ele>299</ele>
        <time>2011-06-19T09:03:35Z</time>
      </trkpt>
      <trkpt lat="45.77205" lon="4.82673">
        <ele>299</ele>
        <time>2011-06-19T09:03:37Z</time>
      </trkpt>
      <trkpt lat="45.77202" lon="4.82676">
        <ele>299</ele>
        <time>2011-06-19T09:03:37Z</time>
      </trkpt>
      <trkpt lat="45.77198" lon="4.8268">
        <ele>300</ele>
        <time>2011-06-19T09:03:38Z</time>
      </trkpt>
      <trkpt lat="45.77194" lon="4.82681">
        <ele>301</ele>
        <time>2011-06-19T09:03:39Z</time>
      </trkpt>
      <trkpt lat="45.7719" lon="4.82684">
        <ele>302</ele>
        <time>2011-06-19T09:03:40Z</time>
      </trkpt>
      <trkpt lat="45.77186" lon="4.82688">
        <ele>303</ele>
        <time>2011-06-19T09:03:41Z</time>
      </trkpt>
      <trkpt lat="45.77182" lon="4.8269">
        <ele>303</ele>
        <time>2011-06-19T09:03:42Z</time>
      </trkpt>
      <trkpt lat="45.77177" lon="4.82693">
        <ele>302</ele>
        <time>2011-06-19T09:03:43Z</time>
      </trkpt>
      <trkpt lat="45.77172" lon="4.82696">
        <ele>302</ele>
        <time>2011-06-19T09:03:44Z</time>
      </trkpt>
      <trkpt lat="45.77168" lon="4.82697">
        <ele>303</ele>
        <time>2011-06-19T09:03:45Z</time>
      </trkpt>
      <trkpt lat="45.77161" lon="4.82699">
        <ele>303</ele>
        <time>2011-06-19T09:03:46Z</time>
      </trkpt>
      <trkpt lat="45.77159" lon="4.82698">
        <ele>303</ele>
        <time>2011-06-19T09:03:49Z</time>
      </trkpt>
      <trkpt lat="45.77159" lon="4.82698">
        <ele>303.00198364258</ele>
        <time>2011-06-19T09:03:49Z</time>
      </trkpt>
      <trkpt lat="45.77156" lon="4.82697">
        <ele>303.35321044922</ele>
        <time>2011-06-19T09:03:49Z</time>
      </trkpt>
      <trkpt lat="45.77148" lon="4.82695">
        <ele>304.56857299805</ele>
        <time>2011-06-19T09:03:50Z</time>
      </trkpt>
      <trkpt lat="45.77141" lon="4.82692">
        <ele>304.98086547852</ele>
        <time>2011-06-19T09:03:51Z</time>
      </trkpt>
      <trkpt lat="45.77136" lon="4.82689">
        <ele>306</ele>
        <time>2011-06-19T09:03:52Z</time>
      </trkpt>
      <trkpt lat="45.77133" lon="4.82688">
        <ele>306</ele>
        <time>2011-06-19T09:03:53Z</time>
      </trkpt>
      <trkpt lat="45.77129" lon="4.82684">
        <ele>306</ele>
        <time>2011-06-19T09:03:54Z</time>
      </trkpt>
      <trkpt lat="45.77125" lon="4.82682">
        <ele>307</ele>
        <time>2011-06-19T09:03:55Z</time>
      </trkpt>
      <trkpt lat="45.77122" lon="4.82682">
        <ele>307</ele>
        <time>2011-06-19T09:03:56Z</time>
      </trkpt>
      <trkpt lat="45.77119" lon="4.82677">
        <ele>307</ele>
        <time>2011-06-19T09:03:57Z</time>
      </trkpt>
      <trkpt lat="45.77116" lon="4.82677">
        <ele>308</ele>
        <time>2011-06-19T09:03:58Z</time>
      </trkpt>
      <trkpt lat="45.77109" lon="4.82675">
        <ele>308</ele>
        <time>2011-06-19T09:03:59Z</time>
      </trkpt>
      <trkpt lat="45.77104" lon="4.82673">
        <ele>308</ele>
        <time>2011-06-19T09:04:00Z</time>
      </trkpt>
      <trkpt lat="45.771" lon="4.82674">
        <ele>309</ele>
        <time>2011-06-19T09:04:01Z</time>
      </trkpt>
      <trkpt lat="45.77096" lon="4.8267">
        <ele>309</ele>
        <time>2011-06-19T09:04:02Z</time>
      </trkpt>
      <trkpt lat="45.77093" lon="4.8267">
        <ele>309</ele>
        <time>2011-06-19T09:04:03Z</time>
      </trkpt>
      <trkpt lat="45.77089" lon="4.8267">
        <ele>310</ele>
        <time>2011-06-19T09:04:04Z</time>
      </trkpt>
      <trkpt lat="45.77085" lon="4.82669">
        <ele>309</ele>
        <time>2011-06-19T09:04:05Z</time>
      </trkpt>
      <trkpt lat="45.77078" lon="4.82669">
        <ele>309</ele>
        <time>2011-06-19T09:04:06Z</time>
      </trkpt>
      <trkpt lat="45.77075" lon="4.82669">
        <ele>309</ele>
        <time>2011-06-19T09:04:07Z</time>
      </trkpt>
      <trkpt lat="45.77071" lon="4.82669">
        <ele>309</ele>
        <time>2011-06-19T09:04:08Z</time>
      </trkpt>
      <trkpt lat="45.77069" lon="4.82668">
        <ele>309</ele>
        <time>2011-06-19T09:04:09Z</time>
      </trkpt>
      <trkpt lat="45.77066" lon="4.82667">
        <ele>309</ele>
        <time>2011-06-19T09:04:12Z</time>
      </trkpt>
      <trkpt lat="45.77066" lon="4.82667">
        <ele>309</ele>
        <time>2011-06-19T09:04:12Z</time>
      </trkpt>
      <trkpt lat="45.77064" lon="4.82662">
        <ele>308.1064453125</ele>
        <time>2011-06-19T09:04:12Z</time>
      </trkpt>
      <trkpt lat="45.77061" lon="4.82659">
        <ele>308</ele>
        <time>2011-06-19T09:04:13Z</time>
      </trkpt>
      <trkpt lat="45.77059" lon="4.82657">
        <ele>308</ele>
        <time>2011-06-19T09:04:14Z</time>
      </trkpt>
      <trkpt lat="45.77058" lon="4.82653">
        <ele>307</ele>
        <time>2011-06-19T09:04:15Z</time>
      </trkpt>
      <trkpt lat="45.77055" lon="4.82651">
        <ele>306</ele>
        <time>2011-06-19T09:04:16Z</time>
      </trkpt>
      <trkpt lat="45.77052" lon="4.82649">
        <ele>304</ele>
        <time>2011-06-19T09:04:17Z</time>
      </trkpt>
      <trkpt lat="45.77048" lon="4.82649">
        <ele>303</ele>
        <time>2011-06-19T09:04:18Z</time>
      </trkpt>
      <trkpt lat="45.77042" lon="4.8265">
        <ele>302</ele>
        <time>2011-06-19T09:04:19Z</time>
      </trkpt>
      <trkpt lat="45.77038" lon="4.82649">
        <ele>302</ele>
        <time>2011-06-19T09:04:20Z</time>
      </trkpt>
      <trkpt lat="45.77033" lon="4.8265">
        <ele>301</ele>
        <time>2011-06-19T09:04:21Z</time>
      </trkpt>
      <trkpt lat="45.77029" lon="4.8265">
        <ele>300</ele>
        <time>2011-06-19T09:04:22Z</time>
      </trkpt>
      <trkpt lat="45.77024" lon="4.8265">
        <ele>299</ele>
        <time>2011-06-19T09:04:23Z</time>
      </trkpt>
      <trkpt lat="45.7702" lon="4.8265">
        <ele>298</ele>
        <time>2011-06-19T09:04:24Z</time>
      </trkpt>
      <trkpt lat="45.77016" lon="4.8265">
        <ele>298</ele>
        <time>2011-06-19T09:04:25Z</time>
      </trkpt>
      <trkpt lat="45.77013" lon="4.82649">
        <ele>296</ele>
        <time>2011-06-19T09:04:26Z</time>
      </trkpt>
      <trkpt lat="45.77008" lon="4.82652">
        <ele>295</ele>
        <time>2011-06-19T09:04:27Z</time>
      </trkpt>
      <trkpt lat="45.77004" lon="4.82654">
        <ele>294</ele>
        <time>2011-06-19T09:04:28Z</time>
      </trkpt>
      <trkpt lat="45.77" lon="4.82654">
        <ele>293</ele>
        <time>2011-06-19T09:04:29Z</time>
      </trkpt>
      <trkpt lat="45.76995" lon="4.82652">
        <ele>293</ele>
        <time>2011-06-19T09:04:30Z</time>
      </trkpt>
      <trkpt lat="45.76994" lon="4.8265">
        <ele>292</ele>
        <time>2011-06-19T09:04:31Z</time>
      </trkpt>
      <trkpt lat="45.76995" lon="4.82648">
        <ele>291</ele>
        <time>2011-06-19T09:04:32Z</time>
      </trkpt>
      <trkpt lat="45.76993" lon="4.82646">
        <ele>290</ele>
        <time>2011-06-19T09:04:35Z</time>
      </trkpt>
      <trkpt lat="45.76993" lon="4.82646">
        <ele>289.9973449707</ele>
        <time>2011-06-19T09:04:35Z</time>
      </trkpt>
      <trkpt lat="45.76993" lon="4.82644">
        <ele>289.47268676758</ele>
        <time>2011-06-19T09:04:35Z</time>
      </trkpt>
      <trkpt lat="45.76991" lon="4.82637">
        <ele>289</ele>
        <time>2011-06-19T09:04:36Z</time>
      </trkpt>
      <trkpt lat="45.76991" lon="4.82632">
        <ele>289</ele>
        <time>2011-06-19T09:04:37Z</time>
      </trkpt>
      <trkpt lat="45.76991" lon="4.82628">
        <ele>288</ele>
        <time>2011-06-19T09:04:38Z</time>
      </trkpt>
      <trkpt lat="45.7699" lon="4.82623">
        <ele>289</ele>
        <time>2011-06-19T09:04:39Z</time>
      </trkpt>
      <trkpt lat="45.7699" lon="4.82617">
        <ele>288</ele>
        <time>2011-06-19T09:04:40Z</time>
      </trkpt>
      <trkpt lat="45.7699" lon="4.82612">
        <ele>287</ele>
        <time>2011-06-19T09:04:41Z</time>
      </trkpt>
      <trkpt lat="45.7699" lon="4.82607">
        <ele>287</ele>
        <time>2011-06-19T09:04:42Z</time>
      </trkpt>
      <trkpt lat="45.7699" lon="4.82602">
        <ele>285</ele>
        <time>2011-06-19T09:04:43Z</time>
      </trkpt>
      <trkpt lat="45.7699" lon="4.82598">
        <ele>283</ele>
        <time>2011-06-19T09:04:44Z</time>
      </trkpt>
      <trkpt lat="45.76985" lon="4.82593">
        <ele>281.23175048828</ele>
        <time>2011-06-19T09:04:45Z</time>
      </trkpt>
      <trkpt lat="45.76983" lon="4.82588">
        <ele>280</ele>
        <time>2011-06-19T09:04:46Z</time>
      </trkpt>
      <trkpt lat="45.76982" lon="4.82583">
        <ele>278</ele>
        <time>2011-06-19T09:04:47Z</time>
      </trkpt>
      <trkpt lat="45.76985" lon="4.82578">
        <ele>277</ele>
        <time>2011-06-19T09:04:48Z</time>
      </trkpt>
      <trkpt lat="45.76983" lon="4.82573">
        <ele>277</ele>
        <time>2011-06-19T09:04:49Z</time>
      </trkpt>
      <trkpt lat="45.76983" lon="4.82567">
        <ele>277</ele>
        <time>2011-06-19T09:04:50Z</time>
      </trkpt>
      <trkpt lat="45.76983" lon="4.82562">
        <ele>276</ele>
        <time>2011-06-19T09:04:51Z</time>
      </trkpt>
      <trkpt lat="45.76982" lon="4.82557">
        <ele>277</ele>
        <time>2011-06-19T09:04:52Z</time>
      </trkpt>
      <trkpt lat="45.76981" lon="4.82551">
        <ele>276</ele>
        <time>2011-06-19T09:04:53Z</time>
      </trkpt>
      <trkpt lat="45.7698" lon="4.82545">
        <ele>276</ele>
        <time>2011-06-19T09:04:54Z</time>
      </trkpt>
      <trkpt lat="45.76979" lon="4.82539">
        <ele>275</ele>
        <time>2011-06-19T09:04:55Z</time>
      </trkpt>
      <trkpt lat="45.7698" lon="4.8253">
        <ele>275</ele>
        <time>2011-06-19T09:04:58Z</time>
      </trkpt>
      <trkpt lat="45.7698" lon="4.8253">
        <ele>274.99664306641</ele>
        <time>2011-06-19T09:04:58Z</time>
      </trkpt>
      <trkpt lat="45.7698" lon="4.82525">
        <ele>274.48040771484</ele>
        <time>2011-06-19T09:04:58Z</time>
      </trkpt>
      <trkpt lat="45.7698" lon="4.82516">
        <ele>273</ele>
        <time>2011-06-19T09:04:59Z</time>
      </trkpt>
      <trkpt lat="45.76979" lon="4.82512">
        <ele>272</ele>
        <time>2011-06-19T09:05:00Z</time>
      </trkpt>
      <trkpt lat="45.76979" lon="4.82512">
        <ele>271</ele>
        <time>2011-06-19T09:05:01Z</time>
      </trkpt>
      <trkpt lat="45.76979" lon="4.8251">
        <ele>271</ele>
        <time>2011-06-19T09:05:02Z</time>
      </trkpt>
      <trkpt lat="45.76982" lon="4.82503">
        <ele>268.95712280273</ele>
        <time>2011-06-19T09:05:03Z</time>
      </trkpt>
      <trkpt lat="45.76983" lon="4.82498">
        <ele>268</ele>
        <time>2011-06-19T09:05:06Z</time>
      </trkpt>
      <trkpt lat="45.76983" lon="4.82498">
        <ele>267.99264526367</ele>
        <time>2011-06-19T09:05:06Z</time>
      </trkpt>
      <trkpt lat="45.76985" lon="4.82496">
        <ele>267.99942016602</ele>
        <time>2011-06-19T09:05:06Z</time>
      </trkpt>
    </trkseg>
  </trk>
</gpx>